ECMWFFLT2_prec_pwat_045.txt.gz
Precipitable_Water
0.22 0.24 0.28 0.27 0.27 0.30 0.33 0.35 0.37 0.37 0.39 0.41 0.47 0.51 0.57 0.62 0.66 0.69 0.73 0.77 0.82 0.86 0.89 0.91 0.93 0.96 0.99 1.02 1.04 1.08 1.11 1.14 1.17 1.18 1.19 1.20 1.21 1.23 1.25 1.25 1.27 1.30 1.33 1.36 1.39 1.45 1.50 1.46 1.31 1.26 1.22 1.17
0.20 0.22 0.26 0.25 0.25 0.26 0.28 0.30 0.33 0.33 0.35 0.36 0.38 0.46 0.50 0.53 0.58 0.63 0.66 0.70 0.73 0.78 0.80 0.83 0.86 0.90 0.94 0.97 0.99 1.03 1.03 1.06 1.11 1.12 1.14 1.15 1.17 1.19 1.20 1.21 1.22 1.26 1.30 1.31 1.33 1.38 1.43 1.47 1.39 1.28 1.26 1.23
0.18 0.20 0.23 0.23 0.23 0.24 0.25 0.26 0.30 0.29 0.30 0.31 0.32 0.38 0.44 0.48 0.50 0.55 0.60 0.65 0.66 0.71 0.73 0.76 0.79 0.82 0.87 0.90 0.93 0.95 0.97 0.99 1.04 1.07 1.07 1.09 1.11 1.14 1.16 1.16 1.17 1.20 1.25 1.28 1.30 1.32 1.37 1.42 1.41 1.34 1.30 1.23
0.18 0.18 0.21 0.20 0.21 0.22 0.24 0.23 0.25 0.25 0.27 0.27 0.28 0.31 0.37 0.43 0.45 0.48 0.53 0.59 0.61 0.62 0.66 0.68 0.71 0.75 0.79 0.83 0.85 0.89 0.91 0.94 0.96 0.98 1.00 1.02 1.04 1.07 1.09 1.11 1.11 1.15 1.19 1.22 1.24 1.26 1.30 1.35 1.34 1.35 1.34 1.28
0.17 0.17 0.19 0.18 0.19 0.20 0.22 0.21 0.22 0.21 0.22 0.24 0.25 0.27 0.29 0.35 0.41 0.43 0.47 0.52 0.56 0.57 0.59 0.61 0.64 0.67 0.71 0.75 0.78 0.81 0.84 0.88 0.91 0.93 0.94 0.95 0.99 1.00 1.04 1.06 1.07 1.09 1.12 1.16 1.19 1.21 1.24 1.29 1.28 1.30 1.30 1.29
0.15 0.16 0.16 0.16 0.17 0.18 0.20 0.20 0.21 0.20 0.21 0.21 0.23 0.25 0.26 0.28 0.34 0.40 0.42 0.45 0.50 0.52 0.53 0.54 0.58 0.60 0.63 0.67 0.70 0.74 0.75 0.80 0.84 0.88 0.90 0.91 0.93 0.94 0.97 1.00 1.03 1.05 1.07 1.09 1.13 1.16 1.18 1.22 1.26 1.24 1.26 1.28
0.14 0.14 0.15 0.15 0.15 0.16 0.17 0.17 0.19 0.18 0.19 0.20 0.20 0.23 0.24 0.25 0.27 0.33 0.38 0.40 0.43 0.47 0.49 0.49 0.51 0.54 0.57 0.60 0.62 0.66 0.67 0.71 0.75 0.80 0.83 0.86 0.89 0.90 0.92 0.95 0.97 1.00 1.03 1.04 1.07 1.12 1.15 1.17 1.19 1.17 1.22 1.25
0.13 0.13 0.14 0.14 0.14 0.14 0.15 0.15 0.16 0.17 0.18 0.18 0.19 0.20 0.22 0.24 0.24 0.27 0.31 0.36 0.38 0.40 0.43 0.46 0.47 0.49 0.51 0.53 0.56 0.59 0.60 0.63 0.66 0.70 0.73 0.78 0.82 0.86 0.89 0.91 0.92 0.95 0.98 1.00 1.02 1.06 1.09 1.12 1.14 1.15 1.17 1.19
0.13 0.13 0.14 0.13 0.13 0.13 0.14 0.14 0.15 0.15 0.16 0.16 0.17 0.18 0.19 0.21 0.23 0.25 0.25 0.29 0.33 0.36 0.38 0.41 0.44 0.44 0.46 0.48 0.51 0.55 0.55 0.57 0.59 0.62 0.64 0.68 0.74 0.78 0.83 0.86 0.89 0.90 0.92 0.94 0.97 0.99 1.03 1.06 1.09 1.12 1.14 1.14
0.14 0.14 0.13 0.13 0.13 0.13 0.13 0.13 0.13 0.14 0.14 0.15 0.15 0.16 0.17 0.19 0.20 0.23 0.23 0.25 0.26 0.31 0.34 0.36 0.38 0.41 0.43 0.44 0.46 0.50 0.52 0.53 0.55 0.57 0.59 0.61 0.65 0.70 0.75 0.80 0.85 0.87 0.88 0.89 0.92 0.94 0.97 1.00 1.04 1.07 1.10 1.10
0.15 0.14 0.14 0.14 0.14 0.14 0.12 0.13 0.13 0.13 0.13 0.14 0.14 0.15 0.16 0.17 0.17 0.20 0.22 0.23 0.24 0.25 0.29 0.33 0.35 0.37 0.40 0.41 0.42 0.45 0.47 0.49 0.52 0.53 0.55 0.57 0.58 0.62 0.67 0.72 0.78 0.83 0.85 0.86 0.88 0.90 0.92 0.95 0.99 1.02 1.05 1.07
0.14 0.14 0.14 0.14 0.14 0.13 0.13 0.14 0.13 0.13 0.12 0.13 0.13 0.14 0.14 0.15 0.16 0.17 0.19 0.21 0.22 0.23 0.24 0.28 0.32 0.34 0.36 0.38 0.39 0.41 0.42 0.44 0.47 0.50 0.51 0.53 0.54 0.54 0.58 0.63 0.68 0.75 0.80 0.83 0.86 0.87 0.88 0.90 0.93 0.98 1.01 1.04
0.13 0.13 0.13 0.13 0.13 0.13 0.15 0.14 0.14 0.13 0.13 0.13 0.13 0.13 0.13 0.13 0.14 0.16 0.17 0.19 0.21 0.22 0.22 0.24 0.27 0.31 0.33 0.35 0.37 0.38 0.38 0.40 0.42 0.45 0.47 0.49 0.50 0.51 0.51 0.54 0.59 0.65 0.71 0.77 0.81 0.84 0.86 0.88 0.89 0.92 0.97 0.99
0.12 0.13 0.12 0.13 0.13 0.13 0.14 0.14 0.15 0.15 0.14 0.14 0.13 0.12 0.12 0.13 0.13 0.14 0.16 0.17 0.19 0.20 0.21 0.22 0.23 0.26 0.29 0.32 0.35 0.36 0.36 0.37 0.38 0.40 0.43 0.44 0.46 0.47 0.48 0.48 0.51 0.56 0.61 0.67 0.74 0.79 0.82 0.84 0.86 0.89 0.92 0.95
0.12 0.13 0.12 0.13 0.13 0.13 0.13 0.13 0.14 0.14 0.15 0.14 0.14 0.13 0.13 0.13 0.13 0.14 0.14 0.15 0.16 0.18 0.20 0.21 0.22 0.23 0.25 0.28 0.30 0.33 0.34 0.35 0.35 0.36 0.38 0.40 0.42 0.44 0.45 0.45 0.47 0.49 0.52 0.57 0.64 0.70 0.75 0.80 0.83 0.85 0.89 0.92
0.13 0.13 0.13 0.13 0.13 0.13 0.13 0.13 0.13 0.13 0.14 0.15 0.15 0.14 0.14 0.14 0.13 0.13 0.14 0.14 0.15 0.16 0.18 0.19 0.21 0.22 0.22 0.23 0.26 0.28 0.30 0.32 0.33 0.33 0.34 0.36 0.38 0.40 0.42 0.42 0.44 0.45 0.46 0.49 0.53 0.60 0.66 0.74 0.78 0.80 0.84 0.88
0.13 0.13 0.13 0.13 0.13 0.13 0.13 0.13 0.13 0.13 0.14 0.14 0.15 0.15 0.15 0.15 0.14 0.14 0.13 0.13 0.14 0.15 0.16 0.18 0.20 0.21 0.21 0.22 0.22 0.24 0.26 0.28 0.30 0.31 0.32 0.32 0.34 0.35 0.38 0.39 0.40 0.42 0.43 0.44 0.47 0.50 0.56 0.63 0.69 0.76 0.79 0.82
0.13 0.13 0.13 0.13 0.13 0.13 0.14 0.14 0.13 0.14 0.14 0.14 0.15 0.15 0.15 0.16 0.16 0.17 0.15 0.13 0.13 0.14 0.15 0.17 0.18 0.19 0.20 0.21 0.21 0.21 0.22 0.24 0.26 0.28 0.30 0.30 0.31 0.32 0.33 0.35 0.37 0.38 0.39 0.41 0.43 0.45 0.49 0.54 0.60 0.67 0.73 0.77
0.13 0.13 0.13 0.12 0.13 0.13 0.13 0.13 0.13 0.13 0.14 0.14 0.14 0.15 0.15 0.16 0.16 0.16 0.15 0.14 0.12 0.12 0.14 0.14 0.15 0.17 0.18 0.19 0.20 0.20 0.20 0.21 0.22 0.24 0.27 0.29 0.29 0.30 0.31 0.32 0.34 0.36 0.37 0.38 0.39 0.41 0.44 0.47 0.51 0.58 0.64 0.71
0.12 0.12 0.12 0.12 0.13 0.13 0.13 0.13 0.13 0.13 0.14 0.14 0.15 0.15 0.15 0.16 0.16 0.16 0.15 0.15 0.14 0.12 0.12 0.12 0.13 0.15 0.16 0.18 0.19 0.19 0.20 0.20 0.20 0.21 0.23 0.26 0.28 0.28 0.29 0.30 0.31 0.32 0.34 0.36 0.37 0.38 0.40 0.41 0.44 0.49 0.55 0.62
0.13 0.13 0.12 0.12 0.12 0.13 0.13 0.12 0.13 0.13 0.14 0.14 0.14 0.15 0.15 0.15 0.16 0.16 0.16 0.15 0.15 0.13 0.13 0.12 0.12 0.13 0.15 0.16 0.17 0.18 0.19 0.19 0.19 0.20 0.21 0.22 0.25 0.27 0.27 0.28 0.29 0.30 0.31 0.32 0.34 0.36 0.37 0.38 0.39 0.42 0.47 0.53
0.13 0.12 0.12 0.12 0.12 0.12 0.12 0.12 0.13 0.13 0.13 0.13 0.14 0.14 0.14 0.16 0.15 0.15 0.15 0.16 0.15 0.14 0.14 0.13 0.12 0.12 0.13 0.14 0.16 0.16 0.17 0.18 0.19 0.19 0.20 0.20 0.22 0.24 0.26 0.27 0.28 0.28 0.29 0.31 0.31 0.32 0.33 0.35 0.37 0.38 0.40 0.45
0.13 0.12 0.12 0.12 0.11 0.12 0.12 0.12 0.12 0.13 0.13 0.13 0.13 0.13 0.15 0.15 0.15 0.15 0.15 0.16 0.15 0.15 0.14 0.14 0.13 0.12 0.12 0.13 0.14 0.15 0.16 0.17 0.18 0.18 0.18 0.19 0.20 0.21 0.23 0.25 0.27 0.28 0.29 0.29 0.30 0.30 0.30 0.32 0.34 0.35 0.36 0.39
0.12 0.12 0.11 0.11 0.11 0.11 0.11 0.12 0.12 0.12 0.12 0.12 0.12 0.13 0.14 0.14 0.14 0.14 0.15 0.15 0.15 0.15 0.14 0.14 0.14 0.13 0.12 0.12 0.12 0.13 0.14 0.15 0.16 0.17 0.17 0.17 0.18 0.19 0.20 0.22 0.24 0.26 0.27 0.28 0.28 0.28 0.29 0.29 0.30 0.32 0.34 0.35
0.12 0.11 0.10 0.10 0.10 0.10 0.11 0.11 0.12 0.12 0.12 0.12 0.13 0.13 0.13 0.13 0.13 0.13 0.14 0.14 0.15 0.15 0.14 0.14 0.14 0.14 0.13 0.13 0.12 0.12 0.13 0.14 0.15 0.16 0.17 0.17 0.17 0.17 0.18 0.19 0.21 0.23 0.25 0.25 0.26 0.27 0.27 0.28 0.29 0.29 0.32 0.34
0.12 0.11 0.10 0.10 0.10 0.10 0.10 0.10 0.11 0.11 0.12 0.13 0.13 0.13 0.13 0.13 0.13 0.13 0.13 0.14 0.14 0.15 0.14 0.14 0.14 0.14 0.14 0.13 0.13 0.12 0.12 0.13 0.14 0.14 0.15 0.16 0.16 0.16 0.17 0.17 0.19 0.20 0.21 0.22 0.23 0.24 0.25 0.26 0.27 0.29 0.31 0.33
0.11 0.11 0.11 0.11 0.11 0.10 0.10 0.11 0.11 0.11 0.12 0.13 0.13 0.13 0.13 0.13 0.13 0.13 0.13 0.13 0.14 0.14 0.14 0.14 0.14 0.13 0.14 0.13 0.13 0.12 0.12 0.11 0.12 0.13 0.14 0.15 0.14 0.14 0.15 0.16 0.18 0.18 0.20 0.19 0.21 0.23 0.23 0.23 0.24 0.27 0.28 0.32
0.12 0.11 0.12 0.12 0.11 0.11 0.10 0.10 0.11 0.11 0.12 0.12 0.12 0.12 0.12 0.12 0.12 0.12 0.12 0.13 0.13 0.14 0.14 0.13 0.13 0.13 0.13 0.13 0.13 0.13 0.12 0.11 0.11 0.11 0.12 0.13 0.13 0.14 0.13 0.14 0.15 0.18 0.19 0.19 0.19 0.18 0.21 0.23 0.23 0.22 0.24 0.26
0.11 0.12 0.12 0.11 0.11 0.11 0.10 0.10 0.10 0.11 0.11 0.11 0.11 0.12 0.11 0.11 0.12 0.12 0.12 0.13 0.13 0.13 0.13 0.13 0.13 0.13 0.13 0.13 0.13 0.12 0.12 0.12 0.11 0.11 0.11 0.12 0.13 0.13 0.14 0.14 0.15 0.16 0.17 0.17 0.19 0.19 0.18 0.19 0.20 0.21 0.24 0.26
0.12 0.12 0.11 0.10 0.10 0.09 0.09 0.09 0.09 0.09 0.10 0.10 0.10 0.11 0.11 0.12 0.12 0.12 0.12 0.12 0.13 0.13 0.13 0.13 0.13 0.13 0.13 0.12 0.12 0.12 0.12 0.12 0.12 0.11 0.11 0.12 0.13 0.13 0.15 0.15 0.15 0.15 0.16 0.16 0.16 0.18 0.20 0.21 0.21 0.22 0.24 0.24
0.13 0.12 0.11 0.11 0.10 0.10 0.10 0.09 0.10 0.10 0.10 0.11 0.11 0.11 0.11 0.11 0.11 0.12 0.12 0.12 0.13 0.13 0.13 0.13 0.13 0.13 0.12 0.12 0.12 0.12 0.12 0.12 0.12 0.12 0.12 0.12 0.11 0.11 0.12 0.13 0.13 0.14 0.14 0.16 0.17 0.17 0.17 0.18 0.20 0.22 0.22 0.21

ECMWFFLT2_prec_pwat_048.txt.gz
Precipitable_Water
0.15 0.17 0.20 0.22 0.21 0.22 0.23 0.23 0.25 0.24 0.24 0.23 0.22 0.22 0.23 0.24 0.26 0.28 0.32 0.47 0.57 0.64 0.66 0.67 0.75 0.80 0.84 0.87 0.91 0.94 0.96 0.99 1.02 1.05 1.07 1.08 1.11 1.12 1.15 1.18 1.22 1.22 1.22 1.27 1.32 1.36 1.42 1.43 1.43 1.36 1.35 1.28
0.14 0.15 0.17 0.19 0.19 0.20 0.20 0.21 0.22 0.22 0.21 0.21 0.20 0.21 0.20 0.21 0.21 0.23 0.25 0.32 0.45 0.54 0.59 0.62 0.66 0.72 0.78 0.82 0.84 0.88 0.91 0.94 0.98 1.00 1.03 1.04 1.06 1.07 1.09 1.12 1.15 1.18 1.20 1.19 1.25 1.31 1.35 1.36 1.37 1.39 1.35 1.31
0.12 0.14 0.16 0.16 0.16 0.16 0.17 0.19 0.19 0.19 0.18 0.18 0.17 0.19 0.18 0.18 0.18 0.19 0.20 0.24 0.29 0.44 0.50 0.53 0.60 0.64 0.72 0.77 0.80 0.82 0.85 0.88 0.91 0.96 0.98 1.00 1.03 1.04 1.04 1.06 1.07 1.10 1.15 1.17 1.19 1.23 1.28 1.31 1.32 1.34 1.35 1.32
0.12 0.12 0.14 0.14 0.14 0.14 0.14 0.15 0.16 0.16 0.15 0.15 0.15 0.16 0.16 0.16 0.15 0.17 0.17 0.20 0.21 0.31 0.40 0.44 0.50 0.58 0.64 0.70 0.74 0.77 0.79 0.81 0.84 0.89 0.93 0.95 0.97 1.00 1.00 1.00 1.00 1.03 1.07 1.11 1.14 1.17 1.22 1.24 1.25 1.28 1.32 1.32
0.13 0.13 0.14 0.13 0.13 0.13 0.13 0.13 0.14 0.13 0.13 0.13 0.13 0.14 0.14 0.14 0.14 0.14 0.15 0.16 0.19 0.22 0.30 0.38 0.44 0.48 0.56 0.62 0.67 0.71 0.72 0.75 0.77 0.83 0.86 0.89 0.91 0.94 0.96 0.97 0.95 0.97 1.00 1.04 1.09 1.11 1.16 1.19 1.21 1.22 1.26 1.28
0.15 0.15 0.14 0.14 0.14 0.13 0.13 0.13 0.13 0.12 0.12 0.12 0.12 0.12 0.13 0.13 0.13 0.14 0.13 0.14 0.17 0.19 0.22 0.30 0.38 0.42 0.48 0.53 0.59 0.65 0.66 0.69 0.72 0.76 0.79 0.82 0.85 0.87 0.91 0.93 0.94 0.94 0.96 0.98 1.03 1.05 1.08 1.12 1.15 1.17 1.20 1.22
0.15 0.15 0.15 0.15 0.14 0.14 0.14 0.13 0.13 0.12 0.12 0.12 0.11 0.11 0.12 0.13 0.13 0.13 0.13 0.13 0.15 0.16 0.18 0.24 0.31 0.36 0.41 0.46 0.50 0.57 0.59 0.63 0.66 0.69 0.72 0.75 0.78 0.80 0.84 0.88 0.91 0.93 0.93 0.94 0.96 1.00 1.02 1.05 1.10 1.13 1.15 1.17
0.15 0.15 0.15 0.15 0.14 0.14 0.14 0.14 0.13 0.13 0.13 0.12 0.12 0.11 0.11 0.12 0.13 0.13 0.13 0.13 0.13 0.14 0.15 0.18 0.26 0.30 0.34 0.38 0.44 0.50 0.52 0.57 0.61 0.63 0.65 0.68 0.71 0.73 0.77 0.81 0.84 0.87 0.90 0.92 0.94 0.96 0.98 1.00 1.04 1.08 1.11 1.13
0.14 0.15 0.14 0.14 0.14 0.14 0.14 0.14 0.14 0.14 0.13 0.13 0.12 0.12 0.12 0.12 0.12 0.12 0.13 0.13 0.12 0.12 0.13 0.14 0.19 0.25 0.29 0.33 0.37 0.44 0.46 0.50 0.54 0.58 0.60 0.62 0.65 0.68 0.70 0.73 0.76 0.80 0.82 0.87 0.90 0.93 0.95 0.96 0.99 1.03 1.06 1.08
0.14 0.14 0.13 0.13 0.14 0.14 0.14 0.14 0.13 0.13 0.13 0.13 0.13 0.13 0.12 0.13 0.12 0.12 0.12 0.12 0.12 0.12 0.12 0.12 0.14 0.20 0.25 0.28 0.32 0.37 0.40 0.44 0.48 0.52 0.55 0.57 0.59 0.62 0.65 0.67 0.69 0.73 0.75 0.79 0.85 0.89 0.92 0.94 0.95 0.97 1.00 1.03
0.13 0.13 0.13 0.14 0.14 0.13 0.14 0.13 0.13 0.13 0.13 0.13 0.13 0.13 0.13 0.12 0.12 0.12 0.12 0.11 0.12 0.12 0.12 0.11 0.13 0.15 0.20 0.25 0.28 0.32 0.35 0.39 0.42 0.46 0.50 0.52 0.54 0.56 0.60 0.62 0.64 0.66 0.69 0.72 0.77 0.83 0.88 0.91 0.94 0.95 0.95 0.98
0.13 0.13 0.13 0.14 0.13 0.13 0.15 0.13 0.12 0.12 0.12 0.12 0.12 0.13 0.13 0.13 0.13 0.12 0.12 0.12 0.11 0.12 0.12 0.11 0.12 0.13 0.15 0.21 0.25 0.28 0.31 0.34 0.37 0.41 0.44 0.47 0.50 0.52 0.54 0.57 0.60 0.62 0.62 0.65 0.69 0.74 0.80 0.86 0.90 0.93 0.94 0.95
0.13 0.14 0.13 0.13 0.13 0.13 0.14 0.12 0.12 0.12 0.12 0.12 0.12 0.13 0.13 0.13 0.13 0.13 0.13 0.13 0.12 0.12 0.11 0.11 0.12 0.12 0.13 0.15 0.20 0.25 0.27 0.30 0.33 0.35 0.39 0.42 0.45 0.47 0.50 0.52 0.55 0.58 0.59 0.60 0.63 0.67 0.71 0.77 0.84 0.89 0.92 0.93
0.14 0.14 0.13 0.13 0.13 0.13 0.14 0.13 0.13 0.13 0.12 0.13 0.13 0.13 0.13 0.13 0.13 0.13 0.13 0.14 0.14 0.13 0.12 0.12 0.12 0.11 0.12 0.13 0.15 0.20 0.24 0.27 0.29 0.32 0.34 0.38 0.41 0.42 0.45 0.48 0.51 0.54 0.55 0.56 0.57 0.61 0.64 0.69 0.76 0.83 0.88 0.90
0.14 0.14 0.14 0.14 0.13 0.13 0.13 0.13 0.13 0.13 0.13 0.13 0.13 0.13 0.13 0.13 0.14 0.15 0.15 0.15 0.14 0.14 0.14 0.13 0.12 0.12 0.11 0.11 0.13 0.15 0.20 0.24 0.26 0.29 0.31 0.33 0.36 0.39 0.41 0.44 0.47 0.49 0.51 0.53 0.54 0.56 0.58 0.61 0.68 0.74 0.81 0.86
0.14 0.14 0.14 0.14 0.13 0.13 0.14 0.14 0.13 0.13 0.13 0.13 0.13 0.13 0.13 0.13 0.14 0.14 0.14 0.14 0.14 0.15 0.14 0.14 0.13 0.12 0.11 0.10 0.11 0.13 0.16 0.20 0.24 0.26 0.29 0.30 0.33 0.35 0.37 0.39 0.42 0.45 0.47 0.50 0.52 0.53 0.54 0.57 0.60 0.66 0.72 0.78
0.15 0.14 0.14 0.14 0.14 0.14 0.14 0.13 0.13 0.12 0.12 0.12 0.13 0.13 0.13 0.13 0.14 0.14 0.14 0.14 0.14 0.14 0.14 0.14 0.14 0.13 0.12 0.11 0.10 0.11 0.13 0.17 0.20 0.23 0.26 0.28 0.30 0.32 0.34 0.36 0.38 0.41 0.43 0.46 0.49 0.51 0.52 0.54 0.55 0.58 0.63 0.69
0.15 0.15 0.14 0.15 0.14 0.14 0.14 0.13 0.13 0.12 0.12 0.12 0.12 0.13 0.13 0.13 0.14 0.14 0.14 0.14 0.14 0.14 0.14 0.13 0.13 0.13 0.13 0.12 0.11 0.11 0.12 0.13 0.17 0.20 0.23 0.25 0.27 0.29 0.30 0.32 0.34 0.36 0.38 0.41 0.45 0.48 0.50 0.51 0.52 0.54 0.56 0.61
0.15 0.15 0.14 0.14 0.14 0.14 0.14 0.14 0.13 0.12 0.12 0.12 0.12 0.13 0.13 0.13 0.14 0.14 0.14 0.14 0.14 0.14 0.14 0.13 0.13 0.13 0.13 0.13 0.12 0.11 0.11 0.12 0.14 0.17 0.20 0.23 0.25 0.26 0.28 0.30 0.32 0.34 0.35 0.37 0.39 0.44 0.48 0.49 0.50 0.51 0.53 0.54
0.16 0.15 0.14 0.14 0.14 0.14 0.14 0.13 0.13 0.12 0.12 0.12 0.12 0.12 0.12 0.13 0.14 0.14 0.14 0.14 0.14 0.13 0.14 0.13 0.13 0.13 0.13 0.14 0.13 0.12 0.11 0.11 0.12 0.14 0.18 0.20 0.22 0.24 0.25 0.27 0.28 0.31 0.33 0.34 0.36 0.39 0.43 0.47 0.48 0.49 0.50 0.51
0.16 0.16 0.15 0.14 0.14 0.13 0.13 0.13 0.12 0.12 0.12 0.12 0.12 0.12 0.11 0.13 0.14 0.14 0.13 0.14 0.14 0.14 0.14 0.14 0.13 0.13 0.13 0.14 0.13 0.13 0.12 0.11 0.12 0.12 0.15 0.17 0.20 0.22 0.24 0.25 0.26 0.28 0.30 0.32 0.33 0.35 0.37 0.41 0.45 0.47 0.49 0.49
0.17 0.16 0.15 0.14 0.14 0.14 0.13 0.13 0.13 0.12 0.12 0.12 0.12 0.11 0.12 0.13 0.12 0.13 0.13 0.13 0.13 0.13 0.14 0.14 0.13 0.13 0.14 0.14 0.13 0.13 0.13 0.12 0.12 0.12 0.12 0.14 0.17 0.20 0.21 0.23 0.24 0.25 0.26 0.29 0.31 0.32 0.33 0.35 0.40 0.44 0.46 0.47
0.18 0.17 0.16 0.15 0.14 0.13 0.13 0.13 0.13 0.12 0.12 0.12 0.12 0.12 0.13 0.12 0.12 0.12 0.12 0.13 0.13 0.13 0.13 0.13 0.13 0.13 0.14 0.14 0.13 0.13 0.13 0.12 0.12 0.12 0.12 0.12 0.14 0.17 0.19 0.21 0.23 0.24 0.25 0.25 0.28 0.29 0.30 0.32 0.34 0.38 0.41 0.44
0.17 0.17 0.16 0.15 0.14 0.13 0.12 0.12 0.12 0.12 0.12 0.12 0.12 0.13 0.12 0.12 0.12 0.12 0.12 0.12 0.12 0.12 0.13 0.13 0.13 0.13 0.13 0.13 0.13 0.13 0.13 0.12 0.12 0.12 0.11 0.11 0.12 0.13 0.15 0.18 0.20 0.22 0.22 0.24 0.24 0.26 0.28 0.29 0.30 0.32 0.35 0.39
0.17 0.17 0.16 0.15 0.14 0.13 0.12 0.12 0.12 0.12 0.12 0.12 0.13 0.13 0.12 0.12 0.12 0.12 0.12 0.12 0.12 0.12 0.12 0.13 0.13 0.13 0.13 0.13 0.13 0.13 0.13 0.13 0.13 0.13 0.12 0.11 0.11 0.10 0.11 0.14 0.17 0.19 0.21 0.21 0.21 0.23 0.24 0.25 0.27 0.29 0.32 0.36
0.18 0.18 0.17 0.16 0.14 0.14 0.13 0.12 0.11 0.11 0.11 0.12 0.13 0.13 0.12 0.12 0.12 0.12 0.12 0.12 0.12 0.12 0.12 0.12 0.12 0.12 0.12 0.13 0.13 0.13 0.13 0.13 0.12 0.12 0.11 0.11 0.10 0.10 0.10 0.11 0.14 0.16 0.19 0.18 0.19 0.20 0.20 0.22 0.24 0.28 0.32 0.36
0.18 0.18 0.18 0.17 0.16 0.15 0.13 0.13 0.12 0.12 0.12 0.12 0.13 0.12 0.12 0.12 0.12 0.12 0.11 0.11 0.12 0.12 0.12 0.12 0.12 0.12 0.12 0.13 0.13 0.12 0.12 0.12 0.11 0.11 0.11 0.11 0.11 0.10 0.11 0.11 0.13 0.15 0.18 0.17 0.18 0.19 0.19 0.19 0.20 0.23 0.25 0.29
0.19 0.19 0.18 0.18 0.18 0.16 0.14 0.13 0.13 0.13 0.12 0.12 0.12 0.12 0.12 0.12 0.11 0.11 0.11 0.11 0.11 0.12 0.12 0.12 0.12 0.12 0.12 0.12 0.12 0.12 0.11 0.11 0.11 0.11 0.11 0.11 0.12 0.11 0.10 0.11 0.11 0.14 0.15 0.16 0.16 0.15 0.17 0.18 0.19 0.18 0.20 0.23
0.20 0.19 0.18 0.18 0.18 0.17 0.15 0.14 0.13 0.12 0.11 0.12 0.12 0.12 0.12 0.11 0.12 0.11 0.11 0.11 0.11 0.12 0.12 0.12 0.12 0.12 0.12 0.12 0.12 0.12 0.11 0.11 0.11 0.11 0.11 0.11 0.11 0.11 0.10 0.10 0.10 0.11 0.13 0.14 0.16 0.16 0.16 0.15 0.16 0.17 0.21 0.21
0.20 0.19 0.18 0.18 0.17 0.16 0.14 0.13 0.12 0.11 0.11 0.11 0.11 0.11 0.12 0.12 0.12 0.11 0.11 0.11 0.11 0.12 0.12 0.12 0.12 0.12 0.11 0.11 0.11 0.11 0.11 0.12 0.12 0.11 0.12 0.12 0.12 0.11 0.11 0.10 0.10 0.10 0.11 0.13 0.15 0.17 0.18 0.18 0.17 0.18 0.19 0.19
0.21 0.20 0.19 0.18 0.17 0.17 0.15 0.14 0.13 0.13 0.12 0.12 0.12 0.12 0.12 0.12 0.12 0.12 0.11 0.11 0.12 0.12 0.12 0.12 0.12 0.12 0.11 0.11 0.11 0.12 0.12 0.12 0.12 0.12 0.12 0.12 0.12 0.12 0.11 0.11 0.10 0.10 0.10 0.12 0.13 0.14 0.16 0.18 0.19 0.20 0.19 0.16

ECMWFFLT2_prec_pwat_054.txt.gz
Precipitable_Water
0.15 0.16 0.18 0.21 0.22 0.21 0.22 0.23 0.24 0.25 0.25 0.23 0.22 0.20 0.20 0.19 0.18 0.16 0.16 0.17 0.18 0.19 0.19 0.17 0.18 0.19 0.21 0.22 0.25 0.25 0.26 0.25 0.24 0.24 0.31 0.45 0.55 0.62 0.67 0.70 0.72 0.74 0.74 0.76 0.82 0.87 0.96 1.02 1.04 1.07 1.08 1.11
0.15 0.15 0.17 0.20 0.19 0.19 0.20 0.21 0.22 0.23 0.23 0.21 0.20 0.18 0.18 0.18 0.17 0.16 0.15 0.15 0.16 0.18 0.17 0.16 0.16 0.17 0.20 0.21 0.22 0.24 0.25 0.22 0.21 0.23 0.23 0.29 0.44 0.54 0.59 0.66 0.71 0.71 0.70 0.70 0.77 0.82 0.89 0.96 1.01 1.03 1.05 1.06
0.16 0.16 0.17 0.18 0.17 0.18 0.19 0.20 0.20 0.21 0.20 0.19 0.18 0.17 0.17 0.17 0.16 0.16 0.16 0.15 0.15 0.17 0.16 0.15 0.15 0.16 0.18 0.20 0.21 0.22 0.23 0.21 0.20 0.22 0.23 0.23 0.25 0.36 0.51 0.60 0.65 0.68 0.69 0.70 0.71 0.79 0.82 0.90 0.96 1.00 1.02 1.03
0.16 0.16 0.16 0.16 0.16 0.17 0.18 0.18 0.19 0.19 0.18 0.17 0.17 0.16 0.16 0.15 0.16 0.16 0.16 0.16 0.15 0.16 0.16 0.15 0.15 0.15 0.17 0.19 0.20 0.19 0.22 0.18 0.18 0.21 0.22 0.21 0.22 0.24 0.27 0.41 0.57 0.64 0.68 0.69 0.69 0.71 0.80 0.83 0.89 0.95 0.99 1.00
0.17 0.16 0.15 0.16 0.16 0.17 0.18 0.18 0.18 0.18 0.17 0.17 0.16 0.16 0.16 0.15 0.16 0.16 0.15 0.16 0.15 0.16 0.17 0.15 0.14 0.15 0.15 0.17 0.18 0.17 0.19 0.16 0.16 0.19 0.20 0.19 0.21 0.20 0.20 0.21 0.40 0.57 0.64 0.67 0.69 0.69 0.68 0.74 0.80 0.88 0.94 0.98
0.18 0.17 0.16 0.15 0.16 0.17 0.17 0.18 0.18 0.18 0.18 0.17 0.16 0.16 0.15 0.15 0.15 0.15 0.15 0.16 0.16 0.15 0.15 0.15 0.14 0.14 0.15 0.16 0.16 0.15 0.15 0.15 0.14 0.16 0.16 0.16 0.17 0.15 0.16 0.16 0.22 0.44 0.56 0.62 0.66 0.69 0.70 0.69 0.70 0.79 0.88 0.94
0.20 0.18 0.16 0.15 0.17 0.18 0.19 0.19 0.19 0.18 0.18 0.17 0.16 0.16 0.15 0.15 0.15 0.16 0.15 0.15 0.16 0.15 0.15 0.16 0.15 0.14 0.15 0.15 0.14 0.14 0.14 0.14 0.13 0.14 0.13 0.13 0.14 0.12 0.13 0.14 0.15 0.26 0.45 0.56 0.62 0.66 0.68 0.70 0.68 0.68 0.79 0.88
0.20 0.20 0.17 0.17 0.16 0.18 0.18 0.19 0.19 0.19 0.19 0.18 0.17 0.16 0.15 0.15 0.16 0.16 0.15 0.15 0.15 0.16 0.16 0.15 0.15 0.15 0.15 0.16 0.16 0.15 0.13 0.14 0.14 0.13 0.13 0.13 0.13 0.12 0.12 0.13 0.13 0.16 0.30 0.46 0.55 0.61 0.65 0.67 0.68 0.66 0.70 0.81
0.22 0.21 0.19 0.18 0.18 0.18 0.18 0.20 0.19 0.19 0.19 0.18 0.18 0.17 0.16 0.16 0.17 0.17 0.16 0.15 0.15 0.15 0.15 0.16 0.16 0.16 0.15 0.15 0.15 0.15 0.14 0.13 0.13 0.14 0.13 0.13 0.12 0.12 0.12 0.12 0.12 0.13 0.19 0.34 0.46 0.54 0.60 0.64 0.67 0.68 0.67 0.73
0.23 0.23 0.21 0.20 0.19 0.19 0.18 0.20 0.20 0.19 0.19 0.18 0.18 0.18 0.18 0.17 0.17 0.16 0.16 0.16 0.16 0.15 0.16 0.16 0.16 0.16 0.16 0.16 0.15 0.15 0.14 0.14 0.13 0.13 0.13 0.13 0.12 0.12 0.12 0.12 0.12 0.13 0.15 0.25 0.37 0.46 0.54 0.59 0.63 0.66 0.67 0.68
0.25 0.23 0.22 0.21 0.21 0.19 0.18 0.20 0.20 0.19 0.19 0.19 0.19 0.19 0.18 0.17 0.16 0.16 0.16 0.16 0.16 0.16 0.16 0.16 0.16 0.16 0.16 0.16 0.15 0.15 0.14 0.14 0.13 0.13 0.13 0.13 0.12 0.12 0.11 0.12 0.12 0.12 0.13 0.18 0.28 0.38 0.47 0.55 0.59 0.63 0.66 0.67
0.25 0.24 0.23 0.22 0.22 0.21 0.19 0.20 0.19 0.19 0.20 0.20 0.19 0.19 0.18 0.18 0.16 0.16 0.16 0.16 0.15 0.16 0.16 0.16 0.17 0.17 0.16 0.16 0.15 0.15 0.15 0.14 0.14 0.13 0.13 0.13 0.13 0.12 0.12 0.11 0.11 0.12 0.12 0.14 0.23 0.30 0.40 0.49 0.55 0.59 0.63 0.66
0.25 0.23 0.23 0.22 0.22 0.21 0.20 0.20 0.19 0.20 0.20 0.20 0.20 0.19 0.19 0.18 0.16 0.16 0.17 0.16 0.15 0.16 0.16 0.17 0.17 0.17 0.16 0.17 0.16 0.15 0.15 0.14 0.14 0.13 0.13 0.13 0.13 0.12 0.12 0.12 0.11 0.11 0.12 0.12 0.18 0.25 0.33 0.42 0.50 0.55 0.59 0.63
0.24 0.23 0.22 0.23 0.22 0.21 0.21 0.20 0.20 0.20 0.20 0.20 0.20 0.19 0.19 0.19 0.17 0.16 0.16 0.16 0.16 0.15 0.16 0.17 0.17 0.17 0.17 0.16 0.16 0.15 0.15 0.15 0.14 0.14 0.13 0.13 0.13 0.13 0.12 0.12 0.11 0.11 0.11 0.11 0.14 0.21 0.28 0.37 0.44 0.52 0.55 0.59
0.24 0.23 0.22 0.22 0.22 0.22 0.21 0.21 0.20 0.20 0.19 0.19 0.20 0.20 0.20 0.19 0.18 0.17 0.17 0.17 0.16 0.16 0.16 0.16 0.17 0.17 0.16 0.16 0.16 0.16 0.15 0.15 0.15 0.14 0.13 0.13 0.13 0.13 0.12 0.12 0.12 0.11 0.11 0.11 0.12 0.18 0.23 0.30 0.39 0.46 0.52 0.55
0.24 0.23 0.22 0.22 0.23 0.22 0.22 0.21 0.20 0.20 0.19 0.19 0.20 0.20 0.20 0.20 0.18 0.17 0.17 0.18 0.17 0.16 0.16 0.16 0.16 0.16 0.16 0.16 0.16 0.16 0.16 0.15 0.15 0.15 0.14 0.14 0.14 0.14 0.13 0.12 0.12 0.12 0.11 0.11 0.11 0.15 0.19 0.25 0.33 0.42 0.47 0.51
0.24 0.24 0.24 0.23 0.23 0.23 0.23 0.21 0.20 0.19 0.19 0.19 0.20 0.20 0.21 0.20 0.19 0.17 0.16 0.17 0.17 0.16 0.16 0.16 0.16 0.15 0.15 0.15 0.16 0.16 0.16 0.16 0.15 0.15 0.14 0.14 0.14 0.14 0.13 0.13 0.12 0.12 0.12 0.11 0.11 0.14 0.17 0.20 0.27 0.37 0.43 0.47
0.24 0.24 0.25 0.25 0.24 0.24 0.23 0.22 0.20 0.20 0.20 0.20 0.20 0.20 0.20 0.20 0.19 0.18 0.17 0.17 0.17 0.17 0.16 0.15 0.16 0.15 0.15 0.15 0.16 0.16 0.16 0.15 0.15 0.14 0.14 0.14 0.14 0.13 0.13 0.13 0.12 0.12 0.11 0.11 0.11 0.12 0.15 0.17 0.23 0.31 0.38 0.43
0.24 0.25 0.26 0.25 0.25 0.24 0.24 0.22 0.21 0.20 0.20 0.19 0.19 0.19 0.19 0.19 0.19 0.18 0.17 0.17 0.17 0.16 0.16 0.15 0.15 0.15 0.15 0.16 0.16 0.16 0.15 0.15 0.15 0.14 0.14 0.14 0.13 0.13 0.13 0.13 0.13 0.12 0.11 0.11 0.10 0.10 0.13 0.15 0.19 0.26 0.34 0.39
0.26 0.26 0.26 0.26 0.25 0.24 0.25 0.23 0.21 0.20 0.19 0.19 0.19 0.19 0.19 0.19 0.19 0.18 0.18 0.18 0.18 0.17 0.16 0.15 0.15 0.15 0.15 0.16 0.16 0.15 0.16 0.15 0.15 0.14 0.14 0.14 0.14 0.13 0.13 0.13 0.12 0.13 0.11 0.11 0.10 0.10 0.11 0.14 0.17 0.21 0.29 0.35
0.26 0.26 0.25 0.25 0.25 0.25 0.25 0.23 0.22 0.21 0.20 0.19 0.18 0.18 0.18 0.19 0.19 0.19 0.19 0.19 0.17 0.16 0.16 0.15 0.15 0.15 0.16 0.16 0.15 0.15 0.15 0.15 0.15 0.14 0.14 0.14 0.14 0.14 0.13 0.13 0.12 0.12 0.12 0.11 0.10 0.10 0.10 0.12 0.15 0.19 0.26 0.32
0.26 0.26 0.26 0.26 0.25 0.25 0.24 0.23 0.22 0.21 0.19 0.18 0.18 0.18 0.18 0.19 0.19 0.19 0.19 0.18 0.17 0.16 0.16 0.15 0.15 0.16 0.16 0.15 0.15 0.15 0.15 0.14 0.14 0.14 0.14 0.13 0.13 0.13 0.13 0.12 0.12 0.12 0.11 0.11 0.10 0.10 0.11 0.11 0.14 0.17 0.23 0.29
0.27 0.27 0.26 0.26 0.25 0.25 0.24 0.23 0.22 0.21 0.19 0.19 0.18 0.18 0.19 0.19 0.19 0.19 0.20 0.19 0.18 0.17 0.16 0.15 0.15 0.15 0.15 0.15 0.15 0.14 0.14 0.14 0.14 0.14 0.14 0.13 0.13 0.13 0.13 0.13 0.13 0.12 0.11 0.11 0.11 0.11 0.12 0.12 0.13 0.16 0.21 0.27
0.28 0.27 0.26 0.25 0.24 0.24 0.24 0.23 0.22 0.22 0.20 0.19 0.18 0.19 0.19 0.19 0.19 0.19 0.20 0.19 0.18 0.17 0.16 0.15 0.15 0.15 0.16 0.15 0.15 0.14 0.14 0.14 0.14 0.13 0.13 0.13 0.13 0.12 0.13 0.13 0.13 0.13 0.12 0.12 0.12 0.11 0.12 0.12 0.13 0.15 0.19 0.24
0.28 0.26 0.25 0.25 0.24 0.23 0.23 0.22 0.22 0.21 0.20 0.20 0.19 0.19 0.19 0.19 0.19 0.20 0.20 0.20 0.19 0.17 0.17 0.16 0.15 0.15 0.15 0.15 0.15 0.14 0.14 0.14 0.14 0.14 0.13 0.13 0.12 0.12 0.12 0.12 0.12 0.13 0.13 0.11 0.10 0.11 0.10 0.11 0.12 0.15 0.19 0.24
0.28 0.27 0.26 0.24 0.24 0.23 0.23 0.22 0.22 0.22 0.22 0.20 0.20 0.20 0.20 0.19 0.20 0.20 0.20 0.20 0.19 0.18 0.17 0.16 0.15 0.15 0.15 0.15 0.15 0.14 0.14 0.15 0.14 0.14 0.13 0.12 0.12 0.12 0.12 0.11 0.12 0.13 0.12 0.10 0.10 0.09 0.09 0.10 0.12 0.14 0.20 0.25
0.28 0.27 0.27 0.26 0.25 0.24 0.24 0.24 0.23 0.23 0.23 0.21 0.20 0.20 0.20 0.20 0.20 0.20 0.20 0.20 0.20 0.19 0.17 0.16 0.15 0.15 0.15 0.15 0.15 0.15 0.14 0.14 0.13 0.13 0.13 0.12 0.11 0.11 0.12 0.12 0.13 0.13 0.12 0.10 0.11 0.12 0.10 0.08 0.09 0.12 0.14 0.19
0.28 0.27 0.27 0.27 0.26 0.26 0.25 0.24 0.25 0.24 0.24 0.23 0.21 0.21 0.21 0.21 0.20 0.20 0.20 0.20 0.20 0.19 0.18 0.17 0.16 0.15 0.15 0.15 0.15 0.15 0.14 0.13 0.13 0.13 0.13 0.13 0.13 0.12 0.11 0.11 0.12 0.13 0.13 0.12 0.12 0.09 0.09 0.09 0.09 0.08 0.11 0.14
0.28 0.27 0.27 0.27 0.27 0.27 0.26 0.26 0.26 0.25 0.24 0.23 0.22 0.21 0.21 0.21 0.21 0.21 0.21 0.20 0.20 0.19 0.18 0.17 0.16 0.15 0.15 0.15 0.16 0.15 0.14 0.13 0.13 0.13 0.13 0.13 0.13 0.12 0.11 0.11 0.12 0.12 0.13 0.12 0.14 0.11 0.09 0.09 0.09 0.09 0.12 0.13
0.27 0.26 0.26 0.26 0.25 0.25 0.25 0.25 0.25 0.24 0.24 0.24 0.22 0.22 0.22 0.21 0.21 0.21 0.21 0.21 0.20 0.20 0.19 0.18 0.17 0.16 0.15 0.16 0.16 0.15 0.15 0.14 0.14 0.14 0.14 0.14 0.14 0.13 0.13 0.12 0.12 0.11 0.12 0.13 0.13 0.13 0.12 0.13 0.10 0.10 0.11 0.12
0.26 0.25 0.26 0.25 0.25 0.25 0.24 0.24 0.23 0.23 0.24 0.24 0.23 0.22 0.22 0.21 0.21 0.22 0.21 0.20 0.20 0.20 0.19 0.18 0.17 0.16 0.16 0.16 0.16 0.16 0.15 0.14 0.14 0.14 0.14 0.15 0.14 0.14 0.13 0.13 0.12 0.11 0.11 0.12 0.12 0.12 0.13 0.13 0.12 0.12 0.11 0.10

ECMWFFLT2_prec_pwat_057.txt.gz
Precipitable_Water
0.22 0.20 0.18 0.19 0.18 0.18 0.19 0.21 0.23 0.24 0.24 0.24 0.23 0.22 0.21 0.20 0.19 0.19 0.19 0.21 0.21 0.21 0.21 0.22 0.21 0.20 0.22 0.25 0.27 0.28 0.28 0.26 0.24 0.24 0.25 0.25 0.24 0.24 0.25 0.25 0.25 0.26 0.30 0.38 0.42 0.46 0.51 0.55 0.57 0.61 0.65 0.65
0.25 0.23 0.20 0.19 0.18 0.17 0.17 0.19 0.20 0.22 0.22 0.21 0.21 0.20 0.20 0.19 0.18 0.18 0.20 0.21 0.21 0.21 0.21 0.21 0.20 0.19 0.21 0.23 0.25 0.26 0.26 0.25 0.23 0.23 0.24 0.24 0.24 0.24 0.22 0.22 0.21 0.19 0.19 0.24 0.35 0.42 0.47 0.52 0.56 0.57 0.61 0.63
0.24 0.24 0.22 0.21 0.20 0.18 0.17 0.18 0.19 0.20 0.20 0.20 0.20 0.20 0.20 0.19 0.19 0.19 0.20 0.20 0.20 0.21 0.20 0.20 0.19 0.18 0.20 0.21 0.23 0.24 0.23 0.23 0.21 0.21 0.23 0.24 0.22 0.22 0.20 0.19 0.17 0.16 0.17 0.19 0.20 0.31 0.40 0.46 0.51 0.55 0.57 0.59
0.25 0.25 0.23 0.23 0.23 0.21 0.20 0.20 0.19 0.19 0.20 0.21 0.21 0.21 0.21 0.20 0.19 0.19 0.19 0.19 0.19 0.20 0.19 0.19 0.18 0.18 0.19 0.20 0.22 0.22 0.21 0.21 0.19 0.20 0.21 0.21 0.21 0.19 0.18 0.16 0.14 0.14 0.15 0.16 0.17 0.19 0.24 0.35 0.43 0.49 0.53 0.56
0.27 0.27 0.26 0.26 0.24 0.23 0.23 0.21 0.22 0.20 0.21 0.21 0.21 0.21 0.21 0.20 0.18 0.19 0.18 0.18 0.18 0.19 0.19 0.17 0.18 0.18 0.18 0.19 0.21 0.20 0.20 0.18 0.19 0.19 0.19 0.19 0.19 0.18 0.16 0.15 0.14 0.15 0.14 0.14 0.15 0.16 0.17 0.19 0.29 0.42 0.49 0.53
0.28 0.28 0.27 0.26 0.25 0.25 0.24 0.24 0.23 0.23 0.21 0.21 0.21 0.22 0.21 0.20 0.19 0.19 0.19 0.19 0.19 0.19 0.18 0.18 0.19 0.19 0.18 0.19 0.20 0.20 0.19 0.18 0.19 0.19 0.18 0.18 0.18 0.18 0.17 0.16 0.15 0.15 0.15 0.14 0.14 0.14 0.15 0.15 0.18 0.29 0.42 0.50
0.29 0.29 0.28 0.26 0.26 0.26 0.26 0.25 0.25 0.24 0.22 0.21 0.21 0.22 0.22 0.21 0.20 0.20 0.20 0.20 0.20 0.19 0.19 0.19 0.19 0.18 0.18 0.19 0.19 0.19 0.18 0.18 0.18 0.18 0.18 0.18 0.18 0.18 0.18 0.16 0.16 0.14 0.16 0.15 0.13 0.13 0.13 0.14 0.15 0.18 0.27 0.43
0.29 0.28 0.28 0.27 0.27 0.26 0.26 0.25 0.25 0.24 0.22 0.21 0.21 0.21 0.21 0.21 0.21 0.22 0.22 0.21 0.20 0.20 0.19 0.18 0.18 0.19 0.19 0.18 0.18 0.18 0.17 0.18 0.17 0.17 0.17 0.17 0.17 0.16 0.16 0.17 0.16 0.15 0.14 0.15 0.14 0.12 0.13 0.13 0.13 0.15 0.18 0.25
0.30 0.29 0.28 0.27 0.27 0.26 0.25 0.24 0.24 0.24 0.22 0.21 0.20 0.20 0.21 0.22 0.23 0.23 0.22 0.21 0.21 0.20 0.19 0.19 0.19 0.19 0.19 0.18 0.17 0.18 0.17 0.17 0.17 0.17 0.16 0.16 0.16 0.16 0.15 0.15 0.16 0.15 0.14 0.14 0.14 0.13 0.12 0.12 0.13 0.13 0.16 0.19
0.29 0.28 0.28 0.26 0.25 0.24 0.24 0.23 0.23 0.23 0.22 0.20 0.20 0.19 0.20 0.21 0.22 0.22 0.22 0.21 0.21 0.21 0.20 0.19 0.19 0.19 0.19 0.18 0.18 0.17 0.17 0.16 0.16 0.16 0.16 0.15 0.15 0.16 0.16 0.15 0.16 0.16 0.16 0.15 0.14 0.13 0.12 0.12 0.12 0.12 0.14 0.16
0.27 0.27 0.26 0.25 0.25 0.24 0.24 0.24 0.23 0.23 0.22 0.21 0.20 0.20 0.20 0.20 0.21 0.22 0.21 0.21 0.21 0.20 0.20 0.19 0.19 0.19 0.19 0.18 0.17 0.17 0.16 0.16 0.16 0.16 0.16 0.15 0.15 0.16 0.15 0.15 0.15 0.16 0.16 0.16 0.15 0.14 0.13 0.13 0.12 0.12 0.12 0.13
0.26 0.26 0.25 0.25 0.25 0.25 0.25 0.24 0.23 0.23 0.22 0.22 0.21 0.21 0.20 0.21 0.21 0.21 0.21 0.21 0.21 0.21 0.20 0.19 0.20 0.19 0.19 0.19 0.18 0.17 0.16 0.16 0.16 0.16 0.16 0.15 0.15 0.15 0.15 0.15 0.15 0.15 0.16 0.16 0.16 0.15 0.14 0.13 0.12 0.12 0.12 0.12
0.26 0.25 0.24 0.24 0.24 0.23 0.23 0.23 0.23 0.23 0.23 0.23 0.22 0.22 0.21 0.21 0.21 0.21 0.20 0.21 0.21 0.21 0.20 0.19 0.19 0.19 0.19 0.19 0.18 0.17 0.16 0.16 0.16 0.16 0.15 0.15 0.15 0.15 0.15 0.15 0.15 0.15 0.16 0.16 0.16 0.15 0.14 0.14 0.13 0.12 0.12 0.11
0.25 0.24 0.24 0.23 0.23 0.23 0.23 0.23 0.24 0.24 0.24 0.24 0.24 0.23 0.22 0.21 0.21 0.21 0.20 0.20 0.21 0.21 0.20 0.19 0.19 0.19 0.19 0.19 0.18 0.17 0.16 0.16 0.16 0.16 0.15 0.15 0.15 0.15 0.15 0.14 0.15 0.15 0.15 0.15 0.15 0.16 0.15 0.14 0.13 0.13 0.12 0.11
0.24 0.23 0.23 0.23 0.24 0.24 0.24 0.25 0.26 0.26 0.26 0.26 0.25 0.24 0.23 0.22 0.21 0.21 0.21 0.20 0.20 0.21 0.20 0.19 0.18 0.18 0.18 0.18 0.17 0.17 0.17 0.16 0.16 0.16 0.15 0.15 0.15 0.15 0.15 0.15 0.15 0.15 0.15 0.15 0.15 0.15 0.15 0.14 0.13 0.12 0.12 0.11
0.24 0.23 0.24 0.24 0.25 0.25 0.26 0.27 0.27 0.27 0.27 0.26 0.26 0.25 0.24 0.23 0.22 0.21 0.20 0.20 0.20 0.21 0.21 0.20 0.18 0.18 0.18 0.17 0.17 0.17 0.17 0.17 0.17 0.16 0.16 0.16 0.16 0.16 0.16 0.16 0.16 0.16 0.15 0.16 0.15 0.15 0.15 0.14 0.13 0.12 0.11 0.11
0.26 0.27 0.27 0.27 0.28 0.28 0.28 0.28 0.28 0.27 0.26 0.26 0.26 0.26 0.25 0.24 0.22 0.21 0.20 0.19 0.19 0.20 0.21 0.20 0.19 0.18 0.18 0.17 0.17 0.17 0.17 0.17 0.17 0.17 0.16 0.16 0.16 0.16 0.16 0.15 0.15 0.16 0.16 0.15 0.15 0.16 0.15 0.14 0.13 0.12 0.11 0.11
0.28 0.29 0.29 0.30 0.29 0.29 0.29 0.29 0.28 0.27 0.27 0.27 0.26 0.26 0.25 0.24 0.22 0.21 0.21 0.20 0.20 0.20 0.20 0.20 0.19 0.18 0.18 0.18 0.18 0.17 0.17 0.17 0.17 0.16 0.16 0.15 0.15 0.15 0.15 0.15 0.15 0.15 0.15 0.15 0.16 0.15 0.15 0.14 0.13 0.12 0.11 0.10
0.31 0.31 0.31 0.31 0.31 0.30 0.30 0.29 0.28 0.27 0.26 0.26 0.26 0.25 0.24 0.24 0.23 0.22 0.21 0.21 0.20 0.20 0.21 0.20 0.19 0.18 0.18 0.18 0.18 0.17 0.17 0.17 0.16 0.16 0.16 0.15 0.14 0.15 0.15 0.15 0.15 0.16 0.16 0.15 0.15 0.15 0.15 0.14 0.13 0.12 0.11 0.11
0.30 0.30 0.30 0.31 0.31 0.30 0.30 0.29 0.28 0.27 0.26 0.25 0.25 0.25 0.24 0.24 0.24 0.22 0.22 0.22 0.21 0.21 0.21 0.20 0.19 0.18 0.18 0.18 0.18 0.18 0.17 0.17 0.16 0.16 0.16 0.16 0.15 0.14 0.14 0.14 0.14 0.15 0.15 0.15 0.15 0.15 0.15 0.14 0.12 0.11 0.11 0.11
0.31 0.29 0.28 0.28 0.29 0.29 0.29 0.28 0.28 0.27 0.26 0.25 0.25 0.25 0.25 0.25 0.24 0.24 0.23 0.22 0.23 0.22 0.21 0.20 0.20 0.19 0.19 0.19 0.18 0.18 0.17 0.17 0.16 0.16 0.16 0.15 0.16 0.15 0.14 0.14 0.14 0.15 0.15 0.15 0.15 0.15 0.14 0.13 0.12 0.12 0.12 0.12
0.31 0.30 0.29 0.28 0.28 0.28 0.28 0.28 0.28 0.27 0.26 0.26 0.26 0.26 0.25 0.25 0.25 0.25 0.23 0.23 0.24 0.23 0.22 0.21 0.20 0.20 0.19 0.19 0.18 0.17 0.17 0.17 0.17 0.16 0.16 0.15 0.15 0.14 0.14 0.14 0.14 0.14 0.14 0.15 0.15 0.14 0.14 0.14 0.13 0.13 0.13 0.13
0.30 0.29 0.28 0.28 0.27 0.27 0.27 0.27 0.27 0.27 0.27 0.27 0.27 0.26 0.26 0.26 0.26 0.25 0.24 0.24 0.24 0.23 0.22 0.21 0.21 0.20 0.20 0.19 0.19 0.18 0.17 0.16 0.16 0.16 0.16 0.15 0.15 0.15 0.15 0.14 0.14 0.14 0.14 0.14 0.15 0.14 0.14 0.14 0.13 0.13 0.13 0.13
0.30 0.29 0.28 0.27 0.26 0.25 0.26 0.26 0.27 0.28 0.27 0.27 0.27 0.27 0.27 0.27 0.26 0.26 0.25 0.24 0.25 0.24 0.23 0.22 0.21 0.20 0.20 0.20 0.19 0.18 0.17 0.16 0.16 0.16 0.16 0.16 0.15 0.14 0.14 0.15 0.15 0.15 0.14 0.14 0.14 0.13 0.14 0.14 0.13 0.13 0.13 0.12
0.29 0.28 0.27 0.27 0.26 0.25 0.25 0.25 0.26 0.26 0.27 0.27 0.27 0.27 0.27 0.27 0.27 0.26 0.26 0.25 0.25 0.24 0.24 0.23 0.22 0.21 0.20 0.20 0.19 0.18 0.17 0.16 0.16 0.16 0.16 0.16 0.15 0.14 0.13 0.13 0.15 0.15 0.15 0.14 0.13 0.13 0.13 0.13 0.13 0.14 0.14 0.13
0.29 0.28 0.27 0.26 0.26 0.26 0.25 0.25 0.25 0.25 0.26 0.27 0.27 0.27 0.27 0.27 0.26 0.26 0.25 0.26 0.26 0.25 0.24 0.23 0.22 0.22 0.20 0.20 0.20 0.19 0.18 0.17 0.17 0.17 0.16 0.16 0.14 0.14 0.13 0.13 0.14 0.15 0.15 0.13 0.12 0.11 0.11 0.12 0.14 0.14 0.14 0.15
0.29 0.28 0.28 0.27 0.26 0.26 0.25 0.25 0.25 0.24 0.25 0.25 0.26 0.26 0.27 0.27 0.26 0.25 0.25 0.25 0.26 0.25 0.25 0.24 0.23 0.22 0.21 0.20 0.20 0.19 0.18 0.17 0.16 0.16 0.16 0.15 0.14 0.13 0.13 0.14 0.15 0.15 0.16 0.13 0.13 0.12 0.11 0.10 0.09 0.11 0.14 0.15
0.31 0.29 0.28 0.27 0.27 0.27 0.25 0.24 0.24 0.23 0.24 0.24 0.25 0.25 0.25 0.26 0.26 0.26 0.25 0.25 0.25 0.25 0.25 0.25 0.24 0.23 0.22 0.21 0.21 0.20 0.19 0.17 0.16 0.16 0.16 0.15 0.14 0.14 0.13 0.13 0.14 0.15 0.16 0.15 0.13 0.10 0.11 0.10 0.10 0.08 0.10 0.12
0.32 0.30 0.28 0.27 0.27 0.26 0.25 0.24 0.23 0.23 0.22 0.23 0.24 0.24 0.25 0.25 0.25 0.25 0.25 0.25 0.25 0.25 0.25 0.25 0.24 0.23 0.22 0.22 0.21 0.20 0.19 0.18 0.17 0.16 0.16 0.15 0.14 0.14 0.13 0.13 0.14 0.15 0.16 0.15 0.15 0.13 0.12 0.10 0.10 0.10 0.11 0.10
0.31 0.30 0.29 0.26 0.25 0.24 0.23 0.22 0.23 0.22 0.22 0.23 0.23 0.24 0.24 0.25 0.25 0.25 0.25 0.25 0.25 0.25 0.26 0.25 0.25 0.24 0.23 0.22 0.22 0.21 0.20 0.19 0.17 0.16 0.16 0.16 0.15 0.14 0.14 0.14 0.14 0.14 0.15 0.15 0.15 0.15 0.15 0.13 0.10 0.10 0.11 0.10
0.31 0.29 0.28 0.27 0.26 0.25 0.24 0.23 0.23 0.24 0.23 0.23 0.24 0.24 0.24 0.25 0.25 0.25 0.25 0.24 0.24 0.25 0.26 0.26 0.26 0.24 0.23 0.23 0.22 0.22 0.21 0.19 0.18 0.17 0.16 0.16 0.16 0.15 0.15 0.15 0.14 0.14 0.14 0.14 0.14 0.15 0.15 0.14 0.14 0.14 0.11 0.09

ECMWFFLT2_prec_pwat_060.txt.gz
Precipitable_Water
0.27 0.26 0.26 0.25 0.26 0.26 0.25 0.25 0.25 0.24 0.23 0.23 0.23 0.23 0.24 0.24 0.23 0.23 0.24 0.24 0.25 0.24 0.25 0.25 0.24 0.23 0.23 0.24 0.26 0.27 0.29 0.28 0.28 0.25 0.25 0.27 0.26 0.26 0.24 0.23 0.22 0.20 0.18 0.18 0.18 0.20 0.21 0.21 0.18 0.19 0.26 0.29
0.30 0.29 0.27 0.26 0.27 0.26 0.26 0.26 0.26 0.25 0.25 0.24 0.23 0.23 0.23 0.24 0.24 0.24 0.24 0.24 0.24 0.24 0.24 0.24 0.23 0.22 0.22 0.24 0.25 0.26 0.27 0.27 0.26 0.24 0.24 0.26 0.25 0.24 0.23 0.22 0.20 0.19 0.19 0.19 0.18 0.17 0.18 0.19 0.17 0.17 0.19 0.20
0.28 0.29 0.28 0.27 0.28 0.27 0.27 0.27 0.27 0.27 0.27 0.26 0.25 0.24 0.23 0.23 0.23 0.24 0.23 0.23 0.24 0.23 0.23 0.23 0.22 0.21 0.23 0.25 0.25 0.25 0.27 0.27 0.25 0.23 0.24 0.24 0.24 0.23 0.22 0.21 0.20 0.18 0.19 0.18 0.18 0.17 0.16 0.16 0.16 0.15 0.14 0.15
0.28 0.30 0.28 0.28 0.29 0.29 0.29 0.29 0.29 0.29 0.29 0.28 0.27 0.25 0.24 0.22 0.21 0.21 0.21 0.22 0.21 0.21 0.23 0.21 0.21 0.22 0.25 0.25 0.24 0.26 0.27 0.26 0.23 0.24 0.24 0.23 0.23 0.22 0.21 0.20 0.19 0.18 0.19 0.19 0.18 0.17 0.16 0.14 0.14 0.13 0.13 0.13
0.28 0.29 0.29 0.30 0.31 0.30 0.30 0.30 0.30 0.29 0.29 0.27 0.26 0.25 0.24 0.22 0.20 0.20 0.20 0.19 0.21 0.23 0.21 0.21 0.21 0.23 0.24 0.25 0.25 0.26 0.26 0.25 0.23 0.25 0.24 0.23 0.24 0.23 0.22 0.21 0.19 0.17 0.18 0.18 0.18 0.17 0.16 0.15 0.12 0.13 0.13 0.13
0.29 0.30 0.31 0.30 0.28 0.28 0.29 0.29 0.29 0.29 0.28 0.27 0.26 0.25 0.24 0.23 0.21 0.20 0.19 0.20 0.21 0.22 0.21 0.21 0.22 0.23 0.23 0.25 0.26 0.26 0.26 0.24 0.23 0.24 0.24 0.24 0.24 0.22 0.21 0.20 0.17 0.16 0.15 0.16 0.18 0.17 0.16 0.14 0.13 0.13 0.13 0.13
0.28 0.29 0.29 0.28 0.27 0.26 0.27 0.27 0.27 0.27 0.26 0.26 0.25 0.25 0.24 0.23 0.21 0.20 0.20 0.20 0.21 0.22 0.23 0.23 0.23 0.22 0.23 0.25 0.25 0.25 0.25 0.23 0.22 0.23 0.23 0.22 0.21 0.21 0.19 0.17 0.16 0.16 0.15 0.15 0.16 0.16 0.14 0.14 0.13 0.13 0.13 0.13
0.27 0.27 0.27 0.26 0.25 0.25 0.25 0.25 0.25 0.25 0.26 0.25 0.25 0.24 0.24 0.23 0.22 0.21 0.21 0.20 0.20 0.21 0.21 0.22 0.22 0.22 0.23 0.23 0.23 0.23 0.22 0.20 0.20 0.21 0.21 0.19 0.19 0.19 0.17 0.16 0.16 0.16 0.16 0.15 0.16 0.16 0.15 0.14 0.14 0.13 0.13 0.13
0.26 0.26 0.26 0.25 0.25 0.24 0.24 0.24 0.24 0.24 0.24 0.24 0.24 0.24 0.23 0.22 0.23 0.22 0.21 0.19 0.19 0.20 0.21 0.22 0.22 0.23 0.22 0.23 0.22 0.22 0.21 0.20 0.19 0.19 0.18 0.18 0.17 0.16 0.16 0.16 0.16 0.15 0.15 0.15 0.15 0.15 0.15 0.15 0.15 0.14 0.14 0.13
0.26 0.26 0.25 0.24 0.24 0.23 0.23 0.23 0.23 0.23 0.23 0.23 0.22 0.23 0.22 0.23 0.23 0.22 0.21 0.20 0.19 0.20 0.21 0.22 0.22 0.23 0.23 0.23 0.22 0.21 0.19 0.19 0.18 0.18 0.17 0.17 0.16 0.16 0.16 0.16 0.16 0.16 0.15 0.15 0.15 0.15 0.15 0.15 0.15 0.15 0.14 0.14
0.25 0.25 0.24 0.24 0.24 0.23 0.23 0.23 0.23 0.22 0.23 0.23 0.23 0.23 0.23 0.23 0.23 0.22 0.22 0.22 0.21 0.21 0.23 0.23 0.22 0.23 0.23 0.22 0.21 0.21 0.19 0.18 0.18 0.17 0.16 0.16 0.16 0.16 0.16 0.16 0.16 0.15 0.15 0.15 0.15 0.15 0.15 0.15 0.15 0.15 0.15 0.14
0.25 0.25 0.25 0.24 0.24 0.24 0.23 0.23 0.23 0.23 0.23 0.24 0.24 0.24 0.25 0.25 0.24 0.25 0.25 0.24 0.23 0.22 0.23 0.23 0.23 0.23 0.22 0.22 0.21 0.21 0.19 0.18 0.17 0.17 0.17 0.16 0.16 0.16 0.16 0.15 0.15 0.15 0.15 0.15 0.15 0.14 0.14 0.15 0.15 0.15 0.15 0.15
0.27 0.27 0.26 0.26 0.26 0.25 0.26 0.26 0.26 0.25 0.26 0.26 0.26 0.26 0.27 0.27 0.27 0.27 0.26 0.25 0.24 0.23 0.22 0.23 0.23 0.22 0.21 0.21 0.21 0.21 0.20 0.19 0.17 0.17 0.17 0.16 0.16 0.16 0.15 0.15 0.15 0.15 0.15 0.15 0.15 0.15 0.14 0.14 0.15 0.15 0.14 0.14
0.28 0.28 0.27 0.27 0.27 0.27 0.27 0.27 0.28 0.29 0.30 0.30 0.29 0.29 0.28 0.28 0.28 0.28 0.27 0.26 0.25 0.24 0.22 0.22 0.22 0.21 0.21 0.21 0.21 0.21 0.20 0.19 0.18 0.17 0.17 0.17 0.16 0.16 0.15 0.15 0.15 0.16 0.15 0.15 0.15 0.15 0.15 0.15 0.15 0.15 0.14 0.14
0.29 0.29 0.29 0.29 0.30 0.30 0.30 0.30 0.30 0.29 0.29 0.29 0.29 0.29 0.28 0.28 0.28 0.28 0.27 0.26 0.25 0.24 0.22 0.22 0.22 0.21 0.21 0.21 0.21 0.21 0.20 0.20 0.19 0.18 0.18 0.17 0.16 0.15 0.15 0.16 0.16 0.16 0.16 0.15 0.15 0.16 0.15 0.15 0.15 0.14 0.14 0.14
0.29 0.29 0.30 0.30 0.31 0.31 0.32 0.31 0.30 0.29 0.29 0.28 0.27 0.27 0.27 0.27 0.27 0.27 0.26 0.25 0.24 0.23 0.23 0.22 0.22 0.22 0.21 0.20 0.21 0.21 0.21 0.20 0.20 0.19 0.18 0.17 0.17 0.17 0.17 0.16 0.16 0.16 0.16 0.16 0.16 0.16 0.15 0.15 0.15 0.14 0.14 0.14
0.29 0.30 0.30 0.30 0.30 0.30 0.31 0.31 0.30 0.29 0.28 0.28 0.27 0.27 0.27 0.27 0.26 0.26 0.25 0.25 0.24 0.24 0.24 0.23 0.22 0.22 0.22 0.22 0.22 0.22 0.21 0.21 0.21 0.19 0.18 0.18 0.18 0.17 0.16 0.16 0.15 0.16 0.16 0.16 0.16 0.16 0.16 0.15 0.15 0.15 0.14 0.14
0.29 0.30 0.30 0.30 0.30 0.30 0.30 0.30 0.30 0.30 0.29 0.28 0.28 0.27 0.27 0.27 0.27 0.27 0.26 0.26 0.25 0.25 0.24 0.24 0.23 0.23 0.23 0.23 0.23 0.23 0.22 0.21 0.21 0.20 0.19 0.18 0.17 0.16 0.16 0.16 0.16 0.16 0.15 0.16 0.16 0.16 0.16 0.15 0.15 0.15 0.14 0.13
0.30 0.29 0.29 0.29 0.29 0.29 0.29 0.29 0.30 0.30 0.30 0.29 0.28 0.28 0.28 0.28 0.28 0.28 0.27 0.26 0.26 0.25 0.25 0.24 0.24 0.24 0.24 0.24 0.23 0.23 0.23 0.22 0.21 0.20 0.19 0.18 0.17 0.17 0.16 0.16 0.16 0.16 0.16 0.16 0.15 0.16 0.16 0.15 0.15 0.15 0.14 0.13
0.31 0.30 0.30 0.29 0.29 0.29 0.29 0.29 0.29 0.30 0.30 0.29 0.29 0.28 0.28 0.28 0.28 0.28 0.27 0.27 0.26 0.25 0.25 0.25 0.25 0.25 0.25 0.24 0.24 0.24 0.23 0.23 0.21 0.20 0.19 0.18 0.18 0.17 0.16 0.16 0.16 0.16 0.16 0.16 0.15 0.16 0.16 0.15 0.15 0.14 0.13 0.13
0.32 0.31 0.30 0.30 0.29 0.29 0.30 0.29 0.29 0.30 0.29 0.29 0.28 0.27 0.27 0.27 0.27 0.28 0.27 0.27 0.26 0.26 0.25 0.25 0.26 0.26 0.25 0.25 0.24 0.23 0.23 0.22 0.22 0.21 0.19 0.18 0.18 0.18 0.17 0.16 0.16 0.15 0.16 0.15 0.15 0.15 0.15 0.15 0.15 0.13 0.13 0.13
0.33 0.32 0.32 0.31 0.30 0.30 0.29 0.30 0.31 0.31 0.29 0.28 0.27 0.27 0.26 0.27 0.27 0.28 0.28 0.28 0.27 0.26 0.26 0.26 0.25 0.25 0.25 0.25 0.25 0.24 0.24 0.23 0.22 0.21 0.20 0.19 0.19 0.18 0.17 0.16 0.16 0.16 0.16 0.16 0.15 0.15 0.15 0.15 0.15 0.14 0.14 0.14
0.34 0.33 0.32 0.31 0.31 0.30 0.30 0.30 0.31 0.31 0.29 0.28 0.27 0.26 0.26 0.26 0.26 0.27 0.28 0.28 0.28 0.26 0.26 0.26 0.26 0.25 0.24 0.25 0.24 0.24 0.24 0.23 0.22 0.21 0.21 0.19 0.19 0.19 0.18 0.17 0.17 0.16 0.16 0.15 0.15 0.15 0.15 0.15 0.15 0.14 0.14 0.14
0.32 0.32 0.31 0.30 0.31 0.31 0.31 0.30 0.30 0.29 0.29 0.28 0.27 0.26 0.26 0.26 0.26 0.26 0.27 0.27 0.27 0.26 0.26 0.26 0.25 0.25 0.24 0.25 0.25 0.24 0.24 0.23 0.22 0.22 0.21 0.20 0.19 0.18 0.18 0.19 0.18 0.17 0.16 0.16 0.15 0.15 0.16 0.15 0.15 0.14 0.14 0.14
0.29 0.29 0.30 0.31 0.31 0.31 0.31 0.30 0.29 0.28 0.28 0.28 0.27 0.27 0.27 0.26 0.25 0.25 0.25 0.26 0.26 0.26 0.26 0.26 0.25 0.24 0.24 0.24 0.24 0.24 0.24 0.24 0.23 0.22 0.22 0.21 0.20 0.19 0.18 0.17 0.18 0.17 0.17 0.16 0.15 0.15 0.15 0.15 0.14 0.14 0.14 0.14
0.29 0.29 0.29 0.29 0.29 0.30 0.29 0.29 0.28 0.27 0.26 0.26 0.26 0.26 0.26 0.26 0.26 0.25 0.25 0.25 0.25 0.25 0.25 0.25 0.25 0.24 0.24 0.23 0.23 0.24 0.25 0.25 0.24 0.23 0.22 0.22 0.21 0.20 0.19 0.17 0.17 0.17 0.17 0.15 0.14 0.13 0.13 0.13 0.14 0.14 0.14 0.14
0.30 0.31 0.30 0.29 0.28 0.27 0.26 0.27 0.27 0.26 0.26 0.26 0.25 0.25 0.26 0.26 0.26 0.26 0.25 0.25 0.25 0.24 0.24 0.24 0.24 0.23 0.23 0.23 0.23 0.23 0.24 0.25 0.25 0.24 0.22 0.21 0.21 0.20 0.19 0.18 0.18 0.18 0.18 0.15 0.16 0.16 0.14 0.12 0.11 0.11 0.13 0.15
0.30 0.29 0.28 0.27 0.27 0.27 0.26 0.25 0.26 0.27 0.26 0.25 0.25 0.25 0.25 0.25 0.25 0.25 0.25 0.25 0.25 0.24 0.24 0.24 0.23 0.23 0.23 0.23 0.23 0.23 0.24 0.25 0.25 0.24 0.23 0.21 0.21 0.20 0.18 0.18 0.17 0.18 0.18 0.17 0.16 0.13 0.13 0.12 0.12 0.09 0.11 0.12
0.27 0.27 0.25 0.25 0.25 0.25 0.23 0.23 0.23 0.23 0.23 0.24 0.23 0.23 0.23 0.23 0.24 0.25 0.25 0.25 0.25 0.24 0.24 0.23 0.23 0.23 0.22 0.22 0.22 0.22 0.23 0.24 0.25 0.24 0.24 0.23 0.21 0.20 0.19 0.18 0.18 0.18 0.19 0.18 0.19 0.16 0.13 0.12 0.11 0.11 0.12 0.12
0.25 0.24 0.23 0.21 0.20 0.19 0.19 0.18 0.18 0.17 0.17 0.17 0.17 0.18 0.19 0.20 0.21 0.23 0.24 0.25 0.25 0.25 0.25 0.24 0.23 0.22 0.22 0.21 0.21 0.21 0.22 0.24 0.24 0.24 0.23 0.23 0.22 0.20 0.19 0.19 0.18 0.17 0.18 0.18 0.18 0.18 0.16 0.15 0.12 0.11 0.12 0.11
0.24 0.23 0.22 0.21 0.20 0.19 0.18 0.17 0.18 0.19 0.18 0.18 0.17 0.17 0.16 0.16 0.17 0.18 0.20 0.22 0.24 0.24 0.25 0.25 0.25 0.23 0.22 0.21 0.21 0.21 0.21 0.22 0.23 0.24 0.24 0.23 0.22 0.21 0.19 0.19 0.18 0.17 0.17 0.17 0.18 0.18 0.17 0.16 0.16 0.15 0.12 0.10

ECMWFFLT2_prec_pwat_063.txt.gz
Precipitable_Water
0.30 0.30 0.29 0.28 0.29 0.29 0.28 0.29 0.30 0.30 0.30 0.30 0.30 0.30 0.30 0.28 0.26 0.26 0.27 0.27 0.28 0.29 0.29 0.28 0.28 0.28 0.26 0.28 0.32 0.31 0.31 0.31 0.32 0.31 0.29 0.29 0.30 0.28 0.26 0.25 0.25 0.24 0.23 0.24 0.23 0.22 0.22 0.21 0.19 0.16 0.16 0.13
0.31 0.31 0.30 0.30 0.30 0.29 0.29 0.29 0.30 0.30 0.31 0.30 0.30 0.30 0.29 0.28 0.26 0.25 0.25 0.25 0.26 0.26 0.26 0.27 0.26 0.24 0.26 0.29 0.30 0.30 0.29 0.31 0.31 0.29 0.29 0.29 0.29 0.28 0.26 0.26 0.24 0.23 0.21 0.22 0.22 0.22 0.22 0.21 0.19 0.16 0.14 0.12
0.31 0.32 0.31 0.30 0.30 0.30 0.29 0.30 0.30 0.29 0.31 0.30 0.30 0.30 0.29 0.28 0.26 0.25 0.24 0.24 0.23 0.22 0.25 0.25 0.23 0.23 0.27 0.29 0.29 0.29 0.30 0.30 0.29 0.28 0.29 0.30 0.28 0.28 0.28 0.27 0.25 0.22 0.20 0.21 0.21 0.21 0.21 0.20 0.18 0.15 0.14 0.13
0.30 0.32 0.32 0.30 0.29 0.30 0.29 0.29 0.29 0.29 0.29 0.29 0.27 0.27 0.27 0.26 0.25 0.24 0.24 0.23 0.21 0.22 0.23 0.21 0.22 0.24 0.27 0.29 0.29 0.29 0.30 0.30 0.29 0.28 0.30 0.30 0.28 0.29 0.28 0.26 0.25 0.22 0.19 0.19 0.19 0.20 0.20 0.19 0.16 0.14 0.14 0.14
0.29 0.30 0.31 0.29 0.29 0.30 0.29 0.29 0.29 0.29 0.29 0.28 0.26 0.26 0.26 0.25 0.24 0.24 0.23 0.22 0.22 0.23 0.22 0.22 0.22 0.24 0.26 0.27 0.29 0.29 0.30 0.29 0.27 0.28 0.29 0.29 0.29 0.28 0.27 0.25 0.23 0.20 0.18 0.18 0.17 0.18 0.19 0.18 0.14 0.14 0.14 0.14
0.28 0.28 0.29 0.27 0.26 0.28 0.29 0.28 0.28 0.27 0.26 0.26 0.26 0.26 0.25 0.24 0.24 0.24 0.23 0.23 0.23 0.24 0.23 0.23 0.24 0.24 0.24 0.27 0.28 0.28 0.27 0.27 0.27 0.25 0.27 0.28 0.29 0.26 0.26 0.25 0.20 0.18 0.17 0.17 0.17 0.17 0.17 0.15 0.14 0.14 0.13 0.13
0.26 0.26 0.26 0.26 0.25 0.25 0.26 0.25 0.25 0.25 0.25 0.25 0.24 0.24 0.24 0.24 0.23 0.23 0.23 0.23 0.24 0.25 0.25 0.23 0.23 0.23 0.24 0.25 0.25 0.25 0.25 0.25 0.24 0.23 0.26 0.27 0.26 0.24 0.23 0.21 0.18 0.18 0.17 0.16 0.16 0.16 0.14 0.14 0.14 0.14 0.14 0.13
0.25 0.25 0.25 0.25 0.26 0.25 0.25 0.26 0.26 0.26 0.25 0.25 0.25 0.25 0.24 0.24 0.24 0.23 0.24 0.24 0.24 0.24 0.23 0.23 0.23 0.23 0.23 0.23 0.23 0.24 0.24 0.23 0.22 0.23 0.24 0.22 0.22 0.21 0.20 0.19 0.19 0.18 0.17 0.16 0.16 0.15 0.14 0.14 0.14 0.14 0.14 0.14
0.24 0.25 0.26 0.26 0.26 0.26 0.25 0.25 0.25 0.25 0.25 0.25 0.25 0.25 0.25 0.25 0.25 0.25 0.25 0.25 0.25 0.24 0.24 0.24 0.24 0.24 0.23 0.23 0.23 0.25 0.24 0.23 0.22 0.23 0.21 0.21 0.20 0.19 0.19 0.19 0.18 0.17 0.16 0.16 0.15 0.15 0.15 0.14 0.14 0.14 0.14 0.14
0.26 0.27 0.27 0.27 0.27 0.26 0.26 0.26 0.26 0.26 0.26 0.26 0.25 0.25 0.25 0.25 0.24 0.24 0.25 0.25 0.25 0.25 0.25 0.26 0.25 0.25 0.24 0.24 0.23 0.24 0.23 0.23 0.23 0.22 0.22 0.21 0.20 0.19 0.19 0.18 0.17 0.17 0.16 0.16 0.15 0.15 0.15 0.15 0.14 0.14 0.14 0.14
0.28 0.28 0.28 0.28 0.28 0.27 0.26 0.26 0.26 0.26 0.26 0.27 0.27 0.26 0.26 0.26 0.25 0.25 0.25 0.25 0.25 0.25 0.25 0.26 0.27 0.26 0.26 0.25 0.24 0.24 0.24 0.24 0.23 0.23 0.22 0.21 0.20 0.19 0.19 0.18 0.17 0.17 0.16 0.16 0.15 0.15 0.15 0.15 0.15 0.15 0.15 0.14
0.28 0.29 0.29 0.29 0.29 0.29 0.28 0.27 0.26 0.26 0.27 0.27 0.28 0.29 0.29 0.29 0.28 0.27 0.26 0.25 0.25 0.24 0.24 0.24 0.25 0.26 0.26 0.25 0.24 0.24 0.24 0.23 0.23 0.22 0.22 0.20 0.19 0.19 0.18 0.17 0.17 0.16 0.16 0.16 0.16 0.15 0.15 0.15 0.15 0.15 0.15 0.15
0.28 0.29 0.29 0.29 0.29 0.28 0.29 0.28 0.27 0.27 0.27 0.28 0.29 0.30 0.30 0.30 0.29 0.28 0.27 0.26 0.25 0.25 0.24 0.24 0.24 0.24 0.24 0.24 0.24 0.24 0.24 0.24 0.23 0.22 0.21 0.20 0.19 0.18 0.18 0.17 0.17 0.16 0.16 0.16 0.16 0.16 0.15 0.15 0.15 0.15 0.15 0.15
0.28 0.29 0.29 0.29 0.29 0.29 0.29 0.28 0.28 0.28 0.28 0.28 0.28 0.28 0.29 0.30 0.29 0.29 0.28 0.28 0.27 0.26 0.24 0.24 0.24 0.24 0.23 0.24 0.24 0.24 0.23 0.23 0.23 0.22 0.21 0.21 0.20 0.19 0.18 0.17 0.17 0.17 0.17 0.17 0.17 0.17 0.16 0.16 0.16 0.16 0.16 0.15
0.29 0.30 0.29 0.30 0.30 0.30 0.29 0.29 0.29 0.29 0.28 0.28 0.28 0.28 0.28 0.28 0.29 0.29 0.29 0.28 0.28 0.27 0.26 0.25 0.24 0.23 0.24 0.24 0.23 0.24 0.24 0.24 0.23 0.23 0.22 0.21 0.20 0.19 0.19 0.18 0.18 0.18 0.17 0.17 0.17 0.17 0.17 0.16 0.16 0.16 0.16 0.16
0.29 0.30 0.30 0.30 0.31 0.30 0.31 0.31 0.30 0.29 0.29 0.28 0.28 0.28 0.28 0.28 0.28 0.29 0.28 0.28 0.28 0.28 0.27 0.26 0.25 0.25 0.25 0.24 0.24 0.24 0.24 0.24 0.24 0.24 0.24 0.23 0.22 0.21 0.20 0.19 0.19 0.19 0.18 0.17 0.17 0.17 0.17 0.17 0.16 0.16 0.16 0.16
0.30 0.30 0.31 0.31 0.31 0.32 0.32 0.31 0.31 0.30 0.29 0.29 0.29 0.29 0.28 0.28 0.28 0.28 0.28 0.28 0.28 0.28 0.27 0.27 0.26 0.26 0.26 0.26 0.25 0.25 0.25 0.25 0.26 0.25 0.25 0.24 0.23 0.22 0.21 0.20 0.19 0.19 0.18 0.18 0.18 0.18 0.17 0.17 0.17 0.17 0.17 0.16
0.30 0.31 0.32 0.32 0.33 0.33 0.32 0.31 0.30 0.30 0.30 0.29 0.29 0.29 0.29 0.29 0.28 0.28 0.28 0.27 0.27 0.27 0.26 0.26 0.26 0.26 0.25 0.25 0.25 0.26 0.26 0.25 0.25 0.25 0.25 0.24 0.23 0.23 0.22 0.21 0.20 0.19 0.18 0.18 0.18 0.18 0.17 0.17 0.17 0.17 0.16 0.16
0.31 0.32 0.32 0.33 0.33 0.32 0.31 0.30 0.30 0.30 0.30 0.29 0.29 0.29 0.29 0.29 0.28 0.28 0.27 0.27 0.26 0.26 0.25 0.25 0.25 0.25 0.25 0.25 0.25 0.25 0.25 0.25 0.25 0.25 0.25 0.25 0.23 0.23 0.22 0.21 0.21 0.20 0.19 0.18 0.18 0.18 0.17 0.17 0.17 0.17 0.16 0.16
0.31 0.32 0.32 0.32 0.32 0.31 0.31 0.30 0.29 0.29 0.29 0.29 0.29 0.29 0.28 0.28 0.28 0.27 0.27 0.27 0.26 0.25 0.24 0.24 0.24 0.24 0.24 0.24 0.24 0.24 0.25 0.25 0.24 0.24 0.24 0.25 0.25 0.23 0.22 0.21 0.21 0.21 0.20 0.19 0.18 0.18 0.17 0.17 0.17 0.16 0.16 0.15
0.31 0.31 0.30 0.30 0.30 0.30 0.29 0.29 0.29 0.29 0.29 0.29 0.29 0.28 0.28 0.28 0.27 0.27 0.27 0.27 0.26 0.25 0.25 0.24 0.23 0.24 0.24 0.24 0.24 0.24 0.24 0.24 0.24 0.24 0.23 0.24 0.25 0.24 0.22 0.22 0.21 0.20 0.20 0.19 0.19 0.18 0.18 0.17 0.17 0.16 0.16 0.15
0.30 0.30 0.30 0.30 0.29 0.29 0.28 0.28 0.28 0.28 0.28 0.27 0.27 0.27 0.27 0.27 0.28 0.28 0.28 0.28 0.27 0.27 0.26 0.25 0.24 0.24 0.23 0.23 0.23 0.23 0.22 0.22 0.23 0.23 0.22 0.22 0.24 0.24 0.23 0.22 0.21 0.20 0.20 0.20 0.19 0.19 0.18 0.17 0.17 0.17 0.16 0.16
0.29 0.30 0.30 0.29 0.28 0.28 0.27 0.28 0.28 0.27 0.26 0.26 0.26 0.26 0.27 0.27 0.27 0.27 0.27 0.27 0.28 0.27 0.27 0.26 0.25 0.24 0.23 0.23 0.22 0.21 0.21 0.21 0.21 0.21 0.21 0.21 0.22 0.23 0.24 0.23 0.22 0.21 0.20 0.19 0.19 0.19 0.19 0.18 0.17 0.17 0.17 0.17
0.28 0.28 0.28 0.27 0.27 0.26 0.26 0.26 0.25 0.25 0.24 0.25 0.24 0.24 0.24 0.23 0.23 0.23 0.23 0.23 0.24 0.24 0.25 0.25 0.25 0.24 0.24 0.23 0.22 0.20 0.19 0.19 0.19 0.19 0.19 0.19 0.20 0.21 0.22 0.24 0.24 0.23 0.21 0.20 0.19 0.18 0.19 0.18 0.18 0.17 0.17 0.17
0.27 0.26 0.26 0.26 0.25 0.25 0.25 0.24 0.23 0.23 0.23 0.23 0.23 0.22 0.22 0.21 0.21 0.20 0.20 0.19 0.19 0.19 0.19 0.21 0.23 0.24 0.24 0.24 0.23 0.21 0.20 0.19 0.19 0.19 0.19 0.19 0.19 0.20 0.20 0.22 0.23 0.23 0.22 0.20 0.18 0.18 0.18 0.18 0.18 0.18 0.17 0.17
0.28 0.27 0.26 0.25 0.25 0.24 0.23 0.22 0.22 0.22 0.22 0.22 0.22 0.22 0.21 0.20 0.20 0.19 0.19 0.18 0.18 0.18 0.17 0.17 0.18 0.19 0.21 0.22 0.23 0.23 0.22 0.21 0.21 0.20 0.19 0.18 0.17 0.18 0.19 0.19 0.22 0.22 0.21 0.19 0.18 0.16 0.16 0.17 0.17 0.17 0.17 0.17
0.27 0.27 0.27 0.26 0.24 0.22 0.22 0.22 0.22 0.22 0.22 0.22 0.21 0.21 0.21 0.20 0.19 0.19 0.18 0.18 0.18 0.17 0.17 0.17 0.17 0.17 0.17 0.18 0.20 0.21 0.21 0.22 0.21 0.20 0.19 0.18 0.17 0.16 0.18 0.19 0.20 0.21 0.21 0.18 0.19 0.18 0.16 0.15 0.15 0.16 0.17 0.17
0.29 0.28 0.27 0.25 0.24 0.23 0.23 0.21 0.21 0.21 0.21 0.20 0.20 0.19 0.19 0.19 0.18 0.18 0.17 0.17 0.16 0.16 0.16 0.16 0.16 0.16 0.17 0.17 0.18 0.18 0.18 0.19 0.20 0.20 0.19 0.19 0.18 0.17 0.16 0.17 0.18 0.20 0.20 0.20 0.19 0.16 0.15 0.15 0.15 0.13 0.14 0.15
0.29 0.27 0.24 0.23 0.23 0.22 0.21 0.20 0.20 0.19 0.18 0.18 0.18 0.18 0.18 0.17 0.18 0.17 0.16 0.16 0.16 0.16 0.15 0.15 0.15 0.15 0.15 0.16 0.16 0.16 0.16 0.17 0.18 0.19 0.20 0.20 0.19 0.18 0.16 0.16 0.18 0.19 0.20 0.20 0.20 0.18 0.16 0.15 0.14 0.13 0.14 0.16
0.27 0.25 0.23 0.22 0.21 0.19 0.18 0.17 0.17 0.17 0.17 0.17 0.17 0.17 0.18 0.18 0.18 0.17 0.17 0.17 0.17 0.17 0.16 0.16 0.16 0.16 0.16 0.15 0.16 0.16 0.16 0.16 0.16 0.17 0.17 0.18 0.19 0.19 0.18 0.17 0.17 0.18 0.20 0.20 0.20 0.20 0.20 0.18 0.15 0.14 0.16 0.15
0.25 0.24 0.24 0.23 0.22 0.21 0.20 0.18 0.18 0.19 0.19 0.19 0.19 0.19 0.18 0.19 0.19 0.18 0.18 0.17 0.17 0.17 0.17 0.16 0.16 0.16 0.16 0.16 0.16 0.16 0.16 0.16 0.16 0.16 0.16 0.17 0.18 0.18 0.19 0.18 0.17 0.18 0.19 0.20 0.20 0.21 0.21 0.20 0.19 0.18 0.16 0.14

ECMWFFLT2_prec_pwat_066.txt.gz
Precipitable_Water
0.32 0.32 0.31 0.30 0.32 0.31 0.31 0.32 0.32 0.32 0.32 0.31 0.31 0.32 0.31 0.30 0.29 0.29 0.30 0.30 0.31 0.30 0.30 0.30 0.31 0.29 0.28 0.32 0.35 0.35 0.35 0.34 0.35 0.35 0.33 0.34 0.34 0.32 0.31 0.30 0.29 0.27 0.24 0.23 0.25 0.24 0.25 0.25 0.23 0.19 0.18 0.14
0.32 0.33 0.32 0.32 0.31 0.31 0.30 0.30 0.31 0.30 0.31 0.31 0.29 0.30 0.29 0.28 0.27 0.27 0.27 0.28 0.28 0.27 0.27 0.29 0.27 0.26 0.28 0.32 0.34 0.35 0.34 0.34 0.35 0.33 0.32 0.34 0.34 0.32 0.31 0.31 0.29 0.28 0.24 0.23 0.23 0.23 0.23 0.23 0.23 0.18 0.16 0.14
0.31 0.33 0.33 0.33 0.32 0.31 0.30 0.29 0.28 0.29 0.29 0.30 0.29 0.28 0.28 0.26 0.25 0.24 0.25 0.26 0.25 0.26 0.28 0.27 0.24 0.24 0.29 0.32 0.33 0.34 0.34 0.34 0.35 0.33 0.32 0.33 0.33 0.31 0.32 0.31 0.29 0.26 0.23 0.23 0.23 0.23 0.22 0.22 0.22 0.16 0.15 0.14
0.30 0.31 0.33 0.33 0.31 0.29 0.29 0.28 0.28 0.28 0.28 0.28 0.28 0.27 0.27 0.26 0.25 0.23 0.23 0.24 0.23 0.24 0.27 0.24 0.26 0.26 0.29 0.30 0.32 0.33 0.34 0.35 0.34 0.31 0.31 0.32 0.32 0.31 0.30 0.29 0.28 0.24 0.22 0.21 0.22 0.22 0.22 0.21 0.19 0.15 0.16 0.15
0.30 0.29 0.30 0.31 0.31 0.29 0.29 0.30 0.30 0.30 0.30 0.30 0.30 0.29 0.27 0.27 0.25 0.23 0.24 0.23 0.23 0.25 0.24 0.26 0.26 0.28 0.27 0.29 0.32 0.32 0.32 0.31 0.30 0.30 0.30 0.30 0.31 0.32 0.29 0.28 0.24 0.22 0.21 0.20 0.20 0.21 0.21 0.20 0.16 0.16 0.16 0.16
0.29 0.27 0.28 0.29 0.30 0.30 0.30 0.31 0.31 0.31 0.30 0.30 0.28 0.27 0.27 0.27 0.24 0.24 0.23 0.23 0.24 0.24 0.26 0.27 0.28 0.28 0.28 0.30 0.31 0.31 0.30 0.29 0.29 0.29 0.27 0.29 0.31 0.30 0.28 0.25 0.21 0.19 0.19 0.19 0.19 0.20 0.20 0.18 0.17 0.17 0.17 0.16
0.27 0.26 0.27 0.29 0.30 0.30 0.30 0.30 0.31 0.31 0.30 0.30 0.29 0.28 0.27 0.27 0.26 0.25 0.24 0.24 0.24 0.25 0.27 0.27 0.26 0.27 0.29 0.29 0.29 0.29 0.29 0.28 0.28 0.27 0.27 0.28 0.27 0.27 0.25 0.20 0.20 0.20 0.20 0.19 0.19 0.19 0.18 0.17 0.17 0.17 0.16 0.16
0.26 0.27 0.28 0.29 0.30 0.30 0.29 0.30 0.30 0.30 0.30 0.29 0.28 0.28 0.28 0.27 0.27 0.27 0.26 0.26 0.26 0.26 0.24 0.23 0.23 0.24 0.25 0.26 0.26 0.27 0.28 0.27 0.27 0.27 0.27 0.25 0.25 0.24 0.22 0.21 0.21 0.21 0.20 0.20 0.20 0.19 0.18 0.17 0.17 0.16 0.16 0.16
0.26 0.28 0.28 0.29 0.30 0.30 0.29 0.29 0.30 0.30 0.29 0.29 0.28 0.28 0.27 0.27 0.27 0.27 0.27 0.27 0.27 0.26 0.26 0.25 0.24 0.23 0.23 0.24 0.23 0.24 0.25 0.25 0.26 0.26 0.25 0.25 0.24 0.24 0.23 0.22 0.22 0.21 0.20 0.20 0.19 0.19 0.18 0.17 0.17 0.16 0.16 0.15
0.28 0.29 0.28 0.28 0.29 0.29 0.29 0.29 0.29 0.29 0.29 0.29 0.28 0.28 0.27 0.27 0.26 0.26 0.26 0.26 0.27 0.27 0.27 0.26 0.26 0.25 0.25 0.24 0.24 0.24 0.24 0.23 0.24 0.24 0.24 0.24 0.24 0.23 0.23 0.22 0.22 0.21 0.21 0.20 0.19 0.18 0.18 0.17 0.17 0.16 0.16 0.15
0.29 0.28 0.28 0.28 0.28 0.27 0.28 0.29 0.28 0.28 0.28 0.29 0.28 0.28 0.28 0.27 0.26 0.26 0.25 0.26 0.26 0.26 0.27 0.27 0.27 0.27 0.27 0.26 0.25 0.25 0.25 0.24 0.24 0.24 0.24 0.24 0.24 0.23 0.22 0.22 0.21 0.21 0.20 0.20 0.19 0.18 0.17 0.17 0.17 0.16 0.16 0.16
0.27 0.28 0.28 0.28 0.28 0.29 0.29 0.29 0.29 0.29 0.29 0.29 0.29 0.29 0.28 0.28 0.27 0.26 0.25 0.26 0.26 0.26 0.27 0.27 0.27 0.28 0.27 0.27 0.26 0.26 0.26 0.25 0.24 0.24 0.25 0.25 0.24 0.24 0.23 0.22 0.21 0.21 0.20 0.19 0.19 0.18 0.17 0.17 0.17 0.17 0.16 0.16
0.27 0.28 0.28 0.29 0.29 0.29 0.30 0.30 0.30 0.30 0.31 0.30 0.30 0.29 0.29 0.28 0.27 0.27 0.26 0.26 0.26 0.26 0.26 0.26 0.26 0.27 0.27 0.27 0.26 0.26 0.25 0.25 0.25 0.25 0.25 0.25 0.24 0.24 0.23 0.22 0.21 0.21 0.21 0.20 0.19 0.19 0.18 0.18 0.17 0.17 0.16 0.16
0.28 0.28 0.29 0.29 0.29 0.30 0.31 0.31 0.32 0.32 0.32 0.31 0.30 0.29 0.29 0.29 0.28 0.27 0.27 0.26 0.26 0.26 0.25 0.25 0.25 0.25 0.25 0.25 0.26 0.25 0.24 0.25 0.25 0.25 0.25 0.25 0.24 0.24 0.24 0.23 0.22 0.22 0.21 0.20 0.20 0.19 0.19 0.18 0.17 0.17 0.17 0.16
0.29 0.30 0.29 0.30 0.30 0.31 0.31 0.32 0.33 0.33 0.32 0.32 0.31 0.30 0.29 0.29 0.29 0.28 0.27 0.26 0.26 0.26 0.25 0.24 0.24 0.24 0.24 0.24 0.24 0.24 0.24 0.25 0.25 0.25 0.25 0.25 0.24 0.24 0.24 0.24 0.24 0.23 0.22 0.21 0.20 0.20 0.19 0.18 0.18 0.18 0.18 0.17
0.30 0.30 0.30 0.30 0.30 0.31 0.31 0.32 0.32 0.32 0.32 0.32 0.31 0.30 0.29 0.29 0.28 0.28 0.27 0.26 0.26 0.25 0.25 0.24 0.24 0.24 0.24 0.23 0.24 0.24 0.24 0.24 0.24 0.24 0.24 0.25 0.25 0.24 0.24 0.24 0.24 0.24 0.23 0.22 0.21 0.20 0.19 0.19 0.19 0.18 0.18 0.18
0.31 0.31 0.31 0.30 0.31 0.31 0.32 0.32 0.32 0.32 0.31 0.31 0.30 0.30 0.29 0.29 0.28 0.28 0.27 0.26 0.26 0.26 0.25 0.25 0.24 0.24 0.24 0.23 0.23 0.24 0.24 0.23 0.23 0.23 0.23 0.23 0.24 0.24 0.24 0.24 0.24 0.24 0.24 0.24 0.23 0.22 0.21 0.20 0.19 0.19 0.19 0.18
0.30 0.31 0.31 0.31 0.31 0.32 0.32 0.32 0.31 0.31 0.30 0.30 0.30 0.30 0.29 0.29 0.28 0.28 0.27 0.27 0.26 0.26 0.25 0.25 0.25 0.25 0.24 0.24 0.24 0.24 0.23 0.22 0.22 0.22 0.22 0.22 0.22 0.22 0.23 0.22 0.23 0.23 0.23 0.24 0.24 0.23 0.22 0.21 0.20 0.20 0.19 0.19
0.30 0.31 0.31 0.31 0.31 0.31 0.31 0.31 0.30 0.30 0.30 0.30 0.30 0.29 0.29 0.28 0.27 0.27 0.27 0.26 0.26 0.26 0.26 0.25 0.25 0.26 0.25 0.25 0.24 0.24 0.23 0.22 0.22 0.22 0.21 0.21 0.20 0.21 0.21 0.21 0.22 0.22 0.22 0.23 0.23 0.23 0.23 0.22 0.21 0.20 0.19 0.19
0.30 0.30 0.30 0.31 0.31 0.31 0.31 0.31 0.30 0.30 0.30 0.29 0.29 0.28 0.27 0.27 0.26 0.26 0.25 0.25 0.24 0.23 0.23 0.23 0.24 0.25 0.26 0.25 0.25 0.24 0.24 0.23 0.22 0.21 0.21 0.21 0.20 0.19 0.19 0.19 0.19 0.20 0.21 0.21 0.22 0.23 0.23 0.23 0.23 0.21 0.21 0.19
0.30 0.30 0.31 0.31 0.32 0.32 0.32 0.31 0.30 0.30 0.29 0.28 0.27 0.27 0.25 0.25 0.23 0.23 0.22 0.22 0.22 0.21 0.21 0.21 0.21 0.22 0.23 0.24 0.24 0.24 0.24 0.23 0.23 0.22 0.21 0.21 0.21 0.20 0.19 0.18 0.18 0.18 0.19 0.19 0.20 0.21 0.22 0.23 0.23 0.23 0.21 0.20
0.31 0.31 0.32 0.32 0.32 0.32 0.31 0.30 0.30 0.29 0.28 0.27 0.26 0.25 0.24 0.23 0.22 0.22 0.21 0.21 0.21 0.21 0.20 0.20 0.19 0.19 0.20 0.20 0.21 0.21 0.22 0.22 0.23 0.22 0.22 0.20 0.21 0.20 0.19 0.18 0.17 0.17 0.17 0.17 0.18 0.18 0.19 0.21 0.21 0.22 0.22 0.21
0.32 0.31 0.30 0.30 0.29 0.29 0.29 0.28 0.28 0.27 0.26 0.25 0.24 0.24 0.23 0.22 0.22 0.21 0.21 0.21 0.21 0.20 0.20 0.20 0.19 0.19 0.19 0.19 0.19 0.18 0.18 0.19 0.20 0.20 0.20 0.20 0.19 0.20 0.19 0.18 0.18 0.17 0.16 0.16 0.16 0.17 0.17 0.18 0.19 0.20 0.21 0.20
0.30 0.30 0.30 0.28 0.28 0.27 0.27 0.26 0.25 0.25 0.24 0.23 0.22 0.22 0.22 0.21 0.21 0.21 0.20 0.20 0.20 0.19 0.19 0.18 0.18 0.18 0.18 0.18 0.18 0.17 0.17 0.17 0.17 0.17 0.18 0.18 0.18 0.18 0.18 0.19 0.18 0.17 0.16 0.16 0.16 0.16 0.16 0.17 0.18 0.18 0.19 0.19
0.29 0.28 0.28 0.28 0.27 0.26 0.26 0.25 0.25 0.24 0.22 0.21 0.21 0.21 0.21 0.20 0.20 0.20 0.20 0.20 0.19 0.18 0.18 0.17 0.17 0.17 0.16 0.17 0.17 0.16 0.16 0.16 0.16 0.17 0.17 0.17 0.17 0.16 0.16 0.16 0.17 0.17 0.16 0.15 0.14 0.15 0.15 0.15 0.16 0.17 0.18 0.18
0.30 0.29 0.28 0.27 0.26 0.26 0.25 0.24 0.23 0.21 0.21 0.21 0.21 0.21 0.21 0.21 0.21 0.20 0.20 0.20 0.19 0.19 0.18 0.17 0.17 0.16 0.16 0.16 0.16 0.16 0.16 0.16 0.16 0.16 0.16 0.16 0.16 0.16 0.15 0.14 0.16 0.16 0.16 0.14 0.13 0.12 0.13 0.14 0.16 0.17 0.17 0.18
0.30 0.30 0.29 0.27 0.27 0.26 0.26 0.27 0.25 0.24 0.24 0.24 0.23 0.21 0.21 0.21 0.21 0.21 0.20 0.20 0.20 0.19 0.18 0.18 0.17 0.17 0.17 0.16 0.16 0.16 0.15 0.15 0.15 0.15 0.15 0.15 0.15 0.14 0.15 0.15 0.16 0.15 0.15 0.13 0.13 0.13 0.12 0.11 0.12 0.15 0.17 0.18
0.32 0.31 0.30 0.30 0.28 0.28 0.28 0.27 0.26 0.26 0.26 0.25 0.24 0.23 0.22 0.21 0.21 0.21 0.21 0.21 0.21 0.20 0.19 0.19 0.18 0.17 0.17 0.16 0.17 0.16 0.15 0.15 0.15 0.15 0.15 0.15 0.15 0.15 0.13 0.14 0.14 0.16 0.15 0.15 0.13 0.10 0.10 0.11 0.12 0.10 0.12 0.16
0.32 0.32 0.31 0.31 0.31 0.30 0.28 0.27 0.25 0.24 0.24 0.24 0.25 0.24 0.23 0.22 0.22 0.22 0.22 0.22 0.21 0.21 0.20 0.20 0.19 0.18 0.18 0.18 0.17 0.17 0.16 0.15 0.15 0.15 0.15 0.15 0.15 0.14 0.14 0.13 0.14 0.15 0.16 0.15 0.15 0.13 0.11 0.10 0.09 0.10 0.12 0.13
0.33 0.32 0.31 0.30 0.28 0.25 0.24 0.22 0.22 0.21 0.21 0.22 0.23 0.23 0.24 0.24 0.23 0.23 0.22 0.22 0.22 0.21 0.21 0.20 0.20 0.19 0.19 0.18 0.18 0.18 0.17 0.17 0.16 0.16 0.16 0.16 0.15 0.15 0.15 0.14 0.13 0.13 0.16 0.16 0.15 0.15 0.14 0.12 0.10 0.10 0.12 0.13
0.30 0.26 0.24 0.22 0.21 0.22 0.22 0.22 0.22 0.23 0.23 0.24 0.24 0.25 0.24 0.24 0.24 0.24 0.23 0.23 0.22 0.22 0.21 0.21 0.21 0.20 0.20 0.19 0.19 0.19 0.19 0.18 0.17 0.17 0.17 0.17 0.16 0.16 0.16 0.15 0.14 0.13 0.14 0.15 0.15 0.16 0.15 0.14 0.14 0.13 0.12 0.11

ECMWFFLT2_prec_pwat_069.txt.gz
Precipitable_Water
0.33 0.33 0.32 0.31 0.32 0.32 0.31 0.31 0.32 0.31 0.31 0.30 0.30 0.31 0.30 0.28 0.27 0.26 0.27 0.28 0.29 0.29 0.30 0.31 0.31 0.31 0.31 0.34 0.38 0.40 0.40 0.40 0.39 0.39 0.39 0.37 0.37 0.38 0.37 0.36 0.35 0.34 0.32 0.28 0.27 0.27 0.27 0.27 0.27 0.23 0.21 0.15
0.33 0.34 0.34 0.33 0.33 0.33 0.32 0.30 0.30 0.30 0.30 0.31 0.31 0.29 0.30 0.28 0.27 0.26 0.26 0.26 0.27 0.27 0.27 0.29 0.28 0.27 0.31 0.36 0.37 0.38 0.39 0.39 0.39 0.39 0.39 0.37 0.37 0.37 0.36 0.35 0.35 0.34 0.30 0.27 0.26 0.25 0.25 0.25 0.26 0.22 0.18 0.16
0.33 0.35 0.35 0.35 0.34 0.32 0.31 0.30 0.29 0.30 0.31 0.31 0.31 0.30 0.29 0.29 0.27 0.26 0.25 0.25 0.26 0.25 0.27 0.27 0.26 0.27 0.32 0.35 0.36 0.38 0.39 0.38 0.38 0.38 0.37 0.36 0.36 0.35 0.35 0.35 0.32 0.30 0.27 0.26 0.25 0.24 0.24 0.24 0.24 0.19 0.17 0.17
0.31 0.32 0.35 0.35 0.33 0.32 0.32 0.32 0.31 0.32 0.32 0.31 0.31 0.30 0.29 0.29 0.29 0.27 0.24 0.25 0.24 0.24 0.25 0.24 0.26 0.27 0.30 0.32 0.35 0.37 0.38 0.37 0.35 0.35 0.36 0.36 0.34 0.35 0.36 0.34 0.30 0.26 0.24 0.23 0.23 0.23 0.23 0.23 0.21 0.17 0.18 0.17
0.32 0.31 0.31 0.33 0.34 0.34 0.33 0.33 0.33 0.33 0.33 0.33 0.33 0.32 0.31 0.29 0.28 0.27 0.25 0.25 0.24 0.25 0.25 0.25 0.25 0.27 0.27 0.29 0.32 0.34 0.35 0.35 0.35 0.35 0.36 0.35 0.34 0.34 0.34 0.32 0.27 0.24 0.21 0.20 0.21 0.22 0.22 0.22 0.17 0.17 0.18 0.18
0.32 0.31 0.30 0.30 0.31 0.34 0.35 0.34 0.34 0.34 0.33 0.33 0.32 0.31 0.31 0.30 0.28 0.28 0.27 0.26 0.25 0.25 0.25 0.27 0.28 0.28 0.27 0.28 0.28 0.28 0.27 0.29 0.31 0.32 0.33 0.35 0.34 0.32 0.32 0.29 0.24 0.22 0.20 0.20 0.20 0.21 0.21 0.18 0.18 0.18 0.18 0.18
0.31 0.29 0.29 0.30 0.31 0.32 0.33 0.33 0.32 0.32 0.32 0.32 0.32 0.31 0.30 0.29 0.28 0.28 0.28 0.27 0.27 0.27 0.28 0.28 0.27 0.27 0.28 0.28 0.27 0.26 0.26 0.25 0.25 0.26 0.29 0.30 0.30 0.30 0.29 0.25 0.23 0.23 0.22 0.21 0.21 0.21 0.20 0.19 0.19 0.19 0.18 0.18
0.29 0.29 0.30 0.31 0.31 0.31 0.31 0.32 0.32 0.31 0.31 0.31 0.31 0.31 0.30 0.30 0.29 0.28 0.28 0.28 0.28 0.28 0.27 0.25 0.25 0.25 0.26 0.26 0.26 0.26 0.26 0.25 0.24 0.25 0.24 0.24 0.26 0.26 0.25 0.25 0.25 0.24 0.24 0.23 0.23 0.22 0.21 0.20 0.20 0.20 0.19 0.19
0.29 0.30 0.31 0.30 0.30 0.31 0.31 0.31 0.31 0.31 0.31 0.31 0.31 0.31 0.31 0.30 0.30 0.29 0.28 0.28 0.27 0.26 0.26 0.25 0.25 0.25 0.24 0.25 0.25 0.26 0.26 0.26 0.25 0.25 0.24 0.24 0.24 0.24 0.24 0.24 0.24 0.24 0.23 0.23 0.23 0.22 0.22 0.21 0.20 0.20 0.19 0.19
0.30 0.30 0.29 0.29 0.30 0.30 0.31 0.31 0.31 0.30 0.30 0.31 0.31 0.32 0.32 0.31 0.30 0.30 0.29 0.29 0.28 0.27 0.26 0.26 0.25 0.25 0.24 0.24 0.24 0.25 0.25 0.26 0.26 0.26 0.26 0.25 0.25 0.25 0.25 0.24 0.24 0.24 0.23 0.23 0.22 0.22 0.21 0.21 0.20 0.20 0.19 0.19
0.29 0.29 0.29 0.30 0.30 0.30 0.30 0.31 0.30 0.29 0.30 0.31 0.32 0.32 0.32 0.31 0.30 0.29 0.29 0.29 0.28 0.27 0.27 0.26 0.25 0.25 0.24 0.24 0.24 0.24 0.24 0.24 0.25 0.25 0.25 0.25 0.26 0.26 0.26 0.25 0.25 0.24 0.24 0.23 0.22 0.22 0.21 0.21 0.20 0.19 0.19 0.19
0.29 0.29 0.30 0.30 0.31 0.31 0.30 0.30 0.29 0.30 0.30 0.31 0.31 0.32 0.31 0.31 0.30 0.29 0.28 0.28 0.28 0.27 0.27 0.26 0.25 0.25 0.24 0.24 0.23 0.24 0.24 0.24 0.24 0.24 0.24 0.24 0.25 0.25 0.26 0.25 0.25 0.25 0.25 0.25 0.24 0.22 0.21 0.20 0.20 0.19 0.19 0.19
0.29 0.30 0.30 0.31 0.31 0.30 0.31 0.30 0.30 0.30 0.30 0.31 0.31 0.31 0.31 0.31 0.29 0.29 0.28 0.28 0.28 0.28 0.27 0.26 0.25 0.25 0.24 0.24 0.23 0.23 0.23 0.23 0.23 0.23 0.23 0.23 0.23 0.23 0.24 0.24 0.25 0.25 0.25 0.25 0.25 0.24 0.23 0.22 0.21 0.20 0.19 0.18
0.30 0.30 0.30 0.31 0.31 0.30 0.31 0.30 0.31 0.31 0.30 0.30 0.30 0.30 0.30 0.30 0.30 0.29 0.28 0.28 0.28 0.28 0.27 0.27 0.26 0.25 0.24 0.24 0.23 0.23 0.22 0.22 0.22 0.22 0.22 0.22 0.22 0.22 0.22 0.23 0.23 0.24 0.24 0.24 0.25 0.25 0.24 0.24 0.23 0.22 0.20 0.19
0.31 0.31 0.31 0.31 0.30 0.30 0.30 0.30 0.31 0.31 0.31 0.31 0.31 0.30 0.31 0.31 0.30 0.30 0.29 0.29 0.28 0.28 0.28 0.27 0.26 0.25 0.25 0.24 0.24 0.23 0.23 0.23 0.22 0.22 0.21 0.21 0.21 0.21 0.21 0.21 0.22 0.23 0.22 0.23 0.23 0.24 0.24 0.24 0.24 0.23 0.23 0.21
0.31 0.31 0.30 0.30 0.30 0.30 0.30 0.31 0.30 0.31 0.31 0.31 0.32 0.32 0.32 0.31 0.31 0.31 0.30 0.29 0.29 0.28 0.27 0.27 0.26 0.25 0.25 0.25 0.25 0.24 0.23 0.23 0.23 0.22 0.22 0.22 0.22 0.21 0.21 0.21 0.21 0.22 0.21 0.21 0.22 0.22 0.23 0.24 0.24 0.24 0.23 0.23
0.30 0.30 0.30 0.30 0.30 0.30 0.31 0.31 0.31 0.31 0.31 0.32 0.33 0.33 0.33 0.32 0.31 0.31 0.30 0.30 0.29 0.28 0.27 0.26 0.25 0.24 0.24 0.24 0.24 0.24 0.24 0.24 0.23 0.23 0.22 0.22 0.22 0.21 0.21 0.20 0.20 0.20 0.21 0.20 0.20 0.21 0.21 0.22 0.22 0.23 0.23 0.23
0.29 0.29 0.29 0.30 0.30 0.30 0.30 0.30 0.30 0.31 0.32 0.32 0.33 0.32 0.32 0.31 0.31 0.30 0.30 0.28 0.27 0.26 0.24 0.23 0.23 0.22 0.22 0.23 0.23 0.24 0.24 0.23 0.24 0.23 0.22 0.22 0.22 0.21 0.21 0.20 0.20 0.20 0.19 0.19 0.19 0.19 0.19 0.20 0.20 0.21 0.21 0.22
0.29 0.30 0.30 0.30 0.30 0.30 0.30 0.31 0.31 0.31 0.32 0.32 0.32 0.32 0.31 0.30 0.29 0.29 0.28 0.27 0.25 0.23 0.22 0.21 0.20 0.20 0.20 0.20 0.21 0.21 0.22 0.22 0.22 0.23 0.22 0.22 0.21 0.21 0.21 0.21 0.20 0.20 0.19 0.19 0.19 0.18 0.18 0.18 0.18 0.19 0.19 0.20
0.31 0.31 0.31 0.30 0.30 0.29 0.29 0.29 0.30 0.31 0.31 0.31 0.31 0.31 0.30 0.29 0.29 0.29 0.28 0.26 0.24 0.23 0.22 0.21 0.20 0.20 0.20 0.19 0.19 0.19 0.19 0.20 0.19 0.20 0.20 0.21 0.21 0.20 0.20 0.20 0.20 0.20 0.19 0.19 0.19 0.18 0.18 0.18 0.17 0.17 0.18 0.18
0.31 0.31 0.30 0.30 0.30 0.30 0.29 0.29 0.28 0.28 0.29 0.29 0.29 0.29 0.28 0.28 0.28 0.27 0.26 0.25 0.23 0.22 0.21 0.20 0.19 0.19 0.19 0.19 0.19 0.19 0.18 0.18 0.18 0.18 0.18 0.18 0.19 0.19 0.19 0.19 0.19 0.19 0.19 0.19 0.19 0.19 0.18 0.17 0.17 0.17 0.17 0.17
0.32 0.31 0.31 0.30 0.30 0.30 0.30 0.30 0.30 0.29 0.29 0.28 0.28 0.28 0.27 0.27 0.26 0.26 0.25 0.23 0.22 0.21 0.21 0.20 0.19 0.19 0.18 0.18 0.18 0.18 0.18 0.17 0.18 0.18 0.17 0.16 0.17 0.18 0.17 0.17 0.17 0.17 0.18 0.18 0.18 0.18 0.18 0.17 0.17 0.16 0.16 0.17
0.33 0.33 0.32 0.31 0.30 0.30 0.30 0.30 0.31 0.31 0.30 0.29 0.29 0.28 0.28 0.27 0.26 0.25 0.23 0.22 0.21 0.20 0.20 0.20 0.19 0.19 0.18 0.18 0.17 0.17 0.16 0.16 0.16 0.16 0.16 0.16 0.15 0.17 0.17 0.16 0.16 0.16 0.17 0.16 0.17 0.16 0.17 0.17 0.16 0.16 0.16 0.16
0.32 0.32 0.31 0.31 0.31 0.30 0.29 0.29 0.29 0.29 0.29 0.29 0.28 0.28 0.27 0.27 0.26 0.25 0.24 0.22 0.21 0.20 0.20 0.20 0.20 0.20 0.20 0.19 0.18 0.17 0.16 0.15 0.15 0.15 0.15 0.15 0.15 0.15 0.15 0.16 0.16 0.16 0.16 0.16 0.15 0.15 0.15 0.16 0.15 0.15 0.15 0.15
0.32 0.31 0.31 0.31 0.31 0.30 0.30 0.29 0.28 0.27 0.26 0.26 0.26 0.26 0.26 0.26 0.26 0.25 0.25 0.24 0.23 0.22 0.21 0.22 0.22 0.21 0.20 0.20 0.19 0.18 0.17 0.16 0.16 0.16 0.15 0.15 0.15 0.15 0.14 0.14 0.15 0.15 0.16 0.15 0.14 0.14 0.14 0.14 0.15 0.15 0.15 0.15
0.34 0.33 0.31 0.29 0.28 0.27 0.27 0.26 0.25 0.24 0.24 0.24 0.24 0.24 0.24 0.25 0.25 0.26 0.26 0.26 0.25 0.24 0.23 0.22 0.22 0.22 0.21 0.20 0.20 0.19 0.19 0.18 0.18 0.17 0.17 0.16 0.15 0.16 0.15 0.14 0.14 0.15 0.15 0.13 0.12 0.12 0.11 0.12 0.14 0.14 0.14 0.14
0.30 0.29 0.28 0.27 0.26 0.25 0.24 0.24 0.23 0.22 0.22 0.23 0.24 0.25 0.25 0.25 0.25 0.26 0.26 0.26 0.26 0.25 0.24 0.23 0.23 0.22 0.22 0.21 0.21 0.20 0.19 0.19 0.18 0.18 0.18 0.17 0.16 0.15 0.16 0.15 0.16 0.15 0.15 0.13 0.13 0.13 0.12 0.11 0.10 0.12 0.13 0.13
0.30 0.29 0.29 0.29 0.28 0.27 0.26 0.25 0.25 0.24 0.22 0.21 0.21 0.21 0.23 0.24 0.25 0.26 0.26 0.26 0.26 0.26 0.25 0.24 0.23 0.23 0.23 0.22 0.22 0.21 0.19 0.19 0.18 0.19 0.18 0.18 0.18 0.17 0.15 0.15 0.15 0.16 0.16 0.15 0.14 0.11 0.11 0.11 0.12 0.09 0.09 0.11
0.31 0.30 0.29 0.29 0.28 0.27 0.26 0.25 0.24 0.23 0.22 0.22 0.22 0.21 0.21 0.23 0.25 0.25 0.25 0.26 0.26 0.26 0.25 0.25 0.24 0.24 0.23 0.23 0.22 0.22 0.20 0.20 0.19 0.19 0.19 0.19 0.19 0.18 0.16 0.15 0.16 0.16 0.17 0.16 0.16 0.14 0.12 0.11 0.10 0.10 0.11 0.11
0.32 0.30 0.29 0.26 0.24 0.22 0.22 0.22 0.21 0.20 0.20 0.21 0.22 0.22 0.23 0.23 0.24 0.25 0.25 0.25 0.25 0.25 0.25 0.25 0.24 0.24 0.23 0.23 0.22 0.22 0.21 0.21 0.20 0.20 0.20 0.20 0.19 0.18 0.19 0.17 0.16 0.16 0.18 0.18 0.17 0.16 0.15 0.14 0.11 0.11 0.12 0.12
0.31 0.29 0.27 0.25 0.24 0.24 0.23 0.21 0.21 0.22 0.23 0.23 0.23 0.23 0.23 0.22 0.23 0.23 0.24 0.24 0.24 0.24 0.24 0.24 0.24 0.23 0.23 0.23 0.22 0.22 0.22 0.21 0.21 0.21 0.21 0.21 0.20 0.19 0.19 0.19 0.17 0.16 0.17 0.18 0.17 0.17 0.17 0.16 0.15 0.15 0.13 0.11

ECMWFFLT2_prec_pwat_072.txt.gz
Precipitable_Water
0.36 0.34 0.33 0.32 0.34 0.33 0.31 0.31 0.30 0.31 0.30 0.31 0.32 0.31 0.31 0.29 0.28 0.27 0.27 0.27 0.29 0.29 0.30 0.29 0.29 0.30 0.34 0.37 0.39 0.42 0.43 0.43 0.42 0.42 0.41 0.41 0.41 0.41 0.41 0.39 0.41 0.40 0.37 0.35 0.32 0.30 0.29 0.29 0.30 0.27 0.23 0.17
0.35 0.35 0.35 0.34 0.33 0.33 0.32 0.30 0.31 0.31 0.32 0.32 0.32 0.32 0.31 0.30 0.28 0.28 0.27 0.26 0.28 0.27 0.28 0.27 0.27 0.28 0.33 0.34 0.35 0.38 0.39 0.41 0.42 0.42 0.42 0.41 0.41 0.41 0.40 0.39 0.41 0.38 0.34 0.32 0.29 0.27 0.27 0.27 0.28 0.24 0.20 0.18
0.33 0.35 0.36 0.36 0.35 0.34 0.33 0.32 0.32 0.32 0.32 0.33 0.32 0.32 0.31 0.30 0.29 0.29 0.27 0.26 0.27 0.26 0.28 0.26 0.27 0.28 0.32 0.33 0.35 0.35 0.34 0.33 0.34 0.35 0.38 0.41 0.42 0.41 0.41 0.40 0.40 0.35 0.31 0.29 0.27 0.25 0.25 0.25 0.24 0.19 0.18 0.18
0.31 0.32 0.35 0.37 0.37 0.36 0.35 0.34 0.34 0.34 0.34 0.34 0.33 0.33 0.32 0.31 0.31 0.29 0.27 0.27 0.26 0.26 0.27 0.26 0.27 0.29 0.30 0.31 0.33 0.33 0.33 0.32 0.31 0.31 0.32 0.33 0.36 0.39 0.39 0.39 0.36 0.31 0.29 0.27 0.26 0.24 0.24 0.23 0.20 0.17 0.17 0.17
0.31 0.32 0.33 0.34 0.36 0.37 0.37 0.36 0.36 0.35 0.35 0.34 0.34 0.33 0.32 0.31 0.30 0.29 0.28 0.27 0.27 0.27 0.26 0.27 0.28 0.29 0.28 0.30 0.30 0.30 0.30 0.30 0.30 0.31 0.31 0.32 0.31 0.30 0.31 0.33 0.30 0.27 0.26 0.25 0.24 0.24 0.23 0.22 0.19 0.18 0.18 0.18
0.31 0.32 0.33 0.32 0.31 0.32 0.35 0.37 0.37 0.35 0.34 0.34 0.33 0.32 0.33 0.32 0.31 0.30 0.29 0.28 0.28 0.27 0.26 0.28 0.29 0.28 0.28 0.29 0.28 0.28 0.28 0.27 0.27 0.28 0.30 0.30 0.29 0.28 0.28 0.25 0.23 0.24 0.25 0.26 0.26 0.26 0.24 0.22 0.21 0.20 0.19 0.18
0.30 0.31 0.31 0.31 0.31 0.32 0.33 0.34 0.34 0.34 0.33 0.33 0.33 0.32 0.32 0.32 0.31 0.31 0.30 0.29 0.28 0.28 0.29 0.29 0.28 0.27 0.27 0.27 0.27 0.26 0.26 0.26 0.26 0.26 0.27 0.27 0.27 0.27 0.25 0.24 0.23 0.23 0.24 0.24 0.25 0.26 0.25 0.24 0.23 0.22 0.21 0.20
0.30 0.31 0.31 0.31 0.32 0.32 0.32 0.32 0.32 0.33 0.33 0.33 0.33 0.32 0.32 0.32 0.32 0.31 0.30 0.30 0.29 0.29 0.29 0.27 0.27 0.27 0.27 0.26 0.26 0.25 0.24 0.24 0.24 0.25 0.24 0.24 0.25 0.24 0.24 0.25 0.25 0.25 0.24 0.24 0.24 0.24 0.24 0.24 0.24 0.24 0.23 0.22
0.29 0.30 0.31 0.32 0.32 0.32 0.32 0.31 0.31 0.32 0.32 0.33 0.33 0.32 0.32 0.32 0.31 0.31 0.30 0.29 0.29 0.28 0.27 0.27 0.27 0.26 0.26 0.26 0.26 0.26 0.24 0.23 0.23 0.23 0.22 0.22 0.23 0.23 0.23 0.24 0.24 0.25 0.25 0.25 0.25 0.24 0.24 0.23 0.23 0.23 0.23 0.22
0.30 0.32 0.31 0.31 0.32 0.32 0.31 0.31 0.31 0.31 0.32 0.32 0.32 0.32 0.31 0.31 0.30 0.30 0.29 0.29 0.28 0.28 0.27 0.27 0.26 0.26 0.26 0.26 0.26 0.26 0.25 0.24 0.23 0.22 0.22 0.21 0.21 0.21 0.22 0.22 0.23 0.24 0.25 0.25 0.25 0.25 0.25 0.25 0.24 0.23 0.22 0.22
0.31 0.32 0.32 0.32 0.32 0.31 0.30 0.31 0.31 0.31 0.31 0.31 0.31 0.31 0.30 0.29 0.29 0.29 0.28 0.28 0.28 0.27 0.27 0.27 0.27 0.27 0.27 0.26 0.26 0.26 0.25 0.24 0.24 0.22 0.21 0.21 0.20 0.21 0.21 0.21 0.22 0.22 0.23 0.24 0.24 0.25 0.25 0.25 0.25 0.24 0.24 0.23
0.31 0.32 0.32 0.32 0.32 0.32 0.31 0.32 0.31 0.31 0.31 0.31 0.30 0.30 0.30 0.30 0.29 0.28 0.28 0.27 0.27 0.27 0.27 0.27 0.27 0.27 0.27 0.27 0.27 0.27 0.26 0.24 0.24 0.23 0.22 0.21 0.21 0.20 0.20 0.20 0.21 0.21 0.22 0.22 0.23 0.23 0.24 0.24 0.24 0.25 0.25 0.24
0.33 0.33 0.32 0.32 0.31 0.30 0.31 0.31 0.31 0.31 0.31 0.30 0.30 0.30 0.30 0.30 0.29 0.28 0.28 0.27 0.27 0.28 0.28 0.28 0.28 0.28 0.27 0.27 0.27 0.27 0.26 0.25 0.23 0.23 0.22 0.21 0.21 0.21 0.20 0.20 0.20 0.20 0.21 0.21 0.22 0.22 0.22 0.22 0.23 0.24 0.24 0.25
0.33 0.32 0.31 0.31 0.31 0.30 0.31 0.30 0.31 0.31 0.31 0.31 0.30 0.30 0.30 0.30 0.29 0.29 0.28 0.28 0.29 0.29 0.29 0.29 0.29 0.28 0.28 0.27 0.27 0.26 0.24 0.24 0.24 0.22 0.22 0.22 0.21 0.21 0.20 0.20 0.20 0.20 0.20 0.20 0.21 0.21 0.21 0.21 0.22 0.22 0.23 0.23
0.32 0.32 0.31 0.30 0.30 0.30 0.29 0.30 0.31 0.31 0.31 0.31 0.31 0.31 0.31 0.30 0.30 0.30 0.30 0.30 0.30 0.30 0.29 0.29 0.29 0.28 0.28 0.27 0.26 0.25 0.24 0.24 0.23 0.23 0.22 0.22 0.21 0.21 0.21 0.21 0.21 0.20 0.20 0.20 0.20 0.20 0.20 0.21 0.21 0.21 0.21 0.22
0.30 0.30 0.30 0.30 0.30 0.30 0.31 0.31 0.31 0.31 0.31 0.31 0.32 0.32 0.31 0.31 0.30 0.31 0.31 0.31 0.31 0.30 0.29 0.29 0.29 0.28 0.27 0.26 0.25 0.24 0.23 0.23 0.22 0.22 0.22 0.22 0.22 0.22 0.21 0.21 0.21 0.21 0.20 0.20 0.20 0.20 0.20 0.20 0.20 0.20 0.21 0.21
0.31 0.30 0.30 0.29 0.28 0.29 0.29 0.30 0.31 0.31 0.31 0.31 0.31 0.31 0.31 0.30 0.30 0.31 0.30 0.30 0.30 0.30 0.29 0.28 0.27 0.27 0.26 0.25 0.24 0.23 0.22 0.21 0.21 0.20 0.20 0.20 0.21 0.20 0.20 0.20 0.20 0.21 0.21 0.20 0.20 0.20 0.20 0.20 0.19 0.20 0.20 0.20
0.31 0.31 0.30 0.30 0.30 0.30 0.30 0.30 0.29 0.29 0.29 0.30 0.30 0.30 0.30 0.29 0.29 0.29 0.29 0.28 0.28 0.28 0.27 0.26 0.25 0.25 0.25 0.24 0.24 0.22 0.21 0.20 0.20 0.19 0.19 0.18 0.18 0.18 0.19 0.18 0.19 0.19 0.19 0.20 0.20 0.20 0.20 0.20 0.19 0.19 0.19 0.19
0.32 0.32 0.31 0.31 0.31 0.31 0.32 0.32 0.31 0.31 0.30 0.29 0.29 0.29 0.29 0.29 0.30 0.30 0.29 0.28 0.26 0.25 0.25 0.25 0.24 0.24 0.24 0.24 0.23 0.21 0.21 0.20 0.19 0.18 0.18 0.18 0.17 0.17 0.17 0.17 0.17 0.17 0.18 0.18 0.18 0.19 0.20 0.19 0.19 0.19 0.19 0.19
0.33 0.32 0.32 0.32 0.32 0.31 0.31 0.31 0.31 0.32 0.32 0.32 0.31 0.31 0.31 0.31 0.30 0.30 0.29 0.28 0.27 0.25 0.24 0.23 0.22 0.22 0.23 0.23 0.22 0.20 0.19 0.19 0.18 0.17 0.17 0.17 0.17 0.15 0.15 0.15 0.15 0.16 0.16 0.16 0.17 0.18 0.18 0.19 0.19 0.19 0.19 0.18
0.34 0.34 0.33 0.32 0.32 0.32 0.32 0.31 0.30 0.30 0.30 0.31 0.31 0.31 0.31 0.30 0.30 0.29 0.28 0.27 0.27 0.25 0.23 0.23 0.22 0.21 0.21 0.22 0.21 0.21 0.20 0.19 0.18 0.17 0.16 0.16 0.16 0.16 0.15 0.15 0.14 0.15 0.15 0.15 0.15 0.16 0.16 0.17 0.18 0.18 0.18 0.18
0.35 0.35 0.34 0.33 0.33 0.31 0.29 0.28 0.28 0.28 0.28 0.28 0.29 0.29 0.29 0.29 0.29 0.29 0.28 0.27 0.27 0.25 0.25 0.24 0.23 0.22 0.22 0.22 0.22 0.21 0.21 0.20 0.19 0.19 0.18 0.16 0.16 0.16 0.16 0.15 0.14 0.14 0.14 0.15 0.14 0.14 0.14 0.15 0.16 0.16 0.16 0.17
0.33 0.32 0.31 0.30 0.29 0.29 0.29 0.28 0.28 0.28 0.27 0.27 0.27 0.27 0.27 0.28 0.28 0.27 0.27 0.27 0.26 0.25 0.24 0.24 0.24 0.23 0.23 0.23 0.22 0.22 0.21 0.21 0.20 0.20 0.19 0.18 0.17 0.17 0.17 0.16 0.16 0.15 0.15 0.15 0.15 0.14 0.14 0.14 0.14 0.15 0.15 0.16
0.31 0.30 0.30 0.29 0.29 0.29 0.28 0.29 0.29 0.29 0.28 0.27 0.27 0.27 0.27 0.27 0.27 0.26 0.26 0.25 0.25 0.24 0.24 0.24 0.24 0.24 0.24 0.24 0.23 0.22 0.22 0.21 0.21 0.20 0.20 0.19 0.18 0.18 0.18 0.18 0.17 0.17 0.16 0.15 0.15 0.14 0.14 0.15 0.14 0.14 0.14 0.14
0.31 0.30 0.30 0.30 0.29 0.29 0.29 0.30 0.30 0.29 0.28 0.27 0.27 0.27 0.27 0.27 0.26 0.26 0.25 0.25 0.26 0.25 0.25 0.24 0.24 0.24 0.24 0.24 0.24 0.23 0.23 0.23 0.22 0.22 0.21 0.20 0.20 0.19 0.18 0.17 0.18 0.18 0.17 0.15 0.14 0.14 0.14 0.14 0.15 0.14 0.14 0.14
0.32 0.32 0.31 0.30 0.30 0.31 0.31 0.31 0.29 0.28 0.28 0.28 0.28 0.28 0.28 0.27 0.26 0.26 0.26 0.26 0.26 0.26 0.25 0.25 0.24 0.24 0.24 0.24 0.24 0.23 0.23 0.23 0.23 0.23 0.22 0.22 0.20 0.20 0.19 0.18 0.19 0.18 0.18 0.15 0.14 0.13 0.12 0.13 0.14 0.14 0.15 0.14
0.33 0.33 0.33 0.33 0.32 0.32 0.31 0.31 0.30 0.29 0.29 0.29 0.29 0.29 0.28 0.27 0.27 0.26 0.26 0.26 0.26 0.25 0.25 0.25 0.25 0.24 0.25 0.25 0.24 0.23 0.23 0.23 0.22 0.22 0.22 0.22 0.21 0.19 0.20 0.19 0.20 0.19 0.19 0.16 0.16 0.16 0.14 0.12 0.11 0.13 0.14 0.15
0.34 0.34 0.34 0.34 0.33 0.32 0.31 0.29 0.30 0.30 0.29 0.29 0.28 0.27 0.27 0.26 0.25 0.25 0.25 0.25 0.25 0.25 0.24 0.24 0.24 0.24 0.24 0.23 0.24 0.23 0.22 0.22 0.21 0.22 0.22 0.22 0.21 0.21 0.18 0.19 0.19 0.20 0.19 0.18 0.17 0.13 0.13 0.13 0.13 0.10 0.11 0.12
0.35 0.34 0.34 0.33 0.32 0.32 0.30 0.30 0.28 0.27 0.26 0.26 0.25 0.25 0.24 0.24 0.24 0.24 0.24 0.23 0.23 0.23 0.22 0.22 0.22 0.22 0.22 0.22 0.22 0.22 0.21 0.21 0.20 0.21 0.21 0.21 0.21 0.20 0.19 0.19 0.19 0.20 0.20 0.19 0.19 0.17 0.14 0.13 0.12 0.12 0.13 0.13
0.35 0.34 0.32 0.31 0.30 0.28 0.27 0.26 0.25 0.24 0.24 0.23 0.22 0.22 0.23 0.23 0.23 0.22 0.21 0.21 0.20 0.20 0.20 0.20 0.20 0.20 0.20 0.20 0.20 0.20 0.20 0.20 0.20 0.19 0.19 0.20 0.20 0.19 0.19 0.19 0.18 0.18 0.21 0.20 0.20 0.19 0.18 0.17 0.14 0.13 0.14 0.14
0.35 0.33 0.32 0.30 0.28 0.27 0.25 0.23 0.23 0.24 0.23 0.22 0.21 0.21 0.20 0.20 0.21 0.20 0.19 0.19 0.19 0.18 0.18 0.18 0.18 0.18 0.19 0.19 0.19 0.19 0.19 0.19 0.19 0.19 0.19 0.20 0.19 0.19 0.19 0.18 0.16 0.17 0.18 0.20 0.20 0.20 0.19 0.18 0.18 0.18 0.15 0.13

ECMWFFLT2_prec_pwat_075.txt.gz
Precipitable_Water
0.33 0.32 0.31 0.34 0.34 0.32 0.32 0.32 0.32 0.32 0.33 0.34 0.34 0.33 0.32 0.31 0.30 0.30 0.29 0.30 0.30 0.31 0.30 0.30 0.31 0.36 0.37 0.39 0.41 0.41 0.39 0.39 0.39 0.39 0.42 0.43 0.44 0.42 0.42 0.41 0.43 0.42 0.38 0.36 0.34 0.32 0.30 0.31 0.29 0.24 0.20 0.17
0.35 0.34 0.33 0.33 0.33 0.33 0.32 0.32 0.33 0.33 0.34 0.34 0.34 0.33 0.32 0.31 0.30 0.29 0.29 0.29 0.29 0.30 0.29 0.28 0.29 0.33 0.35 0.37 0.38 0.37 0.37 0.36 0.36 0.36 0.37 0.39 0.41 0.42 0.42 0.42 0.40 0.36 0.35 0.34 0.32 0.31 0.30 0.30 0.27 0.22 0.19 0.18
0.34 0.36 0.35 0.35 0.34 0.35 0.35 0.35 0.34 0.35 0.35 0.34 0.33 0.33 0.32 0.31 0.31 0.30 0.29 0.29 0.28 0.29 0.28 0.27 0.28 0.31 0.33 0.35 0.35 0.35 0.34 0.33 0.33 0.34 0.35 0.37 0.35 0.35 0.37 0.39 0.36 0.31 0.29 0.28 0.27 0.28 0.29 0.29 0.25 0.21 0.20 0.19
0.32 0.32 0.35 0.36 0.38 0.38 0.37 0.36 0.36 0.36 0.35 0.35 0.35 0.34 0.33 0.32 0.31 0.30 0.29 0.29 0.28 0.29 0.27 0.27 0.28 0.30 0.30 0.33 0.33 0.32 0.32 0.31 0.31 0.32 0.33 0.33 0.31 0.31 0.31 0.31 0.27 0.26 0.26 0.27 0.26 0.26 0.26 0.26 0.23 0.22 0.22 0.21
0.31 0.31 0.32 0.33 0.35 0.38 0.38 0.38 0.38 0.37 0.37 0.36 0.35 0.35 0.33 0.32 0.31 0.31 0.30 0.29 0.28 0.29 0.27 0.28 0.29 0.29 0.29 0.31 0.31 0.31 0.30 0.28 0.29 0.30 0.31 0.30 0.29 0.28 0.26 0.24 0.22 0.23 0.25 0.26 0.26 0.26 0.25 0.23 0.21 0.22 0.23 0.23
0.30 0.31 0.31 0.31 0.32 0.32 0.33 0.35 0.37 0.38 0.37 0.36 0.35 0.34 0.34 0.33 0.32 0.32 0.31 0.30 0.30 0.29 0.28 0.28 0.29 0.29 0.29 0.29 0.29 0.29 0.28 0.27 0.27 0.29 0.29 0.28 0.28 0.26 0.24 0.22 0.20 0.21 0.22 0.23 0.25 0.25 0.25 0.23 0.22 0.22 0.22 0.23
0.29 0.30 0.31 0.31 0.32 0.32 0.33 0.33 0.35 0.36 0.37 0.36 0.35 0.35 0.34 0.33 0.32 0.32 0.32 0.31 0.30 0.30 0.30 0.29 0.28 0.27 0.28 0.28 0.28 0.27 0.27 0.26 0.26 0.27 0.27 0.26 0.26 0.25 0.23 0.22 0.21 0.20 0.20 0.21 0.22 0.24 0.24 0.24 0.24 0.23 0.23 0.22
0.28 0.28 0.30 0.30 0.31 0.31 0.32 0.33 0.33 0.33 0.34 0.35 0.35 0.35 0.34 0.33 0.32 0.32 0.31 0.31 0.30 0.30 0.28 0.27 0.26 0.26 0.26 0.26 0.26 0.26 0.26 0.26 0.25 0.26 0.25 0.25 0.25 0.24 0.23 0.22 0.21 0.21 0.20 0.20 0.21 0.21 0.22 0.23 0.24 0.24 0.24 0.24
0.26 0.27 0.28 0.30 0.30 0.31 0.32 0.32 0.33 0.33 0.33 0.33 0.33 0.34 0.33 0.33 0.32 0.31 0.30 0.30 0.29 0.28 0.27 0.26 0.26 0.26 0.26 0.26 0.26 0.27 0.26 0.26 0.25 0.25 0.25 0.24 0.24 0.24 0.23 0.23 0.22 0.21 0.20 0.20 0.20 0.20 0.21 0.22 0.23 0.24 0.24 0.24
0.26 0.27 0.27 0.28 0.30 0.31 0.32 0.32 0.32 0.33 0.32 0.32 0.33 0.32 0.32 0.31 0.31 0.30 0.30 0.29 0.28 0.28 0.27 0.26 0.26 0.26 0.27 0.27 0.26 0.27 0.27 0.27 0.27 0.26 0.25 0.25 0.24 0.24 0.23 0.23 0.22 0.22 0.21 0.20 0.20 0.20 0.20 0.21 0.21 0.23 0.23 0.24
0.26 0.27 0.29 0.30 0.32 0.32 0.32 0.33 0.33 0.32 0.32 0.32 0.32 0.31 0.31 0.30 0.30 0.30 0.29 0.29 0.28 0.28 0.27 0.27 0.27 0.27 0.27 0.27 0.27 0.28 0.28 0.28 0.28 0.27 0.26 0.25 0.24 0.24 0.23 0.23 0.23 0.22 0.21 0.20 0.20 0.20 0.20 0.20 0.21 0.21 0.22 0.23
0.28 0.30 0.31 0.32 0.33 0.33 0.33 0.33 0.33 0.33 0.32 0.32 0.32 0.31 0.31 0.31 0.31 0.30 0.29 0.29 0.28 0.28 0.28 0.27 0.27 0.27 0.28 0.28 0.28 0.29 0.29 0.28 0.28 0.27 0.27 0.26 0.25 0.24 0.23 0.23 0.23 0.22 0.21 0.21 0.20 0.20 0.19 0.20 0.20 0.21 0.22 0.22
0.31 0.31 0.32 0.32 0.32 0.31 0.33 0.32 0.32 0.33 0.33 0.32 0.32 0.32 0.32 0.32 0.31 0.31 0.30 0.29 0.29 0.28 0.27 0.27 0.27 0.27 0.28 0.28 0.28 0.28 0.28 0.27 0.27 0.26 0.26 0.26 0.25 0.24 0.23 0.23 0.22 0.22 0.22 0.21 0.21 0.20 0.20 0.20 0.20 0.20 0.21 0.21
0.32 0.32 0.31 0.31 0.31 0.31 0.32 0.31 0.32 0.33 0.32 0.32 0.32 0.31 0.32 0.32 0.31 0.30 0.30 0.29 0.29 0.28 0.27 0.27 0.27 0.27 0.27 0.27 0.26 0.26 0.25 0.25 0.25 0.24 0.24 0.24 0.24 0.23 0.22 0.21 0.21 0.21 0.21 0.21 0.21 0.21 0.21 0.20 0.20 0.20 0.20 0.20
0.30 0.30 0.29 0.29 0.29 0.29 0.29 0.30 0.31 0.31 0.31 0.31 0.31 0.31 0.31 0.31 0.31 0.31 0.30 0.29 0.28 0.27 0.26 0.26 0.26 0.26 0.26 0.25 0.24 0.24 0.23 0.24 0.23 0.23 0.23 0.23 0.23 0.22 0.22 0.21 0.20 0.20 0.19 0.19 0.19 0.20 0.20 0.20 0.21 0.21 0.21 0.21
0.29 0.29 0.30 0.30 0.30 0.31 0.31 0.32 0.31 0.30 0.30 0.29 0.29 0.30 0.30 0.30 0.30 0.30 0.29 0.28 0.28 0.27 0.26 0.26 0.26 0.26 0.26 0.25 0.25 0.25 0.23 0.23 0.23 0.23 0.22 0.22 0.22 0.22 0.21 0.20 0.19 0.19 0.18 0.18 0.18 0.18 0.18 0.19 0.20 0.20 0.21 0.21
0.31 0.31 0.31 0.31 0.31 0.32 0.33 0.33 0.32 0.31 0.31 0.30 0.30 0.30 0.30 0.30 0.31 0.31 0.30 0.29 0.29 0.29 0.29 0.29 0.28 0.27 0.26 0.26 0.26 0.25 0.24 0.23 0.22 0.21 0.21 0.20 0.21 0.20 0.20 0.19 0.18 0.18 0.17 0.16 0.16 0.17 0.17 0.17 0.17 0.18 0.19 0.20
0.32 0.32 0.32 0.32 0.32 0.32 0.32 0.31 0.31 0.31 0.31 0.31 0.31 0.31 0.32 0.32 0.32 0.31 0.31 0.31 0.30 0.31 0.30 0.30 0.30 0.29 0.28 0.28 0.27 0.26 0.25 0.23 0.22 0.20 0.19 0.19 0.19 0.18 0.18 0.17 0.16 0.16 0.15 0.15 0.16 0.15 0.16 0.16 0.16 0.16 0.16 0.17
0.33 0.33 0.33 0.32 0.31 0.30 0.29 0.28 0.28 0.28 0.28 0.28 0.29 0.30 0.31 0.32 0.32 0.32 0.32 0.32 0.31 0.31 0.31 0.30 0.29 0.28 0.28 0.27 0.26 0.25 0.25 0.23 0.22 0.21 0.19 0.19 0.18 0.18 0.17 0.17 0.16 0.16 0.15 0.15 0.15 0.15 0.15 0.15 0.15 0.15 0.15 0.15
0.34 0.33 0.32 0.31 0.31 0.30 0.30 0.30 0.29 0.29 0.29 0.29 0.29 0.29 0.30 0.31 0.31 0.31 0.31 0.31 0.31 0.30 0.29 0.28 0.27 0.27 0.26 0.26 0.25 0.24 0.24 0.23 0.22 0.22 0.21 0.20 0.19 0.18 0.17 0.17 0.17 0.17 0.16 0.15 0.15 0.15 0.15 0.15 0.15 0.14 0.14 0.14
0.34 0.33 0.32 0.32 0.32 0.32 0.31 0.31 0.30 0.30 0.31 0.31 0.31 0.31 0.30 0.31 0.31 0.31 0.32 0.32 0.32 0.30 0.29 0.28 0.27 0.27 0.26 0.26 0.25 0.24 0.23 0.23 0.23 0.22 0.22 0.21 0.21 0.20 0.18 0.18 0.17 0.17 0.17 0.16 0.16 0.16 0.16 0.15 0.15 0.15 0.14 0.14
0.34 0.33 0.33 0.33 0.33 0.33 0.32 0.32 0.32 0.32 0.32 0.31 0.31 0.32 0.32 0.32 0.32 0.31 0.31 0.31 0.32 0.31 0.30 0.29 0.28 0.28 0.28 0.27 0.25 0.23 0.23 0.22 0.23 0.23 0.23 0.21 0.22 0.21 0.20 0.19 0.18 0.18 0.18 0.18 0.17 0.17 0.17 0.17 0.16 0.16 0.15 0.15
0.35 0.35 0.35 0.34 0.34 0.33 0.33 0.33 0.33 0.33 0.33 0.33 0.33 0.33 0.32 0.32 0.32 0.31 0.31 0.31 0.31 0.30 0.29 0.28 0.28 0.27 0.28 0.27 0.26 0.24 0.23 0.23 0.22 0.23 0.22 0.22 0.22 0.22 0.22 0.21 0.20 0.20 0.19 0.19 0.18 0.18 0.18 0.18 0.17 0.17 0.17 0.17
0.35 0.35 0.34 0.33 0.34 0.33 0.33 0.33 0.33 0.34 0.33 0.34 0.34 0.34 0.33 0.32 0.32 0.31 0.31 0.31 0.31 0.30 0.28 0.27 0.27 0.26 0.27 0.26 0.26 0.25 0.24 0.23 0.23 0.22 0.22 0.21 0.21 0.20 0.21 0.21 0.21 0.21 0.20 0.19 0.19 0.19 0.19 0.19 0.18 0.18 0.17 0.17
0.35 0.34 0.34 0.34 0.33 0.32 0.33 0.33 0.34 0.33 0.33 0.34 0.34 0.33 0.32 0.32 0.32 0.31 0.31 0.31 0.30 0.29 0.28 0.27 0.27 0.27 0.26 0.26 0.26 0.25 0.24 0.24 0.23 0.23 0.23 0.22 0.21 0.20 0.19 0.19 0.20 0.20 0.20 0.18 0.17 0.18 0.18 0.18 0.19 0.19 0.18 0.17
0.35 0.35 0.34 0.33 0.33 0.33 0.33 0.33 0.32 0.32 0.33 0.33 0.33 0.32 0.32 0.32 0.32 0.31 0.30 0.29 0.28 0.27 0.27 0.26 0.26 0.26 0.25 0.25 0.25 0.24 0.24 0.23 0.23 0.23 0.22 0.22 0.20 0.21 0.19 0.18 0.19 0.19 0.18 0.16 0.15 0.14 0.14 0.16 0.17 0.18 0.18 0.18
0.35 0.35 0.35 0.34 0.33 0.33 0.33 0.33 0.33 0.33 0.33 0.33 0.32 0.32 0.32 0.31 0.31 0.30 0.29 0.28 0.27 0.26 0.25 0.25 0.24 0.24 0.24 0.23 0.23 0.22 0.21 0.21 0.21 0.21 0.21 0.21 0.20 0.19 0.19 0.19 0.19 0.19 0.19 0.15 0.16 0.15 0.14 0.12 0.12 0.15 0.17 0.18
0.35 0.35 0.35 0.34 0.34 0.33 0.33 0.32 0.33 0.33 0.32 0.31 0.30 0.29 0.29 0.29 0.29 0.28 0.27 0.26 0.25 0.24 0.24 0.23 0.22 0.22 0.21 0.20 0.21 0.20 0.19 0.19 0.18 0.19 0.19 0.20 0.19 0.19 0.16 0.17 0.17 0.19 0.19 0.17 0.15 0.12 0.12 0.12 0.13 0.10 0.11 0.13
0.35 0.35 0.35 0.34 0.34 0.34 0.32 0.31 0.30 0.30 0.29 0.28 0.28 0.28 0.27 0.27 0.27 0.26 0.25 0.24 0.23 0.22 0.21 0.20 0.19 0.18 0.18 0.17 0.17 0.17 0.17 0.17 0.17 0.18 0.18 0.19 0.18 0.18 0.17 0.15 0.16 0.17 0.18 0.17 0.17 0.15 0.13 0.12 0.11 0.10 0.12 0.13
0.35 0.34 0.34 0.33 0.32 0.30 0.30 0.29 0.29 0.28 0.27 0.27 0.26 0.25 0.25 0.24 0.23 0.22 0.21 0.20 0.19 0.18 0.17 0.16 0.15 0.14 0.14 0.14 0.14 0.15 0.15 0.15 0.16 0.16 0.17 0.17 0.18 0.17 0.18 0.17 0.16 0.15 0.17 0.17 0.17 0.17 0.16 0.15 0.12 0.12 0.13 0.13
0.35 0.34 0.34 0.33 0.31 0.30 0.29 0.28 0.27 0.27 0.26 0.25 0.24 0.23 0.21 0.20 0.20 0.19 0.18 0.17 0.16 0.16 0.15 0.15 0.14 0.14 0.13 0.12 0.12 0.13 0.13 0.13 0.14 0.14 0.15 0.16 0.16 0.17 0.17 0.17 0.15 0.15 0.15 0.17 0.17 0.17 0.16 0.16 0.16 0.15 0.13 0.11

ECMWFFLT2_prec_pwat_078.txt.gz
Precipitable_Water
0.33 0.33 0.34 0.35 0.35 0.33 0.34 0.35 0.37 0.37 0.36 0.36 0.35 0.34 0.32 0.31 0.31 0.31 0.31 0.32 0.33 0.32 0.31 0.32 0.37 0.39 0.41 0.41 0.41 0.40 0.38 0.38 0.38 0.38 0.39 0.40 0.39 0.40 0.40 0.42 0.39 0.36 0.35 0.34 0.33 0.31 0.31 0.30 0.26 0.22 0.21 0.22
0.33 0.32 0.34 0.34 0.33 0.33 0.33 0.35 0.36 0.37 0.36 0.36 0.34 0.33 0.32 0.31 0.30 0.30 0.31 0.31 0.31 0.32 0.30 0.30 0.32 0.36 0.39 0.39 0.38 0.37 0.36 0.36 0.36 0.38 0.38 0.36 0.36 0.36 0.37 0.36 0.31 0.27 0.26 0.28 0.28 0.29 0.29 0.28 0.24 0.22 0.21 0.21
0.36 0.34 0.34 0.34 0.34 0.36 0.36 0.36 0.36 0.37 0.38 0.36 0.34 0.33 0.32 0.32 0.31 0.30 0.30 0.30 0.30 0.31 0.29 0.29 0.31 0.32 0.36 0.37 0.36 0.34 0.33 0.33 0.34 0.36 0.36 0.34 0.34 0.32 0.30 0.27 0.24 0.23 0.25 0.26 0.26 0.27 0.27 0.25 0.23 0.23 0.23 0.22
0.38 0.36 0.36 0.36 0.37 0.38 0.39 0.38 0.39 0.38 0.38 0.38 0.36 0.35 0.33 0.32 0.32 0.31 0.32 0.30 0.31 0.30 0.29 0.29 0.30 0.31 0.33 0.35 0.34 0.33 0.31 0.31 0.32 0.34 0.33 0.32 0.32 0.30 0.27 0.24 0.23 0.23 0.23 0.24 0.24 0.24 0.24 0.22 0.22 0.23 0.23 0.23
0.35 0.34 0.33 0.36 0.36 0.38 0.39 0.40 0.41 0.41 0.40 0.39 0.40 0.37 0.36 0.34 0.35 0.34 0.33 0.33 0.32 0.32 0.30 0.28 0.29 0.29 0.30 0.32 0.32 0.31 0.30 0.28 0.29 0.31 0.31 0.30 0.30 0.27 0.25 0.23 0.23 0.23 0.22 0.23 0.23 0.21 0.21 0.21 0.21 0.22 0.23 0.23
0.33 0.34 0.33 0.33 0.33 0.33 0.34 0.36 0.35 0.39 0.40 0.39 0.40 0.38 0.37 0.37 0.35 0.34 0.34 0.34 0.32 0.32 0.31 0.32 0.29 0.29 0.29 0.30 0.30 0.29 0.28 0.27 0.28 0.29 0.29 0.28 0.28 0.26 0.24 0.24 0.24 0.24 0.24 0.23 0.22 0.21 0.21 0.21 0.21 0.21 0.21 0.22
0.32 0.32 0.32 0.32 0.32 0.32 0.32 0.33 0.33 0.34 0.36 0.38 0.38 0.37 0.36 0.36 0.36 0.35 0.34 0.34 0.32 0.31 0.30 0.30 0.29 0.27 0.28 0.28 0.28 0.27 0.27 0.27 0.27 0.28 0.27 0.27 0.27 0.25 0.25 0.25 0.24 0.24 0.24 0.24 0.23 0.23 0.22 0.21 0.21 0.20 0.21 0.21
0.30 0.30 0.29 0.29 0.30 0.30 0.31 0.32 0.33 0.34 0.34 0.35 0.35 0.36 0.36 0.35 0.35 0.35 0.34 0.33 0.32 0.31 0.32 0.30 0.29 0.28 0.27 0.27 0.27 0.26 0.28 0.27 0.27 0.26 0.27 0.26 0.26 0.26 0.26 0.26 0.25 0.24 0.24 0.24 0.23 0.23 0.22 0.22 0.22 0.21 0.20 0.20
0.27 0.28 0.28 0.29 0.29 0.30 0.31 0.32 0.33 0.34 0.35 0.35 0.35 0.35 0.35 0.35 0.34 0.34 0.33 0.33 0.33 0.32 0.31 0.30 0.30 0.30 0.29 0.28 0.29 0.27 0.27 0.27 0.27 0.27 0.27 0.27 0.27 0.27 0.26 0.26 0.26 0.25 0.25 0.24 0.23 0.23 0.23 0.22 0.22 0.22 0.21 0.21
0.27 0.27 0.28 0.29 0.30 0.31 0.32 0.33 0.33 0.34 0.34 0.34 0.35 0.35 0.34 0.34 0.34 0.33 0.33 0.33 0.33 0.32 0.31 0.30 0.30 0.29 0.29 0.28 0.28 0.28 0.27 0.26 0.26 0.26 0.26 0.26 0.26 0.26 0.26 0.26 0.26 0.25 0.25 0.24 0.24 0.24 0.23 0.23 0.22 0.22 0.22 0.21
0.29 0.30 0.30 0.31 0.31 0.32 0.32 0.34 0.34 0.34 0.35 0.34 0.35 0.35 0.35 0.34 0.33 0.33 0.33 0.33 0.33 0.32 0.31 0.30 0.30 0.29 0.29 0.28 0.27 0.27 0.26 0.26 0.26 0.25 0.24 0.24 0.24 0.24 0.24 0.24 0.25 0.24 0.24 0.24 0.24 0.24 0.24 0.24 0.23 0.22 0.22 0.21
0.30 0.31 0.32 0.32 0.32 0.33 0.33 0.34 0.34 0.34 0.34 0.35 0.34 0.34 0.34 0.34 0.34 0.33 0.32 0.32 0.32 0.31 0.31 0.30 0.29 0.29 0.28 0.28 0.27 0.27 0.25 0.25 0.24 0.24 0.24 0.24 0.24 0.23 0.23 0.23 0.24 0.23 0.23 0.24 0.24 0.23 0.23 0.23 0.22 0.22 0.22 0.22
0.32 0.32 0.32 0.32 0.32 0.32 0.34 0.33 0.33 0.34 0.33 0.32 0.32 0.33 0.33 0.33 0.33 0.33 0.32 0.32 0.31 0.30 0.29 0.29 0.29 0.28 0.27 0.27 0.27 0.26 0.25 0.25 0.24 0.24 0.24 0.24 0.24 0.23 0.22 0.22 0.22 0.23 0.23 0.23 0.22 0.22 0.22 0.22 0.21 0.21 0.21 0.22
0.32 0.32 0.32 0.32 0.33 0.32 0.32 0.31 0.31 0.30 0.30 0.31 0.31 0.32 0.33 0.33 0.33 0.33 0.31 0.31 0.31 0.30 0.29 0.29 0.29 0.28 0.28 0.26 0.26 0.26 0.25 0.26 0.26 0.25 0.25 0.25 0.25 0.24 0.23 0.22 0.21 0.21 0.21 0.21 0.21 0.21 0.21 0.21 0.20 0.20 0.20 0.20
0.32 0.33 0.32 0.32 0.32 0.32 0.31 0.31 0.31 0.31 0.31 0.31 0.31 0.32 0.33 0.34 0.34 0.33 0.33 0.32 0.31 0.30 0.30 0.30 0.29 0.29 0.28 0.28 0.28 0.28 0.27 0.28 0.28 0.27 0.26 0.26 0.25 0.24 0.23 0.22 0.22 0.21 0.20 0.20 0.20 0.21 0.20 0.19 0.19 0.19 0.19 0.19
0.32 0.32 0.31 0.31 0.30 0.30 0.31 0.31 0.31 0.31 0.32 0.32 0.32 0.33 0.34 0.34 0.33 0.33 0.33 0.33 0.32 0.31 0.30 0.30 0.30 0.30 0.29 0.29 0.30 0.31 0.31 0.31 0.31 0.30 0.28 0.28 0.27 0.25 0.24 0.23 0.22 0.22 0.20 0.19 0.19 0.19 0.19 0.19 0.19 0.18 0.18 0.17
0.31 0.31 0.29 0.28 0.28 0.28 0.28 0.28 0.28 0.28 0.28 0.29 0.30 0.32 0.33 0.33 0.34 0.34 0.33 0.32 0.32 0.31 0.30 0.30 0.30 0.30 0.30 0.31 0.31 0.32 0.32 0.32 0.31 0.30 0.29 0.28 0.28 0.26 0.25 0.23 0.22 0.22 0.21 0.19 0.18 0.18 0.18 0.18 0.18 0.18 0.17 0.17
0.30 0.30 0.30 0.29 0.29 0.29 0.29 0.29 0.29 0.29 0.29 0.30 0.30 0.31 0.32 0.32 0.33 0.34 0.34 0.34 0.32 0.32 0.31 0.31 0.31 0.31 0.31 0.32 0.33 0.32 0.32 0.30 0.30 0.28 0.28 0.27 0.27 0.26 0.25 0.23 0.22 0.21 0.20 0.19 0.19 0.18 0.18 0.18 0.18 0.18 0.18 0.17
0.31 0.31 0.31 0.31 0.31 0.31 0.32 0.31 0.32 0.32 0.32 0.32 0.32 0.33 0.34 0.34 0.34 0.34 0.34 0.34 0.33 0.32 0.33 0.33 0.32 0.32 0.32 0.33 0.34 0.32 0.32 0.30 0.29 0.28 0.27 0.26 0.25 0.25 0.25 0.24 0.23 0.21 0.20 0.20 0.19 0.19 0.19 0.18 0.18 0.18 0.18 0.18
0.32 0.32 0.32 0.33 0.33 0.33 0.33 0.33 0.33 0.33 0.34 0.34 0.34 0.35 0.35 0.35 0.35 0.35 0.34 0.34 0.33 0.32 0.33 0.33 0.33 0.33 0.34 0.34 0.33 0.32 0.32 0.32 0.29 0.28 0.27 0.27 0.26 0.24 0.24 0.24 0.23 0.22 0.21 0.20 0.20 0.20 0.20 0.19 0.19 0.18 0.18 0.18
0.34 0.33 0.33 0.33 0.34 0.34 0.34 0.34 0.34 0.34 0.35 0.35 0.35 0.36 0.35 0.36 0.35 0.35 0.34 0.34 0.34 0.33 0.33 0.34 0.34 0.34 0.34 0.34 0.33 0.33 0.32 0.31 0.30 0.29 0.28 0.26 0.26 0.26 0.24 0.23 0.22 0.22 0.21 0.21 0.20 0.20 0.20 0.20 0.20 0.20 0.19 0.19
0.34 0.34 0.34 0.34 0.35 0.35 0.35 0.35 0.36 0.36 0.36 0.36 0.36 0.36 0.35 0.36 0.35 0.34 0.34 0.34 0.34 0.34 0.34 0.34 0.34 0.35 0.34 0.34 0.33 0.33 0.32 0.31 0.31 0.30 0.28 0.26 0.26 0.26 0.25 0.23 0.22 0.21 0.21 0.21 0.20 0.20 0.20 0.20 0.20 0.20 0.20 0.20
0.35 0.35 0.35 0.35 0.35 0.35 0.35 0.36 0.36 0.36 0.36 0.36 0.36 0.35 0.35 0.35 0.34 0.35 0.34 0.34 0.34 0.33 0.33 0.34 0.34 0.34 0.34 0.34 0.33 0.32 0.31 0.30 0.29 0.29 0.28 0.27 0.26 0.27 0.26 0.24 0.23 0.21 0.21 0.20 0.20 0.19 0.19 0.19 0.19 0.20 0.20 0.21
0.35 0.35 0.35 0.34 0.35 0.35 0.34 0.35 0.35 0.35 0.35 0.35 0.34 0.34 0.34 0.34 0.34 0.34 0.33 0.33 0.33 0.33 0.33 0.33 0.33 0.33 0.33 0.32 0.32 0.30 0.29 0.28 0.27 0.27 0.26 0.26 0.25 0.25 0.25 0.25 0.24 0.23 0.22 0.21 0.20 0.19 0.19 0.19 0.19 0.19 0.19 0.19
0.35 0.35 0.34 0.34 0.34 0.33 0.34 0.34 0.34 0.34 0.35 0.34 0.34 0.34 0.34 0.34 0.34 0.33 0.33 0.33 0.32 0.32 0.32 0.32 0.32 0.32 0.31 0.31 0.30 0.29 0.28 0.27 0.27 0.27 0.27 0.26 0.25 0.24 0.23 0.23 0.23 0.23 0.22 0.20 0.18 0.18 0.18 0.18 0.19 0.19 0.18 0.17
0.35 0.35 0.34 0.34 0.33 0.33 0.34 0.34 0.34 0.34 0.35 0.34 0.34 0.34 0.34 0.34 0.33 0.32 0.32 0.32 0.32 0.31 0.31 0.30 0.29 0.29 0.28 0.27 0.27 0.26 0.26 0.26 0.26 0.25 0.25 0.25 0.23 0.24 0.22 0.21 0.22 0.22 0.21 0.17 0.16 0.15 0.15 0.15 0.16 0.17 0.18 0.17
0.36 0.36 0.36 0.35 0.35 0.35 0.35 0.35 0.36 0.35 0.35 0.34 0.33 0.33 0.33 0.32 0.31 0.30 0.29 0.29 0.29 0.28 0.27 0.27 0.26 0.24 0.24 0.23 0.23 0.22 0.22 0.22 0.23 0.23 0.23 0.23 0.22 0.21 0.22 0.21 0.21 0.20 0.20 0.16 0.17 0.16 0.15 0.12 0.12 0.14 0.16 0.17
0.37 0.38 0.38 0.38 0.37 0.37 0.36 0.35 0.36 0.35 0.34 0.33 0.32 0.31 0.31 0.30 0.29 0.29 0.28 0.28 0.27 0.26 0.26 0.25 0.24 0.23 0.22 0.21 0.21 0.20 0.20 0.19 0.19 0.20 0.20 0.20 0.20 0.20 0.18 0.18 0.18 0.20 0.20 0.18 0.16 0.12 0.13 0.13 0.12 0.10 0.11 0.13
0.39 0.38 0.38 0.37 0.37 0.37 0.36 0.35 0.33 0.30 0.29 0.28 0.28 0.28 0.27 0.26 0.27 0.26 0.26 0.26 0.25 0.25 0.24 0.24 0.24 0.23 0.22 0.22 0.21 0.21 0.20 0.19 0.18 0.18 0.18 0.19 0.18 0.18 0.17 0.16 0.17 0.18 0.19 0.19 0.19 0.16 0.13 0.12 0.11 0.11 0.12 0.13
0.38 0.37 0.36 0.34 0.33 0.31 0.30 0.29 0.28 0.26 0.26 0.26 0.25 0.25 0.25 0.25 0.25 0.25 0.24 0.24 0.24 0.24 0.23 0.23 0.23 0.22 0.21 0.20 0.19 0.18 0.18 0.18 0.18 0.18 0.17 0.17 0.17 0.16 0.16 0.16 0.15 0.15 0.17 0.18 0.18 0.18 0.17 0.15 0.12 0.11 0.12 0.12
0.36 0.34 0.32 0.31 0.29 0.28 0.27 0.25 0.25 0.24 0.24 0.24 0.23 0.23 0.23 0.23 0.23 0.23 0.22 0.22 0.22 0.22 0.22 0.21 0.20 0.18 0.17 0.17 0.16 0.15 0.15 0.15 0.16 0.15 0.15 0.16 0.15 0.15 0.15 0.15 0.13 0.14 0.14 0.16 0.16 0.17 0.17 0.17 0.17 0.16 0.14 0.11

ECMWFFLT2_prec_pwat_081.txt.gz
Precipitable_Water
0.38 0.39 0.39 0.39 0.40 0.40 0.41 0.41 0.41 0.40 0.38 0.37 0.36 0.34 0.33 0.32 0.32 0.32 0.33 0.34 0.34 0.32 0.32 0.35 0.39 0.42 0.43 0.42 0.42 0.40 0.39 0.39 0.41 0.41 0.39 0.39 0.38 0.38 0.38 0.34 0.31 0.28 0.28 0.29 0.29 0.29 0.28 0.25 0.22 0.22 0.24 0.24
0.35 0.35 0.37 0.36 0.34 0.34 0.37 0.38 0.39 0.40 0.40 0.38 0.35 0.33 0.32 0.31 0.30 0.32 0.31 0.32 0.32 0.31 0.31 0.32 0.35 0.40 0.42 0.42 0.39 0.38 0.37 0.37 0.39 0.39 0.38 0.37 0.35 0.34 0.31 0.28 0.26 0.25 0.26 0.27 0.27 0.26 0.25 0.22 0.21 0.22 0.24 0.24
0.32 0.35 0.35 0.34 0.33 0.34 0.34 0.36 0.38 0.39 0.41 0.37 0.37 0.34 0.33 0.31 0.30 0.29 0.30 0.30 0.31 0.31 0.31 0.30 0.33 0.35 0.40 0.40 0.38 0.36 0.34 0.34 0.36 0.37 0.36 0.36 0.34 0.32 0.29 0.26 0.25 0.24 0.25 0.25 0.25 0.24 0.23 0.21 0.21 0.23 0.23 0.22
0.35 0.33 0.34 0.34 0.33 0.36 0.37 0.37 0.37 0.39 0.37 0.38 0.35 0.36 0.34 0.32 0.32 0.33 0.33 0.31 0.34 0.30 0.31 0.29 0.30 0.31 0.36 0.37 0.37 0.34 0.32 0.31 0.33 0.35 0.34 0.34 0.33 0.31 0.28 0.26 0.25 0.24 0.24 0.24 0.24 0.22 0.21 0.21 0.23 0.24 0.22 0.21
0.46 0.37 0.32 0.34 0.34 0.36 0.38 0.40 0.39 0.41 0.39 0.39 0.40 0.39 0.38 0.34 0.37 0.39 0.37 0.36 0.34 0.34 0.33 0.30 0.29 0.29 0.30 0.33 0.34 0.32 0.31 0.29 0.30 0.32 0.32 0.31 0.31 0.29 0.26 0.25 0.26 0.27 0.26 0.25 0.24 0.23 0.22 0.22 0.24 0.23 0.22 0.22
0.42 0.36 0.30 0.42 0.41 0.39 0.40 0.40 0.36 0.40 0.44 0.45 0.43 0.44 0.39 0.40 0.40 0.37 0.36 0.36 0.34 0.34 0.34 0.35 0.30 0.29 0.29 0.31 0.31 0.30 0.29 0.28 0.28 0.29 0.29 0.29 0.28 0.27 0.26 0.26 0.28 0.28 0.28 0.27 0.26 0.25 0.24 0.25 0.23 0.22 0.22 0.22
0.36 0.35 0.37 0.36 0.34 0.33 0.30 0.30 0.32 0.32 0.36 0.36 0.41 0.42 0.39 0.36 0.37 0.38 0.35 0.36 0.33 0.30 0.31 0.32 0.31 0.29 0.29 0.29 0.29 0.28 0.28 0.28 0.27 0.27 0.27 0.27 0.26 0.26 0.26 0.27 0.27 0.25 0.27 0.27 0.27 0.27 0.27 0.25 0.25 0.24 0.24 0.23
0.34 0.35 0.33 0.32 0.32 0.31 0.31 0.33 0.35 0.35 0.35 0.36 0.38 0.40 0.38 0.37 0.39 0.37 0.35 0.36 0.33 0.32 0.35 0.37 0.34 0.32 0.31 0.30 0.30 0.29 0.29 0.31 0.29 0.27 0.28 0.27 0.26 0.27 0.25 0.25 0.24 0.24 0.24 0.24 0.24 0.24 0.24 0.25 0.25 0.25 0.24 0.24
0.30 0.32 0.29 0.29 0.30 0.31 0.32 0.33 0.34 0.35 0.37 0.37 0.37 0.37 0.38 0.38 0.36 0.36 0.36 0.36 0.36 0.36 0.34 0.33 0.33 0.36 0.35 0.33 0.34 0.32 0.30 0.30 0.30 0.29 0.28 0.28 0.28 0.26 0.25 0.24 0.23 0.23 0.22 0.22 0.22 0.22 0.23 0.23 0.23 0.24 0.24 0.25
0.29 0.26 0.29 0.31 0.31 0.31 0.33 0.34 0.34 0.35 0.36 0.38 0.37 0.38 0.37 0.37 0.38 0.37 0.36 0.36 0.35 0.34 0.34 0.33 0.33 0.33 0.32 0.32 0.31 0.32 0.30 0.29 0.28 0.28 0.27 0.27 0.26 0.26 0.25 0.24 0.24 0.23 0.23 0.22 0.21 0.21 0.21 0.22 0.22 0.22 0.23 0.23
0.28 0.31 0.31 0.32 0.33 0.35 0.35 0.36 0.36 0.36 0.36 0.37 0.38 0.38 0.38 0.36 0.36 0.36 0.35 0.35 0.35 0.34 0.33 0.33 0.33 0.32 0.31 0.31 0.31 0.31 0.29 0.29 0.28 0.28 0.27 0.27 0.26 0.26 0.25 0.25 0.25 0.24 0.24 0.23 0.22 0.22 0.21 0.21 0.21 0.21 0.22 0.22
0.32 0.33 0.33 0.33 0.35 0.35 0.34 0.36 0.35 0.37 0.37 0.38 0.38 0.37 0.37 0.36 0.35 0.34 0.33 0.33 0.33 0.32 0.32 0.32 0.32 0.32 0.31 0.31 0.30 0.30 0.29 0.29 0.28 0.27 0.27 0.27 0.27 0.26 0.26 0.26 0.27 0.26 0.25 0.24 0.24 0.23 0.22 0.21 0.20 0.20 0.20 0.21
0.34 0.34 0.35 0.35 0.35 0.34 0.35 0.35 0.35 0.36 0.36 0.36 0.36 0.36 0.36 0.34 0.33 0.33 0.32 0.32 0.32 0.32 0.32 0.32 0.33 0.32 0.31 0.31 0.30 0.30 0.29 0.29 0.29 0.28 0.27 0.27 0.27 0.27 0.27 0.27 0.26 0.26 0.26 0.25 0.24 0.23 0.22 0.22 0.21 0.21 0.21 0.20
0.35 0.36 0.36 0.36 0.36 0.36 0.37 0.36 0.36 0.36 0.35 0.35 0.35 0.35 0.35 0.34 0.33 0.32 0.33 0.33 0.33 0.33 0.33 0.33 0.33 0.33 0.32 0.31 0.31 0.31 0.30 0.30 0.29 0.28 0.28 0.28 0.28 0.27 0.27 0.27 0.27 0.27 0.26 0.26 0.25 0.25 0.24 0.23 0.22 0.21 0.21 0.20
0.35 0.36 0.35 0.35 0.36 0.36 0.36 0.36 0.35 0.35 0.35 0.35 0.34 0.34 0.34 0.34 0.33 0.33 0.33 0.33 0.33 0.32 0.32 0.32 0.33 0.33 0.33 0.33 0.33 0.33 0.32 0.32 0.30 0.30 0.29 0.29 0.29 0.28 0.28 0.28 0.28 0.28 0.27 0.27 0.26 0.26 0.26 0.25 0.23 0.21 0.21 0.21
0.35 0.33 0.32 0.32 0.31 0.30 0.30 0.30 0.29 0.29 0.29 0.29 0.30 0.32 0.31 0.31 0.32 0.33 0.33 0.34 0.33 0.33 0.32 0.33 0.33 0.33 0.33 0.33 0.34 0.34 0.33 0.33 0.32 0.30 0.31 0.31 0.32 0.32 0.31 0.30 0.29 0.29 0.28 0.27 0.26 0.26 0.25 0.25 0.24 0.23 0.21 0.20
0.32 0.31 0.31 0.31 0.31 0.32 0.32 0.31 0.31 0.31 0.31 0.31 0.32 0.33 0.34 0.33 0.33 0.33 0.33 0.33 0.33 0.33 0.33 0.34 0.34 0.34 0.34 0.35 0.35 0.35 0.34 0.33 0.32 0.32 0.32 0.32 0.33 0.33 0.33 0.32 0.31 0.31 0.30 0.28 0.27 0.27 0.26 0.26 0.24 0.23 0.22 0.21
0.32 0.33 0.34 0.34 0.34 0.34 0.34 0.33 0.33 0.33 0.33 0.34 0.33 0.34 0.36 0.35 0.35 0.35 0.34 0.34 0.34 0.34 0.34 0.34 0.35 0.35 0.35 0.36 0.37 0.36 0.34 0.33 0.33 0.32 0.31 0.31 0.32 0.31 0.32 0.32 0.32 0.31 0.29 0.28 0.28 0.27 0.26 0.26 0.25 0.25 0.23 0.22
0.33 0.34 0.35 0.35 0.35 0.35 0.35 0.35 0.34 0.34 0.35 0.35 0.35 0.35 0.35 0.36 0.35 0.35 0.35 0.35 0.35 0.34 0.34 0.34 0.35 0.35 0.36 0.38 0.37 0.36 0.35 0.34 0.34 0.34 0.33 0.33 0.32 0.32 0.32 0.31 0.31 0.31 0.31 0.30 0.28 0.28 0.27 0.26 0.25 0.25 0.24 0.23
0.35 0.34 0.35 0.36 0.35 0.36 0.36 0.36 0.35 0.35 0.36 0.36 0.36 0.36 0.35 0.36 0.35 0.36 0.36 0.36 0.36 0.34 0.35 0.35 0.35 0.36 0.37 0.37 0.37 0.36 0.35 0.35 0.34 0.34 0.34 0.35 0.34 0.32 0.32 0.32 0.31 0.31 0.30 0.29 0.28 0.28 0.28 0.27 0.26 0.25 0.24 0.23
0.36 0.36 0.35 0.35 0.35 0.35 0.36 0.36 0.36 0.36 0.37 0.37 0.36 0.36 0.35 0.36 0.35 0.36 0.36 0.36 0.36 0.34 0.34 0.34 0.35 0.36 0.37 0.37 0.36 0.35 0.35 0.34 0.34 0.34 0.34 0.34 0.35 0.34 0.32 0.31 0.31 0.31 0.30 0.29 0.29 0.28 0.28 0.27 0.26 0.25 0.24 0.23
0.36 0.36 0.36 0.36 0.35 0.36 0.35 0.36 0.37 0.37 0.37 0.37 0.36 0.36 0.36 0.36 0.35 0.36 0.35 0.35 0.35 0.34 0.34 0.34 0.34 0.35 0.36 0.36 0.35 0.34 0.34 0.33 0.34 0.35 0.35 0.34 0.35 0.34 0.33 0.32 0.31 0.30 0.31 0.30 0.29 0.28 0.27 0.27 0.26 0.25 0.24 0.23
0.36 0.37 0.36 0.36 0.36 0.36 0.35 0.36 0.37 0.37 0.37 0.36 0.36 0.36 0.36 0.36 0.35 0.35 0.33 0.34 0.33 0.32 0.33 0.32 0.33 0.34 0.34 0.35 0.34 0.33 0.32 0.33 0.34 0.34 0.34 0.33 0.33 0.34 0.33 0.32 0.32 0.31 0.30 0.30 0.29 0.28 0.27 0.26 0.25 0.24 0.23 0.23
0.36 0.36 0.36 0.36 0.36 0.36 0.35 0.35 0.36 0.36 0.36 0.36 0.35 0.35 0.35 0.35 0.34 0.32 0.31 0.31 0.31 0.31 0.31 0.31 0.32 0.32 0.33 0.33 0.33 0.32 0.31 0.31 0.32 0.31 0.31 0.31 0.31 0.31 0.32 0.32 0.32 0.31 0.30 0.29 0.28 0.26 0.25 0.25 0.24 0.24 0.24 0.22
0.37 0.36 0.37 0.37 0.36 0.35 0.35 0.35 0.35 0.34 0.35 0.36 0.35 0.34 0.36 0.34 0.33 0.31 0.30 0.30 0.30 0.29 0.29 0.30 0.30 0.31 0.31 0.31 0.30 0.30 0.30 0.30 0.29 0.31 0.31 0.31 0.31 0.30 0.29 0.29 0.31 0.30 0.29 0.26 0.24 0.24 0.23 0.23 0.24 0.23 0.22 0.21
0.38 0.37 0.37 0.36 0.36 0.35 0.35 0.34 0.34 0.34 0.35 0.35 0.35 0.34 0.35 0.34 0.32 0.31 0.30 0.30 0.30 0.30 0.30 0.30 0.30 0.30 0.30 0.30 0.30 0.29 0.29 0.28 0.29 0.29 0.29 0.29 0.29 0.29 0.28 0.27 0.28 0.28 0.26 0.23 0.21 0.20 0.20 0.20 0.20 0.19 0.20 0.21
0.38 0.38 0.37 0.36 0.36 0.35 0.36 0.36 0.36 0.35 0.34 0.33 0.32 0.31 0.32 0.31 0.30 0.30 0.30 0.30 0.30 0.30 0.31 0.31 0.31 0.31 0.32 0.31 0.31 0.30 0.29 0.29 0.28 0.28 0.28 0.27 0.27 0.26 0.26 0.25 0.26 0.25 0.26 0.23 0.23 0.22 0.19 0.16 0.16 0.18 0.20 0.21
0.39 0.38 0.37 0.36 0.36 0.34 0.33 0.33 0.33 0.32 0.30 0.30 0.30 0.29 0.29 0.29 0.30 0.30 0.30 0.30 0.31 0.31 0.31 0.32 0.32 0.31 0.30 0.28 0.28 0.27 0.27 0.26 0.26 0.26 0.26 0.26 0.26 0.26 0.23 0.23 0.23 0.25 0.24 0.24 0.22 0.18 0.17 0.16 0.16 0.13 0.13 0.15
0.37 0.36 0.35 0.33 0.33 0.32 0.31 0.30 0.30 0.29 0.29 0.29 0.29 0.28 0.28 0.28 0.29 0.29 0.29 0.29 0.29 0.29 0.30 0.30 0.29 0.27 0.26 0.24 0.24 0.24 0.24 0.23 0.23 0.23 0.24 0.25 0.24 0.23 0.21 0.20 0.21 0.21 0.22 0.22 0.23 0.20 0.18 0.15 0.14 0.14 0.16 0.17
0.34 0.33 0.32 0.30 0.29 0.28 0.28 0.27 0.27 0.26 0.26 0.26 0.26 0.26 0.27 0.27 0.27 0.27 0.27 0.27 0.26 0.27 0.27 0.26 0.25 0.24 0.22 0.22 0.22 0.21 0.21 0.21 0.21 0.21 0.22 0.22 0.21 0.20 0.21 0.20 0.19 0.18 0.19 0.20 0.21 0.22 0.21 0.19 0.15 0.14 0.14 0.14
0.32 0.30 0.29 0.28 0.27 0.27 0.26 0.26 0.26 0.25 0.26 0.25 0.25 0.25 0.24 0.25 0.25 0.25 0.25 0.24 0.24 0.25 0.26 0.24 0.22 0.21 0.20 0.20 0.20 0.19 0.19 0.19 0.19 0.19 0.19 0.18 0.18 0.18 0.18 0.18 0.17 0.17 0.17 0.18 0.19 0.20 0.20 0.20 0.20 0.20 0.17 0.14

ECMWFFLT2_prec_pwat_087.txt.gz
Precipitable_Water
0.55 0.53 0.53 0.52 0.52 0.52 0.51 0.50 0.48 0.45 0.42 0.40 0.36 0.35 0.34 0.33 0.34 0.35 0.35 0.36 0.36 0.35 0.34 0.35 0.37 0.41 0.43 0.43 0.42 0.40 0.38 0.37 0.39 0.41 0.40 0.40 0.40 0.38 0.36 0.34 0.33 0.31 0.31 0.31 0.29 0.28 0.27 0.25 0.25 0.26 0.26 0.20
0.53 0.52 0.51 0.51 0.50 0.49 0.49 0.48 0.46 0.42 0.39 0.36 0.33 0.31 0.30 0.30 0.32 0.34 0.36 0.36 0.35 0.34 0.33 0.32 0.32 0.34 0.38 0.40 0.40 0.39 0.37 0.35 0.35 0.36 0.38 0.38 0.38 0.37 0.35 0.34 0.33 0.31 0.30 0.31 0.30 0.28 0.28 0.26 0.26 0.29 0.26 0.21
0.47 0.46 0.45 0.46 0.46 0.46 0.44 0.44 0.43 0.41 0.37 0.33 0.31 0.32 0.32 0.31 0.35 0.36 0.37 0.37 0.36 0.35 0.34 0.32 0.30 0.32 0.34 0.35 0.36 0.37 0.36 0.34 0.33 0.33 0.35 0.37 0.36 0.35 0.34 0.33 0.32 0.31 0.30 0.31 0.30 0.28 0.27 0.26 0.28 0.29 0.24 0.23
0.41 0.42 0.41 0.40 0.38 0.37 0.36 0.35 0.34 0.34 0.35 0.36 0.36 0.38 0.38 0.37 0.39 0.39 0.39 0.38 0.37 0.36 0.35 0.33 0.32 0.32 0.33 0.33 0.34 0.34 0.34 0.33 0.33 0.33 0.34 0.34 0.34 0.33 0.32 0.31 0.30 0.30 0.30 0.31 0.30 0.27 0.25 0.27 0.26 0.24 0.23 0.23
0.33 0.31 0.32 0.32 0.31 0.30 0.30 0.31 0.32 0.36 0.38 0.39 0.39 0.40 0.40 0.39 0.40 0.41 0.41 0.40 0.37 0.38 0.35 0.34 0.33 0.33 0.32 0.33 0.34 0.34 0.33 0.31 0.32 0.33 0.33 0.33 0.33 0.32 0.31 0.31 0.29 0.28 0.28 0.29 0.28 0.28 0.26 0.25 0.23 0.22 0.21 0.20
0.32 0.36 0.38 0.37 0.36 0.35 0.35 0.35 0.34 0.35 0.37 0.39 0.40 0.42 0.41 0.40 0.39 0.40 0.40 0.39 0.38 0.37 0.36 0.35 0.35 0.34 0.33 0.34 0.35 0.34 0.32 0.31 0.32 0.33 0.34 0.34 0.34 0.32 0.32 0.30 0.27 0.26 0.26 0.26 0.26 0.27 0.26 0.23 0.23 0.22 0.21 0.20
0.38 0.39 0.40 0.39 0.36 0.37 0.37 0.37 0.37 0.36 0.37 0.39 0.41 0.41 0.39 0.37 0.38 0.38 0.38 0.38 0.37 0.36 0.38 0.37 0.36 0.35 0.35 0.36 0.35 0.33 0.33 0.32 0.32 0.32 0.33 0.34 0.33 0.33 0.30 0.28 0.27 0.26 0.25 0.24 0.24 0.24 0.24 0.23 0.22 0.22 0.21 0.20
0.42 0.40 0.40 0.38 0.37 0.38 0.38 0.38 0.39 0.40 0.39 0.38 0.38 0.36 0.35 0.36 0.37 0.37 0.37 0.38 0.39 0.39 0.38 0.37 0.37 0.37 0.37 0.36 0.35 0.33 0.32 0.32 0.32 0.32 0.32 0.30 0.31 0.31 0.30 0.28 0.28 0.27 0.25 0.25 0.25 0.24 0.24 0.23 0.22 0.22 0.21 0.20
0.36 0.35 0.35 0.35 0.36 0.37 0.37 0.38 0.40 0.39 0.38 0.37 0.36 0.35 0.34 0.34 0.36 0.36 0.37 0.39 0.38 0.37 0.37 0.36 0.35 0.35 0.34 0.33 0.32 0.33 0.32 0.32 0.32 0.32 0.30 0.30 0.30 0.30 0.30 0.28 0.27 0.26 0.26 0.26 0.25 0.25 0.25 0.24 0.23 0.23 0.22 0.21
0.36 0.35 0.35 0.36 0.37 0.38 0.38 0.39 0.38 0.38 0.37 0.36 0.36 0.35 0.35 0.35 0.34 0.34 0.35 0.35 0.35 0.35 0.35 0.35 0.35 0.34 0.33 0.31 0.31 0.32 0.31 0.31 0.31 0.31 0.30 0.30 0.29 0.29 0.30 0.28 0.28 0.28 0.27 0.26 0.26 0.26 0.25 0.25 0.24 0.24 0.23 0.22
0.38 0.37 0.38 0.39 0.39 0.38 0.38 0.39 0.38 0.38 0.38 0.37 0.36 0.36 0.36 0.35 0.35 0.35 0.35 0.35 0.35 0.34 0.35 0.34 0.34 0.33 0.33 0.32 0.32 0.32 0.31 0.30 0.30 0.30 0.30 0.30 0.29 0.29 0.29 0.28 0.29 0.28 0.28 0.28 0.27 0.27 0.26 0.25 0.25 0.24 0.23 0.23
0.40 0.40 0.39 0.39 0.40 0.40 0.39 0.39 0.38 0.38 0.37 0.37 0.36 0.35 0.35 0.36 0.35 0.35 0.35 0.35 0.34 0.33 0.33 0.32 0.32 0.33 0.32 0.32 0.32 0.32 0.32 0.31 0.31 0.31 0.31 0.31 0.30 0.29 0.29 0.29 0.29 0.29 0.29 0.28 0.28 0.28 0.27 0.26 0.26 0.25 0.24 0.24
0.40 0.39 0.39 0.39 0.39 0.39 0.40 0.40 0.40 0.40 0.39 0.38 0.37 0.36 0.35 0.35 0.35 0.35 0.35 0.34 0.34 0.33 0.32 0.31 0.31 0.31 0.32 0.33 0.32 0.32 0.32 0.32 0.32 0.32 0.32 0.31 0.31 0.30 0.29 0.29 0.29 0.29 0.29 0.29 0.29 0.28 0.28 0.27 0.27 0.26 0.26 0.25
0.39 0.39 0.38 0.38 0.38 0.38 0.39 0.39 0.40 0.41 0.41 0.41 0.40 0.38 0.37 0.36 0.37 0.37 0.36 0.35 0.35 0.34 0.34 0.33 0.34 0.34 0.34 0.33 0.34 0.34 0.33 0.34 0.34 0.33 0.33 0.32 0.32 0.31 0.30 0.30 0.30 0.30 0.30 0.30 0.30 0.29 0.29 0.28 0.28 0.28 0.27 0.27
0.38 0.38 0.37 0.37 0.38 0.38 0.38 0.38 0.38 0.38 0.39 0.38 0.37 0.37 0.37 0.36 0.38 0.39 0.39 0.38 0.37 0.37 0.35 0.34 0.34 0.35 0.36 0.36 0.37 0.37 0.36 0.36 0.36 0.35 0.35 0.35 0.34 0.33 0.32 0.32 0.33 0.32 0.31 0.31 0.31 0.31 0.31 0.30 0.30 0.30 0.29 0.29
0.36 0.36 0.36 0.37 0.37 0.37 0.37 0.37 0.36 0.36 0.37 0.37 0.37 0.37 0.37 0.36 0.38 0.40 0.39 0.39 0.38 0.36 0.34 0.34 0.34 0.35 0.35 0.36 0.37 0.37 0.37 0.36 0.36 0.36 0.36 0.36 0.35 0.34 0.34 0.33 0.33 0.33 0.33 0.33 0.34 0.34 0.33 0.33 0.33 0.32 0.31 0.31
0.34 0.34 0.34 0.34 0.35 0.35 0.35 0.35 0.36 0.36 0.36 0.37 0.37 0.38 0.37 0.37 0.39 0.40 0.40 0.39 0.38 0.36 0.34 0.34 0.34 0.34 0.34 0.35 0.35 0.36 0.36 0.36 0.35 0.35 0.34 0.34 0.34 0.32 0.32 0.32 0.32 0.34 0.34 0.34 0.34 0.35 0.34 0.34 0.34 0.33 0.33 0.32
0.33 0.32 0.32 0.32 0.32 0.33 0.33 0.33 0.34 0.34 0.35 0.36 0.36 0.37 0.38 0.38 0.39 0.39 0.38 0.38 0.36 0.35 0.34 0.33 0.33 0.33 0.33 0.34 0.34 0.34 0.35 0.34 0.34 0.33 0.32 0.31 0.31 0.31 0.32 0.32 0.32 0.33 0.33 0.34 0.34 0.34 0.34 0.34 0.34 0.34 0.33 0.33
0.33 0.33 0.32 0.32 0.32 0.32 0.33 0.34 0.34 0.35 0.36 0.36 0.37 0.37 0.37 0.38 0.37 0.37 0.36 0.35 0.34 0.33 0.33 0.32 0.32 0.32 0.32 0.33 0.33 0.32 0.33 0.32 0.32 0.31 0.30 0.31 0.31 0.31 0.31 0.32 0.32 0.33 0.32 0.33 0.33 0.33 0.34 0.34 0.34 0.34 0.33 0.32
0.34 0.34 0.34 0.34 0.35 0.34 0.35 0.34 0.35 0.35 0.36 0.36 0.37 0.37 0.37 0.38 0.37 0.36 0.35 0.34 0.33 0.32 0.32 0.31 0.31 0.31 0.31 0.31 0.31 0.31 0.31 0.30 0.29 0.29 0.30 0.30 0.31 0.30 0.30 0.31 0.32 0.33 0.33 0.33 0.33 0.33 0.33 0.33 0.34 0.33 0.33 0.33
0.35 0.35 0.34 0.34 0.35 0.35 0.35 0.35 0.35 0.36 0.36 0.37 0.37 0.37 0.37 0.37 0.37 0.36 0.35 0.34 0.33 0.32 0.32 0.31 0.31 0.31 0.31 0.31 0.31 0.31 0.30 0.29 0.29 0.28 0.28 0.29 0.30 0.31 0.30 0.31 0.31 0.32 0.32 0.32 0.31 0.32 0.32 0.32 0.33 0.33 0.33 0.32
0.37 0.37 0.36 0.36 0.36 0.36 0.36 0.36 0.36 0.36 0.36 0.36 0.36 0.36 0.36 0.35 0.35 0.35 0.34 0.34 0.33 0.33 0.32 0.32 0.32 0.32 0.32 0.32 0.31 0.31 0.30 0.30 0.29 0.29 0.28 0.28 0.29 0.29 0.29 0.29 0.29 0.29 0.30 0.31 0.31 0.32 0.33 0.33 0.34 0.34 0.34 0.34
0.38 0.39 0.38 0.38 0.38 0.38 0.38 0.37 0.37 0.37 0.36 0.36 0.36 0.35 0.35 0.34 0.34 0.34 0.33 0.33 0.33 0.33 0.33 0.33 0.32 0.33 0.32 0.32 0.31 0.31 0.30 0.29 0.29 0.29 0.29 0.28 0.28 0.29 0.29 0.29 0.29 0.30 0.30 0.30 0.31 0.31 0.32 0.33 0.33 0.34 0.33 0.33
0.39 0.39 0.39 0.38 0.38 0.38 0.38 0.38 0.37 0.37 0.36 0.36 0.35 0.35 0.34 0.33 0.33 0.32 0.32 0.32 0.32 0.32 0.32 0.32 0.33 0.33 0.32 0.31 0.31 0.30 0.29 0.29 0.28 0.28 0.28 0.28 0.28 0.29 0.29 0.30 0.30 0.30 0.30 0.30 0.30 0.30 0.31 0.31 0.32 0.32 0.33 0.33
0.38 0.37 0.37 0.37 0.36 0.36 0.36 0.36 0.35 0.35 0.35 0.34 0.33 0.33 0.32 0.32 0.31 0.31 0.31 0.31 0.31 0.30 0.30 0.31 0.32 0.31 0.31 0.30 0.29 0.28 0.27 0.27 0.27 0.28 0.28 0.28 0.28 0.29 0.29 0.29 0.30 0.30 0.30 0.29 0.28 0.29 0.29 0.30 0.31 0.31 0.31 0.31
0.36 0.35 0.35 0.35 0.34 0.34 0.34 0.33 0.32 0.32 0.32 0.32 0.31 0.30 0.30 0.30 0.29 0.29 0.30 0.30 0.30 0.30 0.29 0.30 0.30 0.30 0.29 0.28 0.27 0.26 0.26 0.26 0.26 0.26 0.26 0.27 0.27 0.28 0.28 0.28 0.29 0.29 0.28 0.27 0.26 0.26 0.27 0.27 0.28 0.30 0.30 0.30
0.33 0.33 0.33 0.32 0.32 0.31 0.31 0.31 0.30 0.30 0.30 0.30 0.29 0.29 0.28 0.27 0.27 0.27 0.28 0.28 0.28 0.28 0.27 0.29 0.28 0.28 0.27 0.26 0.25 0.24 0.24 0.24 0.24 0.24 0.25 0.25 0.25 0.25 0.26 0.26 0.27 0.27 0.27 0.26 0.26 0.26 0.25 0.25 0.25 0.27 0.27 0.28
0.28 0.29 0.29 0.29 0.29 0.28 0.28 0.27 0.27 0.27 0.27 0.27 0.26 0.25 0.24 0.24 0.23 0.24 0.26 0.26 0.26 0.25 0.25 0.26 0.25 0.25 0.25 0.24 0.24 0.23 0.22 0.22 0.23 0.23 0.24 0.24 0.23 0.24 0.23 0.23 0.24 0.24 0.24 0.24 0.24 0.23 0.24 0.24 0.24 0.23 0.26 0.28
0.25 0.25 0.25 0.25 0.25 0.25 0.25 0.25 0.24 0.23 0.24 0.24 0.23 0.22 0.21 0.21 0.20 0.21 0.22 0.22 0.22 0.22 0.23 0.23 0.23 0.23 0.23 0.22 0.22 0.21 0.20 0.21 0.21 0.22 0.22 0.22 0.22 0.22 0.22 0.22 0.22 0.22 0.22 0.22 0.23 0.23 0.22 0.22 0.23 0.23 0.24 0.24
0.22 0.21 0.21 0.21 0.20 0.20 0.20 0.20 0.20 0.20 0.20 0.20 0.20 0.19 0.19 0.18 0.18 0.18 0.19 0.19 0.19 0.19 0.20 0.20 0.20 0.20 0.20 0.20 0.19 0.19 0.19 0.20 0.20 0.20 0.20 0.20 0.20 0.20 0.20 0.20 0.20 0.20 0.20 0.21 0.21 0.21 0.22 0.22 0.21 0.22 0.23 0.23
0.19 0.18 0.18 0.17 0.17 0.17 0.17 0.17 0.17 0.17 0.18 0.18 0.18 0.17 0.17 0.16 0.16 0.16 0.17 0.17 0.17 0.17 0.18 0.18 0.18 0.18 0.18 0.17 0.17 0.17 0.18 0.18 0.18 0.18 0.18 0.19 0.18 0.18 0.19 0.18 0.18 0.18 0.19 0.19 0.19 0.19 0.20 0.21 0.22 0.23 0.22 0.21

ECMWFFLT2_prec_pwat_090.txt.gz
Precipitable_Water
0.59 0.58 0.58 0.57 0.56 0.55 0.53 0.51 0.49 0.47 0.43 0.37 0.35 0.34 0.34 0.35 0.37 0.38 0.39 0.39 0.39 0.37 0.36 0.34 0.35 0.39 0.41 0.43 0.44 0.43 0.41 0.39 0.37 0.37 0.39 0.41 0.40 0.38 0.38 0.37 0.36 0.32 0.32 0.34 0.33 0.31 0.31 0.30 0.30 0.31 0.26 0.22
0.56 0.56 0.56 0.55 0.53 0.51 0.49 0.48 0.46 0.42 0.37 0.34 0.33 0.34 0.33 0.36 0.37 0.39 0.39 0.39 0.39 0.39 0.37 0.35 0.34 0.37 0.38 0.39 0.40 0.41 0.40 0.38 0.37 0.36 0.37 0.38 0.38 0.36 0.36 0.35 0.34 0.32 0.31 0.32 0.33 0.31 0.29 0.30 0.29 0.29 0.25 0.23
0.53 0.51 0.49 0.49 0.49 0.48 0.49 0.47 0.43 0.37 0.35 0.33 0.38 0.40 0.39 0.38 0.38 0.39 0.39 0.38 0.39 0.39 0.37 0.36 0.34 0.36 0.38 0.39 0.39 0.39 0.38 0.37 0.36 0.37 0.37 0.37 0.35 0.34 0.34 0.33 0.31 0.29 0.30 0.32 0.31 0.30 0.28 0.27 0.25 0.24 0.23 0.22
0.49 0.47 0.46 0.48 0.46 0.44 0.41 0.38 0.38 0.38 0.40 0.40 0.42 0.43 0.42 0.41 0.41 0.41 0.40 0.40 0.38 0.39 0.37 0.36 0.36 0.36 0.37 0.39 0.40 0.39 0.37 0.35 0.36 0.36 0.37 0.36 0.36 0.35 0.33 0.32 0.29 0.27 0.28 0.29 0.28 0.28 0.28 0.28 0.24 0.21 0.21 0.20
0.41 0.37 0.34 0.32 0.33 0.34 0.34 0.36 0.40 0.43 0.43 0.43 0.44 0.45 0.40 0.38 0.38 0.40 0.40 0.39 0.38 0.39 0.37 0.37 0.37 0.37 0.37 0.41 0.41 0.39 0.36 0.34 0.35 0.36 0.36 0.36 0.36 0.35 0.34 0.31 0.27 0.27 0.27 0.27 0.26 0.26 0.26 0.24 0.21 0.21 0.20 0.20
0.36 0.39 0.38 0.37 0.38 0.38 0.39 0.40 0.39 0.40 0.41 0.40 0.38 0.37 0.37 0.36 0.37 0.37 0.39 0.40 0.39 0.39 0.38 0.38 0.39 0.39 0.41 0.40 0.38 0.37 0.35 0.34 0.34 0.34 0.34 0.34 0.32 0.32 0.32 0.30 0.27 0.26 0.26 0.26 0.26 0.25 0.25 0.22 0.22 0.21 0.21 0.20
0.47 0.44 0.43 0.42 0.42 0.44 0.44 0.41 0.39 0.39 0.38 0.37 0.36 0.36 0.36 0.36 0.36 0.37 0.38 0.38 0.37 0.36 0.36 0.36 0.36 0.37 0.37 0.36 0.35 0.34 0.34 0.33 0.33 0.33 0.33 0.32 0.31 0.30 0.29 0.28 0.27 0.26 0.26 0.25 0.26 0.25 0.25 0.24 0.23 0.23 0.23 0.22
0.46 0.46 0.45 0.44 0.42 0.44 0.42 0.40 0.39 0.38 0.38 0.37 0.36 0.35 0.35 0.35 0.35 0.35 0.35 0.35 0.35 0.35 0.35 0.35 0.35 0.36 0.36 0.35 0.34 0.34 0.33 0.33 0.32 0.32 0.31 0.31 0.31 0.29 0.28 0.28 0.27 0.27 0.26 0.26 0.26 0.25 0.25 0.25 0.24 0.24 0.24 0.23
0.45 0.44 0.42 0.42 0.41 0.40 0.40 0.39 0.39 0.39 0.38 0.37 0.36 0.36 0.35 0.35 0.35 0.34 0.34 0.34 0.34 0.34 0.34 0.34 0.34 0.35 0.35 0.35 0.34 0.34 0.33 0.32 0.31 0.31 0.30 0.30 0.29 0.29 0.28 0.28 0.27 0.27 0.26 0.26 0.26 0.26 0.26 0.26 0.26 0.25 0.25 0.24
0.47 0.46 0.45 0.44 0.44 0.42 0.41 0.40 0.39 0.38 0.37 0.36 0.35 0.35 0.35 0.35 0.34 0.34 0.34 0.33 0.33 0.33 0.33 0.33 0.33 0.33 0.34 0.33 0.33 0.34 0.33 0.33 0.32 0.31 0.31 0.31 0.30 0.30 0.30 0.29 0.29 0.28 0.28 0.27 0.27 0.27 0.26 0.26 0.26 0.26 0.26 0.25
0.48 0.47 0.47 0.46 0.46 0.45 0.44 0.44 0.42 0.41 0.40 0.38 0.37 0.36 0.36 0.35 0.34 0.34 0.34 0.33 0.33 0.32 0.32 0.31 0.31 0.31 0.32 0.31 0.32 0.33 0.33 0.33 0.33 0.32 0.32 0.32 0.31 0.31 0.30 0.30 0.30 0.29 0.29 0.29 0.28 0.28 0.28 0.27 0.27 0.26 0.26 0.26
0.46 0.46 0.45 0.45 0.45 0.45 0.44 0.44 0.43 0.43 0.42 0.41 0.39 0.39 0.39 0.38 0.37 0.36 0.35 0.34 0.33 0.32 0.31 0.30 0.30 0.31 0.32 0.32 0.32 0.33 0.33 0.32 0.32 0.32 0.32 0.32 0.32 0.31 0.31 0.30 0.31 0.31 0.30 0.30 0.30 0.29 0.29 0.29 0.28 0.27 0.27 0.26
0.45 0.44 0.43 0.42 0.42 0.42 0.43 0.42 0.42 0.42 0.41 0.40 0.39 0.39 0.39 0.39 0.37 0.37 0.37 0.36 0.36 0.35 0.33 0.33 0.33 0.33 0.33 0.33 0.33 0.34 0.33 0.33 0.33 0.33 0.33 0.33 0.32 0.32 0.31 0.31 0.31 0.31 0.31 0.30 0.30 0.30 0.29 0.30 0.30 0.29 0.29 0.28
0.43 0.42 0.41 0.40 0.39 0.39 0.39 0.39 0.40 0.40 0.39 0.39 0.38 0.38 0.38 0.38 0.37 0.36 0.36 0.36 0.36 0.35 0.34 0.34 0.35 0.35 0.36 0.36 0.36 0.35 0.34 0.35 0.35 0.34 0.34 0.34 0.33 0.33 0.32 0.32 0.32 0.32 0.31 0.30 0.30 0.30 0.30 0.30 0.31 0.31 0.31 0.30
0.40 0.40 0.39 0.38 0.37 0.37 0.37 0.37 0.37 0.37 0.37 0.37 0.37 0.37 0.37 0.37 0.37 0.36 0.36 0.35 0.35 0.35 0.34 0.33 0.34 0.34 0.36 0.36 0.36 0.37 0.36 0.37 0.37 0.36 0.35 0.35 0.34 0.34 0.33 0.33 0.33 0.32 0.31 0.31 0.31 0.31 0.30 0.30 0.31 0.31 0.31 0.31
0.38 0.38 0.37 0.37 0.36 0.36 0.36 0.36 0.36 0.35 0.35 0.35 0.36 0.37 0.36 0.36 0.36 0.35 0.35 0.34 0.34 0.33 0.33 0.33 0.33 0.34 0.34 0.35 0.36 0.36 0.36 0.36 0.36 0.36 0.36 0.36 0.36 0.35 0.35 0.34 0.33 0.33 0.32 0.31 0.31 0.32 0.31 0.32 0.32 0.32 0.32 0.32
0.37 0.37 0.37 0.36 0.35 0.35 0.35 0.35 0.35 0.34 0.34 0.35 0.36 0.36 0.36 0.36 0.35 0.35 0.34 0.34 0.33 0.33 0.32 0.32 0.32 0.33 0.33 0.34 0.35 0.36 0.36 0.35 0.35 0.34 0.34 0.33 0.34 0.33 0.32 0.31 0.31 0.31 0.31 0.31 0.32 0.32 0.33 0.33 0.33 0.33 0.34 0.34
0.37 0.37 0.36 0.36 0.35 0.35 0.35 0.35 0.34 0.34 0.35 0.35 0.36 0.36 0.36 0.36 0.35 0.34 0.34 0.34 0.33 0.32 0.32 0.32 0.32 0.32 0.33 0.34 0.35 0.35 0.35 0.35 0.34 0.33 0.32 0.32 0.31 0.30 0.30 0.29 0.29 0.30 0.29 0.30 0.31 0.32 0.32 0.33 0.33 0.34 0.34 0.34
0.36 0.36 0.35 0.35 0.35 0.34 0.34 0.35 0.34 0.34 0.34 0.35 0.35 0.36 0.35 0.36 0.35 0.35 0.34 0.34 0.34 0.33 0.33 0.32 0.32 0.33 0.34 0.34 0.34 0.34 0.34 0.34 0.34 0.33 0.32 0.32 0.31 0.30 0.30 0.29 0.30 0.29 0.29 0.29 0.29 0.30 0.31 0.31 0.32 0.32 0.33 0.33
0.37 0.36 0.36 0.36 0.36 0.36 0.35 0.35 0.36 0.35 0.35 0.35 0.36 0.36 0.35 0.35 0.35 0.35 0.35 0.35 0.35 0.35 0.34 0.34 0.34 0.34 0.35 0.34 0.34 0.34 0.34 0.33 0.32 0.32 0.32 0.32 0.31 0.30 0.30 0.30 0.29 0.30 0.29 0.29 0.29 0.30 0.30 0.30 0.30 0.30 0.31 0.31
0.36 0.37 0.37 0.37 0.37 0.37 0.37 0.36 0.37 0.37 0.36 0.36 0.36 0.36 0.35 0.35 0.35 0.35 0.34 0.34 0.35 0.34 0.34 0.35 0.35 0.35 0.35 0.34 0.34 0.33 0.33 0.32 0.32 0.31 0.31 0.31 0.31 0.30 0.30 0.30 0.30 0.30 0.30 0.29 0.29 0.29 0.29 0.29 0.29 0.30 0.30 0.31
0.32 0.34 0.35 0.36 0.36 0.37 0.37 0.37 0.37 0.37 0.37 0.36 0.35 0.35 0.35 0.34 0.34 0.34 0.34 0.33 0.34 0.33 0.33 0.34 0.34 0.34 0.34 0.34 0.33 0.32 0.31 0.31 0.31 0.30 0.30 0.30 0.30 0.30 0.29 0.29 0.30 0.30 0.30 0.30 0.30 0.29 0.29 0.29 0.29 0.30 0.31 0.31
0.28 0.29 0.30 0.31 0.32 0.33 0.34 0.35 0.35 0.35 0.35 0.34 0.34 0.34 0.34 0.33 0.33 0.32 0.32 0.32 0.32 0.32 0.31 0.32 0.32 0.32 0.31 0.31 0.31 0.30 0.29 0.28 0.28 0.28 0.28 0.28 0.28 0.29 0.29 0.29 0.29 0.30 0.30 0.30 0.29 0.29 0.29 0.29 0.29 0.30 0.30 0.31
0.25 0.25 0.25 0.26 0.26 0.26 0.27 0.29 0.30 0.31 0.32 0.32 0.32 0.32 0.32 0.31 0.31 0.30 0.30 0.30 0.31 0.30 0.30 0.30 0.30 0.29 0.29 0.29 0.28 0.28 0.27 0.26 0.26 0.26 0.26 0.26 0.27 0.27 0.28 0.28 0.28 0.28 0.28 0.29 0.28 0.28 0.28 0.28 0.28 0.28 0.28 0.29
0.21 0.21 0.21 0.22 0.22 0.22 0.23 0.23 0.25 0.24 0.25 0.27 0.28 0.29 0.28 0.28 0.27 0.26 0.26 0.28 0.29 0.29 0.28 0.29 0.28 0.28 0.27 0.27 0.26 0.25 0.25 0.24 0.24 0.24 0.24 0.25 0.25 0.25 0.25 0.26 0.26 0.26 0.27 0.27 0.27 0.27 0.27 0.27 0.28 0.27 0.28 0.28
0.18 0.17 0.17 0.18 0.18 0.18 0.18 0.19 0.19 0.19 0.19 0.21 0.21 0.22 0.23 0.23 0.23 0.22 0.23 0.25 0.25 0.25 0.26 0.25 0.25 0.25 0.25 0.24 0.24 0.24 0.23 0.22 0.22 0.22 0.23 0.23 0.23 0.23 0.23 0.23 0.24 0.25 0.24 0.24 0.24 0.24 0.26 0.27 0.27 0.28 0.29 0.28
0.17 0.17 0.17 0.16 0.16 0.16 0.16 0.17 0.17 0.17 0.16 0.17 0.17 0.17 0.17 0.17 0.17 0.18 0.19 0.21 0.21 0.21 0.22 0.22 0.22 0.22 0.22 0.22 0.22 0.21 0.21 0.21 0.20 0.21 0.21 0.21 0.21 0.21 0.22 0.21 0.22 0.23 0.23 0.22 0.23 0.23 0.22 0.23 0.24 0.26 0.26 0.29
0.18 0.16 0.16 0.16 0.16 0.15 0.15 0.14 0.14 0.14 0.13 0.13 0.13 0.13 0.13 0.13 0.13 0.12 0.14 0.15 0.16 0.18 0.19 0.19 0.19 0.19 0.19 0.19 0.19 0.19 0.19 0.19 0.19 0.20 0.20 0.20 0.20 0.20 0.19 0.19 0.20 0.20 0.20 0.20 0.20 0.19 0.20 0.21 0.21 0.21 0.25 0.26
0.16 0.15 0.14 0.13 0.13 0.13 0.12 0.12 0.11 0.10 0.09 0.10 0.10 0.10 0.10 0.10 0.10 0.09 0.10 0.10 0.11 0.12 0.14 0.15 0.15 0.16 0.16 0.17 0.17 0.17 0.17 0.17 0.17 0.18 0.18 0.18 0.18 0.18 0.18 0.18 0.19 0.19 0.19 0.19 0.19 0.19 0.18 0.19 0.20 0.20 0.22 0.23
0.15 0.14 0.13 0.12 0.11 0.11 0.10 0.10 0.09 0.08 0.08 0.08 0.09 0.09 0.09 0.09 0.08 0.08 0.08 0.08 0.08 0.09 0.10 0.10 0.11 0.11 0.12 0.13 0.14 0.14 0.15 0.15 0.16 0.16 0.16 0.16 0.17 0.17 0.17 0.17 0.17 0.17 0.18 0.18 0.18 0.18 0.19 0.19 0.19 0.19 0.21 0.20
0.15 0.14 0.14 0.12 0.11 0.11 0.10 0.09 0.08 0.08 0.08 0.08 0.09 0.10 0.09 0.09 0.09 0.08 0.08 0.07 0.07 0.08 0.08 0.09 0.09 0.09 0.09 0.09 0.10 0.11 0.11 0.12 0.13 0.13 0.14 0.15 0.15 0.15 0.16 0.15 0.15 0.15 0.16 0.17 0.17 0.18 0.18 0.18 0.18 0.19 0.18 0.18

ECMWFFLT2_prec_pwat_096.txt.gz
Precipitable_Water
0.71 0.69 0.67 0.65 0.62 0.55 0.53 0.53 0.53 0.51 0.50 0.47 0.45 0.43 0.43 0.43 0.45 0.47 0.47 0.46 0.47 0.47 0.46 0.45 0.47 0.49 0.50 0.50 0.52 0.50 0.50 0.48 0.48 0.48 0.48 0.48 0.46 0.45 0.45 0.40 0.35 0.33 0.33 0.34 0.34 0.32 0.31 0.29 0.26 0.25 0.24 0.21
0.64 0.62 0.59 0.56 0.52 0.49 0.48 0.48 0.47 0.45 0.45 0.44 0.43 0.43 0.42 0.41 0.42 0.44 0.42 0.42 0.43 0.43 0.44 0.44 0.47 0.50 0.50 0.51 0.50 0.49 0.48 0.47 0.46 0.47 0.47 0.47 0.45 0.43 0.43 0.42 0.36 0.31 0.32 0.33 0.33 0.32 0.31 0.29 0.26 0.25 0.24 0.22
0.60 0.55 0.49 0.43 0.42 0.41 0.41 0.42 0.41 0.41 0.41 0.41 0.40 0.40 0.40 0.39 0.39 0.39 0.39 0.38 0.39 0.39 0.40 0.41 0.42 0.46 0.48 0.48 0.48 0.46 0.44 0.43 0.44 0.46 0.47 0.47 0.46 0.44 0.42 0.41 0.37 0.31 0.31 0.31 0.31 0.31 0.30 0.29 0.27 0.25 0.24 0.23
0.49 0.43 0.38 0.38 0.38 0.39 0.41 0.41 0.41 0.41 0.40 0.40 0.39 0.38 0.37 0.37 0.36 0.36 0.36 0.36 0.35 0.37 0.37 0.39 0.40 0.42 0.44 0.45 0.46 0.43 0.42 0.41 0.43 0.42 0.43 0.44 0.45 0.44 0.40 0.37 0.33 0.32 0.32 0.31 0.30 0.30 0.30 0.29 0.26 0.25 0.25 0.24
0.41 0.41 0.41 0.43 0.44 0.44 0.44 0.43 0.43 0.42 0.41 0.39 0.39 0.37 0.36 0.36 0.35 0.35 0.35 0.34 0.34 0.34 0.35 0.37 0.38 0.38 0.39 0.41 0.42 0.40 0.39 0.38 0.40 0.40 0.40 0.40 0.40 0.38 0.36 0.34 0.31 0.31 0.32 0.31 0.31 0.30 0.29 0.28 0.26 0.26 0.26 0.25
0.48 0.49 0.49 0.48 0.47 0.46 0.45 0.45 0.43 0.42 0.41 0.41 0.39 0.38 0.37 0.36 0.35 0.34 0.34 0.34 0.34 0.33 0.33 0.34 0.35 0.36 0.36 0.37 0.37 0.37 0.35 0.34 0.35 0.35 0.36 0.36 0.35 0.34 0.33 0.32 0.31 0.31 0.31 0.31 0.32 0.31 0.30 0.28 0.27 0.27 0.26 0.26
0.52 0.50 0.50 0.49 0.48 0.47 0.47 0.46 0.45 0.45 0.44 0.43 0.42 0.40 0.39 0.37 0.36 0.35 0.34 0.33 0.33 0.32 0.32 0.32 0.33 0.33 0.33 0.33 0.33 0.32 0.31 0.31 0.32 0.33 0.33 0.33 0.33 0.32 0.31 0.30 0.31 0.31 0.31 0.31 0.31 0.30 0.30 0.29 0.28 0.28 0.28 0.27
0.53 0.52 0.51 0.50 0.50 0.49 0.48 0.47 0.47 0.46 0.46 0.45 0.44 0.42 0.41 0.40 0.38 0.37 0.35 0.35 0.34 0.33 0.32 0.31 0.31 0.31 0.31 0.30 0.30 0.31 0.29 0.30 0.30 0.30 0.30 0.31 0.32 0.31 0.31 0.30 0.30 0.30 0.31 0.31 0.31 0.31 0.30 0.30 0.29 0.29 0.28 0.28
0.50 0.49 0.49 0.49 0.48 0.48 0.47 0.47 0.46 0.46 0.46 0.45 0.44 0.43 0.42 0.41 0.40 0.39 0.38 0.37 0.36 0.35 0.34 0.32 0.31 0.30 0.30 0.29 0.29 0.30 0.29 0.29 0.29 0.29 0.29 0.29 0.29 0.29 0.30 0.30 0.30 0.30 0.30 0.30 0.31 0.31 0.31 0.30 0.30 0.29 0.29 0.28
0.47 0.47 0.46 0.46 0.46 0.45 0.45 0.45 0.44 0.44 0.43 0.43 0.42 0.42 0.41 0.40 0.39 0.38 0.38 0.38 0.37 0.36 0.36 0.34 0.33 0.33 0.33 0.32 0.31 0.31 0.29 0.29 0.29 0.29 0.29 0.29 0.29 0.29 0.29 0.29 0.30 0.30 0.31 0.30 0.30 0.30 0.30 0.31 0.30 0.29 0.29 0.29
0.43 0.43 0.44 0.43 0.43 0.42 0.42 0.42 0.41 0.41 0.40 0.40 0.40 0.40 0.40 0.38 0.37 0.36 0.36 0.36 0.35 0.35 0.35 0.35 0.35 0.35 0.35 0.34 0.34 0.34 0.33 0.32 0.31 0.30 0.29 0.28 0.28 0.28 0.28 0.28 0.28 0.29 0.29 0.30 0.30 0.30 0.29 0.29 0.30 0.30 0.29 0.29
0.37 0.37 0.37 0.38 0.38 0.37 0.37 0.36 0.36 0.36 0.36 0.36 0.36 0.36 0.37 0.36 0.35 0.35 0.34 0.34 0.34 0.34 0.34 0.34 0.35 0.35 0.35 0.35 0.35 0.36 0.35 0.35 0.35 0.34 0.33 0.32 0.30 0.29 0.28 0.27 0.27 0.27 0.28 0.28 0.29 0.28 0.28 0.28 0.28 0.28 0.29 0.29
0.32 0.32 0.32 0.32 0.32 0.32 0.32 0.31 0.31 0.32 0.32 0.31 0.31 0.31 0.31 0.32 0.31 0.32 0.32 0.32 0.33 0.33 0.34 0.34 0.35 0.35 0.35 0.35 0.36 0.36 0.35 0.35 0.35 0.35 0.35 0.34 0.34 0.33 0.32 0.31 0.29 0.28 0.27 0.27 0.27 0.27 0.27 0.28 0.27 0.27 0.27 0.27
0.29 0.28 0.28 0.28 0.28 0.28 0.28 0.27 0.27 0.27 0.26 0.26 0.26 0.26 0.26 0.26 0.27 0.27 0.28 0.28 0.30 0.31 0.32 0.33 0.34 0.34 0.35 0.35 0.35 0.35 0.35 0.36 0.35 0.35 0.34 0.34 0.34 0.34 0.34 0.34 0.33 0.32 0.31 0.30 0.29 0.28 0.28 0.28 0.28 0.28 0.28 0.27
0.26 0.26 0.26 0.26 0.25 0.25 0.24 0.24 0.24 0.24 0.23 0.23 0.23 0.23 0.23 0.23 0.24 0.24 0.24 0.25 0.26 0.26 0.27 0.29 0.30 0.31 0.32 0.33 0.34 0.34 0.34 0.35 0.35 0.35 0.34 0.34 0.35 0.34 0.34 0.34 0.34 0.33 0.33 0.33 0.33 0.32 0.31 0.30 0.29 0.29 0.28 0.28
0.24 0.24 0.24 0.23 0.23 0.23 0.22 0.22 0.21 0.21 0.22 0.22 0.21 0.22 0.22 0.22 0.22 0.22 0.22 0.22 0.22 0.22 0.23 0.24 0.25 0.26 0.26 0.27 0.29 0.30 0.31 0.32 0.32 0.33 0.33 0.33 0.34 0.34 0.34 0.34 0.34 0.34 0.34 0.33 0.33 0.33 0.33 0.33 0.33 0.32 0.30 0.29
0.22 0.22 0.22 0.22 0.21 0.22 0.22 0.21 0.21 0.21 0.21 0.22 0.22 0.22 0.22 0.22 0.21 0.21 0.21 0.21 0.21 0.20 0.20 0.21 0.21 0.21 0.22 0.23 0.24 0.25 0.25 0.26 0.28 0.29 0.30 0.31 0.32 0.32 0.33 0.33 0.33 0.34 0.34 0.33 0.33 0.34 0.33 0.34 0.34 0.34 0.34 0.33
0.21 0.21 0.22 0.22 0.21 0.22 0.22 0.22 0.22 0.22 0.21 0.21 0.21 0.21 0.21 0.21 0.20 0.19 0.19 0.20 0.20 0.19 0.20 0.20 0.19 0.19 0.19 0.20 0.20 0.20 0.20 0.21 0.22 0.23 0.24 0.26 0.28 0.29 0.30 0.30 0.31 0.31 0.32 0.33 0.33 0.33 0.33 0.33 0.33 0.34 0.34 0.34
0.21 0.21 0.21 0.21 0.21 0.21 0.21 0.21 0.20 0.20 0.19 0.19 0.19 0.18 0.18 0.18 0.17 0.16 0.16 0.17 0.17 0.17 0.18 0.18 0.17 0.17 0.17 0.17 0.17 0.16 0.16 0.16 0.17 0.17 0.18 0.20 0.21 0.23 0.25 0.27 0.28 0.29 0.29 0.30 0.30 0.31 0.32 0.32 0.32 0.33 0.33 0.34
0.21 0.21 0.20 0.20 0.20 0.19 0.19 0.18 0.17 0.17 0.16 0.16 0.15 0.15 0.14 0.14 0.14 0.13 0.13 0.14 0.14 0.13 0.14 0.14 0.13 0.13 0.13 0.13 0.13 0.13 0.13 0.13 0.13 0.13 0.14 0.14 0.15 0.16 0.18 0.20 0.23 0.25 0.26 0.27 0.28 0.29 0.30 0.30 0.31 0.31 0.31 0.32
0.20 0.20 0.19 0.18 0.18 0.17 0.16 0.16 0.16 0.15 0.15 0.15 0.15 0.14 0.14 0.14 0.13 0.12 0.12 0.11 0.11 0.11 0.12 0.11 0.10 0.10 0.10 0.10 0.10 0.10 0.10 0.09 0.10 0.10 0.10 0.10 0.11 0.12 0.12 0.13 0.15 0.18 0.20 0.23 0.25 0.26 0.27 0.28 0.28 0.29 0.30 0.30
0.18 0.18 0.17 0.17 0.17 0.17 0.16 0.16 0.16 0.16 0.15 0.15 0.14 0.14 0.13 0.12 0.11 0.10 0.10 0.10 0.10 0.10 0.10 0.10 0.09 0.09 0.09 0.09 0.09 0.09 0.08 0.08 0.09 0.09 0.09 0.08 0.09 0.09 0.09 0.10 0.10 0.11 0.13 0.16 0.19 0.22 0.24 0.25 0.26 0.27 0.28 0.28
0.17 0.18 0.18 0.17 0.17 0.16 0.16 0.16 0.16 0.16 0.15 0.14 0.13 0.12 0.11 0.10 0.10 0.09 0.09 0.09 0.09 0.09 0.09 0.09 0.08 0.08 0.08 0.08 0.08 0.08 0.07 0.07 0.08 0.08 0.08 0.08 0.08 0.08 0.08 0.09 0.08 0.09 0.09 0.10 0.12 0.14 0.18 0.22 0.23 0.24 0.25 0.26
0.18 0.18 0.17 0.17 0.17 0.16 0.16 0.15 0.15 0.14 0.13 0.13 0.11 0.11 0.10 0.10 0.09 0.09 0.09 0.08 0.08 0.09 0.08 0.08 0.08 0.08 0.08 0.07 0.07 0.07 0.07 0.07 0.07 0.07 0.07 0.07 0.07 0.07 0.08 0.08 0.08 0.08 0.08 0.08 0.08 0.09 0.12 0.15 0.18 0.21 0.23 0.25
0.18 0.17 0.17 0.18 0.17 0.16 0.15 0.14 0.14 0.12 0.12 0.12 0.11 0.10 0.10 0.09 0.09 0.08 0.09 0.08 0.08 0.08 0.08 0.08 0.07 0.07 0.07 0.07 0.07 0.07 0.06 0.07 0.07 0.07 0.06 0.06 0.06 0.06 0.06 0.06 0.07 0.08 0.07 0.07 0.07 0.08 0.09 0.10 0.12 0.16 0.21 0.24
0.18 0.18 0.18 0.17 0.15 0.15 0.14 0.13 0.13 0.12 0.12 0.12 0.11 0.10 0.10 0.10 0.09 0.09 0.09 0.08 0.08 0.08 0.08 0.07 0.07 0.07 0.07 0.07 0.07 0.07 0.07 0.07 0.07 0.06 0.06 0.06 0.06 0.06 0.06 0.05 0.06 0.07 0.06 0.06 0.06 0.06 0.06 0.08 0.09 0.12 0.16 0.19
0.18 0.18 0.17 0.16 0.15 0.15 0.15 0.15 0.14 0.13 0.13 0.12 0.10 0.10 0.10 0.10 0.09 0.09 0.09 0.08 0.08 0.08 0.08 0.08 0.07 0.07 0.07 0.07 0.07 0.06 0.06 0.06 0.06 0.06 0.06 0.05 0.06 0.05 0.05 0.06 0.06 0.06 0.06 0.06 0.06 0.07 0.06 0.06 0.06 0.09 0.09 0.12
0.18 0.17 0.17 0.17 0.17 0.16 0.16 0.15 0.15 0.14 0.13 0.12 0.11 0.10 0.11 0.10 0.09 0.09 0.08 0.08 0.08 0.08 0.08 0.08 0.07 0.07 0.07 0.07 0.07 0.07 0.06 0.06 0.06 0.06 0.06 0.06 0.06 0.06 0.05 0.05 0.06 0.06 0.06 0.06 0.06 0.05 0.05 0.06 0.06 0.06 0.07 0.08
0.19 0.18 0.18 0.17 0.17 0.17 0.16 0.15 0.15 0.14 0.13 0.13 0.12 0.12 0.10 0.10 0.10 0.09 0.09 0.09 0.08 0.08 0.08 0.08 0.08 0.07 0.07 0.07 0.07 0.07 0.07 0.06 0.06 0.06 0.06 0.06 0.06 0.05 0.05 0.05 0.06 0.06 0.06 0.06 0.07 0.06 0.05 0.05 0.05 0.06 0.07 0.07
0.20 0.18 0.18 0.17 0.16 0.15 0.15 0.15 0.14 0.14 0.13 0.13 0.12 0.12 0.11 0.10 0.10 0.10 0.09 0.09 0.09 0.09 0.09 0.08 0.08 0.07 0.07 0.07 0.07 0.07 0.07 0.06 0.06 0.06 0.06 0.06 0.06 0.05 0.06 0.06 0.05 0.05 0.06 0.07 0.06 0.07 0.07 0.07 0.06 0.06 0.06 0.06
0.21 0.19 0.19 0.18 0.17 0.17 0.16 0.15 0.15 0.15 0.15 0.14 0.14 0.13 0.12 0.11 0.11 0.10 0.09 0.09 0.09 0.09 0.09 0.08 0.08 0.08 0.07 0.07 0.07 0.07 0.07 0.06 0.06 0.06 0.06 0.06 0.06 0.06 0.06 0.06 0.05 0.05 0.06 0.06 0.06 0.07 0.07 0.06 0.07 0.07 0.06 0.05

ECMWFFLT2_prec_pwat_099.txt.gz
Precipitable_Water
0.72 0.68 0.64 0.58 0.49 0.44 0.45 0.46 0.47 0.48 0.48 0.47 0.46 0.45 0.44 0.44 0.43 0.43 0.44 0.44 0.45 0.45 0.44 0.47 0.50 0.51 0.51 0.52 0.51 0.49 0.48 0.49 0.49 0.49 0.49 0.49 0.49 0.48 0.46 0.41 0.38 0.36 0.37 0.37 0.36 0.34 0.33 0.31 0.28 0.27 0.25 0.24
0.64 0.61 0.54 0.47 0.45 0.47 0.50 0.51 0.51 0.50 0.48 0.47 0.45 0.43 0.42 0.41 0.41 0.40 0.40 0.41 0.41 0.42 0.41 0.41 0.45 0.48 0.48 0.49 0.47 0.45 0.45 0.46 0.46 0.46 0.46 0.46 0.45 0.43 0.40 0.37 0.36 0.36 0.37 0.37 0.36 0.35 0.34 0.31 0.29 0.27 0.26 0.25
0.61 0.55 0.49 0.47 0.50 0.52 0.52 0.51 0.50 0.47 0.46 0.45 0.44 0.42 0.41 0.40 0.39 0.38 0.37 0.37 0.38 0.39 0.39 0.39 0.40 0.43 0.45 0.45 0.43 0.41 0.40 0.42 0.43 0.43 0.43 0.42 0.41 0.38 0.36 0.34 0.34 0.34 0.36 0.36 0.36 0.35 0.34 0.32 0.29 0.28 0.27 0.26
0.53 0.50 0.49 0.51 0.52 0.51 0.50 0.48 0.47 0.47 0.46 0.45 0.43 0.42 0.41 0.40 0.38 0.37 0.36 0.35 0.35 0.35 0.36 0.36 0.37 0.39 0.41 0.42 0.41 0.38 0.37 0.38 0.40 0.40 0.40 0.40 0.38 0.37 0.34 0.33 0.32 0.32 0.33 0.34 0.35 0.34 0.33 0.31 0.30 0.29 0.28 0.28
0.49 0.48 0.50 0.51 0.51 0.50 0.50 0.49 0.48 0.47 0.46 0.45 0.45 0.43 0.42 0.40 0.39 0.39 0.37 0.36 0.35 0.35 0.35 0.36 0.36 0.36 0.36 0.38 0.37 0.35 0.35 0.35 0.37 0.37 0.37 0.37 0.36 0.35 0.33 0.31 0.30 0.30 0.31 0.32 0.32 0.32 0.32 0.31 0.30 0.30 0.29 0.29
0.52 0.52 0.51 0.50 0.50 0.50 0.50 0.49 0.48 0.47 0.46 0.45 0.44 0.44 0.42 0.41 0.41 0.40 0.40 0.39 0.38 0.37 0.37 0.36 0.36 0.35 0.35 0.35 0.35 0.33 0.33 0.33 0.35 0.34 0.35 0.35 0.34 0.33 0.31 0.30 0.29 0.29 0.29 0.30 0.31 0.30 0.30 0.29 0.30 0.30 0.30 0.29
0.52 0.50 0.50 0.49 0.49 0.48 0.48 0.48 0.47 0.46 0.46 0.45 0.44 0.43 0.42 0.41 0.40 0.40 0.40 0.40 0.39 0.38 0.38 0.38 0.38 0.37 0.36 0.35 0.35 0.33 0.33 0.33 0.34 0.33 0.33 0.33 0.32 0.31 0.30 0.29 0.29 0.29 0.29 0.29 0.29 0.29 0.29 0.29 0.29 0.29 0.30 0.30
0.50 0.49 0.48 0.47 0.47 0.46 0.45 0.44 0.44 0.43 0.43 0.42 0.41 0.40 0.40 0.39 0.39 0.38 0.38 0.38 0.38 0.37 0.37 0.37 0.37 0.36 0.36 0.36 0.36 0.35 0.34 0.34 0.34 0.33 0.32 0.32 0.32 0.31 0.30 0.29 0.29 0.28 0.28 0.28 0.28 0.28 0.28 0.29 0.29 0.28 0.28 0.28
0.46 0.45 0.43 0.43 0.42 0.41 0.41 0.40 0.40 0.39 0.39 0.38 0.37 0.37 0.36 0.36 0.35 0.35 0.35 0.35 0.35 0.35 0.35 0.35 0.35 0.35 0.35 0.36 0.36 0.36 0.36 0.36 0.36 0.35 0.35 0.34 0.34 0.33 0.32 0.31 0.31 0.30 0.29 0.28 0.28 0.27 0.27 0.28 0.28 0.28 0.28 0.27
0.39 0.38 0.36 0.36 0.35 0.34 0.34 0.34 0.33 0.33 0.32 0.32 0.32 0.31 0.31 0.31 0.30 0.30 0.30 0.30 0.30 0.31 0.31 0.32 0.32 0.33 0.34 0.34 0.35 0.36 0.35 0.36 0.36 0.36 0.36 0.36 0.36 0.36 0.35 0.35 0.34 0.33 0.32 0.30 0.29 0.28 0.28 0.28 0.28 0.28 0.28 0.28
0.34 0.33 0.33 0.32 0.31 0.30 0.29 0.29 0.28 0.27 0.27 0.27 0.27 0.27 0.27 0.26 0.25 0.25 0.25 0.26 0.26 0.27 0.27 0.28 0.28 0.29 0.29 0.30 0.31 0.32 0.32 0.33 0.34 0.34 0.34 0.35 0.35 0.36 0.36 0.36 0.36 0.36 0.36 0.34 0.33 0.32 0.30 0.30 0.29 0.28 0.28 0.29
0.30 0.29 0.29 0.29 0.28 0.27 0.27 0.26 0.25 0.24 0.24 0.24 0.23 0.23 0.23 0.22 0.22 0.22 0.22 0.22 0.22 0.23 0.24 0.24 0.25 0.25 0.26 0.26 0.27 0.27 0.27 0.27 0.28 0.29 0.30 0.30 0.32 0.33 0.33 0.34 0.35 0.36 0.36 0.36 0.37 0.36 0.34 0.33 0.32 0.30 0.30 0.29
0.27 0.26 0.26 0.26 0.25 0.25 0.25 0.23 0.23 0.22 0.22 0.21 0.21 0.21 0.21 0.21 0.20 0.20 0.21 0.21 0.21 0.22 0.22 0.22 0.22 0.22 0.22 0.22 0.23 0.23 0.23 0.24 0.24 0.24 0.25 0.25 0.26 0.27 0.27 0.29 0.30 0.32 0.33 0.34 0.35 0.35 0.36 0.36 0.35 0.34 0.32 0.31
0.24 0.24 0.24 0.23 0.23 0.23 0.22 0.21 0.21 0.21 0.20 0.20 0.20 0.20 0.20 0.21 0.20 0.20 0.20 0.20 0.20 0.20 0.20 0.20 0.20 0.20 0.20 0.20 0.20 0.20 0.19 0.20 0.20 0.20 0.20 0.21 0.22 0.22 0.23 0.24 0.24 0.26 0.27 0.29 0.31 0.32 0.34 0.34 0.35 0.36 0.36 0.35
0.23 0.23 0.22 0.22 0.22 0.21 0.20 0.20 0.20 0.20 0.20 0.20 0.20 0.21 0.20 0.20 0.20 0.19 0.19 0.18 0.18 0.18 0.18 0.18 0.18 0.17 0.17 0.17 0.17 0.17 0.17 0.17 0.17 0.16 0.16 0.17 0.17 0.17 0.18 0.18 0.19 0.20 0.21 0.23 0.24 0.26 0.28 0.30 0.32 0.33 0.34 0.35
0.22 0.22 0.21 0.21 0.20 0.20 0.20 0.20 0.20 0.20 0.20 0.20 0.20 0.20 0.19 0.18 0.18 0.17 0.17 0.16 0.16 0.16 0.15 0.15 0.15 0.14 0.14 0.13 0.13 0.13 0.13 0.12 0.13 0.12 0.13 0.13 0.13 0.13 0.14 0.14 0.14 0.15 0.16 0.17 0.18 0.20 0.21 0.23 0.25 0.28 0.30 0.32
0.21 0.21 0.21 0.20 0.20 0.20 0.20 0.20 0.20 0.20 0.20 0.19 0.18 0.17 0.16 0.15 0.15 0.14 0.14 0.14 0.14 0.14 0.14 0.13 0.12 0.12 0.11 0.11 0.11 0.11 0.11 0.10 0.10 0.10 0.10 0.10 0.11 0.11 0.11 0.10 0.10 0.11 0.12 0.12 0.13 0.14 0.15 0.17 0.19 0.21 0.23 0.26
0.21 0.21 0.20 0.20 0.21 0.21 0.20 0.20 0.19 0.18 0.17 0.16 0.15 0.14 0.14 0.14 0.14 0.14 0.14 0.14 0.13 0.13 0.12 0.11 0.11 0.10 0.10 0.10 0.10 0.10 0.10 0.09 0.09 0.09 0.09 0.09 0.09 0.09 0.09 0.09 0.09 0.09 0.09 0.09 0.10 0.10 0.11 0.12 0.13 0.15 0.17 0.19
0.20 0.20 0.20 0.20 0.19 0.19 0.18 0.17 0.16 0.15 0.15 0.15 0.15 0.14 0.14 0.14 0.14 0.13 0.12 0.12 0.11 0.11 0.10 0.10 0.10 0.09 0.09 0.10 0.09 0.09 0.09 0.08 0.08 0.08 0.08 0.08 0.08 0.08 0.08 0.08 0.08 0.08 0.08 0.08 0.08 0.09 0.09 0.09 0.10 0.11 0.12 0.13
0.20 0.20 0.19 0.19 0.18 0.17 0.17 0.16 0.15 0.15 0.15 0.15 0.15 0.14 0.14 0.14 0.13 0.11 0.11 0.11 0.11 0.10 0.10 0.09 0.09 0.09 0.09 0.09 0.08 0.08 0.08 0.08 0.07 0.08 0.08 0.07 0.08 0.07 0.07 0.07 0.07 0.07 0.07 0.07 0.08 0.08 0.08 0.08 0.09 0.09 0.09 0.10
0.19 0.18 0.18 0.17 0.16 0.16 0.16 0.16 0.16 0.16 0.16 0.16 0.15 0.14 0.13 0.12 0.11 0.10 0.10 0.10 0.10 0.10 0.09 0.09 0.08 0.08 0.08 0.09 0.08 0.08 0.08 0.07 0.07 0.07 0.07 0.07 0.07 0.07 0.06 0.07 0.06 0.06 0.06 0.07 0.07 0.07 0.07 0.07 0.08 0.08 0.08 0.09
0.18 0.18 0.17 0.17 0.17 0.17 0.17 0.17 0.17 0.17 0.16 0.15 0.14 0.13 0.12 0.12 0.11 0.11 0.10 0.10 0.10 0.10 0.10 0.09 0.09 0.08 0.08 0.09 0.08 0.08 0.07 0.07 0.08 0.08 0.07 0.06 0.07 0.07 0.06 0.06 0.06 0.06 0.06 0.06 0.06 0.06 0.06 0.06 0.07 0.07 0.07 0.08
0.18 0.18 0.17 0.18 0.17 0.17 0.17 0.17 0.18 0.17 0.16 0.15 0.14 0.13 0.12 0.12 0.11 0.11 0.10 0.10 0.10 0.10 0.09 0.09 0.09 0.09 0.09 0.09 0.08 0.08 0.08 0.08 0.08 0.08 0.07 0.06 0.06 0.07 0.07 0.06 0.06 0.06 0.06 0.06 0.06 0.06 0.06 0.06 0.06 0.06 0.07 0.08
0.17 0.18 0.18 0.17 0.17 0.17 0.17 0.17 0.17 0.16 0.15 0.14 0.14 0.13 0.13 0.12 0.11 0.11 0.11 0.10 0.10 0.10 0.10 0.09 0.09 0.09 0.09 0.09 0.08 0.08 0.08 0.08 0.08 0.07 0.07 0.06 0.07 0.07 0.07 0.06 0.06 0.07 0.06 0.06 0.05 0.05 0.06 0.06 0.06 0.06 0.07 0.08
0.18 0.17 0.18 0.18 0.17 0.17 0.17 0.16 0.16 0.15 0.15 0.15 0.14 0.14 0.13 0.12 0.12 0.12 0.11 0.11 0.11 0.10 0.10 0.10 0.09 0.09 0.09 0.09 0.09 0.08 0.08 0.08 0.08 0.08 0.07 0.07 0.07 0.07 0.06 0.06 0.07 0.07 0.06 0.06 0.05 0.06 0.06 0.06 0.06 0.07 0.08 0.10
0.19 0.19 0.19 0.18 0.18 0.18 0.17 0.16 0.16 0.15 0.15 0.15 0.14 0.14 0.14 0.13 0.13 0.12 0.12 0.11 0.11 0.11 0.10 0.10 0.10 0.09 0.09 0.09 0.09 0.09 0.09 0.08 0.08 0.08 0.07 0.07 0.07 0.07 0.06 0.06 0.07 0.07 0.06 0.05 0.05 0.05 0.05 0.05 0.06 0.09 0.09 0.08
0.19 0.20 0.20 0.20 0.19 0.18 0.17 0.17 0.17 0.17 0.17 0.16 0.15 0.15 0.15 0.14 0.14 0.13 0.12 0.12 0.12 0.11 0.11 0.10 0.10 0.10 0.09 0.09 0.09 0.09 0.09 0.08 0.08 0.08 0.07 0.07 0.07 0.06 0.06 0.07 0.07 0.07 0.07 0.05 0.06 0.06 0.05 0.05 0.04 0.05 0.06 0.07
0.21 0.20 0.21 0.20 0.19 0.19 0.18 0.18 0.18 0.18 0.18 0.17 0.16 0.15 0.16 0.16 0.15 0.14 0.13 0.12 0.12 0.12 0.11 0.10 0.10 0.10 0.10 0.09 0.09 0.09 0.09 0.08 0.08 0.08 0.07 0.07 0.07 0.07 0.06 0.06 0.06 0.07 0.07 0.06 0.06 0.05 0.05 0.05 0.05 0.04 0.05 0.06
0.21 0.21 0.21 0.20 0.20 0.20 0.19 0.19 0.19 0.18 0.18 0.17 0.17 0.17 0.17 0.16 0.16 0.15 0.14 0.14 0.13 0.13 0.12 0.11 0.11 0.10 0.10 0.10 0.09 0.10 0.09 0.08 0.08 0.08 0.08 0.08 0.07 0.07 0.06 0.06 0.06 0.06 0.07 0.07 0.07 0.06 0.05 0.05 0.05 0.05 0.05 0.05
0.22 0.21 0.21 0.20 0.18 0.18 0.18 0.18 0.18 0.18 0.18 0.18 0.18 0.18 0.17 0.17 0.17 0.16 0.16 0.15 0.14 0.14 0.13 0.12 0.11 0.11 0.10 0.10 0.09 0.10 0.09 0.09 0.08 0.08 0.08 0.08 0.07 0.07 0.07 0.07 0.06 0.06 0.07 0.07 0.07 0.07 0.07 0.06 0.05 0.05 0.06 0.05
0.23 0.22 0.22 0.20 0.19 0.19 0.19 0.19 0.19 0.20 0.20 0.19 0.19 0.19 0.19 0.18 0.18 0.18 0.17 0.16 0.15 0.14 0.14 0.13 0.12 0.11 0.11 0.10 0.10 0.10 0.10 0.09 0.08 0.08 0.08 0.08 0.07 0.07 0.07 0.07 0.06 0.06 0.06 0.07 0.06 0.07 0.07 0.06 0.06 0.07 0.06 0.05

ECMWFFLT2_prec_pwat_102.txt.gz
Precipitable_Water
0.71 0.68 0.64 0.57 0.50 0.53 0.56 0.55 0.54 0.52 0.51 0.50 0.49 0.48 0.47 0.45 0.45 0.45 0.45 0.45 0.45 0.44 0.44 0.48 0.50 0.51 0.51 0.48 0.47 0.47 0.48 0.48 0.49 0.47 0.47 0.46 0.43 0.41 0.39 0.39 0.38 0.38 0.39 0.39 0.37 0.36 0.34 0.32 0.31 0.30 0.29 0.29
0.68 0.65 0.61 0.53 0.53 0.56 0.55 0.53 0.52 0.51 0.49 0.48 0.47 0.46 0.44 0.44 0.43 0.42 0.42 0.43 0.43 0.42 0.41 0.41 0.44 0.47 0.47 0.44 0.42 0.42 0.43 0.44 0.45 0.46 0.45 0.44 0.41 0.39 0.38 0.37 0.37 0.36 0.37 0.38 0.36 0.35 0.33 0.32 0.31 0.30 0.29 0.29
0.66 0.62 0.57 0.54 0.56 0.56 0.55 0.54 0.52 0.50 0.49 0.48 0.46 0.45 0.44 0.43 0.42 0.41 0.41 0.41 0.42 0.42 0.41 0.40 0.41 0.44 0.45 0.42 0.40 0.39 0.40 0.41 0.42 0.42 0.42 0.41 0.39 0.38 0.36 0.35 0.35 0.35 0.35 0.36 0.35 0.34 0.32 0.31 0.31 0.30 0.30 0.29
0.63 0.60 0.56 0.56 0.55 0.54 0.53 0.52 0.51 0.50 0.48 0.47 0.45 0.45 0.44 0.43 0.42 0.41 0.41 0.41 0.41 0.41 0.41 0.40 0.40 0.42 0.43 0.42 0.40 0.39 0.39 0.40 0.40 0.41 0.40 0.39 0.38 0.36 0.34 0.33 0.32 0.32 0.33 0.33 0.33 0.32 0.31 0.31 0.30 0.30 0.31 0.30
0.58 0.55 0.55 0.54 0.53 0.52 0.51 0.49 0.48 0.47 0.46 0.45 0.44 0.43 0.43 0.42 0.42 0.41 0.41 0.40 0.40 0.40 0.40 0.39 0.39 0.39 0.41 0.41 0.40 0.39 0.38 0.39 0.39 0.39 0.39 0.38 0.37 0.36 0.34 0.33 0.32 0.32 0.32 0.32 0.31 0.31 0.30 0.30 0.30 0.30 0.30 0.30
0.53 0.53 0.52 0.50 0.49 0.49 0.48 0.47 0.46 0.45 0.44 0.43 0.43 0.42 0.41 0.40 0.40 0.40 0.39 0.39 0.38 0.38 0.38 0.38 0.38 0.38 0.38 0.39 0.39 0.38 0.38 0.38 0.39 0.38 0.39 0.38 0.37 0.37 0.35 0.35 0.34 0.33 0.33 0.33 0.32 0.32 0.31 0.30 0.30 0.30 0.30 0.30
0.50 0.49 0.48 0.47 0.46 0.46 0.45 0.44 0.43 0.42 0.41 0.40 0.39 0.38 0.37 0.36 0.36 0.36 0.36 0.35 0.36 0.36 0.36 0.36 0.36 0.36 0.37 0.37 0.38 0.38 0.38 0.38 0.38 0.38 0.38 0.38 0.38 0.38 0.37 0.37 0.36 0.36 0.36 0.35 0.34 0.33 0.32 0.31 0.31 0.31 0.30 0.30
0.47 0.46 0.45 0.44 0.43 0.41 0.40 0.38 0.37 0.36 0.35 0.34 0.33 0.32 0.31 0.30 0.31 0.30 0.29 0.30 0.30 0.30 0.30 0.31 0.32 0.32 0.33 0.33 0.34 0.35 0.35 0.36 0.36 0.37 0.37 0.37 0.38 0.37 0.37 0.37 0.36 0.36 0.36 0.36 0.36 0.36 0.35 0.34 0.33 0.32 0.31 0.31
0.42 0.41 0.39 0.38 0.36 0.35 0.33 0.32 0.31 0.31 0.30 0.30 0.29 0.28 0.27 0.27 0.26 0.26 0.25 0.25 0.25 0.25 0.26 0.26 0.26 0.27 0.27 0.28 0.29 0.30 0.30 0.30 0.31 0.32 0.32 0.33 0.33 0.34 0.34 0.35 0.35 0.36 0.35 0.35 0.36 0.36 0.37 0.37 0.36 0.36 0.35 0.33
0.37 0.35 0.33 0.32 0.31 0.30 0.29 0.28 0.27 0.27 0.26 0.26 0.26 0.25 0.24 0.23 0.23 0.22 0.22 0.23 0.23 0.23 0.23 0.23 0.23 0.23 0.24 0.24 0.24 0.24 0.24 0.24 0.24 0.25 0.25 0.26 0.27 0.28 0.28 0.29 0.30 0.31 0.32 0.32 0.34 0.34 0.36 0.36 0.36 0.36 0.37 0.36
0.34 0.32 0.31 0.30 0.29 0.27 0.26 0.26 0.25 0.24 0.24 0.24 0.23 0.23 0.22 0.21 0.21 0.21 0.21 0.21 0.22 0.22 0.22 0.21 0.21 0.21 0.20 0.20 0.20 0.20 0.20 0.20 0.19 0.19 0.19 0.19 0.20 0.20 0.21 0.22 0.23 0.24 0.25 0.26 0.26 0.28 0.29 0.31 0.33 0.34 0.35 0.35
0.30 0.30 0.29 0.28 0.27 0.26 0.25 0.24 0.23 0.22 0.22 0.22 0.21 0.22 0.21 0.21 0.21 0.21 0.21 0.21 0.21 0.20 0.20 0.19 0.19 0.19 0.18 0.18 0.17 0.17 0.16 0.15 0.15 0.15 0.15 0.15 0.15 0.15 0.15 0.16 0.17 0.17 0.18 0.19 0.20 0.21 0.22 0.23 0.25 0.26 0.28 0.31
0.28 0.27 0.26 0.26 0.25 0.24 0.24 0.23 0.22 0.22 0.21 0.20 0.20 0.21 0.22 0.22 0.21 0.20 0.20 0.19 0.18 0.18 0.17 0.17 0.17 0.16 0.15 0.15 0.14 0.14 0.13 0.12 0.12 0.12 0.12 0.12 0.12 0.12 0.12 0.12 0.12 0.13 0.13 0.14 0.15 0.15 0.16 0.17 0.18 0.20 0.21 0.23
0.25 0.25 0.24 0.24 0.24 0.23 0.23 0.22 0.21 0.21 0.20 0.20 0.21 0.21 0.21 0.21 0.19 0.18 0.16 0.16 0.16 0.16 0.16 0.15 0.15 0.14 0.14 0.13 0.12 0.12 0.11 0.11 0.11 0.10 0.10 0.11 0.11 0.10 0.10 0.11 0.11 0.11 0.11 0.11 0.12 0.13 0.13 0.13 0.14 0.15 0.16 0.17
0.24 0.24 0.23 0.23 0.23 0.22 0.21 0.21 0.21 0.20 0.20 0.21 0.21 0.20 0.19 0.18 0.17 0.16 0.15 0.15 0.15 0.15 0.15 0.14 0.13 0.12 0.12 0.11 0.11 0.11 0.10 0.10 0.10 0.10 0.10 0.10 0.10 0.09 0.10 0.10 0.10 0.10 0.10 0.10 0.10 0.10 0.10 0.11 0.11 0.12 0.13 0.13
0.23 0.22 0.22 0.22 0.22 0.21 0.21 0.21 0.20 0.20 0.21 0.20 0.19 0.18 0.16 0.16 0.16 0.16 0.16 0.16 0.16 0.15 0.14 0.12 0.12 0.11 0.11 0.10 0.10 0.10 0.10 0.10 0.10 0.09 0.10 0.10 0.10 0.10 0.10 0.09 0.09 0.10 0.09 0.09 0.09 0.09 0.09 0.09 0.10 0.10 0.10 0.11
0.22 0.22 0.22 0.22 0.21 0.21 0.21 0.21 0.21 0.20 0.19 0.17 0.17 0.16 0.16 0.16 0.16 0.15 0.15 0.15 0.14 0.13 0.12 0.12 0.11 0.11 0.10 0.10 0.10 0.10 0.10 0.10 0.09 0.09 0.09 0.09 0.09 0.09 0.09 0.08 0.08 0.09 0.09 0.08 0.08 0.08 0.08 0.09 0.09 0.09 0.09 0.09
0.21 0.21 0.21 0.21 0.21 0.21 0.21 0.20 0.20 0.18 0.17 0.16 0.16 0.16 0.16 0.16 0.15 0.15 0.14 0.13 0.13 0.12 0.12 0.11 0.11 0.10 0.10 0.10 0.10 0.10 0.10 0.09 0.09 0.09 0.09 0.08 0.08 0.08 0.08 0.08 0.08 0.08 0.08 0.08 0.08 0.08 0.08 0.08 0.08 0.08 0.08 0.09
0.21 0.21 0.21 0.21 0.21 0.20 0.20 0.19 0.17 0.17 0.17 0.16 0.16 0.16 0.16 0.16 0.15 0.14 0.13 0.13 0.12 0.12 0.11 0.11 0.11 0.10 0.10 0.10 0.10 0.10 0.10 0.09 0.09 0.09 0.09 0.09 0.08 0.08 0.08 0.08 0.08 0.08 0.07 0.07 0.07 0.07 0.07 0.07 0.07 0.08 0.08 0.08
0.21 0.21 0.21 0.21 0.20 0.20 0.19 0.18 0.17 0.17 0.17 0.16 0.16 0.16 0.16 0.15 0.14 0.13 0.13 0.13 0.12 0.11 0.11 0.10 0.10 0.10 0.11 0.11 0.10 0.10 0.10 0.10 0.10 0.10 0.10 0.09 0.09 0.08 0.08 0.08 0.08 0.08 0.08 0.08 0.07 0.07 0.07 0.07 0.07 0.07 0.07 0.08
0.21 0.20 0.20 0.20 0.19 0.18 0.18 0.17 0.17 0.17 0.17 0.17 0.16 0.16 0.15 0.15 0.14 0.13 0.13 0.13 0.13 0.12 0.11 0.11 0.10 0.11 0.11 0.11 0.10 0.10 0.10 0.10 0.10 0.10 0.10 0.09 0.10 0.09 0.08 0.09 0.08 0.08 0.08 0.08 0.08 0.07 0.07 0.07 0.07 0.07 0.07 0.08
0.20 0.19 0.19 0.19 0.18 0.18 0.17 0.17 0.18 0.18 0.17 0.17 0.16 0.16 0.15 0.15 0.14 0.14 0.14 0.13 0.13 0.12 0.12 0.11 0.11 0.11 0.11 0.11 0.10 0.10 0.10 0.10 0.11 0.10 0.10 0.09 0.10 0.10 0.09 0.09 0.08 0.08 0.08 0.08 0.08 0.08 0.08 0.08 0.08 0.07 0.07 0.08
0.19 0.19 0.18 0.18 0.17 0.17 0.17 0.18 0.19 0.19 0.18 0.18 0.17 0.16 0.16 0.16 0.16 0.15 0.15 0.14 0.14 0.13 0.12 0.12 0.11 0.11 0.11 0.11 0.10 0.10 0.10 0.10 0.11 0.11 0.10 0.10 0.10 0.10 0.10 0.09 0.09 0.09 0.09 0.08 0.08 0.08 0.08 0.08 0.07 0.08 0.08 0.09
0.18 0.18 0.17 0.16 0.17 0.17 0.18 0.19 0.19 0.19 0.19 0.18 0.17 0.17 0.17 0.17 0.16 0.16 0.16 0.16 0.15 0.14 0.13 0.12 0.12 0.11 0.12 0.11 0.11 0.10 0.10 0.10 0.10 0.10 0.10 0.10 0.10 0.10 0.10 0.09 0.09 0.10 0.09 0.08 0.08 0.08 0.09 0.08 0.08 0.09 0.09 0.10
0.18 0.17 0.17 0.17 0.17 0.17 0.18 0.18 0.19 0.19 0.19 0.18 0.17 0.18 0.17 0.17 0.17 0.17 0.17 0.17 0.16 0.16 0.15 0.14 0.13 0.13 0.12 0.12 0.11 0.11 0.10 0.11 0.10 0.10 0.10 0.10 0.10 0.10 0.09 0.09 0.09 0.10 0.09 0.08 0.07 0.07 0.07 0.08 0.09 0.10 0.10 0.10
0.18 0.18 0.18 0.18 0.17 0.17 0.17 0.18 0.18 0.18 0.18 0.18 0.18 0.18 0.18 0.18 0.18 0.18 0.18 0.18 0.17 0.17 0.16 0.15 0.15 0.14 0.13 0.12 0.12 0.12 0.11 0.11 0.11 0.11 0.10 0.10 0.09 0.09 0.09 0.09 0.09 0.10 0.09 0.07 0.07 0.07 0.07 0.07 0.08 0.12 0.12 0.10
0.18 0.19 0.19 0.18 0.19 0.19 0.18 0.19 0.20 0.19 0.19 0.18 0.18 0.18 0.18 0.18 0.19 0.19 0.18 0.18 0.18 0.18 0.17 0.17 0.16 0.15 0.14 0.13 0.13 0.12 0.11 0.11 0.11 0.10 0.10 0.10 0.10 0.09 0.09 0.09 0.10 0.10 0.09 0.08 0.07 0.07 0.07 0.06 0.06 0.07 0.09 0.10
0.20 0.19 0.19 0.19 0.19 0.19 0.19 0.18 0.19 0.19 0.19 0.19 0.18 0.18 0.19 0.19 0.19 0.19 0.19 0.19 0.19 0.19 0.19 0.18 0.17 0.17 0.16 0.14 0.14 0.12 0.11 0.11 0.11 0.11 0.10 0.10 0.10 0.10 0.08 0.08 0.08 0.10 0.09 0.08 0.08 0.07 0.06 0.06 0.06 0.06 0.06 0.07
0.20 0.19 0.19 0.19 0.19 0.19 0.19 0.19 0.19 0.18 0.17 0.18 0.18 0.18 0.19 0.20 0.20 0.20 0.20 0.20 0.20 0.20 0.20 0.20 0.19 0.18 0.17 0.16 0.15 0.13 0.12 0.11 0.11 0.11 0.11 0.10 0.10 0.09 0.08 0.08 0.08 0.08 0.09 0.09 0.09 0.07 0.06 0.06 0.06 0.07 0.07 0.06
0.20 0.19 0.18 0.18 0.17 0.17 0.17 0.17 0.17 0.17 0.17 0.17 0.18 0.18 0.20 0.20 0.21 0.21 0.21 0.21 0.21 0.21 0.21 0.21 0.20 0.20 0.19 0.18 0.16 0.14 0.14 0.13 0.12 0.11 0.11 0.10 0.10 0.09 0.09 0.09 0.08 0.08 0.08 0.10 0.09 0.08 0.08 0.07 0.06 0.06 0.07 0.06
0.21 0.20 0.19 0.18 0.18 0.18 0.17 0.17 0.18 0.20 0.20 0.19 0.19 0.20 0.20 0.21 0.21 0.21 0.22 0.22 0.22 0.23 0.23 0.22 0.22 0.20 0.19 0.19 0.17 0.16 0.15 0.14 0.12 0.11 0.11 0.11 0.10 0.09 0.09 0.09 0.08 0.08 0.08 0.08 0.08 0.09 0.09 0.08 0.08 0.07 0.06 0.05

ECMWFFLT2_prec_pwat_105.txt.gz
Precipitable_Water
0.74 0.73 0.68 0.65 0.58 0.58 0.58 0.56 0.55 0.54 0.52 0.51 0.51 0.50 0.49 0.48 0.48 0.48 0.48 0.48 0.48 0.46 0.46 0.49 0.50 0.49 0.47 0.45 0.45 0.45 0.46 0.46 0.46 0.45 0.44 0.43 0.42 0.41 0.40 0.39 0.39 0.39 0.40 0.40 0.38 0.36 0.35 0.34 0.34 0.34 0.35 0.33
0.73 0.69 0.66 0.61 0.58 0.58 0.57 0.56 0.54 0.52 0.51 0.50 0.49 0.47 0.46 0.45 0.45 0.45 0.45 0.46 0.45 0.44 0.44 0.44 0.46 0.47 0.46 0.44 0.44 0.44 0.44 0.45 0.45 0.44 0.43 0.41 0.40 0.39 0.38 0.37 0.37 0.36 0.37 0.37 0.36 0.35 0.34 0.34 0.36 0.35 0.35 0.33
0.71 0.67 0.64 0.59 0.59 0.57 0.55 0.54 0.52 0.51 0.49 0.48 0.47 0.46 0.45 0.44 0.43 0.43 0.43 0.43 0.43 0.42 0.41 0.41 0.42 0.44 0.44 0.42 0.42 0.41 0.41 0.43 0.44 0.44 0.43 0.42 0.41 0.40 0.39 0.39 0.39 0.39 0.39 0.39 0.37 0.36 0.35 0.35 0.36 0.35 0.34 0.34
0.67 0.63 0.61 0.58 0.57 0.55 0.54 0.52 0.50 0.48 0.47 0.45 0.44 0.43 0.43 0.43 0.43 0.41 0.41 0.41 0.41 0.40 0.39 0.39 0.40 0.41 0.42 0.42 0.41 0.40 0.39 0.40 0.41 0.42 0.42 0.41 0.40 0.39 0.39 0.39 0.39 0.39 0.40 0.39 0.38 0.37 0.36 0.35 0.34 0.33 0.34 0.34
0.63 0.60 0.56 0.55 0.54 0.52 0.50 0.48 0.47 0.46 0.44 0.43 0.42 0.41 0.40 0.40 0.40 0.39 0.38 0.37 0.37 0.37 0.36 0.36 0.36 0.37 0.39 0.40 0.39 0.39 0.38 0.39 0.39 0.40 0.40 0.39 0.39 0.38 0.37 0.37 0.36 0.36 0.38 0.38 0.38 0.38 0.37 0.37 0.35 0.35 0.34 0.34
0.59 0.54 0.53 0.51 0.50 0.49 0.47 0.46 0.44 0.43 0.42 0.41 0.40 0.38 0.36 0.35 0.34 0.34 0.33 0.33 0.33 0.33 0.33 0.33 0.32 0.33 0.35 0.36 0.36 0.36 0.36 0.36 0.37 0.38 0.38 0.38 0.38 0.37 0.36 0.36 0.36 0.35 0.36 0.36 0.36 0.36 0.36 0.36 0.37 0.37 0.37 0.36
0.54 0.51 0.51 0.49 0.47 0.46 0.44 0.42 0.41 0.39 0.37 0.36 0.35 0.33 0.32 0.31 0.31 0.30 0.29 0.28 0.28 0.29 0.29 0.29 0.29 0.30 0.31 0.31 0.31 0.31 0.31 0.31 0.31 0.32 0.32 0.32 0.32 0.32 0.32 0.32 0.32 0.33 0.33 0.33 0.34 0.34 0.34 0.34 0.35 0.35 0.36 0.37
0.49 0.47 0.46 0.44 0.43 0.41 0.39 0.37 0.36 0.34 0.34 0.32 0.31 0.30 0.28 0.28 0.28 0.27 0.26 0.27 0.26 0.27 0.27 0.27 0.27 0.26 0.26 0.26 0.26 0.24 0.25 0.24 0.24 0.23 0.23 0.23 0.23 0.23 0.23 0.23 0.24 0.25 0.26 0.27 0.28 0.29 0.30 0.31 0.32 0.32 0.33 0.34
0.45 0.43 0.42 0.40 0.38 0.36 0.35 0.33 0.31 0.30 0.30 0.29 0.28 0.27 0.25 0.25 0.25 0.24 0.24 0.25 0.25 0.25 0.24 0.24 0.23 0.23 0.22 0.22 0.21 0.20 0.20 0.19 0.19 0.18 0.17 0.18 0.18 0.18 0.17 0.18 0.18 0.19 0.18 0.19 0.19 0.20 0.22 0.24 0.26 0.27 0.29 0.30
0.42 0.40 0.37 0.35 0.34 0.32 0.31 0.30 0.28 0.27 0.26 0.26 0.26 0.24 0.23 0.22 0.22 0.22 0.23 0.23 0.23 0.22 0.21 0.20 0.19 0.19 0.18 0.18 0.17 0.17 0.16 0.16 0.15 0.15 0.14 0.14 0.14 0.14 0.14 0.15 0.15 0.16 0.16 0.16 0.16 0.16 0.17 0.17 0.17 0.18 0.20 0.22
0.39 0.36 0.34 0.33 0.31 0.29 0.28 0.27 0.26 0.25 0.24 0.24 0.24 0.23 0.22 0.21 0.21 0.22 0.22 0.21 0.20 0.19 0.18 0.18 0.17 0.17 0.17 0.16 0.15 0.14 0.13 0.13 0.13 0.12 0.12 0.12 0.12 0.13 0.12 0.13 0.13 0.13 0.13 0.14 0.14 0.14 0.15 0.15 0.15 0.15 0.15 0.16
0.36 0.34 0.32 0.31 0.29 0.28 0.27 0.25 0.24 0.24 0.23 0.23 0.22 0.22 0.22 0.22 0.22 0.21 0.20 0.19 0.17 0.17 0.18 0.17 0.17 0.16 0.15 0.14 0.13 0.13 0.12 0.12 0.12 0.12 0.12 0.12 0.11 0.11 0.11 0.12 0.12 0.12 0.12 0.12 0.12 0.12 0.13 0.13 0.13 0.13 0.14 0.14
0.34 0.32 0.30 0.29 0.27 0.26 0.25 0.24 0.23 0.23 0.23 0.21 0.21 0.22 0.23 0.22 0.21 0.19 0.17 0.17 0.16 0.17 0.17 0.17 0.16 0.15 0.14 0.13 0.12 0.12 0.12 0.11 0.11 0.11 0.11 0.11 0.11 0.10 0.10 0.11 0.11 0.11 0.11 0.11 0.11 0.11 0.11 0.11 0.11 0.11 0.11 0.12
0.31 0.30 0.28 0.27 0.26 0.25 0.24 0.23 0.23 0.23 0.21 0.21 0.21 0.21 0.22 0.21 0.18 0.17 0.16 0.16 0.16 0.16 0.16 0.15 0.14 0.13 0.12 0.12 0.12 0.12 0.11 0.11 0.11 0.10 0.11 0.11 0.11 0.10 0.11 0.11 0.10 0.10 0.10 0.10 0.11 0.11 0.10 0.10 0.10 0.10 0.10 0.10
0.28 0.28 0.27 0.26 0.25 0.25 0.23 0.24 0.23 0.22 0.21 0.21 0.20 0.21 0.20 0.19 0.17 0.17 0.17 0.16 0.16 0.16 0.15 0.14 0.13 0.12 0.12 0.12 0.11 0.11 0.11 0.11 0.11 0.11 0.11 0.11 0.11 0.11 0.11 0.10 0.10 0.10 0.10 0.10 0.10 0.10 0.10 0.10 0.10 0.10 0.10 0.10
0.26 0.25 0.25 0.25 0.24 0.24 0.24 0.24 0.22 0.21 0.21 0.21 0.21 0.20 0.18 0.17 0.17 0.17 0.17 0.17 0.16 0.15 0.14 0.13 0.12 0.13 0.12 0.12 0.11 0.11 0.11 0.11 0.12 0.11 0.11 0.11 0.11 0.11 0.11 0.10 0.10 0.11 0.10 0.10 0.10 0.10 0.09 0.09 0.09 0.09 0.09 0.09
0.24 0.24 0.24 0.24 0.23 0.23 0.23 0.22 0.22 0.21 0.20 0.20 0.20 0.19 0.18 0.18 0.17 0.17 0.16 0.17 0.15 0.14 0.14 0.13 0.13 0.12 0.12 0.12 0.11 0.12 0.12 0.12 0.12 0.11 0.11 0.11 0.11 0.11 0.11 0.10 0.11 0.11 0.10 0.10 0.10 0.10 0.09 0.09 0.09 0.09 0.09 0.09
0.23 0.24 0.24 0.23 0.23 0.23 0.23 0.22 0.21 0.21 0.20 0.20 0.19 0.18 0.18 0.18 0.17 0.17 0.16 0.15 0.15 0.14 0.14 0.14 0.13 0.13 0.12 0.12 0.12 0.12 0.12 0.11 0.11 0.11 0.11 0.11 0.11 0.11 0.10 0.10 0.11 0.11 0.10 0.10 0.10 0.10 0.10 0.10 0.09 0.09 0.09 0.09
0.22 0.23 0.23 0.23 0.22 0.22 0.22 0.21 0.21 0.20 0.20 0.19 0.18 0.18 0.18 0.18 0.17 0.16 0.15 0.15 0.14 0.14 0.13 0.13 0.13 0.13 0.12 0.12 0.12 0.12 0.12 0.12 0.12 0.12 0.11 0.11 0.11 0.11 0.10 0.11 0.11 0.11 0.10 0.10 0.10 0.10 0.10 0.10 0.10 0.10 0.10 0.10
0.22 0.22 0.22 0.23 0.23 0.22 0.23 0.21 0.20 0.20 0.19 0.18 0.17 0.17 0.18 0.18 0.17 0.16 0.15 0.15 0.14 0.14 0.13 0.13 0.13 0.13 0.13 0.13 0.12 0.12 0.12 0.12 0.12 0.12 0.12 0.11 0.11 0.11 0.11 0.11 0.11 0.11 0.10 0.10 0.10 0.10 0.10 0.10 0.10 0.10 0.10 0.10
0.22 0.22 0.22 0.22 0.22 0.22 0.22 0.20 0.20 0.19 0.18 0.18 0.17 0.17 0.18 0.18 0.17 0.16 0.16 0.15 0.15 0.14 0.14 0.14 0.13 0.14 0.13 0.13 0.13 0.13 0.12 0.12 0.12 0.12 0.12 0.11 0.12 0.12 0.11 0.11 0.11 0.10 0.11 0.10 0.10 0.10 0.10 0.11 0.11 0.11 0.10 0.10
0.22 0.22 0.21 0.21 0.21 0.21 0.20 0.20 0.19 0.19 0.18 0.18 0.18 0.18 0.18 0.18 0.17 0.16 0.16 0.16 0.16 0.16 0.15 0.15 0.14 0.15 0.14 0.14 0.14 0.13 0.13 0.13 0.14 0.13 0.12 0.12 0.12 0.12 0.12 0.11 0.11 0.11 0.11 0.11 0.11 0.11 0.11 0.11 0.11 0.11 0.10 0.11
0.22 0.21 0.20 0.20 0.19 0.19 0.19 0.19 0.19 0.19 0.18 0.18 0.18 0.18 0.18 0.18 0.17 0.17 0.17 0.17 0.17 0.17 0.16 0.16 0.16 0.16 0.15 0.15 0.14 0.14 0.14 0.14 0.14 0.14 0.13 0.12 0.12 0.13 0.12 0.12 0.12 0.12 0.12 0.11 0.11 0.11 0.11 0.12 0.11 0.11 0.11 0.12
0.20 0.20 0.18 0.17 0.17 0.17 0.18 0.18 0.18 0.18 0.18 0.18 0.18 0.18 0.19 0.18 0.17 0.18 0.18 0.18 0.18 0.17 0.17 0.17 0.17 0.16 0.17 0.16 0.16 0.15 0.15 0.14 0.13 0.13 0.13 0.13 0.12 0.12 0.13 0.13 0.12 0.12 0.12 0.11 0.11 0.11 0.11 0.10 0.10 0.11 0.12 0.12
0.18 0.17 0.17 0.17 0.16 0.16 0.17 0.17 0.18 0.18 0.18 0.19 0.18 0.19 0.19 0.18 0.18 0.18 0.18 0.18 0.18 0.18 0.18 0.17 0.18 0.18 0.18 0.17 0.17 0.16 0.16 0.15 0.15 0.14 0.14 0.13 0.13 0.12 0.12 0.12 0.12 0.13 0.12 0.11 0.10 0.10 0.10 0.10 0.11 0.11 0.12 0.13
0.19 0.19 0.18 0.17 0.16 0.16 0.16 0.17 0.17 0.17 0.18 0.18 0.19 0.19 0.19 0.18 0.17 0.18 0.18 0.18 0.19 0.19 0.18 0.18 0.19 0.19 0.19 0.18 0.18 0.18 0.17 0.17 0.16 0.16 0.15 0.14 0.13 0.12 0.12 0.11 0.12 0.13 0.12 0.10 0.09 0.09 0.09 0.10 0.10 0.10 0.13 0.14
0.18 0.19 0.19 0.19 0.18 0.17 0.17 0.18 0.18 0.18 0.19 0.19 0.18 0.19 0.19 0.18 0.17 0.18 0.18 0.19 0.19 0.19 0.19 0.19 0.19 0.19 0.20 0.19 0.19 0.19 0.18 0.18 0.17 0.17 0.16 0.15 0.13 0.12 0.12 0.12 0.12 0.13 0.12 0.11 0.10 0.10 0.10 0.09 0.08 0.09 0.09 0.13
0.20 0.20 0.20 0.21 0.20 0.20 0.19 0.17 0.17 0.18 0.19 0.18 0.18 0.18 0.19 0.18 0.18 0.18 0.18 0.19 0.19 0.19 0.19 0.20 0.20 0.20 0.20 0.20 0.21 0.20 0.19 0.18 0.18 0.17 0.17 0.16 0.14 0.14 0.12 0.11 0.11 0.12 0.13 0.12 0.11 0.10 0.09 0.09 0.09 0.08 0.09 0.09
0.21 0.21 0.20 0.21 0.21 0.21 0.19 0.18 0.18 0.17 0.17 0.17 0.18 0.18 0.18 0.18 0.18 0.18 0.18 0.19 0.20 0.20 0.20 0.20 0.20 0.20 0.20 0.21 0.21 0.21 0.20 0.19 0.19 0.19 0.18 0.17 0.16 0.14 0.13 0.12 0.12 0.12 0.12 0.13 0.13 0.11 0.10 0.09 0.09 0.09 0.09 0.09
0.21 0.21 0.20 0.19 0.19 0.18 0.17 0.17 0.17 0.16 0.16 0.17 0.17 0.17 0.18 0.19 0.19 0.18 0.19 0.19 0.20 0.20 0.20 0.21 0.21 0.21 0.21 0.21 0.22 0.21 0.21 0.21 0.20 0.20 0.19 0.18 0.17 0.16 0.14 0.13 0.12 0.12 0.12 0.13 0.13 0.12 0.11 0.10 0.09 0.09 0.09 0.08
0.21 0.21 0.21 0.20 0.20 0.19 0.18 0.17 0.18 0.18 0.18 0.18 0.19 0.19 0.19 0.19 0.19 0.19 0.19 0.19 0.20 0.20 0.21 0.21 0.22 0.22 0.22 0.22 0.23 0.23 0.22 0.22 0.21 0.20 0.20 0.20 0.19 0.17 0.15 0.14 0.12 0.12 0.11 0.11 0.11 0.12 0.12 0.12 0.11 0.10 0.09 0.08

ECMWFFLT2_prec_pwat_108.txt.gz
Precipitable_Water
0.78 0.76 0.72 0.69 0.65 0.61 0.59 0.58 0.57 0.55 0.54 0.52 0.52 0.51 0.50 0.50 0.50 0.50 0.49 0.49 0.49 0.47 0.47 0.49 0.51 0.49 0.48 0.47 0.47 0.47 0.48 0.48 0.48 0.47 0.47 0.46 0.45 0.44 0.44 0.44 0.44 0.45 0.44 0.43 0.41 0.40 0.40 0.40 0.39 0.38 0.36 0.37
0.77 0.73 0.70 0.67 0.62 0.59 0.58 0.57 0.56 0.54 0.52 0.50 0.49 0.48 0.46 0.46 0.46 0.46 0.45 0.44 0.44 0.43 0.42 0.42 0.45 0.47 0.46 0.45 0.44 0.44 0.44 0.44 0.44 0.44 0.43 0.43 0.42 0.42 0.42 0.42 0.41 0.42 0.43 0.42 0.41 0.40 0.40 0.41 0.39 0.38 0.37 0.36
0.76 0.72 0.68 0.64 0.59 0.58 0.57 0.56 0.54 0.52 0.50 0.48 0.47 0.46 0.45 0.43 0.43 0.42 0.42 0.41 0.40 0.39 0.38 0.38 0.39 0.42 0.42 0.42 0.41 0.40 0.40 0.41 0.42 0.42 0.41 0.40 0.40 0.39 0.39 0.39 0.39 0.38 0.40 0.39 0.38 0.38 0.38 0.38 0.37 0.38 0.37 0.38
0.75 0.71 0.67 0.61 0.58 0.57 0.55 0.53 0.51 0.49 0.46 0.44 0.43 0.43 0.42 0.41 0.39 0.38 0.38 0.37 0.36 0.35 0.34 0.34 0.35 0.37 0.39 0.39 0.38 0.38 0.37 0.38 0.39 0.38 0.38 0.36 0.36 0.34 0.34 0.34 0.34 0.34 0.35 0.35 0.35 0.36 0.35 0.35 0.34 0.34 0.35 0.37
0.71 0.67 0.63 0.58 0.56 0.54 0.52 0.50 0.47 0.45 0.43 0.41 0.40 0.39 0.38 0.37 0.35 0.34 0.33 0.33 0.33 0.32 0.32 0.32 0.32 0.34 0.35 0.36 0.35 0.34 0.33 0.32 0.32 0.33 0.32 0.31 0.31 0.30 0.29 0.29 0.28 0.28 0.30 0.31 0.31 0.32 0.31 0.31 0.30 0.32 0.33 0.34
0.65 0.60 0.56 0.53 0.51 0.50 0.49 0.48 0.46 0.43 0.41 0.39 0.37 0.36 0.34 0.33 0.32 0.31 0.29 0.29 0.30 0.30 0.31 0.31 0.30 0.31 0.31 0.31 0.29 0.29 0.28 0.28 0.28 0.29 0.28 0.27 0.27 0.27 0.25 0.25 0.24 0.24 0.25 0.25 0.27 0.27 0.26 0.26 0.27 0.28 0.30 0.31
0.58 0.56 0.54 0.51 0.50 0.48 0.46 0.44 0.41 0.39 0.37 0.35 0.33 0.32 0.31 0.30 0.29 0.29 0.28 0.27 0.28 0.29 0.29 0.28 0.27 0.26 0.26 0.26 0.25 0.24 0.24 0.23 0.23 0.23 0.23 0.22 0.22 0.20 0.19 0.19 0.19 0.19 0.19 0.20 0.21 0.21 0.21 0.22 0.22 0.24 0.25 0.25
0.56 0.55 0.52 0.48 0.46 0.44 0.42 0.40 0.37 0.35 0.34 0.32 0.30 0.29 0.28 0.27 0.26 0.26 0.26 0.26 0.26 0.26 0.26 0.26 0.24 0.22 0.21 0.21 0.20 0.19 0.19 0.17 0.18 0.17 0.17 0.17 0.17 0.16 0.15 0.16 0.15 0.15 0.15 0.15 0.16 0.16 0.16 0.16 0.16 0.17 0.18 0.19
0.53 0.52 0.48 0.45 0.42 0.40 0.38 0.35 0.34 0.32 0.31 0.30 0.28 0.27 0.25 0.24 0.24 0.24 0.24 0.24 0.24 0.22 0.21 0.20 0.18 0.18 0.18 0.17 0.16 0.16 0.15 0.14 0.14 0.14 0.13 0.13 0.14 0.13 0.13 0.14 0.14 0.13 0.13 0.14 0.14 0.14 0.14 0.14 0.14 0.14 0.15 0.15
0.49 0.46 0.42 0.40 0.39 0.36 0.35 0.33 0.31 0.30 0.29 0.27 0.26 0.25 0.23 0.23 0.23 0.22 0.23 0.23 0.21 0.19 0.19 0.17 0.17 0.17 0.16 0.15 0.14 0.13 0.13 0.12 0.12 0.12 0.12 0.11 0.12 0.11 0.12 0.13 0.13 0.11 0.12 0.12 0.12 0.12 0.12 0.12 0.12 0.13 0.13 0.13
0.45 0.41 0.40 0.39 0.37 0.34 0.32 0.30 0.28 0.27 0.26 0.26 0.24 0.23 0.22 0.21 0.21 0.22 0.22 0.20 0.19 0.18 0.18 0.17 0.16 0.16 0.16 0.14 0.13 0.12 0.12 0.11 0.11 0.11 0.11 0.11 0.11 0.11 0.11 0.12 0.11 0.10 0.11 0.11 0.11 0.11 0.11 0.10 0.11 0.11 0.11 0.11
0.40 0.39 0.38 0.37 0.35 0.32 0.30 0.29 0.26 0.25 0.25 0.25 0.23 0.22 0.21 0.21 0.21 0.21 0.20 0.18 0.17 0.17 0.17 0.17 0.16 0.16 0.14 0.13 0.12 0.12 0.12 0.11 0.11 0.11 0.11 0.10 0.11 0.10 0.11 0.11 0.11 0.10 0.11 0.11 0.11 0.11 0.10 0.10 0.10 0.10 0.10 0.10
0.38 0.37 0.37 0.35 0.32 0.30 0.29 0.27 0.25 0.25 0.24 0.23 0.23 0.22 0.21 0.22 0.21 0.19 0.18 0.17 0.16 0.17 0.17 0.17 0.15 0.14 0.13 0.13 0.12 0.12 0.11 0.11 0.11 0.11 0.11 0.11 0.11 0.11 0.11 0.11 0.10 0.10 0.10 0.11 0.11 0.11 0.10 0.10 0.10 0.10 0.10 0.10
0.36 0.35 0.34 0.33 0.30 0.29 0.28 0.26 0.25 0.25 0.23 0.22 0.22 0.21 0.22 0.21 0.20 0.18 0.17 0.17 0.16 0.17 0.16 0.16 0.14 0.13 0.13 0.12 0.12 0.12 0.11 0.11 0.11 0.11 0.11 0.11 0.11 0.11 0.11 0.11 0.11 0.11 0.10 0.11 0.11 0.10 0.10 0.10 0.10 0.10 0.10 0.10
0.34 0.34 0.32 0.31 0.29 0.28 0.26 0.26 0.25 0.24 0.23 0.22 0.21 0.21 0.22 0.20 0.19 0.18 0.16 0.17 0.16 0.17 0.16 0.15 0.14 0.13 0.12 0.12 0.12 0.12 0.11 0.12 0.12 0.12 0.12 0.11 0.11 0.11 0.11 0.11 0.11 0.11 0.11 0.11 0.11 0.11 0.10 0.10 0.10 0.10 0.10 0.10
0.32 0.31 0.31 0.29 0.28 0.27 0.26 0.25 0.24 0.23 0.22 0.21 0.21 0.21 0.21 0.20 0.18 0.17 0.18 0.17 0.17 0.16 0.15 0.14 0.13 0.13 0.12 0.12 0.12 0.12 0.12 0.12 0.12 0.12 0.12 0.12 0.12 0.11 0.12 0.11 0.11 0.12 0.11 0.11 0.11 0.11 0.10 0.10 0.10 0.10 0.10 0.10
0.31 0.30 0.29 0.28 0.27 0.26 0.26 0.25 0.23 0.22 0.22 0.21 0.21 0.21 0.20 0.19 0.18 0.17 0.18 0.17 0.16 0.16 0.15 0.13 0.13 0.13 0.13 0.12 0.12 0.12 0.12 0.12 0.12 0.12 0.11 0.12 0.12 0.11 0.12 0.11 0.11 0.11 0.11 0.11 0.11 0.11 0.10 0.10 0.10 0.11 0.11 0.11
0.29 0.28 0.27 0.27 0.26 0.26 0.25 0.24 0.23 0.22 0.22 0.22 0.21 0.21 0.20 0.19 0.18 0.17 0.17 0.17 0.15 0.15 0.14 0.14 0.13 0.13 0.13 0.12 0.12 0.13 0.12 0.12 0.12 0.12 0.11 0.12 0.11 0.12 0.11 0.11 0.11 0.11 0.11 0.11 0.11 0.11 0.11 0.10 0.10 0.11 0.11 0.11
0.27 0.27 0.26 0.26 0.25 0.25 0.25 0.24 0.23 0.22 0.22 0.21 0.21 0.21 0.20 0.18 0.17 0.17 0.17 0.17 0.15 0.15 0.14 0.14 0.14 0.13 0.13 0.12 0.13 0.13 0.12 0.12 0.13 0.13 0.12 0.12 0.12 0.12 0.12 0.12 0.12 0.12 0.11 0.11 0.11 0.11 0.11 0.11 0.11 0.11 0.11 0.12
0.26 0.25 0.25 0.25 0.25 0.24 0.24 0.23 0.22 0.22 0.21 0.21 0.20 0.20 0.19 0.18 0.17 0.17 0.17 0.16 0.16 0.14 0.14 0.14 0.14 0.14 0.14 0.13 0.14 0.13 0.13 0.13 0.13 0.13 0.12 0.13 0.13 0.12 0.12 0.12 0.12 0.13 0.12 0.12 0.11 0.11 0.11 0.12 0.12 0.12 0.12 0.12
0.25 0.24 0.24 0.24 0.24 0.24 0.24 0.23 0.22 0.22 0.21 0.20 0.19 0.18 0.18 0.18 0.17 0.17 0.17 0.16 0.16 0.15 0.14 0.14 0.14 0.14 0.14 0.14 0.14 0.14 0.13 0.14 0.14 0.13 0.13 0.13 0.13 0.13 0.12 0.13 0.13 0.13 0.13 0.12 0.12 0.12 0.12 0.12 0.13 0.12 0.12 0.12
0.24 0.23 0.23 0.23 0.24 0.23 0.23 0.22 0.22 0.21 0.20 0.19 0.18 0.18 0.18 0.18 0.18 0.17 0.17 0.16 0.15 0.15 0.14 0.14 0.14 0.15 0.14 0.14 0.14 0.14 0.14 0.14 0.14 0.14 0.13 0.13 0.14 0.13 0.13 0.13 0.13 0.13 0.13 0.13 0.13 0.12 0.13 0.13 0.13 0.13 0.13 0.12
0.23 0.23 0.22 0.22 0.22 0.22 0.22 0.22 0.21 0.20 0.19 0.19 0.18 0.17 0.18 0.18 0.18 0.17 0.17 0.16 0.15 0.14 0.15 0.14 0.14 0.15 0.14 0.15 0.15 0.15 0.15 0.15 0.15 0.15 0.14 0.14 0.14 0.14 0.14 0.14 0.14 0.14 0.14 0.13 0.13 0.13 0.13 0.13 0.13 0.13 0.12 0.13
0.22 0.21 0.20 0.19 0.20 0.19 0.19 0.20 0.20 0.19 0.19 0.18 0.18 0.18 0.18 0.18 0.18 0.18 0.17 0.17 0.16 0.15 0.15 0.14 0.15 0.15 0.15 0.15 0.15 0.15 0.15 0.15 0.15 0.15 0.15 0.15 0.15 0.14 0.15 0.15 0.15 0.14 0.14 0.13 0.13 0.13 0.13 0.12 0.12 0.12 0.13 0.13
0.20 0.19 0.19 0.19 0.18 0.17 0.18 0.18 0.19 0.19 0.19 0.19 0.18 0.18 0.18 0.18 0.18 0.18 0.18 0.17 0.17 0.16 0.16 0.15 0.16 0.16 0.16 0.16 0.16 0.16 0.16 0.16 0.16 0.16 0.16 0.15 0.16 0.15 0.15 0.15 0.15 0.15 0.15 0.13 0.13 0.12 0.12 0.12 0.13 0.13 0.13 0.13
0.19 0.19 0.19 0.18 0.18 0.18 0.18 0.18 0.18 0.18 0.19 0.19 0.19 0.19 0.19 0.19 0.19 0.18 0.18 0.18 0.17 0.17 0.16 0.16 0.16 0.17 0.17 0.16 0.17 0.17 0.17 0.17 0.17 0.17 0.17 0.17 0.16 0.16 0.15 0.15 0.15 0.15 0.16 0.13 0.12 0.12 0.12 0.12 0.12 0.12 0.12 0.13
0.19 0.21 0.21 0.20 0.19 0.19 0.18 0.20 0.20 0.20 0.20 0.20 0.20 0.20 0.19 0.20 0.20 0.19 0.19 0.19 0.19 0.17 0.17 0.16 0.17 0.17 0.17 0.17 0.17 0.17 0.17 0.18 0.18 0.18 0.18 0.18 0.17 0.17 0.16 0.16 0.16 0.16 0.16 0.14 0.13 0.13 0.13 0.12 0.11 0.12 0.13 0.15
0.21 0.22 0.22 0.22 0.21 0.21 0.20 0.19 0.20 0.20 0.20 0.21 0.20 0.19 0.20 0.20 0.20 0.20 0.20 0.20 0.20 0.19 0.18 0.17 0.17 0.18 0.18 0.18 0.18 0.18 0.17 0.18 0.18 0.19 0.19 0.19 0.19 0.18 0.17 0.16 0.16 0.17 0.16 0.15 0.14 0.13 0.12 0.12 0.12 0.11 0.11 0.12
0.22 0.22 0.22 0.22 0.22 0.22 0.21 0.21 0.20 0.19 0.19 0.19 0.20 0.20 0.20 0.20 0.21 0.21 0.21 0.21 0.20 0.20 0.19 0.18 0.18 0.18 0.18 0.18 0.18 0.18 0.18 0.18 0.19 0.19 0.20 0.20 0.19 0.19 0.18 0.17 0.17 0.17 0.17 0.17 0.16 0.15 0.13 0.12 0.12 0.12 0.12 0.12
0.22 0.21 0.20 0.20 0.19 0.18 0.18 0.18 0.17 0.17 0.16 0.17 0.18 0.18 0.19 0.20 0.21 0.21 0.21 0.21 0.21 0.21 0.20 0.19 0.19 0.19 0.18 0.18 0.18 0.19 0.19 0.19 0.19 0.19 0.20 0.21 0.20 0.20 0.19 0.19 0.18 0.18 0.17 0.17 0.17 0.16 0.15 0.14 0.12 0.12 0.12 0.12
0.21 0.21 0.20 0.20 0.19 0.19 0.18 0.17 0.18 0.18 0.18 0.18 0.18 0.19 0.19 0.19 0.20 0.21 0.21 0.21 0.22 0.22 0.22 0.21 0.20 0.20 0.20 0.19 0.20 0.20 0.19 0.18 0.18 0.19 0.20 0.21 0.21 0.21 0.21 0.20 0.20 0.19 0.18 0.18 0.18 0.17 0.16 0.16 0.15 0.14 0.13 0.11

ECMWFFLT2_prec_pwat_111.txt.gz
Precipitable_Water
0.84 0.81 0.79 0.77 0.73 0.68 0.65 0.62 0.60 0.59 0.57 0.56 0.55 0.55 0.54 0.53 0.52 0.53 0.52 0.52 0.51 0.50 0.54 0.53 0.51 0.50 0.48 0.48 0.48 0.48 0.49 0.48 0.47 0.46 0.46 0.44 0.44 0.44 0.44 0.43 0.44 0.43 0.42 0.42 0.41 0.41 0.39 0.38 0.40 0.40 0.39 0.38
0.82 0.79 0.76 0.73 0.69 0.65 0.61 0.58 0.57 0.55 0.53 0.52 0.51 0.49 0.48 0.48 0.48 0.48 0.47 0.46 0.45 0.44 0.43 0.47 0.49 0.48 0.46 0.44 0.43 0.43 0.44 0.44 0.44 0.42 0.42 0.40 0.40 0.40 0.40 0.39 0.40 0.40 0.40 0.40 0.39 0.39 0.36 0.35 0.37 0.37 0.36 0.36
0.79 0.76 0.73 0.70 0.68 0.64 0.60 0.57 0.55 0.53 0.51 0.49 0.48 0.47 0.46 0.45 0.43 0.42 0.41 0.40 0.39 0.38 0.38 0.37 0.41 0.43 0.43 0.41 0.39 0.38 0.38 0.39 0.39 0.37 0.38 0.37 0.35 0.35 0.34 0.33 0.34 0.36 0.36 0.36 0.34 0.33 0.32 0.31 0.32 0.33 0.34 0.34
0.77 0.75 0.72 0.69 0.66 0.63 0.59 0.56 0.53 0.51 0.49 0.47 0.46 0.44 0.42 0.40 0.39 0.38 0.37 0.35 0.35 0.34 0.34 0.34 0.36 0.38 0.38 0.37 0.35 0.34 0.33 0.36 0.36 0.35 0.35 0.34 0.32 0.31 0.29 0.28 0.29 0.31 0.32 0.32 0.30 0.29 0.28 0.28 0.28 0.28 0.29 0.29
0.75 0.74 0.72 0.69 0.65 0.61 0.56 0.53 0.50 0.48 0.46 0.45 0.44 0.42 0.39 0.36 0.33 0.32 0.32 0.32 0.32 0.32 0.32 0.32 0.32 0.33 0.33 0.33 0.33 0.32 0.31 0.32 0.33 0.32 0.32 0.31 0.29 0.26 0.25 0.23 0.23 0.24 0.27 0.28 0.26 0.24 0.24 0.24 0.24 0.25 0.25 0.25
0.75 0.72 0.69 0.67 0.62 0.57 0.54 0.51 0.48 0.44 0.42 0.40 0.39 0.38 0.35 0.33 0.31 0.30 0.30 0.31 0.31 0.31 0.30 0.29 0.30 0.30 0.30 0.29 0.30 0.28 0.27 0.27 0.28 0.27 0.27 0.25 0.24 0.22 0.20 0.19 0.18 0.18 0.19 0.21 0.20 0.19 0.18 0.18 0.19 0.20 0.20 0.20
0.71 0.68 0.66 0.62 0.58 0.54 0.50 0.48 0.45 0.42 0.39 0.36 0.35 0.33 0.31 0.30 0.29 0.28 0.28 0.29 0.29 0.29 0.29 0.28 0.28 0.26 0.25 0.24 0.24 0.21 0.21 0.22 0.21 0.20 0.21 0.20 0.18 0.17 0.16 0.15 0.15 0.15 0.15 0.15 0.16 0.15 0.14 0.15 0.15 0.15 0.15 0.15
0.66 0.63 0.60 0.56 0.54 0.50 0.47 0.45 0.42 0.38 0.35 0.33 0.31 0.30 0.29 0.28 0.27 0.27 0.27 0.28 0.28 0.26 0.25 0.25 0.23 0.21 0.20 0.19 0.19 0.17 0.15 0.16 0.17 0.15 0.15 0.16 0.15 0.14 0.14 0.13 0.13 0.13 0.14 0.14 0.13 0.13 0.12 0.13 0.13 0.13 0.14 0.13
0.59 0.57 0.54 0.53 0.51 0.48 0.44 0.41 0.38 0.35 0.32 0.31 0.29 0.28 0.26 0.25 0.25 0.25 0.25 0.25 0.24 0.23 0.21 0.19 0.18 0.18 0.17 0.16 0.15 0.15 0.13 0.13 0.13 0.12 0.12 0.12 0.12 0.12 0.13 0.12 0.11 0.12 0.12 0.12 0.12 0.11 0.11 0.11 0.11 0.11 0.12 0.12
0.56 0.53 0.51 0.50 0.48 0.44 0.40 0.38 0.35 0.33 0.30 0.29 0.27 0.26 0.24 0.23 0.23 0.23 0.23 0.22 0.20 0.19 0.19 0.17 0.17 0.17 0.16 0.14 0.13 0.13 0.12 0.12 0.12 0.11 0.11 0.11 0.11 0.12 0.12 0.11 0.11 0.11 0.11 0.11 0.11 0.11 0.10 0.10 0.10 0.10 0.10 0.10
0.55 0.52 0.50 0.48 0.44 0.40 0.37 0.36 0.33 0.31 0.29 0.27 0.26 0.25 0.24 0.22 0.22 0.22 0.22 0.21 0.19 0.17 0.18 0.16 0.16 0.16 0.15 0.13 0.12 0.13 0.11 0.11 0.12 0.11 0.11 0.11 0.11 0.12 0.12 0.11 0.11 0.11 0.11 0.11 0.11 0.11 0.10 0.10 0.10 0.10 0.10 0.10
0.51 0.49 0.47 0.44 0.41 0.38 0.36 0.34 0.31 0.30 0.28 0.26 0.24 0.24 0.23 0.22 0.21 0.21 0.20 0.20 0.18 0.17 0.17 0.16 0.16 0.16 0.14 0.13 0.12 0.12 0.11 0.11 0.11 0.11 0.11 0.11 0.11 0.11 0.12 0.11 0.11 0.11 0.11 0.11 0.11 0.10 0.10 0.10 0.10 0.10 0.10 0.10
0.46 0.45 0.43 0.40 0.37 0.35 0.35 0.32 0.30 0.29 0.27 0.25 0.24 0.23 0.22 0.21 0.20 0.20 0.20 0.18 0.17 0.17 0.17 0.16 0.15 0.15 0.13 0.13 0.12 0.12 0.11 0.12 0.11 0.11 0.11 0.11 0.11 0.12 0.11 0.11 0.11 0.11 0.11 0.12 0.12 0.11 0.10 0.10 0.10 0.10 0.10 0.10
0.42 0.40 0.39 0.37 0.35 0.34 0.33 0.30 0.29 0.28 0.26 0.25 0.24 0.22 0.22 0.21 0.20 0.20 0.19 0.17 0.17 0.17 0.16 0.16 0.15 0.14 0.13 0.12 0.12 0.11 0.11 0.12 0.12 0.11 0.11 0.11 0.11 0.11 0.11 0.11 0.11 0.11 0.11 0.11 0.11 0.11 0.10 0.10 0.10 0.11 0.11 0.11
0.40 0.39 0.37 0.35 0.34 0.33 0.31 0.30 0.29 0.27 0.26 0.24 0.23 0.23 0.22 0.21 0.20 0.19 0.19 0.18 0.17 0.17 0.16 0.16 0.15 0.13 0.13 0.12 0.12 0.11 0.11 0.12 0.12 0.12 0.11 0.11 0.11 0.11 0.11 0.11 0.12 0.12 0.11 0.11 0.11 0.11 0.10 0.11 0.10 0.11 0.11 0.11
0.38 0.36 0.35 0.34 0.33 0.31 0.30 0.29 0.27 0.26 0.25 0.23 0.23 0.23 0.22 0.21 0.20 0.20 0.19 0.17 0.17 0.17 0.16 0.15 0.14 0.13 0.12 0.12 0.12 0.12 0.12 0.12 0.13 0.12 0.12 0.12 0.12 0.12 0.12 0.12 0.12 0.12 0.11 0.11 0.11 0.11 0.10 0.11 0.11 0.11 0.11 0.11
0.37 0.36 0.35 0.33 0.31 0.31 0.30 0.28 0.27 0.25 0.24 0.23 0.23 0.23 0.22 0.20 0.20 0.20 0.18 0.17 0.17 0.16 0.16 0.15 0.13 0.12 0.12 0.12 0.11 0.12 0.12 0.12 0.12 0.12 0.12 0.12 0.12 0.12 0.12 0.12 0.12 0.12 0.12 0.11 0.11 0.11 0.11 0.11 0.11 0.11 0.12 0.12
0.35 0.34 0.34 0.33 0.32 0.31 0.29 0.28 0.26 0.25 0.24 0.23 0.23 0.22 0.22 0.21 0.20 0.19 0.18 0.17 0.16 0.16 0.15 0.14 0.13 0.12 0.12 0.12 0.11 0.12 0.12 0.12 0.12 0.12 0.11 0.12 0.11 0.12 0.12 0.12 0.12 0.12 0.12 0.12 0.12 0.12 0.12 0.12 0.12 0.12 0.12 0.12
0.34 0.33 0.32 0.31 0.31 0.30 0.29 0.27 0.26 0.25 0.24 0.23 0.22 0.22 0.21 0.21 0.20 0.18 0.18 0.17 0.16 0.16 0.15 0.14 0.13 0.12 0.12 0.12 0.12 0.12 0.12 0.12 0.12 0.12 0.11 0.12 0.11 0.11 0.12 0.12 0.13 0.13 0.12 0.12 0.12 0.12 0.12 0.12 0.13 0.13 0.13 0.13
0.33 0.32 0.31 0.31 0.30 0.29 0.28 0.27 0.26 0.25 0.24 0.23 0.23 0.22 0.21 0.21 0.19 0.18 0.18 0.18 0.16 0.15 0.15 0.14 0.13 0.12 0.12 0.12 0.12 0.12 0.12 0.12 0.12 0.11 0.11 0.12 0.12 0.11 0.11 0.12 0.12 0.13 0.12 0.12 0.12 0.13 0.13 0.13 0.13 0.13 0.13 0.13
0.32 0.31 0.30 0.29 0.29 0.29 0.28 0.27 0.25 0.25 0.24 0.23 0.22 0.22 0.21 0.21 0.19 0.18 0.18 0.18 0.16 0.16 0.15 0.14 0.13 0.13 0.13 0.12 0.12 0.12 0.12 0.12 0.12 0.12 0.11 0.12 0.12 0.12 0.11 0.12 0.11 0.12 0.12 0.12 0.12 0.13 0.13 0.13 0.13 0.13 0.14 0.14
0.30 0.29 0.29 0.29 0.28 0.28 0.27 0.26 0.26 0.25 0.24 0.22 0.22 0.21 0.21 0.20 0.19 0.18 0.18 0.18 0.17 0.16 0.16 0.15 0.14 0.14 0.13 0.12 0.13 0.13 0.13 0.13 0.13 0.12 0.12 0.12 0.12 0.13 0.12 0.12 0.12 0.12 0.12 0.12 0.12 0.12 0.13 0.13 0.13 0.14 0.14 0.14
0.30 0.29 0.28 0.28 0.27 0.26 0.26 0.25 0.25 0.24 0.23 0.22 0.21 0.21 0.20 0.20 0.20 0.19 0.18 0.18 0.18 0.16 0.16 0.15 0.15 0.14 0.14 0.13 0.13 0.13 0.13 0.13 0.13 0.13 0.13 0.13 0.13 0.14 0.13 0.13 0.13 0.13 0.13 0.13 0.12 0.12 0.12 0.13 0.13 0.14 0.14 0.15
0.27 0.27 0.25 0.24 0.24 0.24 0.23 0.23 0.23 0.23 0.22 0.22 0.21 0.21 0.20 0.20 0.20 0.20 0.19 0.18 0.18 0.17 0.16 0.16 0.15 0.15 0.14 0.14 0.14 0.14 0.14 0.14 0.14 0.14 0.14 0.14 0.14 0.14 0.14 0.15 0.15 0.15 0.14 0.13 0.13 0.13 0.13 0.13 0.13 0.13 0.14 0.14
0.24 0.23 0.22 0.23 0.22 0.20 0.21 0.21 0.22 0.22 0.22 0.21 0.21 0.21 0.21 0.20 0.20 0.20 0.19 0.18 0.18 0.17 0.17 0.17 0.16 0.15 0.15 0.15 0.15 0.15 0.15 0.15 0.16 0.16 0.15 0.15 0.15 0.15 0.15 0.15 0.16 0.15 0.15 0.14 0.13 0.13 0.13 0.13 0.13 0.14 0.14 0.14
0.23 0.23 0.21 0.20 0.19 0.20 0.21 0.21 0.21 0.21 0.21 0.21 0.21 0.21 0.21 0.20 0.20 0.20 0.20 0.19 0.18 0.18 0.18 0.17 0.16 0.16 0.15 0.15 0.15 0.16 0.16 0.16 0.17 0.16 0.16 0.15 0.16 0.16 0.15 0.15 0.16 0.16 0.15 0.14 0.13 0.13 0.13 0.14 0.14 0.14 0.14 0.14
0.23 0.23 0.23 0.23 0.22 0.22 0.21 0.23 0.23 0.23 0.22 0.22 0.22 0.21 0.21 0.21 0.20 0.20 0.20 0.20 0.19 0.18 0.18 0.17 0.17 0.17 0.16 0.16 0.16 0.16 0.16 0.17 0.17 0.17 0.16 0.16 0.16 0.16 0.16 0.16 0.16 0.16 0.17 0.15 0.15 0.15 0.14 0.13 0.13 0.14 0.14 0.16
0.23 0.24 0.24 0.25 0.24 0.24 0.23 0.22 0.23 0.24 0.24 0.23 0.22 0.20 0.21 0.21 0.20 0.20 0.20 0.20 0.19 0.19 0.18 0.18 0.18 0.18 0.17 0.16 0.17 0.17 0.17 0.17 0.17 0.18 0.17 0.17 0.17 0.17 0.16 0.16 0.16 0.17 0.17 0.17 0.16 0.14 0.14 0.14 0.13 0.13 0.13 0.14
0.23 0.23 0.24 0.24 0.24 0.24 0.24 0.24 0.23 0.22 0.22 0.21 0.21 0.21 0.20 0.20 0.21 0.21 0.20 0.20 0.20 0.19 0.19 0.18 0.18 0.18 0.18 0.17 0.18 0.18 0.18 0.18 0.18 0.18 0.18 0.18 0.18 0.17 0.17 0.17 0.17 0.18 0.18 0.18 0.17 0.17 0.15 0.14 0.13 0.13 0.14 0.14
0.23 0.22 0.21 0.21 0.20 0.19 0.19 0.18 0.19 0.18 0.17 0.18 0.18 0.18 0.19 0.21 0.21 0.20 0.20 0.20 0.20 0.20 0.19 0.19 0.19 0.19 0.19 0.18 0.18 0.18 0.18 0.19 0.19 0.19 0.19 0.19 0.19 0.19 0.19 0.19 0.18 0.18 0.19 0.18 0.18 0.18 0.18 0.18 0.16 0.15 0.16 0.15
0.25 0.23 0.22 0.21 0.20 0.19 0.18 0.17 0.17 0.18 0.19 0.19 0.19 0.20 0.20 0.20 0.21 0.21 0.20 0.20 0.20 0.20 0.20 0.20 0.20 0.20 0.20 0.19 0.19 0.19 0.19 0.19 0.19 0.19 0.20 0.20 0.20 0.20 0.20 0.19 0.19 0.19 0.20 0.19 0.19 0.19 0.19 0.18 0.19 0.18 0.17 0.16

ECMWFFLT2_prec_pwat_114.txt.gz
Precipitable_Water
0.90 0.87 0.85 0.82 0.81 0.79 0.77 0.74 0.70 0.67 0.65 0.63 0.63 0.62 0.62 0.62 0.61 0.60 0.60 0.60 0.60 0.61 0.60 0.59 0.59 0.57 0.56 0.55 0.54 0.52 0.51 0.50 0.48 0.47 0.46 0.46 0.45 0.45 0.46 0.46 0.46 0.44 0.43 0.41 0.39 0.40 0.40 0.39 0.38 0.37 0.36 0.35
0.89 0.87 0.86 0.84 0.81 0.78 0.76 0.73 0.68 0.64 0.61 0.59 0.58 0.57 0.57 0.56 0.55 0.55 0.54 0.55 0.56 0.56 0.56 0.56 0.53 0.51 0.49 0.48 0.48 0.48 0.46 0.46 0.46 0.44 0.43 0.42 0.40 0.40 0.40 0.41 0.42 0.41 0.38 0.37 0.36 0.36 0.36 0.36 0.35 0.35 0.34 0.33
0.88 0.86 0.83 0.80 0.77 0.75 0.72 0.70 0.65 0.61 0.57 0.55 0.54 0.52 0.52 0.51 0.51 0.50 0.49 0.47 0.45 0.45 0.47 0.47 0.46 0.46 0.44 0.42 0.42 0.44 0.44 0.42 0.43 0.42 0.39 0.37 0.35 0.35 0.35 0.37 0.38 0.37 0.34 0.32 0.31 0.31 0.30 0.30 0.29 0.30 0.30 0.30
0.82 0.78 0.76 0.75 0.73 0.71 0.69 0.66 0.63 0.58 0.54 0.52 0.50 0.49 0.48 0.47 0.46 0.44 0.42 0.40 0.38 0.38 0.39 0.40 0.40 0.42 0.42 0.39 0.38 0.40 0.41 0.40 0.39 0.39 0.36 0.33 0.31 0.29 0.29 0.30 0.32 0.31 0.29 0.28 0.27 0.27 0.26 0.25 0.24 0.23 0.24 0.24
0.79 0.75 0.73 0.72 0.71 0.69 0.67 0.64 0.60 0.56 0.52 0.50 0.48 0.46 0.44 0.41 0.38 0.37 0.35 0.34 0.34 0.34 0.35 0.35 0.35 0.36 0.38 0.36 0.34 0.34 0.35 0.36 0.36 0.34 0.32 0.29 0.26 0.24 0.22 0.22 0.23 0.25 0.24 0.22 0.22 0.21 0.20 0.20 0.19 0.19 0.19 0.20
0.78 0.76 0.73 0.72 0.70 0.68 0.66 0.62 0.59 0.54 0.50 0.47 0.44 0.42 0.38 0.36 0.34 0.33 0.32 0.32 0.32 0.32 0.32 0.32 0.32 0.31 0.33 0.32 0.31 0.31 0.30 0.31 0.31 0.29 0.27 0.25 0.22 0.20 0.18 0.17 0.16 0.16 0.17 0.18 0.17 0.17 0.16 0.15 0.15 0.16 0.16 0.16
0.76 0.75 0.73 0.71 0.68 0.66 0.63 0.61 0.57 0.51 0.48 0.45 0.42 0.37 0.34 0.33 0.31 0.31 0.31 0.31 0.30 0.30 0.31 0.30 0.28 0.28 0.28 0.26 0.25 0.25 0.25 0.24 0.25 0.25 0.22 0.21 0.19 0.17 0.16 0.15 0.15 0.15 0.14 0.14 0.14 0.14 0.14 0.14 0.14 0.14 0.14 0.14
0.75 0.73 0.71 0.69 0.67 0.65 0.62 0.58 0.53 0.49 0.45 0.42 0.38 0.35 0.33 0.31 0.29 0.29 0.29 0.29 0.29 0.30 0.28 0.28 0.26 0.24 0.23 0.21 0.19 0.18 0.17 0.18 0.18 0.18 0.19 0.18 0.15 0.14 0.14 0.14 0.14 0.14 0.13 0.13 0.12 0.12 0.12 0.12 0.13 0.12 0.12 0.12
0.72 0.71 0.69 0.67 0.65 0.62 0.59 0.54 0.49 0.45 0.42 0.38 0.35 0.33 0.31 0.29 0.28 0.27 0.28 0.28 0.28 0.25 0.23 0.21 0.20 0.19 0.18 0.17 0.16 0.15 0.14 0.14 0.13 0.13 0.13 0.14 0.14 0.13 0.13 0.13 0.13 0.13 0.12 0.12 0.11 0.11 0.11 0.11 0.11 0.11 0.11 0.11
0.70 0.69 0.66 0.64 0.61 0.57 0.53 0.49 0.46 0.42 0.38 0.35 0.32 0.30 0.28 0.28 0.26 0.25 0.25 0.25 0.24 0.22 0.20 0.19 0.18 0.17 0.17 0.15 0.14 0.14 0.13 0.13 0.13 0.12 0.13 0.13 0.13 0.13 0.12 0.12 0.12 0.13 0.12 0.12 0.11 0.11 0.11 0.11 0.11 0.11 0.11 0.11
0.66 0.63 0.62 0.60 0.57 0.53 0.50 0.47 0.43 0.39 0.36 0.33 0.31 0.29 0.27 0.26 0.24 0.23 0.23 0.22 0.21 0.19 0.19 0.17 0.17 0.16 0.16 0.14 0.13 0.13 0.13 0.12 0.12 0.12 0.12 0.12 0.12 0.12 0.12 0.12 0.12 0.12 0.13 0.12 0.11 0.11 0.11 0.11 0.11 0.11 0.11 0.11
0.62 0.60 0.58 0.56 0.54 0.51 0.48 0.45 0.40 0.37 0.34 0.32 0.29 0.27 0.26 0.25 0.23 0.22 0.21 0.20 0.19 0.18 0.18 0.16 0.16 0.16 0.15 0.14 0.13 0.13 0.12 0.12 0.12 0.12 0.12 0.12 0.12 0.12 0.12 0.12 0.12 0.12 0.12 0.12 0.12 0.11 0.11 0.11 0.11 0.11 0.11 0.11
0.59 0.56 0.53 0.52 0.50 0.47 0.46 0.42 0.38 0.36 0.33 0.31 0.28 0.27 0.25 0.24 0.22 0.21 0.21 0.20 0.19 0.18 0.16 0.16 0.15 0.15 0.14 0.13 0.13 0.12 0.12 0.12 0.11 0.11 0.12 0.12 0.12 0.12 0.12 0.12 0.12 0.12 0.12 0.12 0.12 0.11 0.11 0.11 0.11 0.11 0.11 0.11
0.55 0.51 0.48 0.47 0.46 0.45 0.43 0.39 0.37 0.34 0.32 0.30 0.28 0.26 0.25 0.24 0.22 0.21 0.20 0.19 0.19 0.17 0.16 0.16 0.15 0.15 0.14 0.13 0.12 0.12 0.11 0.12 0.11 0.11 0.11 0.12 0.12 0.12 0.12 0.11 0.12 0.12 0.12 0.12 0.12 0.11 0.11 0.11 0.11 0.11 0.11 0.12
0.52 0.48 0.45 0.45 0.44 0.42 0.40 0.38 0.35 0.33 0.31 0.29 0.27 0.25 0.24 0.23 0.22 0.21 0.20 0.19 0.18 0.17 0.16 0.15 0.15 0.15 0.14 0.13 0.12 0.11 0.11 0.12 0.11 0.11 0.11 0.11 0.11 0.11 0.11 0.12 0.12 0.12 0.11 0.11 0.11 0.11 0.11 0.11 0.11 0.11 0.12 0.12
0.49 0.45 0.44 0.44 0.42 0.40 0.39 0.37 0.34 0.32 0.30 0.28 0.26 0.25 0.24 0.23 0.22 0.21 0.20 0.19 0.18 0.17 0.16 0.16 0.15 0.15 0.14 0.13 0.12 0.11 0.11 0.12 0.12 0.11 0.11 0.12 0.12 0.12 0.12 0.12 0.12 0.12 0.11 0.11 0.12 0.12 0.11 0.12 0.11 0.12 0.12 0.12
0.47 0.44 0.43 0.41 0.40 0.38 0.37 0.35 0.33 0.31 0.30 0.28 0.27 0.25 0.23 0.22 0.22 0.21 0.20 0.20 0.19 0.18 0.17 0.16 0.15 0.14 0.13 0.12 0.12 0.11 0.12 0.12 0.12 0.11 0.11 0.11 0.12 0.12 0.11 0.11 0.11 0.12 0.11 0.11 0.12 0.12 0.12 0.12 0.12 0.13 0.13 0.13
0.44 0.42 0.41 0.40 0.39 0.38 0.36 0.34 0.32 0.31 0.30 0.29 0.27 0.26 0.24 0.22 0.22 0.21 0.21 0.20 0.19 0.18 0.17 0.16 0.15 0.14 0.13 0.12 0.12 0.11 0.12 0.11 0.12 0.11 0.11 0.11 0.11 0.12 0.11 0.11 0.11 0.11 0.11 0.11 0.12 0.11 0.12 0.12 0.12 0.13 0.13 0.13
0.42 0.41 0.39 0.38 0.37 0.36 0.35 0.33 0.32 0.31 0.30 0.29 0.28 0.26 0.24 0.23 0.22 0.21 0.21 0.20 0.19 0.17 0.17 0.16 0.15 0.14 0.13 0.13 0.12 0.11 0.12 0.12 0.12 0.11 0.11 0.11 0.11 0.11 0.11 0.11 0.12 0.11 0.11 0.11 0.11 0.11 0.11 0.11 0.12 0.12 0.13 0.13
0.42 0.40 0.38 0.37 0.36 0.36 0.35 0.33 0.31 0.30 0.30 0.29 0.28 0.26 0.25 0.23 0.23 0.21 0.21 0.20 0.19 0.17 0.16 0.16 0.15 0.15 0.14 0.13 0.13 0.12 0.12 0.13 0.12 0.12 0.11 0.12 0.11 0.11 0.11 0.11 0.11 0.11 0.11 0.11 0.11 0.11 0.11 0.11 0.12 0.12 0.12 0.12
0.43 0.41 0.38 0.36 0.36 0.35 0.34 0.32 0.31 0.30 0.30 0.29 0.27 0.26 0.25 0.24 0.23 0.21 0.21 0.20 0.19 0.18 0.17 0.16 0.16 0.15 0.15 0.14 0.13 0.12 0.12 0.13 0.13 0.12 0.11 0.12 0.12 0.11 0.11 0.11 0.11 0.12 0.11 0.11 0.11 0.11 0.11 0.12 0.12 0.12 0.12 0.12
0.43 0.41 0.39 0.37 0.36 0.35 0.33 0.32 0.31 0.30 0.30 0.28 0.27 0.26 0.25 0.24 0.23 0.22 0.21 0.20 0.20 0.18 0.17 0.17 0.16 0.16 0.15 0.14 0.13 0.13 0.13 0.13 0.13 0.13 0.12 0.12 0.13 0.12 0.12 0.12 0.12 0.12 0.12 0.12 0.12 0.12 0.12 0.12 0.12 0.12 0.12 0.13
0.43 0.42 0.40 0.38 0.36 0.34 0.33 0.32 0.31 0.30 0.29 0.27 0.27 0.26 0.25 0.24 0.23 0.22 0.21 0.21 0.20 0.19 0.18 0.17 0.16 0.16 0.16 0.15 0.14 0.13 0.13 0.13 0.13 0.13 0.13 0.13 0.13 0.13 0.13 0.13 0.13 0.13 0.13 0.13 0.12 0.12 0.12 0.12 0.12 0.13 0.13 0.13
0.41 0.39 0.37 0.33 0.32 0.31 0.30 0.29 0.29 0.29 0.28 0.27 0.26 0.26 0.25 0.24 0.24 0.24 0.23 0.22 0.21 0.20 0.19 0.18 0.17 0.17 0.16 0.15 0.14 0.13 0.13 0.13 0.13 0.13 0.13 0.13 0.13 0.13 0.13 0.14 0.14 0.14 0.14 0.14 0.13 0.13 0.13 0.13 0.13 0.13 0.13 0.13
0.36 0.34 0.32 0.32 0.30 0.27 0.27 0.27 0.27 0.28 0.27 0.27 0.26 0.26 0.26 0.26 0.25 0.24 0.23 0.22 0.21 0.20 0.19 0.18 0.18 0.17 0.17 0.16 0.15 0.14 0.13 0.14 0.14 0.14 0.14 0.14 0.14 0.14 0.14 0.14 0.15 0.15 0.15 0.14 0.13 0.13 0.14 0.13 0.13 0.14 0.14 0.13
0.36 0.34 0.32 0.29 0.27 0.26 0.27 0.27 0.26 0.25 0.26 0.26 0.27 0.27 0.27 0.27 0.26 0.25 0.23 0.23 0.22 0.21 0.20 0.19 0.18 0.17 0.17 0.16 0.15 0.14 0.14 0.14 0.14 0.15 0.14 0.14 0.14 0.15 0.15 0.15 0.16 0.16 0.15 0.14 0.14 0.13 0.13 0.13 0.13 0.14 0.14 0.13
0.35 0.35 0.34 0.32 0.30 0.29 0.27 0.29 0.29 0.29 0.29 0.29 0.28 0.28 0.28 0.27 0.26 0.25 0.23 0.23 0.22 0.21 0.20 0.19 0.18 0.17 0.17 0.17 0.16 0.15 0.14 0.14 0.15 0.15 0.15 0.15 0.14 0.15 0.16 0.16 0.16 0.16 0.16 0.15 0.14 0.15 0.14 0.12 0.12 0.13 0.13 0.15
0.36 0.36 0.36 0.35 0.34 0.32 0.31 0.29 0.30 0.30 0.30 0.29 0.28 0.26 0.26 0.26 0.25 0.24 0.23 0.23 0.22 0.22 0.21 0.20 0.18 0.18 0.18 0.17 0.17 0.16 0.15 0.15 0.15 0.16 0.16 0.16 0.16 0.16 0.15 0.15 0.16 0.17 0.17 0.16 0.16 0.14 0.14 0.13 0.13 0.12 0.12 0.13
0.37 0.36 0.35 0.34 0.33 0.32 0.30 0.29 0.28 0.28 0.26 0.26 0.26 0.25 0.24 0.23 0.24 0.24 0.24 0.23 0.23 0.22 0.21 0.20 0.19 0.19 0.18 0.18 0.18 0.17 0.16 0.16 0.16 0.17 0.17 0.17 0.16 0.16 0.16 0.16 0.16 0.17 0.18 0.18 0.18 0.17 0.15 0.14 0.13 0.13 0.14 0.14
0.36 0.34 0.32 0.31 0.29 0.27 0.25 0.24 0.23 0.22 0.21 0.21 0.21 0.21 0.22 0.24 0.24 0.24 0.23 0.23 0.23 0.23 0.22 0.21 0.20 0.20 0.19 0.19 0.19 0.18 0.18 0.17 0.17 0.17 0.18 0.18 0.17 0.17 0.17 0.17 0.17 0.17 0.19 0.19 0.19 0.19 0.19 0.18 0.16 0.16 0.15 0.15
0.34 0.32 0.32 0.30 0.29 0.28 0.26 0.23 0.23 0.23 0.24 0.24 0.23 0.24 0.23 0.23 0.24 0.24 0.23 0.23 0.23 0.23 0.23 0.22 0.21 0.21 0.20 0.20 0.19 0.19 0.19 0.18 0.18 0.18 0.19 0.19 0.18 0.18 0.18 0.18 0.17 0.18 0.18 0.19 0.20 0.20 0.20 0.20 0.20 0.20 0.18 0.16

ECMWFFLT2_prec_pwat_117.txt.gz
Precipitable_Water
0.99 0.95 0.93 0.91 0.89 0.86 0.83 0.81 0.80 0.77 0.74 0.71 0.68 0.68 0.68 0.68 0.67 0.66 0.66 0.66 0.66 0.65 0.64 0.64 0.62 0.61 0.61 0.61 0.60 0.58 0.54 0.52 0.53 0.52 0.51 0.50 0.51 0.52 0.50 0.48 0.47 0.46 0.45 0.43 0.42 0.41 0.40 0.39 0.38 0.36 0.36 0.37
0.96 0.94 0.92 0.90 0.87 0.85 0.83 0.81 0.79 0.77 0.74 0.71 0.68 0.65 0.64 0.63 0.62 0.62 0.63 0.62 0.62 0.60 0.60 0.59 0.57 0.57 0.56 0.56 0.56 0.53 0.52 0.50 0.48 0.47 0.45 0.45 0.46 0.46 0.45 0.43 0.42 0.41 0.40 0.38 0.37 0.36 0.36 0.35 0.34 0.33 0.34 0.35
0.95 0.92 0.90 0.89 0.87 0.85 0.83 0.81 0.79 0.78 0.76 0.72 0.67 0.63 0.60 0.59 0.59 0.59 0.60 0.60 0.59 0.57 0.56 0.56 0.55 0.54 0.53 0.52 0.52 0.50 0.50 0.48 0.45 0.42 0.40 0.39 0.39 0.40 0.40 0.38 0.36 0.36 0.35 0.33 0.32 0.30 0.29 0.28 0.28 0.27 0.28 0.30
0.94 0.93 0.90 0.88 0.86 0.85 0.84 0.82 0.80 0.78 0.75 0.70 0.63 0.58 0.56 0.55 0.55 0.54 0.54 0.55 0.54 0.52 0.50 0.50 0.50 0.48 0.48 0.48 0.48 0.46 0.46 0.45 0.42 0.39 0.36 0.34 0.33 0.33 0.34 0.33 0.31 0.30 0.29 0.28 0.26 0.24 0.23 0.22 0.21 0.21 0.23 0.24
0.91 0.90 0.87 0.84 0.82 0.80 0.79 0.77 0.75 0.73 0.70 0.65 0.59 0.55 0.53 0.52 0.50 0.49 0.48 0.47 0.47 0.45 0.44 0.45 0.47 0.45 0.43 0.43 0.42 0.43 0.42 0.41 0.39 0.36 0.33 0.30 0.28 0.26 0.25 0.25 0.25 0.25 0.25 0.23 0.22 0.20 0.19 0.18 0.17 0.18 0.19 0.20
0.88 0.86 0.83 0.81 0.79 0.77 0.75 0.73 0.72 0.70 0.66 0.61 0.57 0.52 0.50 0.48 0.46 0.44 0.41 0.40 0.39 0.38 0.38 0.39 0.40 0.40 0.39 0.39 0.38 0.38 0.38 0.38 0.37 0.33 0.30 0.27 0.24 0.22 0.20 0.18 0.17 0.18 0.20 0.20 0.19 0.18 0.17 0.16 0.16 0.16 0.17 0.17
0.84 0.83 0.80 0.78 0.77 0.76 0.75 0.71 0.69 0.66 0.62 0.59 0.55 0.49 0.46 0.44 0.41 0.37 0.35 0.34 0.34 0.34 0.34 0.35 0.35 0.35 0.35 0.35 0.34 0.33 0.33 0.33 0.31 0.29 0.26 0.24 0.22 0.20 0.17 0.16 0.16 0.15 0.15 0.15 0.16 0.15 0.15 0.15 0.15 0.15 0.15 0.15
0.81 0.80 0.78 0.76 0.75 0.75 0.73 0.70 0.66 0.63 0.60 0.56 0.51 0.46 0.43 0.40 0.37 0.34 0.33 0.33 0.33 0.33 0.32 0.32 0.32 0.31 0.29 0.28 0.27 0.26 0.25 0.26 0.26 0.25 0.22 0.19 0.17 0.16 0.16 0.15 0.15 0.14 0.14 0.14 0.14 0.14 0.14 0.14 0.13 0.13 0.13 0.13
0.78 0.78 0.77 0.76 0.75 0.73 0.71 0.68 0.65 0.62 0.59 0.54 0.49 0.44 0.41 0.38 0.35 0.33 0.32 0.32 0.31 0.30 0.29 0.27 0.25 0.24 0.22 0.21 0.20 0.20 0.18 0.18 0.18 0.17 0.15 0.15 0.15 0.15 0.15 0.14 0.14 0.13 0.13 0.13 0.13 0.13 0.13 0.13 0.13 0.13 0.13 0.13
0.78 0.77 0.74 0.73 0.72 0.71 0.69 0.66 0.64 0.61 0.57 0.52 0.46 0.41 0.38 0.35 0.33 0.31 0.31 0.30 0.28 0.27 0.26 0.24 0.22 0.21 0.20 0.18 0.17 0.17 0.15 0.15 0.15 0.15 0.15 0.14 0.14 0.14 0.14 0.14 0.14 0.14 0.13 0.12 0.12 0.13 0.13 0.12 0.12 0.12 0.12 0.12
0.78 0.76 0.75 0.74 0.72 0.68 0.66 0.64 0.61 0.59 0.56 0.50 0.44 0.40 0.37 0.33 0.31 0.29 0.28 0.27 0.25 0.23 0.23 0.21 0.20 0.19 0.18 0.17 0.16 0.16 0.14 0.14 0.14 0.14 0.14 0.14 0.14 0.14 0.14 0.14 0.14 0.13 0.13 0.13 0.12 0.12 0.12 0.12 0.12 0.12 0.12 0.12
0.78 0.77 0.75 0.73 0.70 0.67 0.64 0.62 0.59 0.57 0.53 0.48 0.43 0.39 0.36 0.33 0.30 0.28 0.26 0.25 0.23 0.22 0.21 0.20 0.19 0.18 0.17 0.16 0.15 0.15 0.14 0.13 0.14 0.14 0.14 0.13 0.13 0.13 0.13 0.13 0.13 0.13 0.13 0.12 0.12 0.12 0.12 0.12 0.12 0.12 0.12 0.12
0.78 0.76 0.74 0.71 0.67 0.63 0.61 0.57 0.56 0.54 0.51 0.45 0.41 0.38 0.35 0.32 0.28 0.27 0.25 0.23 0.22 0.21 0.20 0.19 0.18 0.17 0.16 0.15 0.14 0.14 0.14 0.13 0.13 0.13 0.13 0.13 0.12 0.13 0.13 0.13 0.12 0.13 0.12 0.12 0.12 0.12 0.12 0.12 0.12 0.12 0.12 0.12
0.73 0.71 0.68 0.66 0.63 0.61 0.58 0.54 0.53 0.51 0.47 0.43 0.39 0.35 0.33 0.31 0.28 0.25 0.24 0.22 0.21 0.20 0.19 0.18 0.17 0.16 0.16 0.15 0.14 0.14 0.13 0.13 0.12 0.12 0.12 0.12 0.12 0.12 0.12 0.12 0.13 0.12 0.12 0.12 0.12 0.11 0.11 0.11 0.12 0.12 0.12 0.13
0.70 0.68 0.65 0.63 0.62 0.59 0.55 0.52 0.49 0.46 0.43 0.40 0.37 0.34 0.33 0.30 0.28 0.25 0.24 0.22 0.21 0.19 0.18 0.17 0.16 0.16 0.16 0.15 0.14 0.13 0.13 0.13 0.12 0.12 0.12 0.12 0.12 0.12 0.12 0.12 0.12 0.12 0.12 0.11 0.11 0.11 0.11 0.11 0.12 0.12 0.13 0.13
0.67 0.64 0.63 0.61 0.60 0.56 0.54 0.50 0.46 0.43 0.41 0.38 0.35 0.34 0.31 0.29 0.27 0.25 0.23 0.22 0.21 0.19 0.18 0.17 0.16 0.16 0.15 0.15 0.14 0.13 0.13 0.12 0.12 0.12 0.12 0.12 0.12 0.12 0.12 0.12 0.12 0.12 0.11 0.11 0.11 0.11 0.11 0.11 0.12 0.12 0.13 0.13
0.65 0.62 0.59 0.57 0.55 0.54 0.52 0.47 0.44 0.41 0.38 0.37 0.35 0.33 0.31 0.29 0.27 0.26 0.24 0.22 0.21 0.20 0.19 0.17 0.16 0.16 0.16 0.15 0.14 0.13 0.12 0.12 0.12 0.12 0.11 0.12 0.12 0.12 0.12 0.12 0.12 0.12 0.12 0.11 0.11 0.11 0.11 0.11 0.12 0.12 0.12 0.13
0.61 0.59 0.57 0.56 0.54 0.52 0.49 0.45 0.41 0.39 0.38 0.36 0.34 0.32 0.31 0.29 0.28 0.26 0.25 0.23 0.22 0.21 0.19 0.18 0.17 0.16 0.16 0.15 0.14 0.13 0.12 0.12 0.11 0.11 0.11 0.11 0.11 0.12 0.12 0.11 0.12 0.11 0.11 0.11 0.12 0.11 0.11 0.11 0.12 0.12 0.12 0.12
0.59 0.58 0.56 0.54 0.52 0.50 0.47 0.44 0.41 0.39 0.38 0.36 0.34 0.33 0.30 0.29 0.28 0.27 0.25 0.24 0.22 0.21 0.20 0.18 0.17 0.16 0.16 0.16 0.15 0.13 0.12 0.11 0.11 0.11 0.11 0.12 0.11 0.12 0.12 0.12 0.12 0.11 0.11 0.11 0.11 0.11 0.11 0.11 0.12 0.12 0.12 0.13
0.59 0.58 0.56 0.54 0.52 0.49 0.47 0.43 0.40 0.38 0.37 0.36 0.35 0.33 0.30 0.29 0.28 0.27 0.26 0.24 0.23 0.21 0.20 0.19 0.18 0.17 0.17 0.16 0.15 0.13 0.12 0.12 0.11 0.12 0.12 0.12 0.12 0.11 0.11 0.12 0.11 0.12 0.11 0.11 0.11 0.11 0.12 0.12 0.12 0.12 0.12 0.12
0.57 0.57 0.54 0.52 0.49 0.47 0.46 0.43 0.40 0.39 0.38 0.37 0.35 0.33 0.31 0.29 0.28 0.28 0.26 0.25 0.24 0.22 0.21 0.20 0.19 0.18 0.17 0.17 0.15 0.14 0.13 0.12 0.12 0.12 0.12 0.12 0.12 0.12 0.11 0.12 0.12 0.12 0.12 0.12 0.12 0.12 0.12 0.12 0.12 0.12 0.12 0.13
0.55 0.54 0.52 0.50 0.48 0.48 0.46 0.44 0.43 0.40 0.39 0.37 0.35 0.34 0.31 0.30 0.29 0.28 0.27 0.26 0.25 0.23 0.22 0.21 0.20 0.19 0.18 0.17 0.16 0.14 0.13 0.13 0.13 0.13 0.12 0.12 0.13 0.12 0.12 0.12 0.12 0.12 0.12 0.12 0.12 0.12 0.12 0.12 0.12 0.12 0.12 0.13
0.51 0.50 0.48 0.47 0.46 0.46 0.45 0.43 0.42 0.40 0.38 0.36 0.35 0.34 0.32 0.31 0.30 0.29 0.27 0.26 0.25 0.23 0.22 0.21 0.19 0.19 0.18 0.17 0.16 0.15 0.14 0.13 0.13 0.13 0.13 0.12 0.12 0.13 0.13 0.12 0.12 0.12 0.13 0.12 0.12 0.12 0.12 0.12 0.12 0.12 0.13 0.13
0.46 0.45 0.42 0.41 0.41 0.41 0.40 0.40 0.39 0.38 0.36 0.35 0.34 0.33 0.33 0.31 0.30 0.29 0.28 0.27 0.26 0.24 0.22 0.21 0.20 0.19 0.19 0.18 0.17 0.16 0.14 0.14 0.13 0.13 0.13 0.13 0.12 0.12 0.13 0.13 0.13 0.13 0.13 0.13 0.13 0.13 0.13 0.13 0.13 0.13 0.13 0.13
0.41 0.39 0.38 0.38 0.37 0.36 0.38 0.38 0.37 0.36 0.35 0.34 0.33 0.33 0.32 0.31 0.30 0.30 0.29 0.28 0.26 0.24 0.23 0.22 0.21 0.20 0.19 0.19 0.18 0.17 0.16 0.15 0.14 0.14 0.13 0.13 0.13 0.12 0.12 0.13 0.14 0.14 0.14 0.13 0.12 0.13 0.13 0.13 0.14 0.14 0.14 0.13
0.40 0.39 0.37 0.36 0.35 0.36 0.37 0.37 0.35 0.34 0.34 0.33 0.33 0.33 0.33 0.32 0.31 0.31 0.30 0.29 0.28 0.26 0.25 0.23 0.22 0.21 0.20 0.20 0.19 0.18 0.17 0.16 0.15 0.15 0.14 0.13 0.13 0.14 0.13 0.13 0.14 0.14 0.14 0.13 0.13 0.12 0.13 0.13 0.14 0.15 0.14 0.14
0.38 0.39 0.39 0.39 0.38 0.38 0.38 0.40 0.40 0.40 0.39 0.38 0.35 0.34 0.33 0.33 0.33 0.32 0.31 0.30 0.28 0.27 0.26 0.25 0.23 0.22 0.21 0.20 0.20 0.18 0.17 0.16 0.15 0.15 0.14 0.14 0.13 0.13 0.14 0.14 0.15 0.15 0.15 0.14 0.14 0.14 0.14 0.13 0.13 0.14 0.14 0.15
0.40 0.41 0.41 0.42 0.42 0.42 0.42 0.40 0.42 0.42 0.41 0.38 0.36 0.33 0.34 0.33 0.32 0.31 0.30 0.29 0.29 0.28 0.27 0.26 0.25 0.24 0.22 0.21 0.20 0.19 0.18 0.17 0.16 0.16 0.15 0.15 0.14 0.14 0.14 0.14 0.15 0.16 0.16 0.16 0.15 0.14 0.14 0.14 0.14 0.13 0.14 0.14
0.39 0.40 0.40 0.40 0.41 0.41 0.40 0.40 0.39 0.38 0.36 0.35 0.34 0.34 0.32 0.30 0.30 0.30 0.29 0.29 0.29 0.28 0.27 0.27 0.26 0.24 0.23 0.22 0.21 0.21 0.19 0.18 0.17 0.17 0.17 0.16 0.15 0.15 0.15 0.15 0.15 0.17 0.17 0.17 0.18 0.17 0.15 0.14 0.14 0.14 0.15 0.16
0.39 0.38 0.37 0.37 0.35 0.34 0.34 0.33 0.33 0.32 0.31 0.31 0.30 0.29 0.30 0.31 0.31 0.30 0.30 0.29 0.28 0.28 0.27 0.26 0.26 0.25 0.24 0.23 0.22 0.21 0.20 0.20 0.19 0.18 0.17 0.17 0.16 0.16 0.16 0.16 0.16 0.16 0.18 0.18 0.18 0.19 0.19 0.18 0.16 0.16 0.16 0.16
0.37 0.37 0.37 0.36 0.35 0.35 0.34 0.33 0.33 0.35 0.36 0.36 0.35 0.35 0.33 0.32 0.31 0.31 0.30 0.29 0.29 0.28 0.28 0.28 0.27 0.26 0.25 0.24 0.24 0.23 0.22 0.21 0.20 0.19 0.19 0.19 0.18 0.17 0.17 0.16 0.16 0.16 0.17 0.18 0.18 0.18 0.19 0.19 0.18 0.18 0.17 0.16

ECMWFFLT2_prec_pwat_120.txt.gz
Precipitable_Water
1.14 1.11 1.07 1.01 0.97 0.94 0.92 0.93 0.92 0.90 0.87 0.86 0.82 0.80 0.78 0.75 0.73 0.72 0.71 0.71 0.71 0.70 0.69 0.70 0.68 0.66 0.65 0.65 0.63 0.62 0.63 0.62 0.61 0.60 0.59 0.56 0.54 0.52 0.51 0.50 0.49 0.47 0.46 0.44 0.43 0.42 0.41 0.41 0.41 0.41 0.41 0.42
1.09 1.07 1.03 0.99 0.95 0.94 0.92 0.91 0.90 0.87 0.85 0.84 0.82 0.80 0.77 0.73 0.70 0.68 0.69 0.69 0.67 0.67 0.66 0.65 0.65 0.64 0.62 0.62 0.61 0.60 0.59 0.58 0.55 0.54 0.54 0.51 0.50 0.49 0.48 0.47 0.45 0.44 0.42 0.41 0.39 0.38 0.37 0.38 0.38 0.38 0.39 0.39
1.06 1.05 1.01 0.97 0.95 0.93 0.91 0.90 0.88 0.87 0.85 0.83 0.82 0.80 0.76 0.71 0.67 0.66 0.66 0.66 0.65 0.64 0.62 0.60 0.60 0.59 0.58 0.58 0.57 0.56 0.53 0.51 0.49 0.48 0.47 0.47 0.45 0.43 0.43 0.42 0.40 0.38 0.37 0.35 0.33 0.31 0.30 0.30 0.31 0.31 0.31 0.32
1.05 1.01 0.97 0.96 0.95 0.93 0.91 0.89 0.88 0.87 0.86 0.84 0.82 0.78 0.75 0.70 0.65 0.64 0.64 0.64 0.63 0.61 0.58 0.56 0.55 0.55 0.56 0.55 0.54 0.54 0.51 0.46 0.44 0.43 0.42 0.41 0.40 0.39 0.37 0.36 0.34 0.32 0.30 0.28 0.27 0.25 0.24 0.24 0.25 0.25 0.26 0.27
1.03 0.99 0.96 0.95 0.93 0.91 0.90 0.88 0.87 0.87 0.87 0.84 0.81 0.77 0.73 0.67 0.62 0.61 0.60 0.60 0.59 0.56 0.54 0.52 0.52 0.53 0.52 0.52 0.52 0.51 0.49 0.43 0.41 0.39 0.36 0.34 0.31 0.29 0.28 0.28 0.29 0.28 0.26 0.24 0.23 0.21 0.20 0.20 0.20 0.21 0.23 0.24
1.03 1.01 0.99 0.97 0.94 0.92 0.90 0.88 0.87 0.85 0.81 0.78 0.76 0.73 0.67 0.62 0.57 0.56 0.56 0.55 0.54 0.51 0.49 0.49 0.49 0.49 0.49 0.49 0.49 0.47 0.44 0.41 0.39 0.37 0.33 0.29 0.26 0.24 0.23 0.22 0.21 0.22 0.23 0.22 0.20 0.19 0.18 0.18 0.18 0.20 0.21 0.22
0.99 0.98 0.97 0.95 0.93 0.92 0.89 0.87 0.84 0.80 0.77 0.74 0.70 0.66 0.63 0.59 0.54 0.53 0.53 0.52 0.49 0.45 0.45 0.46 0.45 0.45 0.46 0.46 0.45 0.42 0.40 0.39 0.37 0.34 0.31 0.27 0.24 0.21 0.19 0.18 0.18 0.17 0.17 0.18 0.18 0.17 0.17 0.17 0.17 0.18 0.19 0.20
0.95 0.92 0.91 0.89 0.88 0.86 0.85 0.83 0.81 0.77 0.75 0.72 0.67 0.64 0.61 0.57 0.53 0.51 0.51 0.49 0.45 0.42 0.42 0.42 0.42 0.41 0.39 0.38 0.37 0.35 0.34 0.34 0.32 0.30 0.27 0.23 0.19 0.18 0.17 0.17 0.17 0.17 0.16 0.16 0.16 0.16 0.16 0.16 0.16 0.16 0.18 0.19
0.91 0.89 0.87 0.85 0.84 0.82 0.81 0.79 0.77 0.76 0.73 0.69 0.65 0.62 0.59 0.56 0.51 0.48 0.47 0.43 0.40 0.38 0.37 0.36 0.35 0.34 0.32 0.31 0.30 0.30 0.28 0.27 0.25 0.22 0.19 0.18 0.17 0.17 0.17 0.16 0.16 0.16 0.16 0.16 0.15 0.15 0.15 0.15 0.15 0.15 0.16 0.18
0.90 0.87 0.83 0.81 0.80 0.79 0.78 0.76 0.75 0.73 0.69 0.65 0.63 0.60 0.58 0.54 0.48 0.45 0.42 0.38 0.35 0.34 0.33 0.31 0.30 0.28 0.27 0.26 0.25 0.25 0.23 0.22 0.20 0.18 0.17 0.17 0.16 0.16 0.16 0.16 0.16 0.16 0.15 0.15 0.15 0.15 0.15 0.15 0.14 0.15 0.15 0.16
0.88 0.84 0.83 0.81 0.79 0.76 0.75 0.75 0.72 0.69 0.67 0.64 0.62 0.60 0.58 0.52 0.47 0.44 0.40 0.36 0.34 0.32 0.31 0.28 0.26 0.24 0.23 0.22 0.21 0.20 0.19 0.18 0.18 0.16 0.16 0.16 0.16 0.16 0.16 0.15 0.15 0.15 0.15 0.15 0.14 0.14 0.14 0.14 0.14 0.14 0.14 0.15
0.86 0.84 0.82 0.80 0.78 0.76 0.75 0.74 0.71 0.68 0.65 0.62 0.60 0.58 0.56 0.52 0.47 0.43 0.39 0.35 0.32 0.30 0.28 0.26 0.24 0.23 0.21 0.20 0.19 0.18 0.17 0.16 0.16 0.15 0.15 0.15 0.15 0.15 0.15 0.15 0.15 0.14 0.14 0.14 0.14 0.13 0.13 0.13 0.13 0.14 0.14 0.14
0.86 0.85 0.83 0.80 0.77 0.75 0.76 0.74 0.72 0.68 0.64 0.60 0.58 0.57 0.54 0.51 0.45 0.41 0.37 0.34 0.31 0.29 0.26 0.24 0.22 0.21 0.20 0.19 0.18 0.17 0.16 0.16 0.15 0.15 0.15 0.14 0.15 0.15 0.15 0.14 0.14 0.14 0.13 0.13 0.13 0.13 0.13 0.13 0.13 0.13 0.13 0.14
0.89 0.87 0.83 0.80 0.77 0.77 0.77 0.74 0.72 0.68 0.63 0.60 0.57 0.55 0.53 0.50 0.44 0.40 0.36 0.33 0.30 0.27 0.25 0.23 0.21 0.20 0.20 0.19 0.18 0.17 0.15 0.15 0.15 0.14 0.14 0.14 0.14 0.14 0.14 0.14 0.14 0.13 0.13 0.13 0.13 0.13 0.12 0.13 0.13 0.13 0.13 0.13
0.90 0.88 0.84 0.81 0.79 0.78 0.76 0.73 0.70 0.66 0.62 0.58 0.55 0.53 0.51 0.48 0.44 0.39 0.35 0.31 0.28 0.26 0.24 0.22 0.21 0.20 0.19 0.18 0.17 0.16 0.15 0.15 0.15 0.14 0.14 0.13 0.13 0.13 0.14 0.14 0.14 0.13 0.12 0.12 0.12 0.12 0.12 0.12 0.13 0.13 0.13 0.13
0.88 0.86 0.83 0.80 0.78 0.75 0.74 0.72 0.68 0.65 0.61 0.57 0.53 0.51 0.49 0.46 0.42 0.38 0.34 0.31 0.28 0.26 0.24 0.22 0.20 0.19 0.18 0.17 0.17 0.16 0.15 0.15 0.14 0.14 0.14 0.14 0.13 0.13 0.13 0.13 0.13 0.13 0.12 0.12 0.12 0.12 0.12 0.12 0.12 0.13 0.13 0.13
0.86 0.85 0.82 0.78 0.75 0.74 0.72 0.68 0.65 0.62 0.59 0.57 0.53 0.50 0.47 0.44 0.41 0.37 0.33 0.30 0.28 0.26 0.23 0.22 0.20 0.18 0.18 0.17 0.16 0.16 0.15 0.14 0.14 0.14 0.13 0.13 0.13 0.13 0.12 0.12 0.12 0.12 0.12 0.12 0.12 0.12 0.12 0.12 0.13 0.13 0.13 0.13
0.82 0.80 0.78 0.77 0.75 0.73 0.69 0.66 0.62 0.59 0.57 0.55 0.52 0.49 0.46 0.43 0.39 0.36 0.33 0.31 0.28 0.26 0.24 0.22 0.20 0.19 0.18 0.17 0.16 0.16 0.15 0.14 0.13 0.13 0.12 0.12 0.12 0.12 0.12 0.12 0.12 0.12 0.12 0.12 0.12 0.12 0.12 0.12 0.13 0.13 0.13 0.13
0.75 0.75 0.74 0.72 0.70 0.68 0.65 0.62 0.58 0.57 0.56 0.54 0.51 0.48 0.44 0.41 0.38 0.36 0.33 0.31 0.28 0.26 0.24 0.22 0.20 0.19 0.18 0.18 0.17 0.16 0.15 0.14 0.13 0.12 0.12 0.12 0.11 0.12 0.12 0.12 0.12 0.12 0.12 0.12 0.12 0.12 0.12 0.12 0.13 0.13 0.13 0.13
0.72 0.71 0.69 0.67 0.65 0.64 0.62 0.59 0.56 0.55 0.53 0.52 0.50 0.47 0.43 0.41 0.38 0.35 0.33 0.31 0.29 0.26 0.25 0.23 0.21 0.20 0.19 0.18 0.17 0.16 0.16 0.15 0.13 0.12 0.12 0.12 0.11 0.11 0.11 0.12 0.12 0.12 0.12 0.12 0.12 0.13 0.12 0.12 0.13 0.13 0.13 0.13
0.68 0.67 0.65 0.64 0.62 0.61 0.60 0.57 0.55 0.54 0.53 0.51 0.48 0.46 0.42 0.40 0.37 0.35 0.33 0.31 0.30 0.27 0.25 0.24 0.22 0.21 0.20 0.19 0.18 0.17 0.16 0.15 0.14 0.13 0.12 0.12 0.12 0.11 0.11 0.12 0.12 0.12 0.12 0.12 0.12 0.13 0.12 0.13 0.13 0.13 0.13 0.14
0.63 0.63 0.63 0.62 0.61 0.61 0.59 0.57 0.56 0.55 0.53 0.50 0.48 0.46 0.42 0.40 0.37 0.36 0.34 0.32 0.30 0.28 0.27 0.26 0.24 0.23 0.21 0.20 0.19 0.18 0.16 0.15 0.15 0.14 0.12 0.11 0.12 0.12 0.12 0.12 0.12 0.12 0.12 0.12 0.12 0.12 0.12 0.13 0.13 0.13 0.13 0.14
0.61 0.61 0.60 0.60 0.58 0.57 0.57 0.56 0.55 0.54 0.51 0.50 0.48 0.44 0.41 0.39 0.38 0.36 0.34 0.32 0.31 0.29 0.28 0.27 0.25 0.24 0.23 0.21 0.19 0.18 0.17 0.16 0.15 0.14 0.13 0.12 0.12 0.12 0.12 0.12 0.12 0.12 0.12 0.12 0.12 0.12 0.13 0.13 0.13 0.13 0.13 0.14
0.56 0.56 0.54 0.52 0.53 0.51 0.51 0.52 0.52 0.51 0.50 0.49 0.45 0.43 0.41 0.39 0.38 0.37 0.35 0.33 0.32 0.31 0.29 0.28 0.26 0.25 0.24 0.22 0.20 0.19 0.17 0.16 0.16 0.15 0.14 0.13 0.12 0.12 0.12 0.13 0.13 0.13 0.13 0.13 0.13 0.13 0.13 0.13 0.13 0.13 0.13 0.13
0.49 0.48 0.48 0.50 0.49 0.47 0.49 0.51 0.51 0.50 0.49 0.46 0.44 0.43 0.41 0.40 0.39 0.38 0.36 0.35 0.33 0.32 0.30 0.29 0.27 0.26 0.24 0.23 0.21 0.19 0.18 0.18 0.17 0.17 0.16 0.15 0.14 0.13 0.12 0.12 0.13 0.13 0.13 0.12 0.12 0.12 0.12 0.12 0.13 0.13 0.14 0.13
0.46 0.47 0.47 0.46 0.46 0.48 0.49 0.50 0.49 0.47 0.46 0.43 0.43 0.43 0.42 0.41 0.41 0.40 0.38 0.37 0.36 0.34 0.32 0.30 0.28 0.26 0.25 0.24 0.22 0.21 0.20 0.20 0.19 0.18 0.17 0.16 0.14 0.14 0.12 0.12 0.13 0.13 0.13 0.12 0.12 0.12 0.12 0.12 0.13 0.13 0.14 0.14
0.42 0.44 0.47 0.48 0.48 0.49 0.49 0.52 0.52 0.50 0.48 0.47 0.44 0.44 0.43 0.43 0.42 0.41 0.39 0.39 0.37 0.35 0.32 0.30 0.28 0.27 0.27 0.26 0.25 0.23 0.21 0.21 0.20 0.19 0.18 0.17 0.15 0.14 0.13 0.13 0.14 0.13 0.13 0.12 0.13 0.13 0.12 0.12 0.12 0.13 0.15 0.15
0.42 0.44 0.46 0.49 0.50 0.51 0.51 0.49 0.50 0.49 0.47 0.44 0.43 0.41 0.41 0.42 0.42 0.41 0.40 0.39 0.37 0.34 0.32 0.30 0.29 0.29 0.28 0.27 0.27 0.25 0.24 0.22 0.21 0.20 0.19 0.18 0.17 0.15 0.14 0.13 0.13 0.14 0.14 0.13 0.13 0.12 0.13 0.14 0.13 0.13 0.14 0.15
0.41 0.42 0.43 0.44 0.46 0.47 0.46 0.46 0.44 0.43 0.41 0.41 0.41 0.40 0.39 0.40 0.41 0.41 0.40 0.39 0.37 0.35 0.34 0.32 0.31 0.30 0.29 0.28 0.28 0.27 0.25 0.24 0.23 0.22 0.22 0.21 0.19 0.17 0.16 0.14 0.14 0.14 0.15 0.14 0.15 0.14 0.14 0.13 0.13 0.13 0.15 0.15
0.41 0.40 0.39 0.39 0.37 0.36 0.37 0.36 0.37 0.36 0.35 0.36 0.36 0.36 0.39 0.41 0.42 0.41 0.41 0.40 0.39 0.38 0.36 0.34 0.32 0.31 0.30 0.29 0.28 0.27 0.26 0.25 0.24 0.23 0.22 0.21 0.20 0.19 0.18 0.16 0.15 0.14 0.16 0.15 0.15 0.16 0.17 0.17 0.14 0.14 0.16 0.15
0.39 0.38 0.38 0.38 0.37 0.37 0.36 0.35 0.37 0.40 0.41 0.41 0.41 0.42 0.42 0.43 0.44 0.43 0.43 0.42 0.41 0.39 0.38 0.36 0.35 0.33 0.32 0.30 0.29 0.29 0.27 0.26 0.25 0.24 0.24 0.23 0.22 0.21 0.20 0.19 0.17 0.16 0.15 0.16 0.16 0.16 0.17 0.17 0.17 0.17 0.16 0.15

ECMWFFLT2_prec_pwat_126.txt.gz
Precipitable_Water
1.38 1.35 1.33 1.34 1.35 1.32 1.27 1.24 1.21 1.17 1.14 1.12 1.08 1.05 1.02 0.98 0.93 0.88 0.84 0.86 0.87 0.86 0.83 0.82 0.83 0.83 0.83 0.83 0.82 0.80 0.80 0.79 0.77 0.75 0.74 0.72 0.68 0.63 0.57 0.54 0.53 0.52 0.52 0.53 0.54 0.55 0.56 0.56 0.57 0.58 0.61 0.63
1.37 1.33 1.31 1.31 1.32 1.29 1.26 1.26 1.21 1.17 1.15 1.12 1.09 1.07 1.05 1.01 0.97 0.91 0.88 0.86 0.84 0.83 0.79 0.77 0.77 0.76 0.76 0.76 0.75 0.75 0.77 0.77 0.75 0.73 0.71 0.69 0.66 0.58 0.54 0.53 0.51 0.49 0.48 0.48 0.49 0.51 0.52 0.54 0.56 0.58 0.58 0.60
1.40 1.36 1.34 1.33 1.31 1.28 1.24 1.22 1.20 1.17 1.13 1.07 1.04 1.05 1.04 1.01 0.98 0.94 0.91 0.90 0.86 0.81 0.78 0.74 0.74 0.76 0.75 0.74 0.73 0.72 0.72 0.72 0.71 0.69 0.68 0.66 0.64 0.59 0.54 0.52 0.50 0.49 0.48 0.47 0.46 0.47 0.48 0.50 0.52 0.54 0.55 0.58
1.35 1.33 1.29 1.30 1.29 1.26 1.23 1.20 1.16 1.13 1.08 1.02 1.00 0.99 0.97 0.94 0.91 0.88 0.86 0.82 0.79 0.77 0.75 0.73 0.72 0.73 0.76 0.75 0.75 0.73 0.72 0.71 0.70 0.68 0.66 0.64 0.60 0.56 0.53 0.50 0.48 0.48 0.46 0.45 0.45 0.44 0.44 0.45 0.47 0.49 0.52 0.56
1.29 1.31 1.27 1.27 1.25 1.22 1.20 1.16 1.12 1.08 1.03 0.99 0.98 0.95 0.93 0.91 0.89 0.87 0.85 0.82 0.78 0.75 0.71 0.69 0.69 0.70 0.72 0.74 0.73 0.72 0.71 0.70 0.68 0.66 0.63 0.60 0.53 0.50 0.47 0.45 0.43 0.43 0.42 0.40 0.40 0.39 0.38 0.38 0.40 0.43 0.46 0.49
1.28 1.26 1.26 1.26 1.25 1.20 1.18 1.15 1.10 1.06 1.02 0.98 0.97 0.95 0.93 0.91 0.88 0.85 0.84 0.81 0.79 0.76 0.73 0.72 0.71 0.71 0.72 0.74 0.72 0.69 0.67 0.65 0.63 0.60 0.56 0.50 0.44 0.41 0.39 0.37 0.36 0.34 0.32 0.31 0.31 0.30 0.30 0.31 0.32 0.34 0.38 0.41
1.25 1.22 1.22 1.21 1.20 1.18 1.15 1.12 1.08 1.04 1.00 0.98 0.96 0.94 0.92 0.90 0.89 0.87 0.84 0.79 0.75 0.72 0.69 0.67 0.66 0.67 0.68 0.68 0.66 0.64 0.62 0.60 0.57 0.54 0.47 0.42 0.37 0.33 0.30 0.28 0.27 0.27 0.27 0.26 0.26 0.26 0.27 0.27 0.29 0.31 0.33 0.37
1.23 1.20 1.18 1.17 1.16 1.14 1.11 1.08 1.06 1.02 0.98 0.97 0.96 0.95 0.92 0.89 0.88 0.85 0.82 0.79 0.74 0.70 0.67 0.65 0.65 0.64 0.64 0.63 0.60 0.57 0.56 0.54 0.50 0.44 0.39 0.34 0.29 0.26 0.25 0.24 0.24 0.24 0.24 0.24 0.24 0.25 0.25 0.26 0.26 0.28 0.29 0.33
1.18 1.18 1.17 1.16 1.15 1.12 1.09 1.05 1.02 0.98 0.94 0.94 0.93 0.92 0.91 0.91 0.90 0.87 0.84 0.79 0.73 0.68 0.66 0.63 0.61 0.61 0.61 0.60 0.57 0.53 0.48 0.45 0.41 0.35 0.30 0.27 0.25 0.25 0.24 0.23 0.23 0.23 0.22 0.22 0.22 0.23 0.23 0.24 0.25 0.26 0.27 0.31
1.19 1.19 1.16 1.14 1.12 1.09 1.07 1.04 1.01 0.97 0.94 0.92 0.92 0.91 0.90 0.88 0.87 0.85 0.83 0.78 0.72 0.66 0.63 0.59 0.57 0.57 0.56 0.54 0.51 0.49 0.43 0.39 0.34 0.29 0.26 0.25 0.24 0.23 0.23 0.23 0.23 0.22 0.22 0.21 0.21 0.21 0.23 0.23 0.24 0.25 0.27 0.30
1.18 1.15 1.14 1.13 1.11 1.07 1.05 1.05 1.01 0.97 0.94 0.92 0.90 0.88 0.87 0.83 0.81 0.80 0.77 0.72 0.69 0.64 0.60 0.57 0.54 0.52 0.52 0.50 0.47 0.44 0.38 0.34 0.31 0.27 0.25 0.24 0.23 0.22 0.22 0.22 0.21 0.21 0.21 0.21 0.21 0.21 0.21 0.22 0.23 0.25 0.26 0.29
1.15 1.15 1.12 1.10 1.09 1.06 1.04 1.01 0.95 0.91 0.88 0.87 0.87 0.86 0.85 0.83 0.80 0.76 0.72 0.68 0.66 0.61 0.57 0.54 0.53 0.50 0.48 0.46 0.43 0.40 0.36 0.32 0.29 0.26 0.25 0.24 0.23 0.22 0.22 0.22 0.21 0.21 0.21 0.21 0.21 0.21 0.21 0.22 0.23 0.24 0.26 0.28
1.12 1.11 1.10 1.09 1.06 1.02 0.98 0.95 0.94 0.92 0.89 0.86 0.84 0.84 0.82 0.80 0.77 0.74 0.70 0.66 0.65 0.61 0.56 0.52 0.50 0.48 0.44 0.42 0.39 0.36 0.33 0.31 0.27 0.25 0.24 0.23 0.22 0.22 0.21 0.21 0.21 0.21 0.21 0.20 0.21 0.21 0.20 0.21 0.22 0.23 0.25 0.28
1.07 1.06 1.03 1.02 1.00 0.99 0.96 0.93 0.93 0.92 0.88 0.86 0.83 0.82 0.80 0.79 0.77 0.74 0.70 0.66 0.64 0.60 0.55 0.51 0.49 0.47 0.42 0.39 0.36 0.34 0.31 0.29 0.27 0.25 0.24 0.24 0.23 0.22 0.22 0.21 0.21 0.21 0.21 0.20 0.20 0.20 0.20 0.20 0.21 0.23 0.24 0.26
1.01 1.03 1.02 1.03 1.03 1.01 0.97 0.95 0.93 0.91 0.89 0.87 0.85 0.82 0.81 0.79 0.78 0.74 0.71 0.65 0.61 0.59 0.55 0.50 0.47 0.44 0.41 0.37 0.33 0.31 0.30 0.28 0.26 0.25 0.24 0.23 0.22 0.22 0.21 0.21 0.21 0.21 0.20 0.20 0.20 0.20 0.20 0.20 0.20 0.20 0.23 0.25
1.03 1.02 1.02 1.04 1.04 1.03 1.01 0.98 0.94 0.92 0.90 0.89 0.88 0.86 0.82 0.80 0.78 0.75 0.71 0.67 0.62 0.59 0.56 0.50 0.47 0.43 0.39 0.34 0.31 0.30 0.29 0.27 0.26 0.25 0.24 0.24 0.23 0.22 0.21 0.20 0.20 0.20 0.19 0.19 0.19 0.19 0.19 0.19 0.19 0.19 0.21 0.23
1.07 1.07 1.06 1.06 1.05 1.04 1.02 0.99 0.96 0.93 0.92 0.91 0.90 0.89 0.85 0.81 0.79 0.76 0.72 0.69 0.64 0.60 0.57 0.52 0.47 0.43 0.39 0.35 0.31 0.30 0.29 0.27 0.26 0.24 0.23 0.22 0.21 0.20 0.20 0.19 0.19 0.19 0.18 0.18 0.18 0.18 0.18 0.18 0.18 0.18 0.18 0.21
1.01 1.02 1.04 1.05 1.05 1.05 1.04 1.00 0.97 0.94 0.93 0.92 0.90 0.89 0.86 0.83 0.80 0.77 0.73 0.70 0.67 0.62 0.58 0.53 0.49 0.44 0.40 0.36 0.32 0.30 0.28 0.25 0.24 0.22 0.21 0.20 0.19 0.19 0.18 0.18 0.17 0.17 0.17 0.17 0.17 0.17 0.17 0.17 0.18 0.17 0.17 0.18
0.93 0.95 0.95 0.96 0.97 0.97 0.97 0.97 0.95 0.95 0.94 0.93 0.92 0.91 0.88 0.85 0.82 0.78 0.74 0.71 0.68 0.64 0.59 0.54 0.49 0.45 0.41 0.36 0.32 0.28 0.26 0.24 0.23 0.21 0.20 0.19 0.18 0.17 0.17 0.17 0.17 0.17 0.17 0.16 0.16 0.16 0.16 0.16 0.17 0.17 0.17 0.17
0.88 0.89 0.90 0.90 0.90 0.89 0.90 0.90 0.89 0.88 0.88 0.87 0.87 0.86 0.84 0.80 0.78 0.75 0.71 0.68 0.65 0.61 0.57 0.53 0.48 0.45 0.41 0.37 0.31 0.28 0.25 0.24 0.21 0.20 0.19 0.18 0.17 0.16 0.16 0.16 0.16 0.16 0.16 0.16 0.16 0.16 0.15 0.16 0.16 0.16 0.16 0.16
0.84 0.85 0.85 0.85 0.85 0.85 0.86 0.84 0.83 0.82 0.83 0.81 0.79 0.79 0.78 0.75 0.73 0.72 0.69 0.65 0.61 0.58 0.56 0.52 0.48 0.44 0.41 0.37 0.31 0.27 0.25 0.22 0.21 0.19 0.18 0.17 0.17 0.16 0.15 0.15 0.15 0.15 0.15 0.15 0.15 0.15 0.15 0.15 0.15 0.15 0.15 0.15
0.79 0.81 0.82 0.83 0.83 0.82 0.81 0.81 0.80 0.79 0.79 0.76 0.74 0.73 0.73 0.72 0.69 0.68 0.66 0.62 0.57 0.55 0.54 0.51 0.48 0.44 0.41 0.36 0.32 0.28 0.25 0.22 0.21 0.20 0.18 0.17 0.17 0.17 0.16 0.14 0.14 0.13 0.14 0.14 0.14 0.14 0.14 0.14 0.14 0.14 0.15 0.15
0.76 0.78 0.78 0.79 0.79 0.77 0.77 0.76 0.76 0.76 0.75 0.72 0.70 0.69 0.71 0.71 0.67 0.64 0.63 0.60 0.55 0.53 0.52 0.50 0.47 0.44 0.40 0.36 0.32 0.28 0.25 0.22 0.21 0.19 0.18 0.17 0.17 0.16 0.16 0.14 0.14 0.13 0.13 0.14 0.13 0.13 0.13 0.13 0.13 0.13 0.14 0.14
0.70 0.71 0.71 0.70 0.71 0.71 0.71 0.71 0.71 0.71 0.71 0.70 0.67 0.66 0.67 0.65 0.64 0.64 0.63 0.60 0.56 0.52 0.50 0.48 0.47 0.44 0.41 0.37 0.33 0.29 0.26 0.23 0.21 0.19 0.18 0.18 0.17 0.16 0.15 0.16 0.15 0.14 0.13 0.13 0.13 0.13 0.13 0.13 0.12 0.13 0.13 0.13
0.61 0.62 0.64 0.66 0.65 0.64 0.66 0.67 0.68 0.68 0.68 0.68 0.66 0.64 0.67 0.67 0.63 0.61 0.60 0.59 0.56 0.51 0.50 0.48 0.47 0.45 0.43 0.40 0.36 0.32 0.28 0.26 0.24 0.23 0.21 0.19 0.19 0.17 0.15 0.14 0.14 0.14 0.13 0.12 0.12 0.12 0.13 0.13 0.13 0.12 0.13 0.12
0.60 0.62 0.61 0.59 0.59 0.61 0.62 0.64 0.64 0.63 0.65 0.66 0.68 0.67 0.65 0.65 0.67 0.64 0.61 0.56 0.55 0.53 0.50 0.48 0.47 0.47 0.45 0.43 0.40 0.36 0.32 0.29 0.27 0.25 0.23 0.21 0.18 0.18 0.16 0.14 0.15 0.14 0.13 0.11 0.10 0.10 0.10 0.11 0.12 0.12 0.12 0.12
0.57 0.61 0.62 0.62 0.61 0.63 0.63 0.67 0.68 0.68 0.69 0.68 0.66 0.67 0.63 0.65 0.65 0.64 0.64 0.60 0.59 0.56 0.52 0.50 0.50 0.49 0.48 0.44 0.41 0.38 0.34 0.32 0.28 0.26 0.24 0.22 0.19 0.18 0.17 0.16 0.16 0.15 0.13 0.10 0.10 0.10 0.09 0.09 0.09 0.12 0.12 0.13
0.60 0.61 0.63 0.64 0.65 0.65 0.65 0.62 0.65 0.67 0.66 0.65 0.62 0.61 0.62 0.59 0.63 0.63 0.59 0.58 0.55 0.58 0.58 0.56 0.52 0.51 0.50 0.47 0.44 0.40 0.36 0.33 0.31 0.28 0.26 0.24 0.22 0.20 0.17 0.16 0.16 0.16 0.15 0.12 0.09 0.08 0.09 0.09 0.09 0.09 0.10 0.11
0.61 0.61 0.60 0.61 0.64 0.64 0.62 0.61 0.59 0.58 0.58 0.59 0.60 0.60 0.58 0.55 0.57 0.60 0.61 0.61 0.58 0.54 0.57 0.58 0.54 0.52 0.52 0.48 0.45 0.41 0.37 0.35 0.33 0.32 0.31 0.29 0.26 0.23 0.21 0.19 0.17 0.18 0.17 0.15 0.13 0.10 0.09 0.09 0.09 0.09 0.11 0.12
0.62 0.60 0.58 0.56 0.55 0.53 0.52 0.50 0.50 0.48 0.48 0.50 0.52 0.52 0.57 0.58 0.56 0.59 0.57 0.58 0.62 0.60 0.56 0.54 0.52 0.51 0.50 0.48 0.46 0.43 0.39 0.37 0.35 0.33 0.32 0.31 0.29 0.26 0.25 0.23 0.20 0.19 0.20 0.19 0.17 0.15 0.13 0.13 0.10 0.10 0.11 0.12
0.59 0.59 0.59 0.57 0.55 0.55 0.53 0.51 0.52 0.54 0.55 0.54 0.56 0.58 0.57 0.56 0.56 0.59 0.59 0.58 0.56 0.61 0.62 0.57 0.54 0.57 0.57 0.53 0.48 0.46 0.42 0.39 0.37 0.37 0.36 0.34 0.32 0.29 0.29 0.26 0.21 0.20 0.21 0.21 0.19 0.18 0.17 0.16 0.14 0.13 0.12 0.11

ECMWFFLT2_prec_pwat_129.txt.gz
Precipitable_Water
1.52 1.47 1.43 1.39 1.37 1.39 1.38 1.32 1.27 1.24 1.23 1.21 1.19 1.18 1.18 1.17 1.14 1.11 1.07 1.03 0.98 0.92 0.87 0.86 0.87 0.85 0.83 0.81 0.81 0.82 0.80 0.79 0.79 0.77 0.73 0.70 0.69 0.67 0.63 0.65 0.68 0.68 0.69 0.70 0.70 0.69 0.67 0.64 0.63 0.65 0.73 0.74
1.49 1.50 1.45 1.41 1.39 1.38 1.33 1.26 1.23 1.22 1.21 1.17 1.15 1.13 1.13 1.12 1.09 1.05 1.03 1.02 0.98 0.94 0.91 0.89 0.88 0.88 0.88 0.88 0.86 0.83 0.80 0.78 0.77 0.76 0.73 0.70 0.66 0.62 0.58 0.57 0.61 0.64 0.66 0.66 0.66 0.65 0.63 0.61 0.63 0.66 0.69 0.70
1.48 1.46 1.41 1.38 1.34 1.32 1.33 1.28 1.22 1.23 1.21 1.15 1.11 1.10 1.09 1.08 1.06 1.06 1.04 1.01 0.98 0.95 0.91 0.89 0.89 0.90 0.91 0.89 0.87 0.86 0.83 0.79 0.79 0.77 0.75 0.69 0.65 0.60 0.56 0.55 0.54 0.54 0.56 0.59 0.59 0.59 0.58 0.59 0.63 0.65 0.67 0.68
1.46 1.41 1.36 1.34 1.31 1.30 1.28 1.30 1.27 1.24 1.20 1.16 1.16 1.13 1.09 1.05 1.03 1.03 1.04 1.04 1.02 0.98 0.92 0.90 0.88 0.87 0.89 0.86 0.83 0.81 0.80 0.77 0.77 0.76 0.74 0.71 0.67 0.61 0.57 0.54 0.52 0.50 0.50 0.50 0.52 0.54 0.55 0.58 0.61 0.62 0.65 0.66
1.40 1.39 1.37 1.34 1.31 1.28 1.27 1.28 1.27 1.26 1.22 1.15 1.12 1.11 1.09 1.06 1.03 1.04 1.03 1.02 1.03 1.00 0.93 0.90 0.88 0.87 0.88 0.86 0.83 0.80 0.78 0.76 0.73 0.73 0.71 0.68 0.63 0.56 0.53 0.52 0.50 0.49 0.47 0.47 0.47 0.48 0.51 0.53 0.56 0.62 0.65 0.67
1.40 1.39 1.38 1.36 1.32 1.30 1.28 1.29 1.27 1.24 1.18 1.14 1.10 1.08 1.07 1.05 1.02 1.01 1.00 0.99 0.97 0.93 0.89 0.85 0.82 0.82 0.83 0.84 0.84 0.82 0.80 0.77 0.75 0.73 0.69 0.64 0.57 0.49 0.46 0.46 0.46 0.44 0.44 0.44 0.44 0.44 0.46 0.49 0.53 0.58 0.62 0.65
1.37 1.36 1.37 1.34 1.31 1.31 1.32 1.28 1.25 1.22 1.17 1.11 1.08 1.04 1.03 1.03 1.00 0.97 0.96 0.95 0.92 0.90 0.88 0.84 0.80 0.79 0.79 0.82 0.81 0.82 0.82 0.80 0.77 0.72 0.68 0.63 0.55 0.47 0.43 0.44 0.44 0.43 0.41 0.40 0.39 0.41 0.43 0.46 0.48 0.53 0.57 0.59
1.36 1.34 1.34 1.30 1.29 1.28 1.28 1.27 1.25 1.22 1.16 1.12 1.08 1.03 1.00 0.99 0.99 0.95 0.93 0.91 0.89 0.87 0.86 0.84 0.80 0.78 0.78 0.78 0.75 0.73 0.74 0.74 0.73 0.71 0.66 0.59 0.51 0.44 0.43 0.42 0.40 0.40 0.38 0.37 0.36 0.36 0.36 0.38 0.39 0.42 0.48 0.52
1.33 1.33 1.33 1.30 1.26 1.23 1.22 1.22 1.21 1.17 1.14 1.10 1.07 1.02 0.98 0.97 0.96 0.94 0.93 0.91 0.88 0.85 0.82 0.79 0.77 0.77 0.78 0.75 0.71 0.68 0.65 0.64 0.61 0.58 0.52 0.46 0.44 0.43 0.41 0.39 0.37 0.35 0.33 0.32 0.31 0.31 0.31 0.31 0.32 0.36 0.42 0.47
1.34 1.33 1.29 1.29 1.26 1.22 1.20 1.19 1.16 1.14 1.10 1.07 1.03 1.00 0.98 0.96 0.94 0.94 0.92 0.91 0.89 0.87 0.84 0.77 0.73 0.73 0.73 0.71 0.67 0.66 0.61 0.57 0.54 0.47 0.42 0.39 0.37 0.36 0.35 0.34 0.33 0.31 0.30 0.29 0.28 0.28 0.29 0.29 0.29 0.32 0.36 0.43
1.31 1.29 1.28 1.27 1.24 1.19 1.19 1.19 1.15 1.12 1.10 1.07 1.02 0.98 0.96 0.92 0.91 0.90 0.90 0.89 0.87 0.85 0.84 0.78 0.75 0.74 0.73 0.70 0.67 0.64 0.57 0.51 0.45 0.39 0.36 0.34 0.33 0.32 0.31 0.30 0.30 0.29 0.29 0.28 0.27 0.27 0.27 0.28 0.29 0.31 0.33 0.38
1.29 1.25 1.23 1.22 1.22 1.19 1.19 1.18 1.15 1.13 1.07 1.04 1.01 0.98 0.96 0.93 0.92 0.90 0.88 0.87 0.85 0.83 0.80 0.72 0.70 0.69 0.67 0.66 0.64 0.61 0.54 0.47 0.41 0.36 0.33 0.32 0.30 0.29 0.28 0.27 0.27 0.26 0.26 0.26 0.26 0.25 0.26 0.26 0.28 0.30 0.32 0.37
1.26 1.23 1.21 1.20 1.17 1.14 1.16 1.14 1.12 1.08 1.05 1.02 1.00 0.98 0.96 0.94 0.89 0.87 0.85 0.82 0.81 0.79 0.74 0.71 0.67 0.63 0.61 0.61 0.60 0.57 0.51 0.46 0.39 0.35 0.32 0.30 0.28 0.27 0.26 0.26 0.25 0.25 0.25 0.25 0.25 0.25 0.25 0.25 0.27 0.28 0.31 0.35
1.20 1.20 1.18 1.17 1.15 1.14 1.13 1.11 1.10 1.08 1.02 0.99 0.98 0.96 0.95 0.92 0.87 0.84 0.81 0.79 0.79 0.75 0.71 0.70 0.67 0.63 0.60 0.59 0.57 0.52 0.46 0.43 0.38 0.35 0.33 0.30 0.28 0.27 0.26 0.25 0.25 0.24 0.24 0.24 0.25 0.25 0.24 0.25 0.25 0.28 0.30 0.32
1.16 1.18 1.16 1.16 1.15 1.12 1.08 1.09 1.09 1.07 1.03 0.99 0.96 0.93 0.93 0.91 0.87 0.85 0.82 0.79 0.77 0.74 0.70 0.68 0.65 0.61 0.59 0.55 0.53 0.50 0.45 0.41 0.37 0.34 0.31 0.30 0.29 0.28 0.26 0.26 0.25 0.24 0.24 0.24 0.24 0.25 0.24 0.24 0.24 0.26 0.29 0.31
1.11 1.10 1.10 1.10 1.10 1.07 1.06 1.06 1.05 1.04 1.02 0.99 0.96 0.94 0.92 0.91 0.90 0.88 0.83 0.80 0.77 0.74 0.71 0.66 0.63 0.60 0.56 0.53 0.50 0.47 0.43 0.39 0.36 0.33 0.31 0.30 0.28 0.27 0.26 0.26 0.24 0.25 0.24 0.24 0.24 0.24 0.24 0.24 0.23 0.25 0.27 0.30
1.06 1.09 1.07 1.05 1.05 1.06 1.06 1.05 1.04 1.01 0.99 0.99 0.97 0.95 0.94 0.94 0.93 0.91 0.87 0.84 0.81 0.78 0.74 0.69 0.66 0.62 0.57 0.53 0.49 0.45 0.41 0.38 0.35 0.33 0.31 0.30 0.29 0.27 0.26 0.25 0.24 0.24 0.24 0.23 0.23 0.23 0.23 0.23 0.23 0.23 0.25 0.27
1.02 1.05 1.04 1.04 1.04 1.03 1.04 1.03 1.03 1.03 1.04 1.01 0.98 0.96 0.95 0.94 0.94 0.93 0.90 0.86 0.83 0.80 0.77 0.73 0.68 0.63 0.58 0.54 0.50 0.46 0.43 0.38 0.35 0.33 0.31 0.30 0.27 0.26 0.25 0.24 0.24 0.22 0.22 0.22 0.22 0.22 0.22 0.22 0.22 0.22 0.22 0.25
0.96 0.98 1.00 1.03 1.02 1.01 1.03 1.02 1.01 1.00 1.00 1.00 1.01 0.99 0.97 0.97 0.96 0.96 0.93 0.89 0.85 0.81 0.77 0.73 0.71 0.65 0.59 0.55 0.51 0.48 0.45 0.40 0.36 0.33 0.31 0.29 0.26 0.26 0.24 0.24 0.23 0.21 0.21 0.21 0.20 0.21 0.21 0.21 0.21 0.21 0.22 0.23
0.88 0.93 0.98 1.01 1.02 1.02 1.03 1.03 1.02 0.98 1.00 1.00 1.00 0.98 0.94 0.92 0.92 0.92 0.90 0.86 0.84 0.80 0.76 0.72 0.70 0.67 0.60 0.54 0.51 0.47 0.45 0.40 0.35 0.33 0.31 0.29 0.27 0.25 0.23 0.23 0.22 0.21 0.21 0.20 0.19 0.20 0.19 0.20 0.20 0.20 0.20 0.21
0.77 0.87 0.90 0.92 0.98 1.00 1.02 1.03 1.03 1.00 1.00 0.98 0.95 0.96 0.92 0.91 0.89 0.87 0.87 0.85 0.82 0.78 0.74 0.71 0.68 0.65 0.60 0.55 0.48 0.45 0.42 0.38 0.35 0.32 0.30 0.28 0.27 0.25 0.23 0.22 0.21 0.19 0.20 0.19 0.19 0.19 0.18 0.19 0.19 0.19 0.19 0.20
0.71 0.76 0.84 0.88 0.90 0.90 0.89 0.93 0.95 0.97 0.96 0.93 0.91 0.89 0.92 0.90 0.88 0.85 0.83 0.81 0.80 0.76 0.72 0.70 0.67 0.64 0.61 0.56 0.49 0.45 0.42 0.39 0.36 0.33 0.30 0.26 0.25 0.24 0.22 0.21 0.20 0.18 0.18 0.18 0.18 0.18 0.18 0.18 0.18 0.18 0.19 0.19
0.69 0.72 0.79 0.85 0.85 0.85 0.85 0.86 0.88 0.89 0.88 0.88 0.87 0.84 0.84 0.81 0.84 0.83 0.84 0.81 0.77 0.75 0.71 0.66 0.65 0.63 0.62 0.58 0.52 0.46 0.42 0.39 0.36 0.33 0.30 0.26 0.24 0.23 0.22 0.20 0.19 0.18 0.17 0.18 0.17 0.17 0.17 0.17 0.16 0.17 0.18 0.18
0.65 0.67 0.70 0.72 0.76 0.76 0.78 0.81 0.82 0.84 0.84 0.82 0.82 0.82 0.83 0.84 0.80 0.79 0.80 0.79 0.76 0.71 0.69 0.64 0.62 0.60 0.59 0.56 0.51 0.46 0.41 0.38 0.36 0.33 0.29 0.25 0.23 0.21 0.20 0.20 0.19 0.18 0.16 0.16 0.16 0.15 0.15 0.15 0.15 0.15 0.16 0.16
0.62 0.60 0.62 0.68 0.70 0.70 0.74 0.75 0.78 0.79 0.78 0.78 0.79 0.80 0.80 0.78 0.81 0.82 0.78 0.76 0.75 0.70 0.69 0.66 0.59 0.55 0.54 0.52 0.49 0.47 0.43 0.40 0.37 0.35 0.31 0.27 0.25 0.21 0.19 0.18 0.18 0.17 0.16 0.14 0.13 0.14 0.14 0.14 0.14 0.14 0.15 0.15
0.65 0.63 0.63 0.62 0.63 0.66 0.70 0.71 0.71 0.72 0.76 0.76 0.76 0.77 0.77 0.80 0.78 0.78 0.77 0.76 0.74 0.65 0.65 0.64 0.60 0.56 0.53 0.52 0.50 0.48 0.47 0.43 0.40 0.37 0.34 0.30 0.26 0.24 0.20 0.18 0.18 0.17 0.15 0.12 0.11 0.11 0.11 0.12 0.13 0.14 0.14 0.14
0.68 0.67 0.66 0.66 0.64 0.64 0.64 0.70 0.72 0.74 0.76 0.79 0.79 0.79 0.78 0.81 0.81 0.80 0.76 0.75 0.71 0.65 0.66 0.65 0.62 0.60 0.58 0.57 0.53 0.50 0.47 0.45 0.42 0.40 0.37 0.33 0.29 0.25 0.22 0.19 0.18 0.17 0.15 0.11 0.12 0.11 0.10 0.10 0.10 0.12 0.13 0.13
0.74 0.72 0.69 0.67 0.64 0.65 0.65 0.63 0.67 0.70 0.72 0.72 0.74 0.76 0.80 0.82 0.83 0.81 0.77 0.74 0.72 0.73 0.67 0.66 0.65 0.64 0.62 0.59 0.55 0.51 0.47 0.46 0.43 0.42 0.39 0.37 0.33 0.29 0.23 0.20 0.18 0.19 0.17 0.14 0.11 0.09 0.08 0.08 0.09 0.08 0.10 0.11
0.69 0.70 0.71 0.70 0.69 0.67 0.63 0.63 0.62 0.61 0.62 0.66 0.67 0.69 0.71 0.73 0.75 0.75 0.75 0.75 0.75 0.72 0.70 0.67 0.64 0.65 0.63 0.61 0.58 0.55 0.51 0.48 0.47 0.45 0.42 0.40 0.36 0.32 0.27 0.22 0.20 0.21 0.20 0.17 0.14 0.10 0.08 0.08 0.08 0.08 0.09 0.11
0.62 0.64 0.64 0.65 0.62 0.57 0.56 0.50 0.54 0.55 0.56 0.58 0.61 0.62 0.68 0.71 0.72 0.70 0.69 0.68 0.71 0.71 0.70 0.65 0.62 0.61 0.63 0.60 0.59 0.56 0.52 0.50 0.52 0.50 0.46 0.44 0.39 0.35 0.33 0.29 0.24 0.22 0.23 0.22 0.19 0.15 0.12 0.13 0.08 0.08 0.09 0.10
0.53 0.55 0.60 0.63 0.62 0.62 0.60 0.58 0.57 0.59 0.62 0.64 0.65 0.64 0.65 0.67 0.70 0.69 0.68 0.69 0.68 0.69 0.66 0.63 0.59 0.55 0.61 0.61 0.59 0.56 0.55 0.53 0.51 0.52 0.51 0.47 0.43 0.38 0.37 0.33 0.26 0.23 0.24 0.25 0.23 0.20 0.18 0.15 0.13 0.12 0.10 0.09

ECMWFFLT2_prec_pwat_135.txt.gz
Precipitable_Water
1.48 1.48 1.44 1.42 1.41 1.45 1.45 1.44 1.41 1.37 1.34 1.35 1.31 1.28 1.27 1.26 1.24 1.22 1.20 1.17 1.15 1.14 1.12 1.07 1.09 1.10 1.10 1.06 1.06 1.04 0.97 0.94 0.96 0.91 0.90 0.91 0.90 0.88 0.82 0.82 0.83 0.81 0.76 0.72 0.70 0.67 0.67 0.71 0.73 0.72 0.71 0.71
1.47 1.47 1.47 1.44 1.41 1.41 1.41 1.41 1.40 1.36 1.33 1.33 1.30 1.29 1.26 1.25 1.24 1.22 1.20 1.16 1.12 1.11 1.11 1.09 1.07 1.07 1.08 1.05 1.02 1.01 0.96 0.93 0.92 0.88 0.85 0.82 0.82 0.81 0.77 0.78 0.78 0.77 0.75 0.71 0.68 0.66 0.65 0.68 0.71 0.71 0.71 0.69
1.53 1.49 1.48 1.43 1.40 1.39 1.37 1.36 1.35 1.32 1.32 1.30 1.27 1.26 1.24 1.23 1.20 1.20 1.19 1.17 1.14 1.09 1.06 1.05 1.05 1.04 1.04 1.04 1.03 1.01 0.99 0.93 0.88 0.85 0.84 0.81 0.79 0.76 0.74 0.73 0.73 0.73 0.71 0.69 0.65 0.65 0.64 0.64 0.69 0.69 0.69 0.68
1.55 1.54 1.48 1.47 1.43 1.40 1.38 1.36 1.32 1.29 1.28 1.25 1.24 1.23 1.21 1.19 1.18 1.18 1.16 1.13 1.12 1.10 1.07 1.04 1.03 1.04 1.04 1.03 1.02 1.01 0.99 0.95 0.89 0.84 0.81 0.79 0.76 0.74 0.72 0.69 0.69 0.69 0.68 0.65 0.64 0.63 0.62 0.62 0.68 0.68 0.68 0.69
1.51 1.48 1.51 1.48 1.44 1.41 1.38 1.35 1.31 1.27 1.26 1.24 1.20 1.19 1.18 1.16 1.15 1.13 1.11 1.09 1.07 1.06 1.05 1.05 1.03 1.02 1.03 1.01 1.01 1.00 0.97 0.95 0.93 0.87 0.83 0.76 0.70 0.65 0.62 0.64 0.65 0.65 0.64 0.62 0.61 0.61 0.61 0.61 0.65 0.67 0.69 0.70
1.51 1.50 1.50 1.48 1.46 1.43 1.40 1.36 1.32 1.28 1.26 1.21 1.19 1.17 1.16 1.15 1.14 1.12 1.10 1.07 1.05 1.03 1.02 1.03 1.03 1.04 1.04 1.01 0.98 0.97 0.96 0.96 0.95 0.90 0.85 0.73 0.67 0.63 0.60 0.58 0.60 0.60 0.60 0.59 0.58 0.59 0.59 0.59 0.63 0.66 0.68 0.69
1.47 1.50 1.51 1.49 1.47 1.44 1.40 1.35 1.32 1.31 1.26 1.21 1.18 1.15 1.16 1.15 1.14 1.12 1.10 1.07 1.04 1.01 1.00 1.01 1.03 1.04 1.05 1.04 1.00 0.98 0.97 0.98 0.97 0.93 0.85 0.70 0.64 0.64 0.62 0.60 0.58 0.58 0.59 0.57 0.55 0.55 0.56 0.57 0.60 0.64 0.66 0.68
1.43 1.47 1.49 1.47 1.46 1.44 1.37 1.34 1.33 1.31 1.27 1.21 1.17 1.14 1.15 1.15 1.14 1.12 1.09 1.06 1.03 1.00 1.00 1.01 1.02 1.03 1.04 1.03 1.01 1.00 0.97 0.95 0.95 0.95 0.86 0.73 0.67 0.63 0.61 0.59 0.59 0.59 0.58 0.56 0.56 0.56 0.53 0.54 0.56 0.60 0.63 0.66
1.32 1.42 1.46 1.46 1.45 1.43 1.38 1.35 1.33 1.31 1.27 1.22 1.18 1.16 1.14 1.15 1.14 1.10 1.07 1.05 1.02 0.98 0.98 0.97 0.97 0.99 1.01 1.01 0.99 0.98 0.97 0.96 0.94 0.90 0.80 0.71 0.67 0.65 0.62 0.59 0.58 0.57 0.56 0.57 0.57 0.57 0.57 0.60 0.60 0.62 0.64 0.65
1.25 1.32 1.35 1.38 1.39 1.39 1.36 1.34 1.32 1.31 1.27 1.22 1.19 1.17 1.16 1.15 1.12 1.09 1.05 1.03 1.01 0.98 0.94 0.92 0.93 0.95 0.97 0.99 0.99 0.99 0.96 0.95 0.93 0.89 0.75 0.68 0.68 0.67 0.65 0.62 0.60 0.59 0.59 0.58 0.58 0.59 0.60 0.64 0.68 0.70 0.71 0.71
1.20 1.23 1.28 1.30 1.34 1.33 1.33 1.33 1.28 1.26 1.25 1.23 1.20 1.18 1.16 1.13 1.11 1.09 1.06 1.03 1.00 0.94 0.93 0.89 0.90 0.90 0.92 0.93 0.94 0.96 0.94 0.94 0.94 0.87 0.73 0.70 0.69 0.68 0.65 0.63 0.62 0.62 0.63 0.64 0.62 0.62 0.62 0.64 0.68 0.71 0.73 0.74
1.09 1.17 1.24 1.27 1.31 1.29 1.30 1.29 1.25 1.25 1.25 1.23 1.20 1.19 1.17 1.15 1.12 1.09 1.07 1.03 1.00 0.94 0.91 0.86 0.88 0.88 0.88 0.88 0.88 0.89 0.87 0.84 0.84 0.81 0.72 0.71 0.70 0.68 0.66 0.63 0.62 0.62 0.64 0.66 0.67 0.66 0.65 0.67 0.70 0.73 0.74 0.77
1.06 1.11 1.15 1.22 1.22 1.25 1.30 1.27 1.25 1.25 1.23 1.20 1.20 1.18 1.16 1.14 1.10 1.09 1.07 1.04 1.01 0.97 0.92 0.87 0.85 0.85 0.85 0.85 0.84 0.83 0.80 0.77 0.72 0.68 0.64 0.65 0.64 0.63 0.62 0.62 0.61 0.60 0.59 0.61 0.63 0.63 0.64 0.65 0.68 0.72 0.73 0.74
0.95 1.04 1.08 1.10 1.13 1.16 1.25 1.26 1.27 1.26 1.21 1.19 1.18 1.16 1.15 1.13 1.09 1.07 1.05 1.03 1.02 0.97 0.94 0.91 0.87 0.85 0.84 0.84 0.82 0.79 0.74 0.71 0.66 0.60 0.59 0.59 0.59 0.57 0.56 0.54 0.54 0.53 0.53 0.54 0.55 0.55 0.56 0.57 0.58 0.63 0.67 0.66
0.88 0.96 1.01 1.07 1.09 1.11 1.14 1.23 1.26 1.24 1.20 1.18 1.10 1.09 1.11 1.09 1.06 1.06 1.06 1.03 1.01 0.97 0.94 0.92 0.89 0.85 0.86 0.83 0.81 0.78 0.73 0.68 0.63 0.59 0.57 0.56 0.55 0.53 0.51 0.49 0.48 0.47 0.46 0.47 0.47 0.47 0.46 0.46 0.48 0.51 0.58 0.59
0.81 0.86 0.95 1.00 1.04 1.10 1.09 1.12 1.16 1.21 1.21 1.18 1.12 1.09 1.08 1.06 1.04 1.04 1.04 1.03 1.00 0.97 0.93 0.91 0.90 0.87 0.82 0.78 0.76 0.73 0.69 0.64 0.61 0.57 0.55 0.54 0.52 0.51 0.49 0.48 0.46 0.44 0.42 0.40 0.40 0.41 0.40 0.40 0.40 0.42 0.47 0.52
0.75 0.80 0.89 0.95 0.97 1.02 1.06 1.11 1.12 1.14 1.19 1.18 1.14 1.11 1.06 1.02 1.01 1.00 0.98 0.98 0.98 0.95 0.93 0.91 0.89 0.87 0.83 0.78 0.74 0.70 0.66 0.62 0.59 0.56 0.53 0.50 0.49 0.48 0.47 0.45 0.45 0.44 0.42 0.39 0.38 0.37 0.37 0.37 0.37 0.38 0.41 0.45
0.75 0.74 0.81 0.88 0.95 0.98 1.00 1.02 1.03 1.10 1.17 1.17 1.16 1.13 1.08 1.03 1.00 0.96 0.96 0.96 0.95 0.93 0.91 0.90 0.88 0.86 0.83 0.80 0.76 0.73 0.69 0.65 0.61 0.57 0.53 0.50 0.48 0.47 0.45 0.43 0.42 0.40 0.39 0.39 0.38 0.36 0.35 0.36 0.37 0.38 0.39 0.41
0.80 0.72 0.74 0.79 0.83 0.93 0.96 0.98 1.01 1.05 1.12 1.14 1.14 1.15 1.11 1.07 1.03 1.01 0.98 0.96 0.93 0.91 0.89 0.88 0.87 0.85 0.84 0.82 0.78 0.75 0.72 0.68 0.64 0.62 0.59 0.56 0.52 0.51 0.48 0.45 0.43 0.40 0.38 0.37 0.36 0.35 0.35 0.33 0.33 0.35 0.36 0.39
0.92 0.84 0.78 0.75 0.77 0.78 0.88 0.95 0.95 0.98 1.03 1.09 1.09 1.11 1.10 1.09 1.07 1.05 1.01 0.95 0.94 0.93 0.93 0.91 0.88 0.88 0.87 0.84 0.80 0.77 0.74 0.71 0.66 0.61 0.57 0.54 0.51 0.49 0.47 0.45 0.43 0.42 0.39 0.37 0.35 0.34 0.34 0.33 0.32 0.32 0.32 0.33
0.89 0.96 0.88 0.81 0.77 0.75 0.73 0.83 0.92 0.93 0.94 1.00 1.05 1.07 1.05 1.05 1.05 1.04 1.01 1.00 0.98 0.97 0.94 0.93 0.92 0.91 0.89 0.86 0.83 0.80 0.76 0.72 0.67 0.61 0.56 0.53 0.50 0.48 0.45 0.44 0.41 0.40 0.38 0.37 0.35 0.33 0.31 0.30 0.30 0.30 0.30 0.30
0.78 0.88 0.96 0.96 0.88 0.81 0.77 0.75 0.79 0.87 0.89 0.91 0.92 0.96 0.99 0.99 1.02 1.01 1.00 1.02 1.00 0.97 0.97 0.96 0.94 0.93 0.92 0.88 0.84 0.81 0.77 0.73 0.69 0.64 0.58 0.52 0.49 0.47 0.45 0.43 0.40 0.38 0.37 0.35 0.33 0.32 0.31 0.30 0.29 0.28 0.29 0.29
0.71 0.77 0.84 0.87 0.91 0.93 0.85 0.83 0.84 0.86 0.89 0.93 0.93 0.94 0.96 0.97 0.97 0.98 0.98 0.98 0.97 0.94 0.95 0.94 0.93 0.92 0.90 0.88 0.84 0.80 0.76 0.72 0.69 0.65 0.59 0.54 0.50 0.47 0.45 0.42 0.40 0.37 0.35 0.33 0.32 0.31 0.31 0.31 0.30 0.29 0.28 0.29
0.65 0.69 0.71 0.72 0.81 0.82 0.87 0.90 0.84 0.84 0.84 0.86 0.86 0.87 0.88 0.91 0.92 0.93 0.94 0.94 0.94 0.94 0.93 0.91 0.91 0.89 0.87 0.85 0.83 0.79 0.75 0.72 0.69 0.64 0.59 0.55 0.52 0.48 0.46 0.43 0.40 0.37 0.35 0.33 0.31 0.30 0.30 0.30 0.30 0.29 0.29 0.29
0.59 0.61 0.64 0.69 0.69 0.72 0.78 0.80 0.85 0.86 0.87 0.84 0.82 0.81 0.82 0.84 0.85 0.88 0.87 0.88 0.90 0.91 0.91 0.89 0.88 0.87 0.86 0.83 0.80 0.78 0.75 0.74 0.71 0.67 0.62 0.58 0.54 0.48 0.44 0.42 0.39 0.37 0.35 0.33 0.31 0.30 0.29 0.28 0.29 0.28 0.29 0.28
0.54 0.57 0.58 0.61 0.64 0.68 0.73 0.77 0.78 0.79 0.86 0.88 0.86 0.82 0.80 0.80 0.82 0.85 0.85 0.84 0.85 0.86 0.88 0.86 0.85 0.84 0.83 0.81 0.78 0.76 0.74 0.72 0.70 0.68 0.63 0.58 0.52 0.49 0.45 0.42 0.39 0.35 0.32 0.30 0.29 0.28 0.27 0.27 0.27 0.27 0.27 0.26
0.51 0.54 0.57 0.59 0.60 0.63 0.67 0.72 0.74 0.76 0.79 0.83 0.84 0.85 0.83 0.78 0.77 0.81 0.82 0.82 0.81 0.80 0.81 0.82 0.81 0.81 0.82 0.79 0.76 0.73 0.71 0.68 0.65 0.64 0.62 0.59 0.55 0.52 0.50 0.46 0.42 0.36 0.33 0.28 0.27 0.26 0.23 0.21 0.21 0.23 0.24 0.25
0.41 0.48 0.53 0.57 0.59 0.61 0.64 0.65 0.70 0.71 0.72 0.72 0.72 0.75 0.80 0.81 0.77 0.78 0.81 0.80 0.80 0.82 0.81 0.80 0.78 0.79 0.78 0.78 0.76 0.74 0.71 0.67 0.63 0.62 0.61 0.59 0.57 0.54 0.50 0.47 0.45 0.43 0.39 0.33 0.27 0.22 0.21 0.21 0.19 0.17 0.19 0.19
0.32 0.33 0.36 0.43 0.50 0.55 0.58 0.61 0.63 0.64 0.65 0.66 0.68 0.69 0.70 0.73 0.76 0.75 0.78 0.79 0.78 0.78 0.78 0.79 0.77 0.75 0.74 0.74 0.73 0.72 0.70 0.68 0.64 0.62 0.60 0.60 0.58 0.55 0.52 0.50 0.48 0.46 0.44 0.39 0.32 0.27 0.22 0.19 0.17 0.16 0.17 0.17
0.30 0.30 0.30 0.30 0.30 0.32 0.41 0.46 0.50 0.52 0.55 0.58 0.59 0.60 0.65 0.70 0.73 0.72 0.72 0.76 0.77 0.77 0.77 0.76 0.76 0.74 0.72 0.70 0.70 0.70 0.69 0.68 0.66 0.64 0.63 0.60 0.57 0.55 0.54 0.52 0.50 0.47 0.47 0.44 0.39 0.32 0.27 0.23 0.18 0.17 0.17 0.15
0.27 0.29 0.30 0.29 0.29 0.30 0.31 0.31 0.38 0.46 0.51 0.55 0.58 0.59 0.59 0.60 0.64 0.71 0.71 0.70 0.72 0.73 0.74 0.75 0.74 0.73 0.71 0.70 0.70 0.69 0.67 0.65 0.65 0.67 0.67 0.66 0.60 0.56 0.54 0.51 0.48 0.47 0.48 0.47 0.42 0.37 0.33 0.29 0.26 0.23 0.20 0.17

ECMWFFLT2_prec_pwat_138.txt.gz
Precipitable_Water
1.43 1.47 1.61 1.63 1.58 1.64 1.62 1.60 1.56 1.50 1.45 1.42 1.34 1.29 1.32 1.30 1.28 1.29 1.28 1.27 1.26 1.22 1.24 1.21 1.19 1.19 1.14 1.10 1.12 1.13 1.15 1.17 1.14 1.10 1.11 1.12 1.10 1.05 1.00 0.96 0.93 0.89 0.86 0.85 0.83 0.82 0.82 0.81 0.79 0.78 0.78 0.78
1.42 1.44 1.51 1.55 1.53 1.55 1.55 1.51 1.42 1.37 1.34 1.33 1.29 1.29 1.30 1.31 1.29 1.28 1.27 1.25 1.23 1.23 1.22 1.19 1.16 1.13 1.12 1.11 1.08 1.09 1.10 1.13 1.12 1.13 1.13 1.11 1.06 1.01 0.98 0.94 0.89 0.86 0.82 0.80 0.80 0.80 0.80 0.79 0.78 0.77 0.76 0.76
1.44 1.44 1.46 1.48 1.48 1.46 1.49 1.49 1.40 1.38 1.33 1.33 1.28 1.27 1.27 1.26 1.26 1.25 1.25 1.26 1.26 1.20 1.19 1.16 1.12 1.07 1.08 1.06 1.04 1.06 1.06 1.06 1.07 1.08 1.09 1.08 1.03 1.02 0.98 0.94 0.89 0.82 0.80 0.78 0.77 0.76 0.76 0.77 0.77 0.76 0.74 0.74
1.44 1.50 1.54 1.48 1.44 1.48 1.49 1.42 1.39 1.38 1.36 1.33 1.28 1.26 1.22 1.20 1.20 1.21 1.23 1.24 1.25 1.18 1.14 1.10 1.07 1.05 1.04 1.04 1.03 1.05 1.02 1.00 0.98 0.98 0.98 1.01 1.00 0.97 0.95 0.92 0.86 0.80 0.78 0.75 0.74 0.73 0.72 0.74 0.74 0.72 0.72 0.72
1.41 1.46 1.46 1.42 1.42 1.45 1.43 1.43 1.40 1.38 1.35 1.34 1.29 1.25 1.20 1.18 1.18 1.19 1.20 1.22 1.19 1.15 1.13 1.12 1.09 1.07 1.03 1.02 1.01 1.02 1.02 0.99 0.96 0.93 0.91 0.92 0.92 0.89 0.84 0.83 0.82 0.78 0.76 0.74 0.71 0.69 0.69 0.69 0.68 0.70 0.71 0.72
1.38 1.42 1.43 1.44 1.44 1.43 1.45 1.45 1.43 1.39 1.36 1.33 1.29 1.23 1.21 1.20 1.19 1.19 1.18 1.16 1.15 1.13 1.12 1.11 1.10 1.08 1.06 1.02 1.00 0.99 0.99 0.98 0.98 0.95 0.92 0.86 0.82 0.81 0.77 0.75 0.73 0.74 0.75 0.74 0.73 0.68 0.67 0.67 0.65 0.66 0.68 0.70
1.34 1.39 1.37 1.39 1.46 1.48 1.48 1.42 1.42 1.39 1.35 1.31 1.28 1.25 1.22 1.21 1.19 1.16 1.15 1.12 1.11 1.09 1.07 1.08 1.09 1.08 1.08 1.08 1.04 0.98 0.96 0.95 0.96 0.95 0.91 0.86 0.80 0.75 0.72 0.71 0.70 0.70 0.71 0.72 0.72 0.67 0.65 0.65 0.66 0.65 0.65 0.66
1.22 1.26 1.36 1.39 1.42 1.46 1.45 1.43 1.41 1.37 1.34 1.30 1.26 1.24 1.22 1.18 1.18 1.16 1.14 1.12 1.08 1.06 1.05 1.06 1.06 1.06 1.06 1.06 1.05 1.03 0.96 0.94 0.94 0.92 0.86 0.84 0.82 0.76 0.72 0.71 0.71 0.71 0.71 0.71 0.71 0.68 0.65 0.63 0.64 0.64 0.64 0.65
1.11 1.19 1.29 1.34 1.39 1.41 1.41 1.41 1.38 1.35 1.30 1.29 1.26 1.24 1.21 1.19 1.19 1.16 1.14 1.11 1.08 1.05 1.04 1.04 1.04 1.03 1.03 1.04 1.03 1.02 0.99 0.97 0.93 0.87 0.79 0.77 0.76 0.74 0.72 0.71 0.71 0.72 0.71 0.72 0.70 0.67 0.64 0.65 0.65 0.64 0.63 0.64
1.01 1.12 1.14 1.20 1.31 1.33 1.36 1.37 1.37 1.35 1.32 1.29 1.26 1.23 1.21 1.19 1.18 1.15 1.13 1.11 1.07 1.06 1.06 1.03 1.01 1.00 1.00 0.99 0.98 1.00 0.98 0.98 0.94 0.85 0.75 0.72 0.73 0.73 0.74 0.72 0.71 0.70 0.71 0.70 0.71 0.71 0.70 0.69 0.69 0.69 0.67 0.66
0.95 0.97 1.09 1.21 1.24 1.25 1.29 1.33 1.28 1.28 1.27 1.26 1.26 1.22 1.19 1.14 1.15 1.15 1.13 1.11 1.08 1.06 1.07 1.05 1.03 0.98 0.97 0.95 0.95 0.97 0.97 0.95 0.93 0.87 0.77 0.74 0.73 0.73 0.74 0.74 0.74 0.72 0.71 0.71 0.70 0.70 0.71 0.72 0.73 0.74 0.73 0.72
0.87 0.90 0.96 1.05 1.13 1.16 1.19 1.25 1.19 1.21 1.25 1.27 1.23 1.20 1.18 1.16 1.14 1.13 1.11 1.09 1.08 1.06 1.06 1.05 1.04 1.01 0.95 0.92 0.92 0.93 0.94 0.91 0.89 0.86 0.78 0.78 0.76 0.74 0.74 0.73 0.72 0.72 0.71 0.71 0.70 0.68 0.69 0.71 0.72 0.73 0.74 0.75
0.86 0.87 0.89 0.95 1.03 1.10 1.16 1.17 1.21 1.24 1.23 1.22 1.21 1.19 1.17 1.15 1.12 1.13 1.11 1.08 1.06 1.06 1.04 1.04 1.03 1.01 0.96 0.91 0.89 0.90 0.89 0.87 0.83 0.76 0.70 0.73 0.75 0.77 0.77 0.74 0.72 0.71 0.70 0.69 0.69 0.69 0.70 0.71 0.74 0.74 0.75 0.76
0.86 0.85 0.84 0.86 0.94 1.02 1.07 1.06 1.06 1.17 1.16 1.21 1.19 1.17 1.16 1.16 1.13 1.11 1.09 1.08 1.08 1.06 1.04 1.04 1.02 1.00 0.96 0.92 0.90 0.88 0.85 0.85 0.79 0.72 0.66 0.66 0.67 0.68 0.70 0.72 0.73 0.72 0.70 0.70 0.69 0.69 0.71 0.74 0.76 0.77 0.76 0.77
0.89 0.87 0.82 0.85 0.86 0.93 0.98 1.04 1.09 1.04 1.06 1.12 1.12 1.13 1.15 1.15 1.12 1.10 1.09 1.08 1.07 1.05 1.04 1.03 1.01 0.99 0.97 0.92 0.90 0.87 0.85 0.83 0.77 0.71 0.64 0.62 0.62 0.63 0.63 0.64 0.66 0.67 0.68 0.68 0.67 0.67 0.67 0.70 0.74 0.75 0.75 0.76
0.98 0.92 0.85 0.82 0.81 0.83 0.94 1.01 1.03 1.05 1.05 1.07 1.10 1.13 1.15 1.11 1.08 1.08 1.09 1.07 1.05 1.01 1.01 1.00 0.99 0.98 0.96 0.93 0.91 0.88 0.85 0.80 0.75 0.70 0.62 0.57 0.57 0.57 0.58 0.59 0.60 0.62 0.63 0.64 0.65 0.64 0.63 0.65 0.69 0.72 0.73 0.73
0.89 1.02 0.96 0.82 0.80 0.79 0.87 0.92 0.98 1.04 1.09 1.09 1.09 1.12 1.14 1.11 1.10 1.10 1.07 1.07 1.03 1.01 0.99 0.97 0.95 0.94 0.93 0.94 0.93 0.90 0.86 0.82 0.76 0.69 0.60 0.55 0.53 0.52 0.51 0.52 0.53 0.56 0.57 0.59 0.60 0.60 0.59 0.59 0.61 0.68 0.71 0.71
0.79 0.86 0.97 0.99 0.85 0.81 0.79 0.86 0.92 0.93 1.00 1.04 1.05 1.03 1.06 1.09 1.12 1.09 1.09 1.07 1.05 1.02 0.98 0.95 0.93 0.91 0.91 0.92 0.90 0.88 0.83 0.77 0.72 0.65 0.58 0.55 0.53 0.51 0.49 0.48 0.49 0.49 0.50 0.51 0.54 0.55 0.56 0.56 0.56 0.60 0.65 0.67
0.75 0.79 0.88 0.94 0.97 0.91 0.80 0.79 0.83 0.92 0.95 0.96 1.03 1.06 1.08 1.08 1.09 1.09 1.07 1.07 1.05 1.03 1.00 0.96 0.93 0.92 0.90 0.90 0.89 0.86 0.82 0.76 0.70 0.62 0.56 0.55 0.52 0.51 0.49 0.48 0.48 0.47 0.46 0.46 0.47 0.49 0.51 0.52 0.54 0.55 0.58 0.63
0.71 0.74 0.79 0.87 0.93 0.94 0.94 0.85 0.80 0.81 0.84 0.94 0.96 0.96 0.95 1.00 1.01 1.02 1.06 1.06 1.06 1.02 1.01 0.98 0.95 0.94 0.94 0.92 0.89 0.86 0.83 0.78 0.72 0.66 0.61 0.60 0.57 0.53 0.51 0.49 0.47 0.46 0.45 0.44 0.44 0.44 0.45 0.46 0.48 0.51 0.53 0.57
0.64 0.70 0.73 0.78 0.84 0.90 0.91 0.90 0.90 0.83 0.80 0.84 0.89 0.97 0.97 0.98 1.02 1.05 1.05 1.05 1.03 1.02 1.00 0.99 0.97 0.97 0.96 0.94 0.91 0.87 0.83 0.79 0.75 0.69 0.65 0.62 0.59 0.56 0.52 0.50 0.46 0.44 0.43 0.41 0.41 0.41 0.40 0.40 0.40 0.40 0.43 0.48
0.61 0.66 0.70 0.74 0.80 0.83 0.85 0.87 0.88 0.88 0.89 0.85 0.82 0.85 0.90 0.95 0.99 0.97 1.02 1.02 1.00 1.00 1.01 0.99 0.97 0.96 0.96 0.94 0.91 0.88 0.85 0.81 0.77 0.73 0.69 0.65 0.63 0.59 0.54 0.51 0.47 0.45 0.42 0.40 0.38 0.38 0.38 0.38 0.38 0.37 0.36 0.38
0.59 0.62 0.68 0.70 0.74 0.75 0.78 0.84 0.87 0.88 0.88 0.84 0.84 0.85 0.86 0.91 0.97 0.98 0.97 0.96 0.95 0.97 0.98 0.96 0.96 0.95 0.95 0.94 0.91 0.88 0.86 0.83 0.80 0.76 0.73 0.70 0.66 0.62 0.57 0.52 0.49 0.46 0.43 0.40 0.38 0.36 0.35 0.35 0.35 0.36 0.37 0.36
0.55 0.57 0.61 0.65 0.67 0.71 0.75 0.76 0.81 0.85 0.84 0.83 0.82 0.82 0.84 0.85 0.89 0.92 0.92 0.92 0.91 0.92 0.93 0.93 0.93 0.92 0.92 0.91 0.89 0.86 0.83 0.82 0.82 0.79 0.77 0.74 0.70 0.64 0.59 0.56 0.53 0.50 0.46 0.42 0.38 0.35 0.33 0.33 0.33 0.34 0.35 0.36
0.51 0.52 0.53 0.58 0.59 0.59 0.64 0.68 0.71 0.77 0.81 0.82 0.83 0.82 0.83 0.85 0.84 0.84 0.87 0.88 0.88 0.86 0.86 0.87 0.88 0.87 0.86 0.87 0.87 0.86 0.84 0.84 0.83 0.82 0.78 0.75 0.71 0.67 0.62 0.58 0.56 0.53 0.50 0.43 0.39 0.37 0.34 0.32 0.32 0.31 0.32 0.33
0.42 0.46 0.48 0.49 0.54 0.61 0.62 0.61 0.64 0.64 0.73 0.77 0.79 0.80 0.81 0.82 0.83 0.83 0.81 0.83 0.85 0.86 0.84 0.82 0.82 0.82 0.82 0.82 0.82 0.84 0.83 0.83 0.82 0.80 0.77 0.75 0.70 0.68 0.63 0.60 0.57 0.55 0.52 0.46 0.43 0.40 0.36 0.33 0.31 0.30 0.29 0.29
0.30 0.36 0.42 0.44 0.43 0.50 0.56 0.62 0.64 0.67 0.66 0.67 0.68 0.73 0.78 0.80 0.81 0.82 0.82 0.82 0.81 0.80 0.82 0.81 0.80 0.79 0.80 0.80 0.79 0.78 0.78 0.79 0.78 0.77 0.75 0.74 0.70 0.66 0.63 0.59 0.58 0.55 0.53 0.48 0.46 0.42 0.35 0.31 0.29 0.28 0.28 0.27
0.25 0.26 0.28 0.32 0.36 0.38 0.43 0.49 0.51 0.61 0.67 0.69 0.69 0.68 0.68 0.75 0.78 0.79 0.79 0.80 0.79 0.80 0.79 0.77 0.75 0.76 0.76 0.75 0.75 0.74 0.72 0.74 0.76 0.75 0.73 0.72 0.69 0.67 0.60 0.58 0.57 0.57 0.54 0.50 0.47 0.40 0.37 0.35 0.31 0.25 0.25 0.25
0.24 0.24 0.24 0.25 0.26 0.28 0.31 0.36 0.39 0.41 0.50 0.56 0.61 0.66 0.69 0.67 0.69 0.75 0.76 0.76 0.76 0.75 0.76 0.77 0.76 0.73 0.73 0.73 0.72 0.72 0.70 0.69 0.72 0.74 0.73 0.71 0.68 0.67 0.64 0.58 0.55 0.54 0.54 0.51 0.50 0.45 0.40 0.35 0.32 0.30 0.30 0.28
0.20 0.21 0.21 0.22 0.22 0.22 0.23 0.23 0.26 0.29 0.34 0.37 0.40 0.48 0.57 0.64 0.68 0.68 0.69 0.72 0.73 0.74 0.74 0.72 0.73 0.73 0.72 0.71 0.71 0.69 0.69 0.69 0.69 0.69 0.69 0.70 0.68 0.66 0.68 0.63 0.56 0.51 0.52 0.52 0.51 0.48 0.45 0.39 0.34 0.34 0.34 0.30
0.18 0.18 0.19 0.19 0.20 0.21 0.21 0.22 0.23 0.26 0.28 0.30 0.34 0.37 0.41 0.45 0.54 0.62 0.65 0.67 0.68 0.69 0.71 0.72 0.72 0.70 0.69 0.70 0.70 0.69 0.67 0.66 0.65 0.66 0.66 0.68 0.66 0.65 0.64 0.63 0.59 0.56 0.53 0.51 0.50 0.48 0.46 0.43 0.41 0.39 0.36 0.32

ECMWFFLT2_prec_pwat_141.txt.gz
Precipitable_Water
1.28 1.30 1.32 1.35 1.39 1.41 1.42 1.40 1.46 1.41 1.40 1.42 1.43 1.38 1.39 1.37 1.36 1.36 1.33 1.38 1.36 1.33 1.31 1.31 1.29 1.29 1.29 1.33 1.33 1.34 1.34 1.31 1.28 1.24 1.21 1.19 1.19 1.15 1.10 1.08 1.06 1.07 1.09 1.09 1.07 1.03 1.01 0.97 0.91 0.85 0.84 0.80
1.25 1.28 1.29 1.30 1.33 1.38 1.55 1.54 1.46 1.43 1.44 1.42 1.43 1.41 1.39 1.36 1.35 1.34 1.35 1.38 1.36 1.33 1.31 1.31 1.32 1.30 1.29 1.30 1.30 1.31 1.30 1.25 1.25 1.21 1.18 1.16 1.19 1.15 1.11 1.07 1.07 1.07 1.08 1.09 1.07 1.05 1.00 0.96 0.89 0.83 0.80 0.78
1.18 1.23 1.29 1.34 1.36 1.48 1.50 1.48 1.51 1.49 1.45 1.42 1.45 1.45 1.43 1.39 1.34 1.37 1.35 1.35 1.31 1.29 1.29 1.29 1.26 1.25 1.24 1.26 1.25 1.26 1.25 1.24 1.21 1.21 1.17 1.16 1.14 1.13 1.09 1.07 1.07 1.05 1.03 1.04 1.04 1.02 0.99 0.93 0.87 0.81 0.77 0.75
1.10 1.16 1.27 1.36 1.46 1.41 1.52 1.51 1.42 1.38 1.41 1.44 1.41 1.39 1.35 1.35 1.35 1.36 1.34 1.28 1.21 1.20 1.23 1.23 1.22 1.19 1.18 1.18 1.18 1.20 1.18 1.17 1.16 1.17 1.17 1.16 1.13 1.09 1.08 1.07 1.08 1.05 1.03 1.03 1.00 0.98 0.97 0.91 0.87 0.81 0.77 0.74
1.11 1.20 1.25 1.30 1.42 1.43 1.38 1.44 1.45 1.44 1.40 1.35 1.33 1.36 1.34 1.35 1.33 1.31 1.29 1.20 1.17 1.21 1.16 1.14 1.11 1.08 1.06 1.04 1.08 1.10 1.13 1.09 1.09 1.11 1.12 1.11 1.10 1.06 1.06 1.06 1.06 1.04 1.01 1.02 0.99 0.95 0.93 0.90 0.88 0.85 0.79 0.74
1.07 1.17 1.24 1.22 1.29 1.38 1.43 1.43 1.42 1.40 1.39 1.37 1.36 1.36 1.32 1.30 1.30 1.29 1.26 1.22 1.18 1.21 1.15 1.12 1.07 1.06 1.05 1.07 1.10 1.09 1.11 1.07 1.05 1.02 1.02 1.07 1.05 1.03 1.00 0.99 1.01 1.01 0.98 0.97 0.96 0.94 0.91 0.87 0.86 0.85 0.83 0.78
0.98 1.09 1.20 1.25 1.22 1.31 1.39 1.39 1.43 1.43 1.40 1.37 1.35 1.35 1.30 1.29 1.29 1.28 1.27 1.25 1.22 1.20 1.16 1.13 1.11 1.09 1.07 1.08 1.09 1.06 1.05 1.05 1.03 1.00 0.98 0.95 0.92 0.95 0.93 0.89 0.91 0.92 0.91 0.90 0.90 0.89 0.87 0.85 0.82 0.82 0.82 0.81
0.93 0.97 1.06 1.19 1.31 1.34 1.29 1.29 1.33 1.35 1.36 1.34 1.35 1.32 1.31 1.30 1.27 1.27 1.25 1.24 1.23 1.19 1.16 1.13 1.12 1.13 1.11 1.10 1.09 1.03 1.02 1.00 1.00 0.98 1.00 0.91 0.84 0.86 0.82 0.81 0.82 0.82 0.82 0.83 0.84 0.83 0.83 0.82 0.81 0.79 0.79 0.80
0.90 0.94 0.97 1.06 1.23 1.28 1.27 1.28 1.30 1.31 1.33 1.33 1.33 1.32 1.29 1.28 1.26 1.25 1.24 1.22 1.19 1.17 1.16 1.13 1.11 1.13 1.12 1.10 1.08 1.05 1.00 0.98 0.97 0.95 0.93 0.91 0.87 0.82 0.74 0.72 0.73 0.74 0.75 0.77 0.79 0.79 0.79 0.78 0.77 0.76 0.76 0.75
0.86 0.91 0.91 0.91 1.02 1.13 1.22 1.29 1.30 1.27 1.27 1.28 1.29 1.28 1.28 1.25 1.19 1.20 1.20 1.19 1.18 1.15 1.14 1.12 1.11 1.10 1.10 1.09 1.05 1.04 1.00 0.98 0.96 0.91 0.87 0.85 0.84 0.80 0.79 0.78 0.75 0.72 0.73 0.74 0.77 0.78 0.77 0.76 0.73 0.72 0.72 0.72
0.86 0.86 0.91 0.91 0.92 0.96 1.02 1.17 1.14 1.17 1.19 1.21 1.23 1.25 1.24 1.19 1.18 1.17 1.17 1.17 1.17 1.13 1.13 1.11 1.10 1.09 1.09 1.07 1.05 1.05 1.00 0.96 0.95 0.91 0.85 0.82 0.81 0.75 0.77 0.78 0.79 0.79 0.79 0.79 0.77 0.77 0.77 0.76 0.75 0.72 0.71 0.69
0.83 0.87 0.88 0.90 0.89 0.89 0.92 1.02 1.12 1.15 1.26 1.25 1.24 1.22 1.19 1.17 1.16 1.15 1.14 1.14 1.14 1.11 1.12 1.10 1.10 1.10 1.08 1.06 1.04 1.04 1.02 0.96 0.92 0.89 0.84 0.81 0.79 0.73 0.75 0.77 0.78 0.79 0.80 0.81 0.81 0.77 0.76 0.76 0.76 0.77 0.77 0.77
0.75 0.84 0.89 0.91 0.88 0.84 0.89 0.88 0.96 1.11 1.15 1.21 1.22 1.18 1.15 1.16 1.14 1.15 1.14 1.13 1.12 1.10 1.09 1.10 1.09 1.09 1.08 1.07 1.03 1.01 0.98 0.96 0.90 0.86 0.82 0.80 0.78 0.75 0.74 0.75 0.77 0.78 0.79 0.81 0.81 0.81 0.78 0.77 0.76 0.77 0.79 0.79
0.70 0.76 0.85 0.88 0.95 0.90 0.85 0.87 0.92 0.99 1.08 1.11 1.18 1.17 1.13 1.07 1.13 1.15 1.13 1.11 1.10 1.06 1.06 1.07 1.08 1.08 1.06 1.06 1.04 0.99 0.94 0.92 0.88 0.83 0.78 0.76 0.76 0.77 0.76 0.76 0.77 0.78 0.78 0.79 0.80 0.81 0.80 0.79 0.78 0.79 0.79 0.80
0.65 0.71 0.80 0.87 0.95 1.00 0.90 0.84 0.90 0.94 0.93 0.96 1.03 1.06 1.08 1.10 1.12 1.08 1.09 1.09 1.06 1.04 1.04 1.05 1.06 1.06 1.07 1.05 1.04 1.00 0.94 0.90 0.86 0.83 0.79 0.72 0.72 0.73 0.73 0.74 0.77 0.79 0.79 0.79 0.79 0.80 0.81 0.80 0.80 0.81 0.83 0.83
0.62 0.66 0.76 0.85 0.94 0.99 1.00 0.94 0.84 0.88 0.92 0.95 1.05 1.10 1.09 1.05 1.02 1.03 1.06 1.09 1.09 1.05 1.04 1.03 1.05 1.06 1.05 1.04 1.05 1.03 0.96 0.89 0.85 0.82 0.79 0.73 0.67 0.67 0.68 0.69 0.71 0.72 0.73 0.75 0.77 0.78 0.79 0.80 0.78 0.79 0.81 0.82
0.60 0.64 0.69 0.81 0.91 0.96 0.98 0.99 0.92 0.84 0.84 0.91 0.93 0.98 1.03 1.02 1.05 1.07 1.08 1.06 1.06 1.05 1.04 1.04 1.04 1.03 1.04 1.04 1.04 1.03 0.99 0.92 0.85 0.81 0.77 0.71 0.67 0.64 0.63 0.63 0.63 0.64 0.64 0.64 0.66 0.69 0.72 0.76 0.77 0.78 0.79 0.79
0.57 0.62 0.63 0.74 0.87 0.96 0.98 0.96 0.94 0.90 0.85 0.86 0.90 0.97 1.04 1.07 1.07 1.10 1.10 1.08 1.04 1.01 1.03 1.03 1.03 1.02 1.01 1.03 1.03 1.02 0.99 0.93 0.86 0.80 0.75 0.71 0.66 0.62 0.60 0.58 0.58 0.58 0.58 0.59 0.59 0.61 0.64 0.69 0.74 0.77 0.78 0.79
0.56 0.59 0.63 0.65 0.75 0.83 0.88 0.88 0.88 0.87 0.86 0.84 0.88 0.91 0.95 0.98 1.01 1.04 1.07 1.07 1.04 1.00 1.01 1.01 1.02 1.02 1.01 1.01 1.01 0.99 0.97 0.94 0.88 0.83 0.77 0.73 0.68 0.62 0.59 0.57 0.57 0.56 0.55 0.54 0.54 0.55 0.57 0.59 0.66 0.72 0.74 0.77
0.53 0.56 0.60 0.63 0.68 0.73 0.81 0.85 0.84 0.85 0.86 0.84 0.81 0.83 0.89 0.97 1.00 1.00 1.00 1.00 1.02 1.01 1.00 0.99 0.99 1.01 1.01 1.00 0.99 0.97 0.95 0.92 0.88 0.85 0.80 0.76 0.70 0.61 0.56 0.54 0.53 0.53 0.51 0.51 0.51 0.52 0.53 0.54 0.57 0.61 0.67 0.70
0.50 0.51 0.55 0.60 0.64 0.69 0.71 0.78 0.83 0.85 0.83 0.83 0.81 0.80 0.77 0.84 0.91 0.95 0.98 1.00 1.00 0.98 0.98 0.96 0.98 0.99 1.00 1.01 0.98 0.96 0.94 0.91 0.89 0.86 0.82 0.78 0.72 0.62 0.55 0.52 0.50 0.49 0.48 0.47 0.47 0.47 0.48 0.50 0.53 0.55 0.60 0.65
0.46 0.49 0.51 0.52 0.59 0.64 0.65 0.67 0.76 0.78 0.77 0.79 0.80 0.79 0.78 0.77 0.81 0.87 0.91 0.94 0.97 0.98 0.98 0.97 0.96 0.97 0.98 0.98 0.97 0.95 0.92 0.89 0.88 0.85 0.83 0.78 0.74 0.65 0.57 0.54 0.52 0.50 0.48 0.46 0.44 0.43 0.43 0.43 0.45 0.48 0.52 0.59
0.38 0.42 0.48 0.49 0.51 0.55 0.58 0.62 0.63 0.68 0.71 0.75 0.77 0.78 0.79 0.79 0.76 0.75 0.80 0.86 0.90 0.90 0.92 0.94 0.95 0.95 0.95 0.95 0.94 0.92 0.90 0.87 0.86 0.84 0.82 0.78 0.74 0.68 0.62 0.58 0.56 0.53 0.50 0.47 0.45 0.42 0.40 0.39 0.39 0.39 0.42 0.47
0.30 0.36 0.40 0.46 0.46 0.47 0.50 0.57 0.59 0.62 0.69 0.73 0.74 0.75 0.77 0.79 0.79 0.78 0.76 0.78 0.82 0.84 0.87 0.89 0.90 0.91 0.92 0.91 0.91 0.88 0.87 0.85 0.84 0.82 0.80 0.77 0.73 0.69 0.66 0.63 0.60 0.57 0.53 0.51 0.48 0.45 0.42 0.40 0.38 0.37 0.37 0.38
0.23 0.28 0.33 0.35 0.42 0.43 0.44 0.47 0.53 0.56 0.66 0.69 0.69 0.70 0.72 0.73 0.76 0.78 0.77 0.76 0.75 0.76 0.82 0.86 0.87 0.87 0.86 0.88 0.87 0.86 0.85 0.86 0.85 0.84 0.82 0.78 0.76 0.73 0.69 0.66 0.65 0.63 0.60 0.55 0.50 0.46 0.43 0.41 0.39 0.38 0.36 0.35
0.22 0.22 0.25 0.29 0.31 0.36 0.40 0.38 0.44 0.48 0.52 0.59 0.65 0.70 0.72 0.73 0.75 0.75 0.75 0.76 0.77 0.76 0.75 0.79 0.82 0.81 0.80 0.82 0.84 0.85 0.85 0.85 0.83 0.81 0.80 0.78 0.74 0.75 0.72 0.70 0.71 0.70 0.69 0.60 0.52 0.45 0.42 0.41 0.39 0.38 0.37 0.34
0.20 0.21 0.22 0.24 0.26 0.29 0.32 0.34 0.34 0.40 0.43 0.46 0.51 0.59 0.64 0.65 0.71 0.74 0.74 0.74 0.76 0.76 0.74 0.73 0.74 0.76 0.78 0.80 0.80 0.79 0.79 0.80 0.81 0.79 0.77 0.76 0.73 0.71 0.72 0.72 0.73 0.72 0.72 0.65 0.59 0.52 0.45 0.41 0.37 0.36 0.35 0.34
0.17 0.18 0.19 0.20 0.22 0.23 0.26 0.29 0.31 0.30 0.34 0.37 0.39 0.44 0.50 0.55 0.59 0.65 0.70 0.72 0.73 0.74 0.74 0.74 0.72 0.72 0.73 0.74 0.75 0.75 0.73 0.73 0.74 0.77 0.76 0.75 0.74 0.72 0.67 0.68 0.70 0.72 0.72 0.69 0.64 0.54 0.50 0.45 0.41 0.36 0.34 0.34
0.17 0.16 0.16 0.16 0.17 0.19 0.20 0.22 0.26 0.27 0.27 0.31 0.32 0.32 0.36 0.40 0.47 0.52 0.57 0.65 0.69 0.70 0.71 0.72 0.72 0.72 0.72 0.72 0.72 0.71 0.70 0.69 0.70 0.72 0.72 0.73 0.72 0.71 0.69 0.67 0.68 0.69 0.71 0.70 0.69 0.61 0.53 0.47 0.42 0.39 0.39 0.37
0.17 0.16 0.16 0.15 0.15 0.15 0.15 0.16 0.18 0.21 0.24 0.25 0.27 0.29 0.32 0.34 0.36 0.38 0.45 0.51 0.57 0.62 0.65 0.68 0.69 0.69 0.69 0.69 0.70 0.70 0.68 0.68 0.67 0.67 0.68 0.69 0.68 0.67 0.68 0.66 0.66 0.66 0.70 0.69 0.66 0.63 0.60 0.55 0.48 0.45 0.43 0.39
0.17 0.16 0.16 0.16 0.15 0.15 0.15 0.15 0.15 0.18 0.20 0.21 0.23 0.25 0.28 0.30 0.31 0.32 0.34 0.40 0.44 0.48 0.54 0.60 0.64 0.67 0.67 0.68 0.68 0.69 0.68 0.65 0.64 0.65 0.65 0.66 0.65 0.65 0.63 0.62 0.60 0.63 0.65 0.66 0.64 0.64 0.62 0.59 0.57 0.52 0.45 0.40